# Wetter Temperatur Luftdruck Luftfeuchtigkeit Sichtweite Windgeschwindigkeit Windrichtung Zeit
1 Rain 13 1020 92 6000 1.54 250 08:40 02.10.2022
2 Clouds 13 1020 91 10000 1.03 0 07:29 02.10.2022
3 Clouds 13 1020 93 10000 1.03 0 02:54 02.10.2022
4 Rain 13 1019 93 8000 2.06 280 00:45 02.10.2022
5 Rain 13 1018 90 10000 3.6 230 23:43 01.10.2022
6 Clouds 13 1017 88 10000 4.12 240 22:31 01.10.2022
7 Rain 14 1015 86 10000 2.57 210 20:21 01.10.2022
8 Clear 15 1013 82 10000 3.6 200 17:55 01.10.2022
9 Clouds 15 1013 82 10000 4.12 220 16:30 01.10.2022
10 Clouds 12 1012 88 10000 4.63 200 14:25 01.10.2022
11 Rain 11 1012 88 10000 4.12 210 12:59 01.10.2022
12 Rain 11 1012 87 10000 4.12 220 12:29 01.10.2022
13 Rain 10 1011 88 10000 3.6 0 11:19 01.10.2022
14 Rain 10 1011 89 10000 3.6 190 10:31 01.10.2022
15 Rain 10 1011 87 10000 2.57 170 09:27 01.10.2022
16 Rain 10 1011 88 10000 2.06 160 08:57 01.10.2022
17 Clear 8 1013 92 10000 1.54 230 04:19 01.10.2022
18 Clear 7 1014 92 10000 1.54 220 03:29 01.10.2022
19 Clear 8 1013 87 10000 1.03 0 23:47 30.09.2022
20 Clouds 9 1013 88 10000 1.03 0 22:36 30.09.2022
21 Clear 9 1013 89 10000 1.02 210 21:28 30.09.2022
22 Clear 10 1013 84 10000 1.03 0 20:43 30.09.2022
23 Clear 12 1012 79 10000 0.51 0 19:43 30.09.2022
24 Clear 17 1012 57 10000 1.54 0 17:31 30.09.2022
25 Clear 16 1011 54 10000 2.06 0 15:56 30.09.2022
26 Clear 15 1011 69 10000 1.54 0 13:30 30.09.2022
27 Clouds 12 1011 88 10000 1.03 0 11:57 30.09.2022
28 Fog 9 1010 91 250 1.03 0 10:30 30.09.2022
29 Fog 6 1009 94 300 1.03 0 08:26 30.09.2022
30 Clear 6 1008 94 10000 1.03 60 05:54 30.09.2022
31 Clear 7 1007 92 10000 1.54 320 02:36 30.09.2022
32 Clouds 9 1007 90 10000 0.65 117 22:40 29.09.2022
33 Clouds 10 1005 85 10000 2.06 330 21:28 29.09.2022
34 Clouds 10 1006 87 10000 0.78 120 20:57 29.09.2022
35 Clear 13 1003 74 10000 2.06 20 18:45 29.09.2022
36 Clouds 14 1003 69 10000 1.03 0 17:24 29.09.2022
37 Clear 14 1002 67 10000 1.03 0 16:28 29.09.2022
38 Clear 14 1002 61 10000 0.51 170 15:36 29.09.2022
39 Clouds 14 1002 67 10000 0.51 0 14:29 29.09.2022
40 Rain 9 1001 91 10000 0.51 0 10:29 29.09.2022
41 Mist 6 1000 93 10000 1.03 100 06:58 29.09.2022
42 Clear 7 1001 92 10000 1.03 50 02:49 29.09.2022
43 Clear 8 1001 91 10000 1.03 0 23:56 28.09.2022
44 Clear 8 1001 90 10000 0.51 0 22:44 28.09.2022
45 Clear 9 1001 89 10000 1.54 210 21:29 28.09.2022
46 Clear 10 1000 85 10000 2.06 220 20:24 28.09.2022
47 Clear 12 999 72 10000 2.06 0 18:42 28.09.2022
48 Clouds 13 999 67 10000 4.63 270 15:32 28.09.2022
49 Clouds 12 999 79 10000 3.6 290 13:27 28.09.2022
50 Clouds 10 998 86 10000 5.14 300 11:18 28.09.2022
51 Rain 9 997 90 10000 2.06 300 09:18 28.09.2022
52 Rain 9 996 90 7000 4.63 290 07:39 28.09.2022
53 Clouds 9 997 92 10000 3.6 190 04:34 28.09.2022
54 Clouds 9 1000 92 10000 1.54 110 01:36 28.09.2022
55 Clouds 8 1002 92 10000 3.09 180 23:27 27.09.2022
56 Clouds 9 1003 86 10000 3.09 230 21:47 27.09.2022
57 Drizzle 9 1002 87 10000 3.6 230 20:44 27.09.2022
58 Clear 10 1002 82 10000 5.66 240 19:48 27.09.2022
59 Clouds 10 1003 87 10000 5.56 252 18:49 27.09.2022
60 Clouds 10 1001 81 10000 6.17 240 17:46 27.09.2022
61 Clouds 10 1001 87 10000 4.12 230 15:59 27.09.2022
62 Rain 10 1001 85 10000 5.66 250 14:59 27.09.2022
63 Clouds 12 1002 77 10000 5.14 230 13:28 27.09.2022
64 Clouds 11 1002 77 10000 5.14 250 12:22 27.09.2022
65 Rain 10 1001 87 10000 5.14 250 09:46 27.09.2022
66 Clouds 10 999 90 10000 3.09 240 07:38 27.09.2022
67 Rain 10 999 91 10000 2.57 200 02:59 27.09.2022
68 Rain 11 999 87 10000 2.57 0 01:35 27.09.2022
69 Rain 13 1001 79 10000 7.2 230 23:38 26.09.2022
70 Clouds 13 1001 79 10000 6.17 230 23:18 26.09.2022
71 Rain 13 1002 77 10000 1.03 0 20:48 26.09.2022
72 Clouds 13 1004 74 10000 2.57 200 19:34 26.09.2022
73 Rain 14 1004 67 10000 3.6 220 18:35 26.09.2022
74 Rain 15 1005 65 10000 6.69 240 16:58 26.09.2022
75 Clouds 16 1006 63 10000 3.6 230 14:48 26.09.2022
76 Clouds 14 1008 78 10000 2.57 0 11:37 26.09.2022
77 Clear 13 1008 86 10000 2.06 200 10:41 26.09.2022
78 Clear 12 1009 87 10000 2.57 200 10:22 26.09.2022
79 Clear 12 1009 89 10000 2.57 200 09:56 26.09.2022
80 Clear 11 1009 90 10000 1.54 0 09:25 26.09.2022
81 Clear 10 1009 90 10000 0.51 0 08:58 26.09.2022
82 Clear 11 1012 93 10000 1.03 0 02:59 26.09.2022
83 Clouds 11 1012 93 10000 2.06 240 01:52 26.09.2022
84 Clouds 12 1012 93 10000 3.09 290 23:20 25.09.2022
85 Clouds 13 1012 91 10000 3.6 300 21:44 25.09.2022
86 Clouds 13 1014 91 10000 1.92 302 20:57 25.09.2022
87 Clouds 13 1014 91 10000 1.96 299 20:33 25.09.2022
88 Clouds 14 1011 84 10000 4.63 320 18:44 25.09.2022
89 Clouds 15 1011 81 10000 4.12 310 18:24 25.09.2022
90 Clouds 16 1011 83 10000 3.6 330 16:59 25.09.2022
91 Clouds 15 1011 83 10000 2.57 250 15:50 25.09.2022
92 Clouds 15 1012 87 10000 3.6 320 14:35 25.09.2022
93 Clouds 15 1012 84 10000 2.57 280 13:58 25.09.2022
94 Clouds 13 1012 92 10000 1.03 0 10:38 25.09.2022
95 Rain 12 1012 92 10000 1.03 0 09:37 25.09.2022
96 Clouds 12 1012 93 10000 0.51 0 07:41 25.09.2022
97 Clouds 12 1012 92 7000 1.03 0 05:22 25.09.2022
98 Clear 13 1013 95 10000 1.03 0 23:36 24.09.2022
99 Rain 14 1013 92 10000 0.51 0 21:19 24.09.2022
100 Clear 15 1012 94 10000 1.03 0 19:45 24.09.2022
101 Clear 15 1012 91 10000 1.03 0 19:20 24.09.2022
102 Clouds 16 1012 89 10000 1.03 0 16:51 24.09.2022
103 Rain 16 1013 87 10000 0.51 0 15:23 24.09.2022
104 Rain 16 1013 88 10000 0.51 0 15:23 24.09.2022
105 Rain 17 1013 86 10000 1.03 0 14:37 24.09.2022
106 Rain 16 1013 84 10000 1.54 180 13:22 24.09.2022
107 Rain 16 1013 80 10000 2.06 0 12:23 24.09.2022
108 Rain 12 1013 90 10000 1.03 0 09:59 24.09.2022
109 Rain 11 1012 91 10000 0.51 0 08:58 24.09.2022
110 Rain 10 1012 91 10000 0.51 70 07:41 24.09.2022
111 Clear 10 1013 91 10000 0.51 0 04:55 24.09.2022
112 Clouds 10 1013 93 10000 1.03 30 04:21 24.09.2022
113 Clear 12 1015 87 10000 0.51 260 23:18 23.09.2022
114 Clear 13 1015 85 10000 0.51 0 21:40 23.09.2022
115 Clear 13 1015 83 10000 1.54 330 21:22 23.09.2022
116 Clear 14 1015 81 10000 1.03 0 20:45 23.09.2022
117 Clear 16 1015 72 10000 2.06 330 19:20 23.09.2022
118 Clear 16 1015 72 10000 2.06 330 19:20 23.09.2022
119 Clouds 19 1016 57 10000 2.57 20 16:48 23.09.2022
120 Clouds 19 1017 59 10000 1.03 0 13:40 23.09.2022
121 Clear 12 1018 79 10000 1.03 0 10:18 23.09.2022
122 Clear 4 1018 93 10000 0.51 160 07:30 23.09.2022
123 Clear 6 1019 90 10000 1.54 290 02:25 23.09.2022
124 Clear 8 1020 86 10000 1.03 60 23:29 22.09.2022
125 Clear 9 1021 83 10000 1.03 80 22:28 22.09.2022
126 Clear 11 1021 79 10000 2.06 90 21:30 22.09.2022
127 Clear 12 1020 69 10000 2.06 90 20:21 22.09.2022
128 Clear 16 1020 53 10000 3.6 80 18:57 22.09.2022
129 Clear 18 1021 44 10000 5.14 80 15:23 22.09.2022
130 Clear 12 1023 77 10000 1.54 70 10:48 22.09.2022
131 Clear 10 1023 83 10000 1.54 70 10:19 22.09.2022
132 Clear 4 1023 90 10000 0.51 210 07:55 22.09.2022
133 Clear 4 1023 88 10000 1.54 290 04:56 22.09.2022
134 Clear 6 1024 87 10000 1.03 0 01:19 22.09.2022
135 Clear 8 1024 81 10000 1.03 340 22:29 21.09.2022
136 Clear 10 1024 75 10000 0.51 0 21:18 21.09.2022
137 Clear 15 1023 50 10000 4.63 80 18:51 21.09.2022
138 Clouds 16 1023 46 10000 4.63 50 17:44 21.09.2022
139 Clouds 17 1024 55 10000 5.14 40 15:47 21.09.2022
140 Clouds 16 1025 60 10000 4.12 80 13:54 21.09.2022
141 Clear 14 1025 75 10000 2.06 70 11:43 21.09.2022
142 Clear 13 1026 77 10000 2.06 80 11:21 21.09.2022
143 Clear 9 1025 88 10000 1.03 0 09:40 21.09.2022
144 Clear 7 1025 87 10000 0.51 0 08:43 21.09.2022
145 Clear 5 1024 93 10000 1.54 320 04:57 21.09.2022
146 Clear 6 1024 93 10000 0.51 0 02:40 21.09.2022
147 Clear 7 1024 93 10000 1.54 330 01:58 21.09.2022
148 Clear 8 1024 93 10000 0.51 0 00:20 21.09.2022
149 Clouds 10 1024 76 10000 1.54 300 21:53 20.09.2022
150 Clear 11 1023 80 10000 2.06 280 20:33 20.09.2022
151 Clear 13 1023 70 10000 3.09 320 19:18 20.09.2022
152 Clouds 15 1022 59 10000 4.12 300 15:57 20.09.2022
153 Clear 14 1023 62 10000 2.57 330 14:29 20.09.2022
154 Clouds 13 1023 69 10000 3.6 330 12:32 20.09.2022
155 Clouds 9 1022 91 10000 1.03 0 08:51 20.09.2022
156 Clouds 9 1022 91 10000 1.54 250 08:24 20.09.2022
157 Clouds 9 1021 90 10000 1.03 0 04:40 20.09.2022
158 Clear 9 1021 91 10000 1.54 220 02:34 20.09.2022
159 Clouds 10 1021 90 10000 1.54 240 22:50 19.09.2022
160 Clear 11 1021 90 10000 1.03 0 21:38 19.09.2022
161 Clouds 11 1021 91 10000 0.51 0 20:45 19.09.2022
162 Clouds 12 1021 88 10000 2.06 0 19:27 19.09.2022
163 Rain 13 1020 84 10000 3.09 340 17:39 19.09.2022
164 Clouds 13 1021 77 10000 4.12 260 13:56 19.09.2022
165 Clouds 12 1021 81 10000 5.14 270 12:48 19.09.2022
166 Clouds 11 1020 86 10000 6.17 270 10:47 19.09.2022
167 Clouds 9 1019 89 10000 4.63 250 08:51 19.09.2022
168 Clear 8 1018 90 10000 3.6 250 05:42 19.09.2022
169 Drizzle 9 1016 88 10000 7.72 270 01:53 19.09.2022
170 Rain 11 1015 82 10000 5.14 280 23:22 18.09.2022
171 Clouds 12 1015 70 10000 2.57 220 21:34 18.09.2022
172 Rain 13 1015 68 10000 2.06 220 20:23 18.09.2022
173 Clouds 14 1016 67 10000 5.14 250 17:54 18.09.2022
174 Clouds 14 1016 65 10000 7.72 260 17:35 18.09.2022
175 Clouds 15 1016 62 10000 6.69 240 15:36 18.09.2022
176 Clouds 14 1017 72 10000 5.14 230 13:47 18.09.2022
177 Clouds 12 1018 83 10000 5.66 240 12:35 18.09.2022
178 Clouds 11 1018 88 10000 6.17 250 10:55 18.09.2022
179 Rain 10 1017 88 10000 2.57 240 03:42 18.09.2022
180 Rain 9 1017 90 10000 4.63 250 01:24 18.09.2022
181 Clear 9 1017 90 10000 3.6 280 00:23 18.09.2022
182 Rain 10 1016 87 10000 2.57 260 21:40 17.09.2022
183 Rain 12 1015 82 10000 7.2 260 19:43 17.09.2022
184 Rain 12 1015 82 10000 7.2 260 19:43 17.09.2022
185 Clouds 13 1015 76 10000 5.66 260 18:57 17.09.2022
186 Clouds 13 1015 76 10000 5.66 260 18:57 17.09.2022
187 Clouds 13 1015 78 10000 5.66 250 16:18 17.09.2022
188 Clouds 13 1015 72 10000 6.69 280 13:56 17.09.2022
189 Clouds 10 1015 90 10000 4.63 280 10:57 17.09.2022
190 Rain 10 1014 85 10000 6.17 270 09:27 17.09.2022
191 Clouds 9 1013 91 10000 4.12 280 06:25 17.09.2022
192 Clouds 11 1012 90 10000 3.6 260 00:20 17.09.2022
193 Clear 11 1012 89 10000 1.54 270 22:52 16.09.2022
194 Clear 12 1012 88 10000 1.03 0 21:22 16.09.2022
195 Rain 14 1011 78 10000 4.63 250 19:50 16.09.2022
196 Clouds 17 1011 67 10000 3.6 250 16:56 16.09.2022
197 Clear 15 1011 72 10000 5.14 260 15:26 16.09.2022
198 Clouds 14 1012 86 10000 3.09 260 13:57 16.09.2022
199 Clouds 13 1012 91 10000 0.51 0 11:42 16.09.2022
200 Rain 13 1011 89 9000 1.54 260 08:26 16.09.2022
201 Rain 13 1010 87 10000 1.03 0 07:19 16.09.2022
202 Clouds 13 1010 85 10000 1.03 0 06:47 16.09.2022
203 Clear 13 1011 88 10000 2.06 250 02:40 16.09.2022
204 Clear 14 1011 90 10000 1.54 250 22:56 15.09.2022
205 Clouds 16 1010 87 10000 1.54 250 21:18 15.09.2022
206 Clouds 16 1010 83 10000 2.57 250 19:49 15.09.2022
207 Clouds 17 1010 76 10000 3.09 260 18:29 15.09.2022
208 Clouds 17 1009 77 10000 3.09 250 17:32 15.09.2022
209 Clouds 17 1009 85 10000 4.12 290 16:43 15.09.2022
210 Clouds 15 1008 90 6000 5.14 320 14:36 15.09.2022
211 Rain 18 1007 88 10000 3.09 220 12:21 15.09.2022
212 Rain 18 1007 89 10000 2.57 220 10:21 15.09.2022
213 Rain 18 1006 90 10000 4.12 220 07:51 15.09.2022
214 Clouds 18 1007 88 10000 1.54 230 03:56 15.09.2022
215 Rain 18 1006 90 10000 1.54 0 01:26 15.09.2022
216 Clear 19 1006 88 10000 1.03 0 21:54 14.09.2022
217 Clear 19 1006 85 10000 4.12 230 19:55 14.09.2022
218 Clear 20 1006 85 10000 3.09 0 19:20 14.09.2022
219 Rain 21 1006 85 10000 4.63 240 16:57 14.09.2022
220 Rain 21 1007 81 10000 6.69 240 15:49 14.09.2022
221 Rain 26 1006 64 10000 5.66 240 14:33 14.09.2022
222 Clear 23 1008 83 10000 4.12 230 11:39 14.09.2022
223 Clouds 20 1007 86 10000 3.6 240 09:48 14.09.2022
224 Clouds 18 1007 88 10000 1.54 0 07:38 14.09.2022
225 Clouds 18 1007 89 10000 1.54 130 06:47 14.09.2022
226 Rain 19 1008 86 10000 3.09 280 04:33 14.09.2022
227 Clear 20 1008 75 10000 0.51 0 01:48 14.09.2022
228 Clouds 20 1009 75 10000 0.51 0 01:27 14.09.2022
229 Rain 20 1009 76 10000 1.54 120 00:50 14.09.2022
230 Clear 20 1009 74 10000 1.03 0 23:54 13.09.2022
231 Rain 20 1009 74 10000 0.51 60 23:36 13.09.2022
232 Rain 20 1009 73 10000 0.51 60 23:18 13.09.2022
233 Clouds 20 1009 71 10000 0.82 175 22:20 13.09.2022
234 Clear 24 1009 56 10000 1.03 70 19:52 13.09.2022
235 Clear 27 1010 45 10000 2.06 80 18:18 13.09.2022
236 Clear 28 1011 35 10000 1.03 0 15:55 13.09.2022
237 Clear 27 1012 40 10000 1.03 0 14:36 13.09.2022
238 Clear 27 1012 41 10000 1.03 110 14:36 13.09.2022
239 Clear 26 1012 47 10000 1.03 0 13:20 13.09.2022
240 Clear 15 1013 86 10000 1.03 0 09:23 13.09.2022
241 Clear 12 1013 91 10000 1.03 0 06:24 13.09.2022
242 Clear 15 1014 81 10000 1.03 360 00:23 13.09.2022
243 Clear 16 1014 76 10000 0.51 0 22:50 12.09.2022
244 Clear 17 1014 75 10000 0.51 0 22:18 12.09.2022
245 Clear 19 1014 68 10000 1.54 120 20:39 12.09.2022
246 Clear 23 1014 44 10000 1.03 0 18:51 12.09.2022
247 Clear 25 1015 41 10000 1.54 90 17:25 12.09.2022
248 Clear 24 1016 45 10000 1.54 0 14:39 12.09.2022
249 Clear 20 1017 76 10000 1.54 70 11:31 12.09.2022
250 Clear 16 1017 82 10000 1.03 0 09:56 12.09.2022
251 Clear 11 1017 94 10000 0.51 0 04:57 12.09.2022
252 Clear 11 1018 94 10000 0.51 270 04:27 12.09.2022
253 Clear 14 1019 90 10000 1.54 300 23:47 11.09.2022
254 Clear 14 1019 88 10000 0.51 0 22:43 11.09.2022
255 Clear 17 1019 81 10000 1.03 0 20:53 11.09.2022
256 Clear 18 1019 76 10000 1.03 170 20:21 11.09.2022
257 Clouds 20 1019 65 10000 1.03 0 19:26 11.09.2022
258 Clouds 21 1019 66 10000 1.03 100 18:37 11.09.2022
259 Clouds 21 1019 64 10000 2.57 0 16:56 11.09.2022
260 Clouds 21 1020 67 10000 2.57 340 14:56 11.09.2022
261 Clouds 19 1020 76 10000 4.12 300 12:54 11.09.2022
262 Clouds 16 1019 89 10000 2.06 240 09:45 11.09.2022
263 Clouds 15 1018 91 10000 3.09 250 07:43 11.09.2022
264 Clouds 15 1017 89 10000 3.09 230 03:33 11.09.2022
265 Clouds 15 1017 89 10000 4.63 230 23:45 10.09.2022
266 Clear 16 1017 83 10000 2.57 0 21:35 10.09.2022
267 Clouds 16 1016 87 10000 4.12 250 19:58 10.09.2022
268 Clouds 16 1016 87 10000 4.12 250 19:40 10.09.2022
269 Clouds 16 1016 88 10000 3.6 260 19:20 10.09.2022
270 Clouds 18 1015 74 10000 7.2 250 16:58 10.09.2022
271 Clear 19 1016 68 10000 5.66 250 15:32 10.09.2022
272 Clouds 18 1016 80 10000 4.12 240 12:55 10.09.2022
273 Clouds 17 1016 83 10000 3.09 0 11:36 10.09.2022
274 Clouds 16 1016 89 10000 2.57 220 10:26 10.09.2022
275 Clouds 14 1015 93 10000 2.57 230 08:37 10.09.2022
276 Clouds 14 1015 90 10000 1.54 210 08:18 10.09.2022
277 Rain 14 1015 91 10000 1.03 0 03:42 10.09.2022
278 Clear 15 1015 84 10000 1.03 0 23:35 09.09.2022
279 Clouds 15 1015 83 10000 2.26 214 22:22 09.09.2022
280 Clear 16 1014 72 10000 1.03 0 20:49 09.09.2022
281 Clouds 17 1014 67 10000 4.12 260 19:52 09.09.2022
282 Clouds 19 1014 61 10000 3.09 230 19:22 09.09.2022
283 Clouds 22 1013 52 10000 6.17 240 16:52 09.09.2022
284 Clear 20 1014 65 10000 5.66 250 14:42 09.09.2022
285 Clouds 22 1014 59 10000 4.12 0 13:18 09.09.2022
286 Clear 19 1014 73 10000 2.57 240 10:37 09.09.2022
287 Clouds 14 1013 89 10000 1.54 190 07:25 09.09.2022
288 Clear 14 1013 90 10000 0.51 280 03:31 09.09.2022
289 Clear 15 1013 85 10000 0.51 0 22:33 08.09.2022
290 Clear 16 1013 82 10000 1.54 210 21:51 08.09.2022
291 Clear 18 1013 72 10000 2.57 270 20:46 08.09.2022
292 Clear 19 1013 68 10000 3.09 250 20:24 08.09.2022
293 Clear 22 1012 56 10000 4.63 250 18:34 08.09.2022
294 Clouds 23 1013 55 10000 4.63 250 16:49 08.09.2022
295 Clouds 22 1013 66 10000 5.14 240 14:50 08.09.2022
296 Clouds 20 1013 71 10000 2.57 250 13:28 08.09.2022
297 Clouds 20 1013 74 10000 3.09 230 12:39 08.09.2022
298 Clouds 19 1012 81 10000 2.57 240 10:59 08.09.2022
299 Clear 17 1012 90 10000 2.57 210 09:26 08.09.2022
300 Rain 17 1011 90 10000 2.06 200 06:53 08.09.2022
301 Rain 18 1011 92 10000 0.51 0 03:23 08.09.2022
302 Rain 19 1011 90 10000 1.03 0 02:36 08.09.2022
303 Rain 19 1011 90 10000 1.03 0 02:18 08.09.2022
304 Clear 20 1013 83 10000 1.03 0 22:58 07.09.2022
305 Clear 21 1013 77 10000 2.06 280 21:44 07.09.2022
306 Clouds 22 1013 78 10000 3.09 290 21:21 07.09.2022
307 Rain 24 1013 59 10000 3.09 290 20:25 07.09.2022
308 Clear 27 1013 50 10000 4.12 350 18:54 07.09.2022
309 Clear 28 1014 51 10000 2.06 0 15:51 07.09.2022
310 Clear 24 1016 71 10000 3.09 240 10:52 07.09.2022
311 Clear 23 1016 76 10000 2.57 230 10:32 07.09.2022
312 Clear 18 1015 86 10000 0.51 0 08:23 07.09.2022
313 Clouds 17 1015 90 10000 1.25 211 05:33 07.09.2022
314 Clear 19 1016 87 10000 1.54 130 00:27 07.09.2022
315 Clouds 20 1016 84 10000 0.51 0 21:48 06.09.2022
316 Clear 20 1015 86 10000 1.55 140 21:30 06.09.2022
317 Clear 25 1016 65 10000 2.06 160 19:38 06.09.2022
318 Clear 26 1016 67 10000 1.03 0 18:34 06.09.2022
319 Rain 27 1017 59 10000 3.09 340 17:37 06.09.2022
320 Clouds 27 1017 61 10000 2.06 360 16:44 06.09.2022
321 Rain 28 1017 55 10000 1.54 150 15:55 06.09.2022
322 Clear 27 1018 61 10000 3.09 220 13:47 06.09.2022
323 Clear 27 1018 62 10000 3.09 0 13:27 06.09.2022
324 Clear 27 1018 61 10000 3.6 0 12:56 06.09.2022
325 Clear 23 1019 75 10000 1.54 140 10:55 06.09.2022
326 Clear 18 1019 88 10000 1.54 120 09:18 06.09.2022
327 Clear 17 1019 90 10000 1.03 0 07:52 06.09.2022
328 Clear 17 1019 90 10000 1.03 0 07:52 06.09.2022
329 Clouds 17 1019 90 10000 1.54 0 06:18 06.09.2022
330 Clear 17 1019 83 10000 1.03 0 00:54 06.09.2022
331 Clear 20 1019 79 10000 1.03 330 22:49 05.09.2022
332 Clear 21 1019 71 10000 0.51 0 21:38 05.09.2022
333 Clear 24 1019 61 10000 1.54 140 20:18 05.09.2022
334 Clear 27 1019 48 10000 1.03 0 18:53 05.09.2022
335 Clear 28 1019 44 10000 1.03 0 18:24 05.09.2022
336 Clear 29 1019 40 10000 1.54 100 17:50 05.09.2022
337 Clear 29 1020 40 10000 1.54 0 15:53 05.09.2022
338 Clear 29 1021 40 10000 2.06 0 14:40 05.09.2022
339 Clear 27 1021 53 10000 1.54 0 12:51 05.09.2022
340 Clear 22 1022 73 10000 1.03 0 10:37 05.09.2022
341 Clear 17 1022 85 10000 0.51 0 08:45 05.09.2022
342 Clear 14 1021 90 10000 1.03 260 03:47 05.09.2022
343 Clear 16 1021 86 10000 0.51 0 00:30 05.09.2022
344 Clear 19 1021 80 10000 1.54 300 22:29 04.09.2022
345 Clear 19 1021 78 10000 1.03 0 21:55 04.09.2022
346 Clear 22 1020 63 10000 1.54 80 20:21 04.09.2022
347 Clear 26 1020 48 10000 1.03 0 18:35 04.09.2022
348 Clear 27 1020 46 10000 2.06 30 17:31 04.09.2022
349 Clouds 27 1020 50 10000 1.54 0 15:43 04.09.2022
350 Clear 26 1020 54 10000 1.54 0 14:25 04.09.2022
351 Clouds 24 1021 68 10000 1.54 220 12:40 04.09.2022
352 Clear 21 1020 82 10000 1.03 0 10:59 04.09.2022
353 Clear 17 1019 69 10000 1.03 0 09:34 04.09.2022
354 Fog 14 1018 77 900 0.51 0 06:35 04.09.2022
355 Clear 15 1017 92 10000 1.03 0 03:18 04.09.2022
356 Clear 17 1016 89 10000 1.54 40 22:53 03.09.2022
357 Clear 18 1015 90 10000 0.51 0 21:42 03.09.2022
358 Clear 18 1015 90 10000 1.03 70 21:22 03.09.2022
359 Clear 21 1014 79 10000 1.54 0 18:41 03.09.2022
360 Rain 20 1014 77 10000 1.54 0 17:19 03.09.2022
361 Clouds 22 1012 49 10000 2.59 266 15:54 03.09.2022
362 Rain 23 1013 73 10000 2.49 254 14:42 03.09.2022
363 Clouds 23 1014 65 10000 2.06 10 13:50 03.09.2022
364 Clear 21 1014 68 10000 1.03 0 11:33 03.09.2022
365 Clouds 18 1013 75 10000 1.54 60 09:37 03.09.2022
366 Clear 16 1013 77 10000 0.51 90 07:54 03.09.2022
367 Clear 16 1013 76 10000 0.51 0 04:55 03.09.2022
368 Clear 16 1013 73 10000 1.03 0 03:29 03.09.2022
369 Clear 16 1013 70 10000 1.54 90 23:49 02.09.2022
370 Clear 18 1013 68 10000 2.06 90 22:27 02.09.2022
371 Clear 19 1013 63 10000 2.57 90 20:56 02.09.2022
372 Clear 20 1013 57 10000 2.57 90 20:22 02.09.2022
373 Clear 23 1013 43 10000 4.63 80 18:51 02.09.2022
374 Clear 24 1014 43 10000 2.06 110 18:26 02.09.2022
375 Clear 24 1013 42 10000 4.63 70 17:30 02.09.2022
376 Clear 24 1014 42 10000 4.12 80 16:44 02.09.2022
377 Clear 23 1015 44 10000 4.63 100 13:51 02.09.2022
378 Clouds 21 1016 55 10000 4.55 108 11:36 02.09.2022
379 Clear 18 1017 75 10000 3.6 70 09:46 02.09.2022
380 Clear 15 1017 83 10000 1.03 0 08:49 02.09.2022
381 Clear 12 1017 89 10000 1.54 70 06:50 02.09.2022
382 Clear 12 1017 90 10000 0.51 0 06:24 02.09.2022
383 Clear 14 1017 86 10000 0.51 0 02:34 02.09.2022
384 Clear 17 1018 77 10000 1.54 50 22:24 01.09.2022
385 Clear 17 1018 79 10000 1.54 90 21:39 01.09.2022
386 Clear 18 1018 72 10000 1.03 100 21:20 01.09.2022
387 Clear 19 1018 70 10000 2.57 90 20:37 01.09.2022
388 Clear 23 1018 56 10000 3.09 90 18:38 01.09.2022
389 Clouds 23 1018 56 10000 3.6 110 16:58 01.09.2022
390 Clouds 23 1018 61 10000 3.03 85 15:34 01.09.2022
391 Clouds 22 1017 67 10000 2.7 91 13:48 01.09.2022
392 Clouds 21 1019 70 10000 3.6 80 12:57 01.09.2022
393 Clouds 20 1020 75 10000 3.09 70 11:52 01.09.2022
394 Clouds 19 1020 79 10000 2.57 90 11:29 01.09.2022
395 Clouds 17 1019 86 10000 1.54 50 09:49 01.09.2022
396 Clouds 14 1019 92 7000 1.54 300 07:50 01.09.2022
397 Clouds 13 1019 92 8000 0.51 360 05:58 01.09.2022
398 Clouds 15 1019 90 6000 1.03 0 01:31 01.09.2022
399 Clouds 15 1019 90 6000 1.03 0 01:31 01.09.2022
400 Clouds 15 1019 92 6000 1.03 0 01:31 01.09.2022
401 Clouds 15 1019 92 6000 1.03 0 01:31 01.09.2022
402 Clear 16 1019 90 10000 1.54 90 23:19 31.08.2022
403 Clear 18 1019 91 10000 0.51 0 21:20 31.08.2022
404 Clouds 20 1019 84 10000 3.09 290 19:23 31.08.2022
405 Rain 21 1019 76 10000 2.06 240 17:52 31.08.2022
406 Clouds 23 1019 65 10000 1.04 32 15:44 31.08.2022
407 Rain 19 1021 79 10000 2.06 320 13:56 31.08.2022
408 Clouds 19 1020 80 10000 1.54 290 12:20 31.08.2022
409 Rain 18 1020 85 10000 3.09 270 10:30 31.08.2022
410 Rain 18 1019 91 10000 2.06 240 08:34 31.08.2022
411 Rain 19 1018 81 8000 8.23 290 03:46 31.08.2022
412 Clear 21 1018 64 10000 2.57 90 22:44 30.08.2022
413 Clear 23 1017 61 10000 3.09 50 21:33 30.08.2022
414 Clear 24 1017 50 10000 3.6 60 20:47 30.08.2022
415 Clear 28 1017 44 10000 3.6 80 17:25 30.08.2022
416 Clear 28 1018 46 10000 3.6 80 14:42 30.08.2022
417 Clear 28 1019 47 10000 3.09 70 13:24 30.08.2022
418 Clear 25 1019 65 10000 1.54 80 11:21 30.08.2022
419 Clear 24 1020 68 10000 2.06 80 10:35 30.08.2022
420 Clear 15 1019 91 10000 1.03 0 06:50 30.08.2022
421 Clear 18 1019 84 10000 1.03 0 01:45 30.08.2022
422 Clear 18 1019 84 10000 1.03 0 01:45 30.08.2022
423 Clear 18 1019 84 10000 1.03 0 01:45 30.08.2022
424 Clear 20 1019 74 10000 1.03 0 22:54 29.08.2022
425 Clear 20 1019 72 10000 1.03 60 22:20 29.08.2022
426 Clear 22 1018 69 10000 1.54 60 21:24 29.08.2022
427 Clear 26 1018 50 10000 2.57 60 19:48 29.08.2022
428 Clear 27 1018 45 10000 3.09 50 17:50 29.08.2022
429 Clear 27 1018 46 10000 3.09 350 17:24 29.08.2022
430 Clear 28 1019 48 10000 3.6 10 16:22 29.08.2022
431 Clear 27 1019 48 10000 3.6 20 14:44 29.08.2022
432 Clear 26 1020 58 10000 3.09 100 12:52 29.08.2022
433 Clear 22 1020 74 10000 1.54 0 10:56 29.08.2022
434 Clear 19 1020 83 10000 0.51 0 09:45 29.08.2022
435 Clear 16 1020 85 10000 0.51 340 08:28 29.08.2022
436 Clear 16 1019 89 10000 1.03 0 02:49 29.08.2022
437 Clear 17 1019 87 10000 0.51 320 23:55 28.08.2022
438 Clear 19 1019 81 10000 0.51 0 22:37 28.08.2022
439 Clear 20 1018 77 10000 1.03 0 21:43 28.08.2022
440 Clear 22 1018 71 10000 2.57 40 20:54 28.08.2022
441 Clear 25 1017 62 10000 3.6 10 19:23 28.08.2022
442 Clouds 25 1017 60 10000 3.09 30 18:20 28.08.2022
443 Clouds 25 1017 61 10000 3.09 330 16:58 28.08.2022
444 Clouds 25 1018 61 10000 3.09 30 16:22 28.08.2022
445 Clouds 24 1018 65 10000 2.57 350 14:41 28.08.2022
446 Clouds 22 1018 75 10000 2.06 360 12:32 28.08.2022
447 Clouds 20 1017 89 10000 1.54 40 10:43 28.08.2022
448 Clouds 20 1017 89 10000 1.54 40 10:43 28.08.2022
449 Clouds 19 1017 89 10000 2.06 350 09:49 28.08.2022
450 Clouds 18 1016 92 7000 2.06 360 08:37 28.08.2022
451 Clouds 18 1016 74 8000 1.03 0 07:43 28.08.2022
452 Clouds 18 1016 76 6000 1.03 250 02:48 28.08.2022
453 Clouds 18 1016 93 6000 2.06 290 00:27 28.08.2022
454 Clouds 19 1016 92 7000 0.51 0 22:36 27.08.2022
455 Clouds 19 1016 91 10000 1.03 330 21:36 27.08.2022
456 Clouds 21 1015 88 10000 1.54 290 19:49 27.08.2022
457 Clouds 22 1015 86 10000 1.03 0 17:43 27.08.2022
458 Rain 21 1015 84 10000 2.57 60 15:53 27.08.2022
459 Rain 21 1015 89 10000 2.06 20 15:25 27.08.2022
460 Rain 20 1015 74 5000 2.57 350 12:30 27.08.2022
461 Rain 20 1015 90 6000 2.57 340 11:32 27.08.2022
462 Rain 20 1015 91 10000 3.09 330 11:32 27.08.2022
463 Clouds 19 1015 90 9000 2.57 310 09:50 27.08.2022
464 Clouds 19 1014 90 7000 2.06 290 08:22 27.08.2022
465 Clouds 19 1015 88 10000 1.03 0 03:40 27.08.2022
466 Clear 18 1015 90 10000 1.54 280 23:58 26.08.2022
467 Clear 19 1015 91 10000 1.54 240 22:50 26.08.2022
468 Clouds 20 1015 88 10000 2.57 50 21:30 26.08.2022
469 Rain 21 1014 73 1300 13.89 280 19:23 26.08.2022
470 Rain 28 1011 57 10000 2.52 7 17:25 26.08.2022
471 Clear 29 1012 55 10000 3.6 80 15:35 26.08.2022
472 Clouds 27 1013 62 10000 1.6 15 14:42 26.08.2022
473 Clear 26 1014 53 10000 1.03 0 12:53 26.08.2022
474 Clear 26 1014 58 10000 1.03 0 11:35 26.08.2022
475 Clear 24 1015 68 10000 1.54 80 10:47 26.08.2022
476 Clear 17 1014 89 10000 0.51 90 07:32 26.08.2022
477 Clear 19 1014 83 10000 1.03 0 02:31 26.08.2022
478 Clear 21 1015 77 10000 0.51 0 23:44 25.08.2022
479 Clear 24 1014 66 10000 0.51 120 21:40 25.08.2022
480 Clear 25 1014 62 10000 1.03 80 20:51 25.08.2022
481 Clear 29 1014 45 10000 2.06 90 19:24 25.08.2022
482 Clear 30 1014 43 10000 3.09 90 18:28 25.08.2022
483 Clear 30 1014 45 10000 2.57 70 17:31 25.08.2022
484 Clear 30 1015 44 10000 3.09 60 16:25 25.08.2022
485 Clear 30 1015 45 10000 3.09 40 15:27 25.08.2022
486 Clear 28 1016 54 10000 3.6 100 12:56 25.08.2022
487 Clear 25 1017 66 10000 3.6 70 10:49 25.08.2022
488 Clear 22 1017 76 10000 2.06 90 09:44 25.08.2022
489 Clear 16 1018 90 10000 1.03 0 06:45 25.08.2022
490 Clear 19 1018 82 10000 0.51 0 01:57 25.08.2022
491 Clear 21 1019 78 10000 1.03 80 23:28 24.08.2022
492 Clear 21 1019 76 10000 1.03 80 22:46 24.08.2022
493 Clear 23 1019 71 10000 0.51 0 21:37 24.08.2022
494 Clear 23 1019 69 10000 1.54 100 21:19 24.08.2022
495 Clear 27 1018 47 10000 3.09 80 19:43 24.08.2022
496 Clear 30 1018 41 10000 4.12 70 16:50 24.08.2022
497 Clear 30 1018 39 10000 5.14 80 15:52 24.08.2022
498 Clear 30 1019 34 10000 5.66 60 14:58 24.08.2022
499 Clear 27 1019 45 10000 3.09 90 12:28 24.08.2022
500 Clear 25 1020 51 10000 1.54 0 11:18 24.08.2022
501 Clear 18 1019 79 10000 1.03 90 08:45 24.08.2022
502 Clear 15 1019 86 10000 0.51 60 05:26 24.08.2022
503 Clear 19 1019 74 10000 0.51 70 00:41 24.08.2022
504 Clear 20 1018 65 10000 1.03 330 22:35 23.08.2022
505 Clear 22 1018 61 10000 0.51 0 21:55 23.08.2022
506 Clear 23 1017 55 10000 1.03 0 20:43 23.08.2022
507 Clear 28 1017 36 10000 1.54 180 18:58 23.08.2022
508 Clear 29 1017 35 10000 1.54 0 17:59 23.08.2022
509 Clear 30 1017 34 10000 1.54 100 17:22 23.08.2022
510 Clear 29 1017 35 10000 2.06 0 15:54 23.08.2022
511 Clear 29 1018 35 10000 1.54 0 14:30 23.08.2022
512 Clear 28 1018 40 10000 2.57 80 12:46 23.08.2022
513 Clear 24 1018 55 10000 1.54 110 10:57 23.08.2022
514 Clear 22 1018 63 10000 2.06 80 10:33 23.08.2022
515 Clear 20 1018 69 10000 1.03 0 09:32 23.08.2022
516 Clear 18 1017 77 10000 0.51 0 08:46 23.08.2022
517 Clear 15 1017 84 10000 0.51 90 08:18 23.08.2022
518 Clear 13 1017 89 10000 0.51 0 07:31 23.08.2022
519 Clear 14 1016 84 10000 0.51 270 06:22 23.08.2022
520 Clear 17 1016 77 10000 0.51 0 01:45 23.08.2022
521 Clear 19 1016 70 10000 0.51 0 00:27 23.08.2022
522 Clear 19 1015 70 10000 0.51 90 23:32 22.08.2022
523 Clear 20 1015 66 10000 0.51 0 22:25 22.08.2022
524 Clear 23 1014 52 10000 2.06 80 20:44 22.08.2022
525 Clear 26 1014 41 10000 2.06 90 19:44 22.08.2022
526 Clear 27 1014 39 10000 4.12 70 18:37 22.08.2022
527 Clear 28 1015 38 10000 3.09 0 15:55 22.08.2022
528 Clear 27 1015 40 10000 2.06 0 15:18 22.08.2022
529 Clear 25 1016 60 10000 2.06 90 11:45 22.08.2022
530 Clear 18 1016 80 10000 1.03 0 09:24 22.08.2022
531 Clear 12 1015 91 10000 0.51 0 06:58 22.08.2022
532 Clear 14 1015 84 10000 0.51 0 02:28 22.08.2022
533 Clear 16 1015 78 10000 0.51 0 00:37 22.08.2022
534 Clear 17 1016 75 10000 1.03 0 23:34 21.08.2022
535 Clear 19 1015 64 10000 0.51 0 21:56 21.08.2022
536 Clear 21 1015 61 10000 0.51 0 21:20 21.08.2022
537 Clear 23 1015 49 10000 1.54 90 20:20 21.08.2022
538 Clear 27 1015 36 10000 1.54 100 18:49 21.08.2022
539 Clear 28 1016 37 10000 2.06 0 16:50 21.08.2022
540 Clear 27 1016 40 10000 1.03 0 15:52 21.08.2022
541 Clear 27 1016 41 10000 1.54 0 14:57 21.08.2022
542 Clear 26 1017 47 10000 1.54 0 13:51 21.08.2022
543 Clear 25 1017 50 10000 2.06 90 12:56 21.08.2022
544 Clear 21 1018 71 10000 1.03 0 10:41 21.08.2022
545 Clear 18 1018 79 10000 0.51 0 09:21 21.08.2022
546 Clear 16 1018 82 10000 0.51 0 08:46 21.08.2022
547 Clear 15 1018 85 10000 0 0 08:28 21.08.2022
548 Clear 12 1018 88 10000 1.03 0 06:37 21.08.2022
549 Clear 14 1018 85 10000 1.03 250 02:35 21.08.2022
550 Clear 17 1018 83 10000 2.06 250 23:35 20.08.2022
551 Clear 19 1018 84 10000 3.6 250 21:57 20.08.2022
552 Clouds 20 1017 91 10000 2.28 230 20:56 20.08.2022
553 Clear 23 1017 69 10000 2.06 130 19:49 20.08.2022
554 Clear 23 1017 69 10000 1.54 130 19:21 20.08.2022
555 Clear 24 1017 74 10000 2.57 140 18:26 20.08.2022
556 Clouds 23 1017 83 10000 2.06 150 17:25 20.08.2022
557 Clouds 22 1018 87 10000 3.09 70 16:23 20.08.2022
558 Clouds 22 1018 81 10000 3.6 280 14:35 20.08.2022
559 Clouds 22 1017 84 10000 3.09 60 12:19 20.08.2022
560 Clouds 22 1018 79 10000 3.09 220 11:42 20.08.2022
561 Clear 19 1017 87 10000 2.06 240 09:25 20.08.2022
562 Clouds 18 1017 86 10000 1.03 0 07:31 20.08.2022
563 Clear 17 1017 88 10000 1.54 230 05:48 20.08.2022
564 Clouds 19 1016 89 10000 2.85 251 00:58 20.08.2022
565 Clouds 19 1016 84 10000 2.68 245 23:52 19.08.2022
566 Clear 19 1016 91 10000 1.03 170 22:48 19.08.2022
567 Clear 19 1015 91 10000 1.54 230 21:34 19.08.2022
568 Clouds 20 1015 90 9000 2.06 100 19:40 19.08.2022
569 Rain 21 1014 89 6000 2.06 0 16:32 19.08.2022
570 Rain 21 1014 87 6000 2.57 0 14:22 19.08.2022
571 Rain 20 1014 87 10000 1.54 320 12:45 19.08.2022
572 Rain 20 1014 86 8000 2.57 320 10:41 19.08.2022
573 Rain 20 1013 84 10000 3.6 320 09:36 19.08.2022
574 Rain 20 1012 77 10000 3.6 280 04:56 19.08.2022
575 Clouds 21 1012 69 10000 3.09 300 00:45 19.08.2022
576 Clouds 21 1013 68 10000 1.03 0 00:20 19.08.2022
577 Clouds 22 1012 64 10000 4.63 320 22:59 18.08.2022
578 Clear 23 1012 66 10000 4.63 330 22:26 18.08.2022
579 Clear 23 1011 68 10000 4.63 310 21:51 18.08.2022
580 Clear 23 1011 68 10000 5.66 310 21:18 18.08.2022
581 Clouds 25 1011 57 10000 7.2 300 19:54 18.08.2022
582 Clouds 26 1011 53 10000 5.14 310 19:21 18.08.2022
583 Clouds 26 1011 52 10000 3.09 10 17:46 18.08.2022
584 Clouds 27 1011 53 10000 3.09 360 16:25 18.08.2022
585 Clouds 25 1012 65 10000 4.12 340 14:22 18.08.2022
586 Clouds 25 1012 67 10000 3.6 30 13:58 18.08.2022
587 Clouds 24 1013 75 10000 1.03 0 12:46 18.08.2022
588 Rain 21 1014 83 10000 1.03 0 11:23 18.08.2022
589 Clear 20 1014 86 10000 1.03 0 09:43 18.08.2022
590 Clear 19 1013 85 10000 0 0 08:31 18.08.2022
591 Clear 18 1013 88 10000 1.03 0 07:18 18.08.2022
592 Rain 19 1014 88 10000 1.54 190 02:59 18.08.2022
593 Clear 22 1012 71 10000 1.54 250 23:18 17.08.2022
594 Clear 24 1011 62 10000 3.09 350 21:28 17.08.2022
595 Clear 26 1011 53 10000 2.57 320 19:59 17.08.2022
596 Clear 28 1011 47 10000 0.51 0 18:58 17.08.2022
597 Clear 30 1012 41 10000 2.57 30 17:28 17.08.2022
598 Clear 29 1012 43 10000 1.54 0 16:21 17.08.2022
599 Clear 27 1013 41 10000 1.54 0 15:18 17.08.2022
600 Clouds 25 1013 59 10000 2.57 290 12:52 17.08.2022
601 Rain 25 1013 60 10000 1.03 0 11:36 17.08.2022
602 Clear 22 1012 69 10000 0.51 0 09:31 17.08.2022
603 Clear 17 1012 77 10000 1.03 60 07:36 17.08.2022
604 Clouds 17 1011 83 10000 1.41 126 02:24 17.08.2022
605 Clear 20 1011 72 10000 1.03 0 23:49 16.08.2022
606 Clear 23 1011 64 10000 0.87 82 21:59 16.08.2022
607 Clear 25 1010 49 10000 2.57 20 20:51 16.08.2022
608 Clouds 28 1008 45 10000 2.24 0 19:53 16.08.2022
609 Clear 29 1010 41 10000 2.57 10 18:34 16.08.2022
610 Clear 29 1010 41 10000 1.54 80 17:41 16.08.2022
611 Clear 29 1011 44 10000 2.06 0 15:47 16.08.2022
612 Clear 28 1011 47 10000 1.54 0 14:55 16.08.2022
613 Clear 27 1011 49 10000 1.54 0 14:37 16.08.2022
614 Clouds 26 1011 57 10000 1.03 0 12:44 16.08.2022
615 Clouds 24 1011 68 10000 1.54 0 10:37 16.08.2022
616 Clear 21 1011 74 10000 2.06 80 09:44 16.08.2022
617 Clear 19 1011 82 10000 1.03 0 08:45 16.08.2022
618 Clear 16 1011 90 10000 0.51 110 07:33 16.08.2022
619 Clear 17 1010 83 10000 1.03 80 02:19 16.08.2022
620 Clear 19 1010 70 10000 1.54 220 22:30 15.08.2022
621 Clear 19 1010 70 10000 1.54 220 22:30 15.08.2022
622 Clear 20 1010 65 10000 1.03 0 21:54 15.08.2022
623 Clear 21 1009 69 10000 2.06 210 20:52 15.08.2022
624 Clear 22 1009 67 10000 2.57 250 20:19 15.08.2022
625 Clear 22 1008 64 10000 2.06 150 18:42 15.08.2022
626 Rain 27 1005 31 10000 6.01 270 17:36 15.08.2022
627 Clouds 28 1006 46 10000 4.63 350 16:22 15.08.2022
628 Clear 28 1007 46 10000 3.6 250 13:58 15.08.2022
629 Clear 26 1008 52 10000 4.12 250 12:38 15.08.2022
630 Clouds 22 1008 67 10000 4.63 250 10:18 15.08.2022
631 Clouds 21 1007 76 10000 2.06 240 08:51 15.08.2022
632 Clouds 21 1008 74 10000 2.06 220 06:33 15.08.2022
633 Rain 21 1007 72 10000 2.57 180 02:57 15.08.2022
634 Rain 23 1007 50 10000 0.51 0 23:22 14.08.2022
635 Clouds 24 1006 47 10000 2.54 246 21:43 14.08.2022
636 Clear 27 1006 37 10000 1.03 50 20:33 14.08.2022
637 Clear 29 1006 32 10000 1.03 0 19:36 14.08.2022
638 Clear 31 1006 27 10000 1.03 0 18:21 14.08.2022
639 Clear 32 1007 26 10000 1.54 0 17:27 14.08.2022
640 Clear 32 1007 28 10000 2.57 0 16:23 14.08.2022
641 Clear 32 1008 30 10000 4.12 70 14:55 14.08.2022
642 Clear 31 1009 32 10000 5.66 90 13:51 14.08.2022
643 Clear 30 1009 34 10000 4.63 80 13:31 14.08.2022
644 Clear 31 1009 34 10000 4.63 80 13:31 14.08.2022
645 Clear 29 1010 37 10000 3.09 0 12:42 14.08.2022
646 Clear 27 1010 42 10000 3.09 90 11:23 14.08.2022
647 Clear 20 1011 63 10000 0.51 0 08:57 14.08.2022
648 Clear 14 1011 79 10000 1.03 0 06:41 14.08.2022
649 Clear 14 1012 79 10000 0.51 0 05:37 14.08.2022
650 Clear 17 1014 67 10000 1.03 300 01:36 14.08.2022
651 Clear 20 1014 58 10000 1.03 0 23:22 13.08.2022
652 Clear 22 1014 53 10000 1.03 0 22:28 13.08.2022
653 Clear 26 1014 40 10000 1.03 0 20:51 13.08.2022
654 Clear 28 1014 32 10000 1.54 110 19:49 13.08.2022
655 Clear 29 1014 30 10000 2.57 70 19:18 13.08.2022
656 Clear 30 1015 30 10000 3.09 70 17:22 13.08.2022
657 Clear 29 1016 33 10000 4.63 0 14:51 13.08.2022
658 Clear 28 1016 35 10000 6.69 50 14:24 13.08.2022
659 Clear 28 1016 35 10000 3.09 60 13:36 13.08.2022
660 Clear 25 1017 48 10000 3.6 70 11:49 13.08.2022
661 Clear 20 1017 63 10000 1.54 20 09:27 13.08.2022
662 Clear 15 1017 76 10000 1.03 0 07:48 13.08.2022
663 Clear 17 1017 63 10000 0.51 0 01:56 13.08.2022
664 Clear 19 1017 56 10000 3.09 90 23:36 12.08.2022
665 Clear 22 1017 40 10000 2.57 100 21:40 12.08.2022
666 Clear 26 1016 29 10000 4.63 80 19:51 12.08.2022
667 Clear 27 1016 30 10000 5.14 60 19:24 12.08.2022
668 Clear 28 1016 32 10000 2.57 100 18:31 12.08.2022
669 Clear 29 1017 30 10000 4.63 70 16:27 12.08.2022
670 Clear 28 1017 33 10000 4.63 80 15:23 12.08.2022
671 Clear 28 1018 32 10000 4.63 120 13:56 12.08.2022
672 Clear 28 1018 34 10000 4.63 100 12:51 12.08.2022
673 Clear 22 1019 53 10000 2.57 60 09:28 12.08.2022
674 Clear 16 1019 74 10000 0.51 0 07:47 12.08.2022
675 Clear 14 1018 74 10000 1.54 300 06:28 12.08.2022
676 Clear 18 1019 61 10000 0.51 0 01:45 12.08.2022
677 Clear 19 1019 55 10000 2.06 90 00:20 12.08.2022
678 Clear 20 1019 51 10000 0 0 23:29 11.08.2022
679 Clear 22 1019 48 10000 1.54 40 21:58 11.08.2022
680 Clear 23 1018 42 10000 1.03 80 21:35 11.08.2022
681 Clear 27 1018 31 10000 2.57 70 20:32 11.08.2022
682 Clear 28 1018 28 10000 3.09 90 19:57 11.08.2022
683 Clear 29 1018 27 10000 2.57 120 19:32 11.08.2022
684 Clear 30 1019 27 10000 4.12 110 17:47 11.08.2022
685 Clear 30 1019 27 10000 4.12 90 16:32 11.08.2022
686 Clear 30 1020 29 10000 4.12 90 15:21 11.08.2022
687 Clear 28 1021 35 10000 6.17 60 12:41 11.08.2022
688 Clear 23 1022 53 10000 5.14 70 09:54 11.08.2022
689 Clear 15 1021 71 10000 0.51 0 07:19 11.08.2022
690 Clear 16 1022 69 10000 0.51 0 03:46 11.08.2022
691 Clear 18 1022 64 10000 1.54 80 00:35 11.08.2022
692 Clear 21 1022 55 10000 1.54 80 22:22 10.08.2022
693 Clear 24 1021 41 10000 2.06 70 21:25 10.08.2022
694 Clear 25 1021 35 10000 2.06 90 20:54 10.08.2022
695 Clear 28 1021 29 10000 4.63 100 19:27 10.08.2022
696 Clear 29 1022 28 10000 5.66 90 18:22 10.08.2022
697 Clear 30 1022 30 10000 4.63 100 16:36 10.08.2022
698 Clear 28 1023 32 10000 5.66 90 13:35 10.08.2022
699 Clear 28 1024 35 10000 5.66 90 12:41 10.08.2022
700 Clear 23 1024 53 10000 3.6 80 09:25 10.08.2022
701 Clear 19 1024 65 10000 1.54 70 08:33 10.08.2022
702 Clear 15 1024 75 10000 1.03 40 07:19 10.08.2022
703 Clear 17 1024 68 10000 2.06 80 03:28 10.08.2022
704 Clear 20 1024 54 10000 1.03 60 23:34 09.08.2022
705 Clear 21 1024 51 10000 1.54 60 22:56 09.08.2022
706 Clear 24 1024 37 10000 3.09 40 21:36 09.08.2022
707 Clear 27 1023 32 10000 4.12 70 20:30 09.08.2022
708 Clear 29 1023 28 10000 5.14 90 18:44 09.08.2022
709 Clear 30 1023 27 10000 5.66 60 17:28 09.08.2022
710 Clear 30 1023 27 10000 5.66 60 17:28 09.08.2022
711 Clear 30 1023 29 10000 4.63 50 16:41 09.08.2022
712 Clear 30 1023 31 10000 5.14 80 15:58 09.08.2022
713 Clear 29 1024 34 10000 4.12 90 13:51 09.08.2022
714 Clear 23 1025 56 10000 2.06 90 09:56 09.08.2022
715 Clear 20 1024 59 10000 1.03 0 08:50 09.08.2022
716 Clear 18 1024 63 10000 1.54 330 07:54 09.08.2022
717 Clear 15 1023 74 10000 0.51 0 04:28 09.08.2022
718 Clear 20 1023 54 10000 0.51 0 23:35 08.08.2022
719 Clear 20 1023 56 10000 1.3 95 22:56 08.08.2022
720 Clear 21 1023 52 10000 1.31 94 22:35 08.08.2022
721 Clear 24 1022 41 10000 2.57 30 21:27 08.08.2022
722 Clear 28 1021 30 10000 3.09 80 19:51 08.08.2022
723 Clear 29 1021 28 10000 2.57 80 19:22 08.08.2022
724 Clear 30 1021 45 10000 3.6 100 17:34 08.08.2022
725 Clear 30 1022 31 10000 2.06 0 15:45 08.08.2022
726 Clear 29 1022 34 10000 2.57 0 14:33 08.08.2022
727 Clear 27 1023 41 10000 3.6 110 12:29 08.08.2022
728 Clear 22 1023 58 10000 1.54 100 10:23 08.08.2022
729 Clear 13 1021 81 10000 0.51 0 06:56 08.08.2022
730 Clear 14 1021 70 10000 0.51 0 03:34 08.08.2022
731 Clear 20 1021 50 10000 1.03 60 22:44 07.08.2022
732 Clear 23 1020 35 10000 2.57 10 21:40 07.08.2022
733 Clear 26 1020 29 10000 4.12 20 20:54 07.08.2022
734 Clear 26 1019 29 10000 3.09 30 20:18 07.08.2022
735 Clear 26 1019 28 10000 3.09 40 19:50 07.08.2022
736 Clear 27 1020 31 10000 2.06 0 18:40 07.08.2022
737 Clear 28 1020 33 10000 3.09 60 17:18 07.08.2022
738 Clear 28 1020 32 10000 3.6 50 16:38 07.08.2022
739 Clear 27 1021 34 10000 3.6 80 15:25 07.08.2022
740 Clear 26 1021 36 10000 5.66 50 13:44 07.08.2022
741 Clear 24 1022 40 10000 6.17 60 12:19 07.08.2022
742 Clear 22 1023 54 10000 5.14 80 10:37 07.08.2022
743 Clear 17 1023 72 10000 1.03 0 08:26 07.08.2022
744 Clear 14 1023 72 10000 1.54 340 04:33 07.08.2022
745 Clear 15 1023 67 10000 1.54 330 01:58 07.08.2022
746 Clear 19 1023 49 10000 1.41 56 22:30 06.08.2022
747 Clear 22 1023 42 10000 3.6 20 21:43 06.08.2022
748 Clear 24 1023 40 10000 2.06 80 19:42 06.08.2022
749 Clear 25 1023 43 10000 2.06 60 18:35 06.08.2022
750 Clear 26 1023 42 10000 2.57 80 17:44 06.08.2022
751 Clouds 25 1024 46 10000 2.06 0 15:21 06.08.2022
752 Clouds 23 1025 53 10000 3.09 50 13:50 06.08.2022
753 Clouds 22 1025 57 10000 3.09 50 12:21 06.08.2022
754 Clouds 20 1025 66 10000 4.12 40 10:40 06.08.2022
755 Clear 19 1025 69 10000 4.12 20 09:31 06.08.2022
756 Clouds 18 1023 68 10000 4.12 360 04:38 06.08.2022
757 Clouds 20 1021 80 10000 4.12 340 00:46 06.08.2022
758 Clear 22 1019 73 10000 6.69 320 22:35 05.08.2022
759 Clear 26 1018 57 10000 5.14 340 20:50 05.08.2022
760 Clear 28 1016 54 10000 7.2 330 18:56 05.08.2022
761 Clear 28 1016 54 10000 7.2 330 18:38 05.08.2022
762 Clear 32 1015 43 10000 1.54 110 16:52 05.08.2022
763 Clear 32 1016 40 10000 3.09 120 15:25 05.08.2022
764 Clear 32 1017 40 10000 2.57 130 14:38 05.08.2022
765 Clear 31 1017 43 10000 2.57 0 13:38 05.08.2022
766 Clear 31 1017 44 10000 2.57 150 13:18 05.08.2022
767 Clear 29 1017 48 10000 2.57 360 11:55 05.08.2022
768 Clear 26 1017 61 10000 3.09 340 09:18 05.08.2022
769 Clear 23 1017 72 10000 5.66 290 07:57 05.08.2022
770 Clear 22 1014 72 10000 1.54 280 05:20 05.08.2022
771 Clear 25 1013 63 10000 1.54 300 23:49 04.08.2022
772 Clear 28 1013 53 10000 1.54 320 21:39 04.08.2022
773 Clear 29 1013 51 10000 0.51 0 21:21 04.08.2022
774 Clear 31 1013 46 10000 1.54 130 20:40 04.08.2022
775 Clear 36 1013 32 10000 2.06 90 19:21 04.08.2022
776 Clear 36 1013 29 10000 1.54 70 18:34 04.08.2022
777 Clear 37 1013 30 10000 2.06 40 16:54 04.08.2022
778 Clear 36 1015 31 10000 2.57 90 13:35 04.08.2022
779 Clear 33 1015 43 10000 1.54 140 11:46 04.08.2022
780 Clear 29 1015 50 10000 1.54 70 10:27 04.08.2022
781 Clear 22 1015 73 10000 0.51 0 07:51 04.08.2022
782 Clear 20 1015 76 10000 0 0 04:28 04.08.2022
783 Clear 21 1015 73 10000 1.03 70 01:58 04.08.2022
784 Clear 23 1015 67 10000 1.54 176 23:42 03.08.2022
785 Clear 26 1015 57 10000 1.03 0 21:50 03.08.2022
786 Clear 29 1015 49 10000 2.06 80 20:37 03.08.2022
787 Clear 33 1015 35 10000 2.57 70 19:28 03.08.2022
788 Clear 33 1015 47 10000 1.54 150 17:58 03.08.2022
789 Clear 34 1016 37 10000 1.54 120 16:24 03.08.2022
790 Clear 33 1017 39 10000 1.54 0 14:43 03.08.2022
791 Clouds 30 1016 47 10000 1.32 151 11:53 03.08.2022
792 Clear 20 1018 85 10000 1.03 0 08:20 03.08.2022
793 Clear 17 1017 86 10000 0.51 110 04:47 03.08.2022
794 Clear 18 1018 86 10000 1.03 300 03:28 03.08.2022
795 Clear 19 1018 79 10000 0.51 0 01:18 03.08.2022
796 Clear 21 1018 72 10000 1.03 0 23:18 02.08.2022
797 Clear 23 1017 64 10000 1.03 0 21:55 02.08.2022
798 Clear 25 1017 59 10000 0.51 0 21:21 02.08.2022
799 Clear 29 1017 42 10000 1.54 0 18:59 02.08.2022
800 Clear 29 1018 46 10000 1.54 200 16:27 02.08.2022
801 Clouds 27 1018 61 10000 0.63 235 12:53 02.08.2022
802 Clear 22 1020 79 10000 0.51 0 09:40 02.08.2022
803 Clear 19 1020 87 10000 0.51 0 07:56 02.08.2022
804 Clear 17 1020 88 10000 0.51 0 07:25 02.08.2022
805 Clouds 17 1019 89 10000 0.51 0 04:55 02.08.2022
806 Clouds 19 1020 91 10000 2.57 150 23:52 01.08.2022
807 Clouds 19 1019 87 10000 3.09 170 22:50 01.08.2022
808 Clear 22 1018 66 10000 2.06 60 20:57 01.08.2022
809 Clouds 25 1017 55 10000 4.12 330 19:41 01.08.2022
810 Clouds 28 1017 50 10000 4.63 310 18:43 01.08.2022
811 Clouds 28 1017 47 10000 3.6 20 16:54 01.08.2022
812 Clear 28 1017 50 10000 3.09 330 16:29 01.08.2022
813 Clear 28 1017 50 10000 1.54 110 15:33 01.08.2022
814 Clouds 27 1018 52 10000 2.06 360 14:43 01.08.2022
815 Clear 27 1018 55 10000 3.6 290 12:57 01.08.2022
816 Clouds 25 1018 63 10000 2.57 280 10:30 01.08.2022
817 Clear 22 1018 70 10000 4.12 260 08:45 01.08.2022
818 Clear 18 1018 79 10000 3.6 280 06:50 01.08.2022
819 Clear 18 1018 80 10000 3.6 250 04:29 01.08.2022
820 Clear 20 1017 74 10000 1.38 245 00:56 01.08.2022
821 Clouds 23 1016 67 10000 1.76 258 22:42 31.07.2022
822 Clear 24 1016 55 10000 3.09 270 22:18 31.07.2022
823 Clear 29 1016 42 10000 4.12 280 20:21 31.07.2022
824 Clear 31 1016 34 10000 5.14 270 18:38 31.07.2022
825 Clear 31 1017 37 10000 3.09 190 16:26 31.07.2022
826 Clouds 30 1016 43 10000 3.55 282 14:33 31.07.2022
827 Clear 28 1019 43 10000 1.54 100 12:55 31.07.2022
828 Clear 24 1020 61 10000 1.54 90 10:53 31.07.2022
829 Clear 19 1020 75 10000 0.51 0 08:46 31.07.2022
830 Clear 15 1019 87 10000 0.51 0 05:20 31.07.2022
831 Clear 18 1020 75 10000 1.54 280 01:20 31.07.2022
832 Clear 21 1019 62 10000 2.06 290 22:40 30.07.2022
833 Clouds 22 1019 60 10000 1.2 3 21:50 30.07.2022
834 Clear 23 1018 56 10000 2.57 320 21:32 30.07.2022
835 Clear 26 1018 42 10000 4.63 300 20:28 30.07.2022
836 Clear 27 1018 38 10000 4.63 300 19:50 30.07.2022
837 Clear 28 1018 39 10000 4.12 310 17:53 30.07.2022
838 Clear 28 1018 38 10000 4.63 290 16:38 30.07.2022
839 Clear 28 1019 39 10000 3.6 330 15:30 30.07.2022
840 Clear 26 1019 45 10000 4.63 330 13:23 30.07.2022
841 Clear 25 1019 48 10000 4.63 290 12:22 30.07.2022
842 Clear 25 1019 50 10000 5.14 290 11:51 30.07.2022
843 Clear 23 1019 59 10000 3.6 290 10:19 30.07.2022
844 Clear 19 1019 76 10000 3.09 250 08:54 30.07.2022
845 Clear 16 1018 84 10000 1.54 250 06:58 30.07.2022
846 Clear 17 1017 85 10000 2.06 240 02:33 30.07.2022
847 Clear 19 1017 83 10000 1.03 0 23:57 29.07.2022
848 Clear 21 1016 83 10000 0.51 0 21:38 29.07.2022
849 Clear 23 1016 82 10000 1.03 0 20:50 29.07.2022
850 Clear 23 1016 73 10000 0.51 0 19:46 29.07.2022
851 Clear 24 1016 63 10000 1.54 190 17:34 29.07.2022
852 Rain 20 1016 72 10000 1.03 0 14:50 29.07.2022
853 Rain 27 1015 58 10000 2.06 80 12:52 29.07.2022
854 Clear 22 1015 79 10000 2.06 200 09:34 29.07.2022
855 Clear 20 1015 85 10000 1.54 90 08:41 29.07.2022
856 Clear 17 1015 89 10000 1.03 0 06:40 29.07.2022
857 Clouds 19 1016 89 10000 1.54 180 01:19 29.07.2022
858 Clouds 25 1013 47 10000 4.12 50 21:45 28.07.2022
859 Clear 27 1013 45 10000 3.09 60 20:54 28.07.2022
860 Clear 27 1013 43 10000 3.6 60 20:21 28.07.2022
861 Clear 28 1012 38 10000 4.63 60 19:40 28.07.2022
862 Clear 29 1013 39 10000 3.6 70 18:26 28.07.2022
863 Clear 30 1013 37 10000 3.09 100 17:42 28.07.2022
864 Clear 30 1013 41 10000 3.09 0 16:41 28.07.2022
865 Clear 28 1014 45 10000 3.09 80 14:50 28.07.2022
866 Clouds 27 1015 52 10000 2.06 0 12:49 28.07.2022
867 Clear 22 1016 65 10000 3.6 60 09:45 28.07.2022
868 Clear 15 1015 76 10000 1.54 360 06:21 28.07.2022
869 Clear 16 1015 75 10000 2.57 340 05:26 28.07.2022
870 Clear 19 1017 58 10000 2.06 30 00:45 28.07.2022
871 Clear 21 1017 61 10000 3.09 10 22:31 27.07.2022
872 Clear 23 1016 46 10000 3.6 10 20:56 27.07.2022
873 Clear 25 1016 45 10000 4.12 350 19:34 27.07.2022
874 Clear 26 1016 43 10000 4.63 10 17:23 27.07.2022
875 Clear 26 1016 46 10000 4.12 20 15:52 27.07.2022
876 Clouds 25 1016 50 10000 3.6 350 14:48 27.07.2022
877 Clouds 24 1017 48 10000 1.54 0 14:30 27.07.2022
878 Clouds 23 1017 61 10000 3.09 360 12:48 27.07.2022
879 Clear 17 1017 80 10000 2.06 300 07:53 27.07.2022
880 Clouds 16 1016 80 10000 1.77 305 06:19 27.07.2022
881 Clouds 18 1017 72 10000 0.99 323 00:48 27.07.2022
882 Clear 21 1017 58 10000 2.57 320 22:25 26.07.2022
883 Clear 23 1016 48 10000 3.09 340 21:20 26.07.2022
884 Clear 24 1016 43 10000 3.6 350 20:25 26.07.2022
885 Clear 26 1016 42 10000 3.09 310 18:42 26.07.2022
886 Clear 26 1016 40 10000 4.12 300 17:58 26.07.2022
887 Clear 27 1017 41 10000 6.69 310 15:59 26.07.2022
888 Clear 26 1017 42 10000 6.17 290 15:18 26.07.2022
889 Clear 25 1017 47 10000 5.66 270 13:38 26.07.2022
890 Clear 24 1017 52 10000 4.12 250 11:20 26.07.2022
891 Clear 21 1017 76 10000 4.63 300 08:57 26.07.2022
892 Clouds 18 1016 86 10000 2.41 263 05:53 26.07.2022
893 Clear 23 1015 60 10000 3.6 270 00:44 26.07.2022
894 Clear 24 1014 56 10000 3.09 290 23:32 25.07.2022
895 Clear 26 1013 52 10000 5.66 290 22:26 25.07.2022
896 Clear 27 1013 50 10000 7.2 300 21:43 25.07.2022
897 Clear 29 1011 44 10000 7.72 290 20:42 25.07.2022
898 Clouds 32 1011 44 10000 7.72 280 19:46 25.07.2022
899 Clear 32 1011 44 10000 6.69 270 18:21 25.07.2022
900 Clouds 34 1011 41 10000 2.57 240 17:31 25.07.2022
901 Clear 35 1011 36 10000 5.66 250 15:20 25.07.2022
902 Clear 33 1012 42 10000 3.6 0 12:29 25.07.2022
903 Clear 29 1013 55 10000 1.54 160 10:32 25.07.2022
904 Clear 19 1014 85 10000 0.51 310 06:32 25.07.2022
905 Clear 22 1016 74 10000 1.03 0 23:55 24.07.2022
906 Clear 23 1016 72 10000 0.51 0 23:19 24.07.2022
907 Clear 24 1016 67 10000 0.51 0 22:35 24.07.2022
908 Clear 27 1016 58 10000 2.06 70 21:28 24.07.2022
909 Clear 29 1016 46 10000 1.54 70 20:53 24.07.2022
910 Clear 30 1016 45 10000 2.06 90 20:27 24.07.2022
911 Clear 32 1016 39 10000 2.06 130 18:57 24.07.2022
912 Clear 32 1018 39 10000 1.54 0 16:51 24.07.2022
913 Clear 31 1018 41 10000 1.03 0 15:53 24.07.2022
914 Clear 31 1019 41 10000 2.06 0 14:40 24.07.2022
915 Clear 29 1020 49 10000 2.06 0 12:55 24.07.2022
916 Clear 29 1020 50 10000 1.54 0 12:19 24.07.2022
917 Clear 28 1020 56 10000 1.54 0 11:26 24.07.2022
918 Clear 23 1021 76 10000 1.54 80 09:23 24.07.2022
919 Clear 20 1021 88 10000 0.51 90 07:53 24.07.2022
920 Clear 17 1020 91 10000 0.51 0 06:34 24.07.2022
921 Clear 20 1020 82 10000 1.03 40 01:51 24.07.2022
922 Clear 24 1020 66 10000 0.51 0 22:31 23.07.2022
923 Clear 26 1019 54 10000 3.09 360 20:41 23.07.2022
924 Clear 28 1018 46 10000 3.6 340 18:52 23.07.2022
925 Clear 29 1018 46 10000 1.54 0 17:48 23.07.2022
926 Clear 29 1018 47 10000 3.09 300 17:24 23.07.2022
927 Clear 29 1018 50 10000 3.6 340 15:55 23.07.2022
928 Clear 29 1018 51 10000 4.12 0 15:21 23.07.2022
929 Clear 29 1018 50 10000 2.57 20 14:47 23.07.2022
930 Clouds 28 1018 53 10000 3.09 30 13:54 23.07.2022
931 Clear 25 1019 64 10000 1.54 0 11:47 23.07.2022
932 Clear 23 1019 71 10000 3.09 340 10:36 23.07.2022
933 Clear 23 1018 70 10000 1.03 0 09:28 23.07.2022
934 Clear 22 1018 74 10000 1.54 230 06:40 23.07.2022
935 Rain 23 1017 60 10000 4.12 230 03:37 23.07.2022
936 Rain 25 1018 57 10000 2.06 240 00:27 23.07.2022
937 Clear 28 1016 47 10000 5.66 320 21:28 22.07.2022
938 Clear 30 1015 42 10000 2.06 20 20:31 22.07.2022
939 Clouds 32 1014 43 10000 1.84 4 18:42 22.07.2022
940 Clear 32 1016 39 10000 1.54 0 17:39 22.07.2022
941 Clear 32 1017 43 10000 1.03 0 15:46 22.07.2022
942 Clear 28 1019 54 10000 1.03 0 12:47 22.07.2022
943 Clear 24 1020 72 10000 2.06 60 10:22 22.07.2022
944 Clear 21 1020 80 10000 1.03 0 09:21 22.07.2022
945 Clear 18 1020 88 10000 0.51 0 07:57 22.07.2022
946 Clear 17 1020 88 10000 0.51 0 04:23 22.07.2022
947 Clear 20 1020 82 10000 1.43 192 23:43 21.07.2022
948 Clear 23 1021 67 10000 2.06 340 21:51 21.07.2022
949 Clear 27 1020 48 10000 2.57 280 19:45 21.07.2022
950 Clear 28 1020 49 10000 2.57 340 18:43 21.07.2022
951 Clear 28 1021 49 10000 2.57 0 17:22 21.07.2022
952 Clear 28 1021 50 10000 2.57 40 16:31 21.07.2022
953 Clear 27 1021 53 10000 3.09 0 14:46 21.07.2022
954 Clouds 27 1022 54 10000 3.6 260 13:58 21.07.2022
955 Clouds 25 1022 64 10000 4.12 0 12:18 21.07.2022
956 Clouds 23 1022 78 10000 2.06 240 10:21 21.07.2022
957 Clear 21 1022 86 10000 1.03 0 08:53 21.07.2022
958 Clear 20 1022 88 10000 1.03 0 08:35 21.07.2022
959 Clear 19 1022 74 10000 0.51 0 07:22 21.07.2022
960 Clouds 19 1020 75 10000 1.03 0 03:25 21.07.2022
961 Clear 20 1019 91 10000 1.03 0 23:22 20.07.2022
962 Rain 20 1019 90 10000 5.14 310 22:20 20.07.2022
963 Mist 20 1019 83 4200 13.89 250 20:49 20.07.2022
964 Clouds 27 1016 83 10000 2.06 20 19:48 20.07.2022
965 Rain 31 1016 60 10000 1.03 0 19:19 20.07.2022
966 Clear 32 1017 44 10000 4.63 310 18:33 20.07.2022
967 Clouds 33 1016 46 10000 4.12 320 17:43 20.07.2022
968 Thunderstorm 34 1017 41 10000 5.66 320 15:59 20.07.2022
969 Clear 36 1017 32 10000 3.6 360 14:54 20.07.2022
970 Clear 35 1018 32 10000 2.57 0 13:53 20.07.2022
971 Clear 32 1018 40 10000 1.03 0 11:32 20.07.2022
972 Clear 21 1017 64 10000 1.03 0 07:39 20.07.2022
973 Clear 20 1017 66 10000 0.51 0 02:45 20.07.2022
974 Clear 22 1018 53 10000 1.54 60 00:46 20.07.2022
975 Clear 23 1017 54 10000 1.54 70 23:37 19.07.2022
976 Clear 25 1017 49 10000 2.57 80 22:22 19.07.2022
977 Clear 29 1017 35 10000 2.06 110 21:18 19.07.2022
978 Clear 33 1017 26 10000 2.57 90 20:27 19.07.2022
979 Clear 35 1017 20 10000 4.12 90 18:43 19.07.2022
980 Clear 35 1017 23 10000 3.09 110 17:57 19.07.2022
981 Clear 35 1018 25 10000 4.12 90 16:31 19.07.2022
982 Clear 35 1019 27 10000 4.63 90 14:52 19.07.2022
983 Clear 32 1020 31 10000 3.09 90 11:39 19.07.2022
984 Clear 30 1021 37 10000 2.06 80 10:52 19.07.2022
985 Clear 25 1021 51 10000 1.03 0 09:23 19.07.2022
986 Clear 24 1021 49 10000 1.03 0 08:38 19.07.2022
987 Clear 18 1021 73 10000 0.51 0 07:19 19.07.2022
988 Clear 16 1021 78 10000 1.03 280 05:30 19.07.2022
989 Clear 17 1021 75 10000 0.51 0 04:55 19.07.2022
990 Clear 19 1022 69 10000 1.03 310 01:19 19.07.2022
991 Clear 21 1022 62 10000 0.51 0 23:49 18.07.2022
992 Clear 22 1022 58 10000 0.51 0 23:18 18.07.2022
993 Clear 24 1022 51 10000 1.03 0 22:18 18.07.2022
994 Clear 28 1021 39 10000 1.54 50 20:51 18.07.2022
995 Clear 31 1021 27 10000 2.06 70 19:33 18.07.2022
996 Clear 33 1022 26 10000 1.54 90 17:52 18.07.2022
997 Clear 32 1023 26 10000 1.54 0 15:58 18.07.2022
998 Clear 32 1023 27 10000 1.54 160 15:19 18.07.2022
999 Clear 31 1024 28 10000 1.54 0 13:26 18.07.2022
1000 Clear 27 1024 37 10000 1.03 0 11:31 18.07.2022
1001 Clear 24 1025 44 10000 1.03 0 09:53 18.07.2022
1002 Clear 16 1025 72 10000 0.51 0 07:48 18.07.2022
1003 Clouds 15 1025 70 10000 0.89 139 02:51 18.07.2022
1004 Clear 19 1025 55 10000 1.1 81 22:55 17.07.2022
1005 Clear 21 1024 49 10000 1.61 79 22:28 17.07.2022
1006 Clear 23 1024 41 10000 2.57 350 21:35 17.07.2022
1007 Clear 27 1024 29 10000 2.57 350 20:45 17.07.2022
1008 Clear 29 1024 25 10000 2.57 0 19:49 17.07.2022
1009 Clear 29 1024 27 10000 2.57 20 19:20 17.07.2022
1010 Clear 30 1025 27 10000 2.06 330 17:42 17.07.2022
1011 Clear 30 1025 28 10000 2.57 0 17:22 17.07.2022
1012 Clear 30 1025 30 10000 2.06 0 16:28 17.07.2022
1013 Clear 29 1025 31 10000 2.06 0 15:49 17.07.2022
1014 Clear 28 1026 36 10000 1.03 0 13:51 17.07.2022
1015 Clear 26 1026 39 10000 2.06 0 12:42 17.07.2022
1016 Clear 22 1026 53 10000 1.54 50 10:19 17.07.2022
1017 Clear 12 1025 85 10000 1.03 330 06:59 17.07.2022
1018 Clear 13 1025 85 10000 1.03 330 06:59 17.07.2022
1019 Clear 14 1025 76 10000 1.03 0 02:34 17.07.2022
1020 Clear 18 1025 64 10000 1.33 32 23:26 16.07.2022
1021 Clear 19 1024 62 10000 1.73 18 22:20 16.07.2022
1022 Clear 24 1023 38 10000 3.09 360 20:30 16.07.2022
1023 Clear 26 1023 37 10000 5.14 350 18:58 16.07.2022
1024 Clear 26 1023 36 10000 5.66 350 17:38 16.07.2022
1025 Clear 26 1023 36 10000 3.09 350 15:54 16.07.2022
1026 Clear 24 1023 40 10000 1.54 0 12:37 16.07.2022
1027 Clear 21 1023 52 10000 1.54 90 10:28 16.07.2022
1028 Clear 19 1022 61 10000 1.03 0 09:25 16.07.2022
1029 Clear 17 1022 70 10000 1.03 0 08:41 16.07.2022
1030 Clear 13 1022 87 10000 0.61 196 07:23 16.07.2022
1031 Clear 13 1021 77 10000 1.54 290 03:35 16.07.2022
1032 Clear 16 1021 69 10000 2.06 310 00:45 16.07.2022
1033 Clear 17 1021 66 10000 0.77 74 22:57 15.07.2022
1034 Clear 19 1021 58 10000 2.57 340 22:26 15.07.2022
1035 Clear 23 1020 41 10000 4.12 360 20:44 15.07.2022
1036 Clear 24 1020 39 10000 5.66 350 19:34 15.07.2022
1037 Clear 26 1020 50 10000 4.12 360 18:23 15.07.2022
1038 Clear 27 1020 50 10000 5.14 350 17:19 15.07.2022
1039 Clear 26 1020 40 10000 3.6 350 14:24 15.07.2022
1040 Clear 25 1021 42 10000 1.54 0 12:38 15.07.2022
1041 Clear 23 1021 44 10000 2.57 50 10:52 15.07.2022
1042 Clear 17 1021 69 10000 0.51 0 07:55 15.07.2022
1043 Clear 14 1020 75 10000 1.54 310 05:54 15.07.2022
1044 Clear 21 1020 54 10000 4.12 340 00:47 15.07.2022
1045 Clear 21 1019 57 10000 1.03 0 23:25 14.07.2022
1046 Clear 23 1019 51 10000 2.57 360 22:42 14.07.2022
1047 Clear 24 1018 48 10000 6.69 350 21:42 14.07.2022
1048 Clear 24 1017 50 10000 5.14 340 21:24 14.07.2022
1049 Clear 25 1016 45 10000 8.23 350 20:43 14.07.2022
1050 Clear 25 1016 45 10000 8.23 350 20:43 14.07.2022
1051 Clouds 26 1016 44 10000 5.74 4 20:19 14.07.2022
1052 Clear 31 1015 41 10000 7.2 310 18:41 14.07.2022
1053 Clear 33 1016 32 10000 8.75 300 16:21 14.07.2022
1054 Clear 33 1016 31 10000 4.63 290 15:26 14.07.2022
1055 Clear 34 1017 30 10000 4.63 270 13:52 14.07.2022
1056 Clear 32 1018 33 10000 3.6 230 12:48 14.07.2022
1057 Clear 30 1018 41 10000 2.06 180 11:41 14.07.2022
1058 Clear 30 1018 45 10000 1.54 220 11:22 14.07.2022
1059 Clear 25 1019 58 10000 1.03 0 09:49 14.07.2022
1060 Clear 17 1020 78 10000 1.03 50 05:25 14.07.2022
1061 Clouds 19 1020 73 10000 1.88 194 01:22 14.07.2022
1062 Clear 20 1021 70 10000 1.03 290 00:53 14.07.2022
1063 Clear 22 1021 61 10000 1.03 0 22:33 13.07.2022
1064 Clear 24 1021 58 10000 1.03 0 21:55 13.07.2022
1065 Clear 26 1021 47 10000 1.54 320 20:45 13.07.2022
1066 Rain 27 1021 37 10000 4.12 350 19:30 13.07.2022
1067 Clear 28 1021 39 10000 1.03 0 17:51 13.07.2022
1068 Clear 30 1021 31 10000 1.54 90 16:40 13.07.2022
1069 Clear 32 1022 28 10000 1.54 70 15:24 13.07.2022
1070 Clear 29 1023 38 10000 1.03 0 12:56 13.07.2022
1071 Clear 26 1023 52 10000 1.03 0 10:46 13.07.2022
1072 Clear 25 1023 56 10000 1.03 0 10:24 13.07.2022
1073 Clear 22 1024 67 10000 0.51 0 09:25 13.07.2022
1074 Clear 15 1024 82 10000 1.03 0 06:46 13.07.2022
1075 Clear 15 1025 85 10000 0.51 0 03:19 13.07.2022
1076 Clear 18 1025 75 10000 1.03 270 23:52 12.07.2022
1077 Clear 21 1025 64 10000 0.51 0 22:18 12.07.2022
1078 Clear 21 1024 61 10000 1.03 20 21:35 12.07.2022
1079 Clear 25 1024 47 10000 2.06 40 20:42 12.07.2022
1080 Clear 27 1024 40 10000 1.54 0 19:37 12.07.2022
1081 Clear 28 1024 41 10000 2.57 0 17:55 12.07.2022
1082 Clear 27 1025 45 10000 3.09 10 16:20 12.07.2022
1083 Clouds 26 1025 49 10000 2.57 350 14:31 12.07.2022
1084 Clouds 25 1025 52 10000 2.57 0 13:21 12.07.2022
1085 Clouds 23 1025 59 10000 3.09 40 11:46 12.07.2022
1086 Clear 22 1025 65 10000 1.54 0 10:25 12.07.2022
1087 Clear 18 1025 82 10000 1.03 0 08:38 12.07.2022
1088 Clear 15 1024 87 10000 0.51 0 07:47 12.07.2022
1089 Clear 13 1024 89 10000 0 0 05:45 12.07.2022
1090 Clouds 14 1024 88 10000 0 0 04:18 12.07.2022
1091 Clouds 17 1023 82 10000 1.54 320 23:50 11.07.2022
1092 Clear 18 1023 75 10000 0.51 0 22:37 11.07.2022
1093 Clear 21 1023 63 10000 1.54 60 20:56 11.07.2022
1094 Clear 22 1023 58 10000 1.54 90 20:32 11.07.2022
1095 Clouds 24 1023 52 10000 2.06 20 18:48 11.07.2022
1096 Clouds 24 1023 56 10000 3.09 30 18:23 11.07.2022
1097 Clouds 24 1023 54 10000 3.09 30 18:23 11.07.2022
1098 Clear 23 1023 58 10000 3.6 40 16:26 11.07.2022
1099 Clouds 23 1023 58 10000 2.06 0 15:23 11.07.2022
1100 Clouds 22 1023 58 10000 4.12 50 12:42 11.07.2022
1101 Clouds 21 1023 65 10000 1.54 0 11:23 11.07.2022
1102 Clouds 19 1024 73 10000 1.03 0 09:55 11.07.2022
1103 Clouds 18 1024 74 10000 1.03 0 09:27 11.07.2022
1104 Clouds 16 1023 81 10000 1.54 130 08:31 11.07.2022
1105 Clear 15 1024 71 10000 0.51 0 00:59 11.07.2022
1106 Clear 15 1024 70 10000 2.06 320 23:54 10.07.2022
1107 Clear 16 1024 72 10000 2.57 310 22:45 10.07.2022
1108 Clear 19 1024 56 10000 3.6 330 20:56 10.07.2022
1109 Clear 20 1024 53 10000 4.12 330 20:36 10.07.2022
1110 Clear 21 1023 46 10000 4.12 340 19:30 10.07.2022
1111 Clear 21 1023 46 10000 4.12 340 19:30 10.07.2022
1112 Clear 21 1024 47 10000 4.63 350 18:35 10.07.2022
1113 Clear 21 1024 48 10000 5.14 340 17:35 10.07.2022
1114 Clear 21 1024 49 10000 4.12 310 16:24 10.07.2022
1115 Clouds 20 1024 55 10000 5.66 350 14:47 10.07.2022
1116 Clouds 20 1024 58 10000 5.14 340 13:31 10.07.2022
1117 Clouds 18 1024 64 10000 3.6 340 11:57 10.07.2022
1118 Clouds 17 1024 73 10000 5.14 350 09:47 10.07.2022
1119 Clouds 16 1024 82 10000 4.12 350 08:44 10.07.2022
1120 Clouds 16 1023 87 10000 3.6 340 07:24 10.07.2022
1121 Clouds 18 1024 84 10000 3.6 360 23:58 09.07.2022
1122 Rain 21 1023 70 10000 1.54 310 22:27 09.07.2022
1123 Clear 22 1023 62 10000 2.57 320 21:49 09.07.2022
1124 Clear 24 1023 54 10000 3.6 340 20:23 09.07.2022
1125 Clear 25 1024 50 10000 4.12 320 18:32 09.07.2022
1126 Clear 26 1024 48 10000 3.09 330 17:33 09.07.2022
1127 Clear 25 1025 47 10000 2.57 330 16:44 09.07.2022
1128 Clear 26 1025 47 10000 2.06 0 15:40 09.07.2022
1129 Clear 25 1026 49 10000 1.54 0 14:27 09.07.2022
1130 Clear 25 1026 52 10000 1.03 0 13:49 09.07.2022
1131 Clear 24 1027 51 10000 2.06 140 12:45 09.07.2022
1132 Clear 22 1028 58 10000 1.03 0 11:22 09.07.2022
1133 Clear 20 1028 63 10000 1.03 0 10:22 09.07.2022
1134 Clear 14 1028 82 10000 0.51 110 07:45 09.07.2022
1135 Clear 11 1028 90 10000 0.51 60 04:57 09.07.2022
1136 Clear 13 1029 82 10000 1.03 0 01:50 09.07.2022
1137 Clear 16 1029 76 10000 1.33 198 22:54 08.07.2022
1138 Clear 18 1029 62 10000 2.06 330 21:43 08.07.2022
1139 Clear 22 1029 40 10000 2.57 350 20:40 08.07.2022
1140 Clear 22 1029 42 10000 3.09 10 19:52 08.07.2022
1141 Clear 23 1029 45 10000 2.57 0 18:24 08.07.2022
1142 Clear 23 1029 47 10000 2.06 0 16:40 08.07.2022
1143 Clear 21 1030 50 10000 1.54 0 14:53 08.07.2022
1144 Clouds 20 1030 52 10000 3.09 20 13:29 08.07.2022
1145 Clouds 18 1030 57 10000 2.57 350 11:51 08.07.2022
1146 Clouds 17 1030 62 10000 2.57 360 10:29 08.07.2022
1147 Clear 15 1029 75 10000 2.06 340 08:33 08.07.2022
1148 Clouds 13 1029 80 10000 3.09 320 06:50 08.07.2022
1149 Clouds 17 1027 72 10000 4.12 310 01:31 08.07.2022
1150 Clear 18 1026 75 10000 4.12 310 23:22 07.07.2022
1151 Clear 18 1026 74 10000 4.63 310 22:35 07.07.2022
1152 Clear 19 1024 69 10000 7.72 320 20:36 07.07.2022
1153 Clouds 19 1024 76 10000 6.17 310 18:20 07.07.2022
1154 Rain 19 1023 77 10000 8.23 290 16:53 07.07.2022
1155 Rain 20 1023 61 10000 6.69 280 14:56 07.07.2022
1156 Clouds 20 1022 68 10000 7.72 280 13:25 07.07.2022
1157 Clouds 19 1022 74 10000 4.57 287 12:24 07.07.2022
1158 Clouds 19 1022 70 10000 4.57 287 11:46 07.07.2022
1159 Clouds 20 1022 64 10000 6.69 270 11:27 07.07.2022
1160 Clouds 19 1022 62 10000 4.12 260 10:42 07.07.2022
1161 Clouds 19 1022 62 10000 2.57 0 10:24 07.07.2022
1162 Clear 15 1022 75 10000 0.51 0 06:58 07.07.2022
1163 Clear 14 1023 77 10000 1.54 260 02:55 07.07.2022
1164 Clouds 16 1024 68 10000 1.41 271 23:36 06.07.2022
1165 Clear 16 1024 61 10000 4.12 320 23:18 06.07.2022
1166 Clear 16 1024 58 10000 4.12 320 22:56 06.07.2022
1167 Clear 17 1023 55 10000 4.12 320 22:38 06.07.2022
1168 Clear 20 1023 45 10000 4.12 340 20:54 06.07.2022
1169 Clear 22 1022 49 10000 5.14 330 19:35 06.07.2022
1170 Clouds 24 1023 49 10000 4.63 320 17:32 06.07.2022
1171 Clouds 24 1023 52 10000 5.14 320 16:19 06.07.2022
1172 Clouds 23 1023 56 10000 4.63 320 14:46 06.07.2022
1173 Clouds 23 1024 56 10000 2.06 0 12:35 06.07.2022
1174 Clear 22 1024 58 10000 1.54 0 11:49 06.07.2022
1175 Clear 20 1024 64 10000 2.57 340 10:18 06.07.2022
1176 Clear 16 1024 78 10000 1.54 310 07:46 06.07.2022
1177 Clear 15 1023 79 10000 2.06 290 07:23 06.07.2022
1178 Clear 15 1023 80 10000 1.61 281 02:55 06.07.2022
1179 Clear 19 1021 63 10000 1.54 260 22:45 05.07.2022
1180 Clear 19 1021 63 10000 1.54 260 22:45 05.07.2022
1181 Clear 22 1021 40 10000 3.09 300 21:39 05.07.2022
1182 Clear 25 1021 35 10000 4.12 320 20:38 05.07.2022
1183 Clear 26 1020 35 10000 4.12 330 19:41 05.07.2022
1184 Clear 27 1020 37 10000 3.6 330 19:22 05.07.2022
1185 Clear 27 1020 39 10000 4.63 330 17:47 05.07.2022
1186 Clear 27 1021 40 10000 3.09 20 16:44 05.07.2022
1187 Clear 27 1021 39 10000 3.6 340 15:25 05.07.2022
1188 Clear 26 1021 42 10000 1.54 10 13:59 05.07.2022
1189 Clear 26 1021 43 10000 2.06 0 12:42 05.07.2022
1190 Clear 25 1021 50 10000 1.54 0 11:33 05.07.2022
1191 Clear 23 1021 55 10000 1.03 0 10:40 05.07.2022
1192 Clear 21 1021 65 10000 0.51 0 09:22 05.07.2022
1193 Clear 16 1021 83 10000 0.51 0 07:45 05.07.2022
1194 Clear 14 1020 89 10000 0.51 220 04:51 05.07.2022
1195 Clear 14 1020 89 10000 1.03 0 04:23 05.07.2022
1196 Clouds 19 1019 74 10000 0.51 280 23:56 04.07.2022
1197 Clouds 19 1019 71 10000 0.47 348 23:26 04.07.2022
1198 Clear 22 1019 59 10000 2.06 330 22:25 04.07.2022
1199 Clouds 23 1019 54 10000 2.06 320 21:41 04.07.2022
1200 Rain 24 1018 47 10000 3.09 320 20:52 04.07.2022
1201 Clear 25 1018 48 10000 3.6 330 20:33 04.07.2022
1202 Clear 25 1018 45 10000 3.6 330 19:54 04.07.2022
1203 Clear 26 1018 47 10000 3.09 320 19:35 04.07.2022
1204 Clear 27 1018 48 10000 3.6 320 17:58 04.07.2022
1205 Clear 26 1019 53 10000 2.57 0 15:50 04.07.2022
1206 Clear 27 1019 54 10000 3.09 340 15:31 04.07.2022
1207 Clear 25 1020 56 10000 2.06 60 13:29 04.07.2022
1208 Clouds 23 1021 65 10000 1.54 0 12:21 04.07.2022
1209 Clear 21 1020 72 10000 1.54 90 10:34 04.07.2022
1210 Clear 20 1020 73 10000 1.54 350 09:41 04.07.2022
1211 Clear 18 1021 78 10000 3.6 280 07:37 04.07.2022
1212 Clear 19 1019 72 10000 3.09 280 04:48 04.07.2022
1213 Clear 20 1018 77 10000 1.54 270 00:36 04.07.2022
1214 Clear 21 1018 71 10000 0.51 0 22:59 03.07.2022
1215 Clear 26 1017 44 10000 2.57 340 20:58 03.07.2022
1216 Clear 27 1017 45 10000 3.09 350 20:31 03.07.2022
1217 Clear 29 1017 43 10000 4.12 340 19:27 03.07.2022
1218 Clear 30 1017 40 10000 4.12 350 18:43 03.07.2022
1219 Clear 30 1017 39 10000 4.12 340 17:44 03.07.2022
1220 Clear 30 1018 37 10000 2.57 0 15:54 03.07.2022
1221 Clear 30 1019 43 10000 2.06 0 14:59 03.07.2022
1222 Clear 29 1019 44 10000 3.09 0 14:18 03.07.2022
1223 Clear 29 1019 42 10000 2.06 0 13:48 03.07.2022
1224 Clear 28 1020 46 10000 3.09 240 12:33 03.07.2022
1225 Clear 27 1020 49 10000 2.06 200 11:29 03.07.2022
1226 Clear 25 1020 55 10000 2.57 0 10:39 03.07.2022
1227 Clear 24 1020 67 10000 2.06 0 09:42 03.07.2022
1228 Clear 17 1020 90 10000 0.51 0 07:35 03.07.2022
1229 Clear 16 1020 88 10000 1.03 0 07:35 03.07.2022
1230 Clear 15 1019 88 10000 1.54 330 04:22 03.07.2022
1231 Clear 17 1020 82 10000 1.81 175 00:22 03.07.2022
1232 Clear 19 1019 79 10000 2.57 90 22:34 02.07.2022
1233 Clear 23 1019 56 10000 2.57 70 21:28 02.07.2022
1234 Clear 25 1019 44 10000 2.57 90 19:52 02.07.2022
1235 Clear 26 1019 41 10000 3.09 80 19:20 02.07.2022
1236 Clear 27 1020 43 10000 3.09 120 17:51 02.07.2022
1237 Clear 27 1020 43 10000 3.09 120 17:33 02.07.2022
1238 Clear 25 1022 48 10000 2.57 110 14:52 02.07.2022
1239 Clear 24 1023 52 10000 5.14 80 12:22 02.07.2022
1240 Rain 22 1023 61 10000 3.6 70 11:27 02.07.2022
1241 Clear 21 1023 67 10000 2.57 0 10:46 02.07.2022
1242 Clear 19 1024 80 10000 1.54 80 09:37 02.07.2022
1243 Clear 16 1024 84 10000 1.54 70 08:36 02.07.2022
1244 Clear 15 1024 87 10000 1.54 70 08:18 02.07.2022
1245 Clear 13 1024 91 10000 0 0 02:52 02.07.2022
1246 Clear 14 1023 88 10000 1.54 70 00:27 02.07.2022
1247 Clear 15 1023 86 10000 0.51 0 22:59 01.07.2022
1248 Clouds 16 1023 85 10000 1.35 151 21:56 01.07.2022
1249 Clear 17 1022 77 10000 1.03 0 21:37 01.07.2022
1250 Clear 19 1022 72 10000 1.03 0 20:56 01.07.2022
1251 Clouds 20 1021 63 10000 1.03 0 19:47 01.07.2022
1252 Clouds 20 1021 63 10000 1.54 0 18:42 01.07.2022
1253 Clouds 18 1021 74 10000 2.57 110 16:35 01.07.2022
1254 Clouds 16 1021 84 10000 1.03 0 13:55 01.07.2022
1255 Clouds 15 1021 89 10000 0.51 0 13:22 01.07.2022
1256 Drizzle 14 1020 89 10000 1.54 300 10:46 01.07.2022
1257 Rain 14 1020 90 10000 2.57 300 10:18 01.07.2022
1258 Rain 14 1017 90 10000 3.6 280 05:58 01.07.2022
1259 Rain 15 1017 89 10000 3.6 300 01:30 01.07.2022
1260 Rain 18 1017 84 10000 5.94 280 23:33 30.06.2022
1261 Clouds 21 1013 83 10000 1.54 220 22:47 30.06.2022
1262 Clouds 21 1012 91 10000 2.06 150 22:27 30.06.2022
1263 Clouds 22 1012 84 10000 3.6 320 21:51 30.06.2022
1264 Clear 23 1012 83 10000 3.09 270 20:41 30.06.2022
1265 Clear 24 1010 83 10000 1.54 0 19:55 30.06.2022
1266 Clear 24 1010 81 10000 1.54 0 19:35 30.06.2022
1267 Rain 26 1008 69 10000 2.54 120 18:43 30.06.2022
1268 Rain 29 1011 58 10000 0.51 0 17:49 30.06.2022
1269 Rain 31 1010 49 10000 1.03 0 16:56 30.06.2022
1270 Clear 31 1011 44 10000 2.57 50 15:52 30.06.2022
1271 Clouds 30 1011 46 10000 2.57 90 13:51 30.06.2022
1272 Clouds 29 1012 49 10000 1.54 0 13:19 30.06.2022
1273 Clear 29 1012 52 10000 2.06 80 12:33 30.06.2022
1274 Clear 26 1012 70 10000 1.56 127 10:21 30.06.2022
1275 Clear 24 1013 76 10000 1.03 0 09:41 30.06.2022
1276 Clear 21 1013 86 10000 1.03 100 08:26 30.06.2022
1277 Clear 19 1013 89 10000 1.03 0 07:41 30.06.2022
1278 Clear 17 1013 92 10000 0.51 0 03:53 30.06.2022
1279 Clear 20 1013 85 10000 1.54 280 23:39 29.06.2022
1280 Clear 21 1013 88 10000 1.31 209 22:41 29.06.2022
1281 Clouds 22 1013 80 10000 1.54 30 22:19 29.06.2022
1282 Clouds 26 1013 58 10000 1.54 340 20:35 29.06.2022
1283 Clouds 27 1013 53 10000 1.03 0 19:57 29.06.2022
1284 Clouds 27 1013 55 10000 1.54 120 18:46 29.06.2022
1285 Clouds 27 1014 56 10000 2.06 250 17:38 29.06.2022
1286 Clouds 26 1014 55 10000 1.03 0 16:24 29.06.2022
1287 Clouds 26 1013 64 10000 2.48 317 13:52 29.06.2022
1288 Clouds 25 1015 65 10000 2.06 120 12:38 29.06.2022
1289 Rain 22 1015 80 10000 2.06 80 10:18 29.06.2022
1290 Rain 20 1015 87 10000 1.03 0 09:27 29.06.2022
1291 Clear 16 1015 90 10000 0.51 190 06:57 29.06.2022
1292 Clear 16 1015 90 10000 1.54 270 04:46 29.06.2022
1293 Clear 18 1016 86 10000 2.06 230 00:54 29.06.2022
1294 Clear 19 1016 85 10000 0.51 0 00:35 29.06.2022
1295 Clear 21 1017 79 10000 1.03 0 22:52 28.06.2022
1296 Clear 21 1016 77 10000 3.09 40 22:21 28.06.2022
1297 Clouds 22 1016 75 10000 3.09 50 21:49 28.06.2022
1298 Clouds 22 1016 72 10000 2.06 80 21:30 28.06.2022
1299 Clear 24 1016 63 10000 2.57 90 20:18 28.06.2022
1300 Clouds 24 1017 64 10000 3.6 80 19:32 28.06.2022
1301 Clouds 24 1018 63 10000 3.6 90 18:40 28.06.2022
1302 Clear 25 1018 60 10000 3.6 70 17:37 28.06.2022
1303 Rain 25 1019 59 10000 4.12 60 15:56 28.06.2022
1304 Clouds 24 1020 63 10000 3.6 50 14:59 28.06.2022
1305 Clouds 23 1020 67 10000 3.09 30 14:19 28.06.2022
1306 Clouds 23 1020 67 10000 3.6 40 13:47 28.06.2022
1307 Clouds 22 1021 73 10000 2.06 60 12:47 28.06.2022
1308 Clouds 20 1022 82 10000 2.57 10 10:44 28.06.2022
1309 Clouds 18 1022 88 10000 1.03 0 09:25 28.06.2022
1310 Clouds 18 1023 89 10000 1.54 340 08:43 28.06.2022
1311 Clouds 16 1023 72 10000 2.57 320 07:20 28.06.2022
1312 Clouds 15 1022 68 10000 0.17 341 04:56 28.06.2022
1313 Clouds 18 1022 88 10000 1.03 0 23:56 27.06.2022
1314 Clouds 18 1022 87 10000 1.03 0 23:36 27.06.2022
1315 Rain 18 1022 87 10000 1.54 250 22:50 27.06.2022
1316 Clouds 19 1021 89 10000 1.03 0 21:30 27.06.2022
1317 Rain 19 1020 89 10000 0.51 0 20:39 27.06.2022
1318 Thunderstorm 20 1019 85 10000 2.57 340 18:58 27.06.2022
1319 Rain 21 1019 78 10000 1.54 0 17:46 27.06.2022
1320 Clouds 21 1019 77 10000 3.09 340 16:18 27.06.2022
1321 Clouds 21 1018 81 10000 3.09 340 14:44 27.06.2022
1322 Clouds 22 1018 80 10000 4.12 330 13:25 27.06.2022
1323 Clouds 21 1017 82 10000 4.12 360 12:52 27.06.2022
1324 Clouds 20 1016 86 10000 1.03 0 10:22 27.06.2022
1325 Clouds 19 1016 89 10000 3.09 290 08:48 27.06.2022
1326 Clouds 19 1015 87 10000 2.06 0 08:19 27.06.2022
1327 Clouds 17 1014 90 10000 1.54 0 06:38 27.06.2022
1328 Rain 19 1013 86 10000 9.77 310 02:28 27.06.2022
1329 Clear 21 1011 80 10000 2.57 70 23:55 26.06.2022
1330 Clear 24 1012 60 10000 2.06 360 21:58 26.06.2022
1331 Clear 26 1012 54 10000 3.09 360 20:44 26.06.2022
1332 Clear 29 1013 50 10000 3.6 10 19:32 26.06.2022
1333 Clear 29 1013 50 10000 4.12 10 18:30 26.06.2022
1334 Clear 28 1014 52 10000 2.57 350 16:33 26.06.2022
1335 Clear 28 1015 54 10000 3.6 350 14:41 26.06.2022
1336 Clear 27 1015 56 10000 2.06 350 13:38 26.06.2022
1337 Clear 27 1016 56 10000 2.57 0 13:18 26.06.2022
1338 Clear 25 1016 64 10000 2.06 0 11:26 26.06.2022
1339 Clear 23 1016 67 10000 1.54 110 10:26 26.06.2022
1340 Clear 21 1016 74 10000 1.54 80 09:22 26.06.2022
1341 Clear 19 1015 85 10000 1.03 0 07:44 26.06.2022
1342 Clear 18 1014 84 10000 1.03 310 01:55 26.06.2022
1343 Clear 19 1013 79 10000 0.51 0 00:21 26.06.2022
1344 Clear 19 1013 79 10000 1.54 90 23:49 25.06.2022
1345 Clear 20 1013 80 10000 1.03 0 23:20 25.06.2022
1346 Clouds 21 1013 77 10000 1.89 131 22:27 25.06.2022
1347 Clear 22 1012 64 10000 1.54 130 21:40 25.06.2022
1348 Clear 23 1012 64 10000 2.06 100 21:18 25.06.2022
1349 Clear 26 1012 50 10000 2.06 90 20:27 25.06.2022
1350 Clear 27 1012 46 10000 2.57 80 19:21 25.06.2022
1351 Clear 27 1013 46 10000 2.57 80 17:57 25.06.2022
1352 Clear 27 1013 46 10000 2.57 100 17:22 25.06.2022
1353 Clouds 27 1014 51 10000 1.54 0 15:36 25.06.2022
1354 Clouds 25 1014 57 10000 2.06 190 13:41 25.06.2022
1355 Clouds 24 1015 63 10000 2.06 0 12:38 25.06.2022
1356 Clouds 22 1015 71 10000 1.54 0 10:45 25.06.2022
1357 Clear 20 1016 82 10000 1.54 0 09:20 25.06.2022
1358 Clear 18 1016 85 10000 1.54 170 08:41 25.06.2022
1359 Clear 18 1016 84 10000 1.03 0 08:19 25.06.2022
1360 Clear 15 1015 90 10000 1.54 240 04:18 25.06.2022
1361 Clouds 16 1014 89 10000 2.13 206 00:43 25.06.2022
1362 Clear 17 1013 88 10000 1.54 210 22:56 24.06.2022
1363 Rain 17 1013 90 10000 2.06 250 21:44 24.06.2022
1364 Rain 17 1012 89 10000 5.14 230 20:57 24.06.2022
1365 Rain 18 1011 90 10000 4.63 230 20:19 24.06.2022
1366 Rain 18 1011 89 10000 2.57 210 19:22 24.06.2022
1367 Rain 18 1011 90 10000 1.54 0 18:49 24.06.2022
1368 Rain 18 1011 94 10000 1.54 0 18:30 24.06.2022
1369 Rain 18 1011 94 10000 2.06 230 17:41 24.06.2022
1370 Rain 22 1009 74 10000 4.12 350 15:56 24.06.2022
1371 Clouds 25 1009 62 10000 3.6 330 14:29 24.06.2022
1372 Clouds 25 1009 61 10000 2.06 0 13:55 24.06.2022
1373 Clear 25 1010 64 10000 1.54 0 11:54 24.06.2022
1374 Clouds 24 1010 67 10000 2.57 230 11:34 24.06.2022
1375 Clouds 23 1011 74 10000 3.6 240 10:22 24.06.2022
1376 Clear 23 1011 75 10000 3.6 230 09:40 24.06.2022
1377 Clear 21 1011 84 10000 2.57 190 08:52 24.06.2022
1378 Clear 18 1011 88 10000 1.03 0 07:20 24.06.2022
1379 Clear 17 1011 90 10000 0.51 0 06:40 24.06.2022
1380 Clear 17 1011 90 10000 2.06 250 06:18 24.06.2022
1381 Rain 18 1012 92 10000 2.57 90 02:44 24.06.2022
1382 Clear 23 1010 68 10000 1.54 90 22:57 23.06.2022
1383 Clear 24 1010 66 10000 1.54 90 22:38 23.06.2022
1384 Clear 28 1009 47 10000 3.09 70 20:57 23.06.2022
1385 Clear 28 1009 49 10000 4.12 70 20:32 23.06.2022
1386 Clear 30 1009 44 10000 3.6 80 19:25 23.06.2022
1387 Clear 30 1010 45 10000 2.06 100 17:51 23.06.2022
1388 Clear 30 1011 46 10000 3.09 120 16:58 23.06.2022
1389 Clouds 30 1011 50 10000 1.54 0 15:50 23.06.2022
1390 Clouds 30 1012 51 10000 2.06 100 15:24 23.06.2022
1391 Clouds 28 1013 57 10000 2.06 0 13:40 23.06.2022
1392 Clear 26 1014 69 10000 2.06 70 11:27 23.06.2022
1393 Clear 24 1014 77 10000 2.06 80 10:35 23.06.2022
1394 Clear 21 1014 84 10000 2.06 140 08:53 23.06.2022
1395 Fog 18 1013 91 8000 0.51 0 03:39 23.06.2022
1396 Clouds 19 1013 86 10000 1.03 0 00:26 23.06.2022
1397 Clouds 19 1013 88 10000 1.03 230 23:41 22.06.2022
1398 Clouds 20 1012 85 10000 0.51 0 22:41 22.06.2022
1399 Clear 21 1013 87 10000 1.54 0 21:22 22.06.2022
1400 Clouds 21 1012 88 10000 2.06 360 20:43 22.06.2022
1401 Rain 21 1011 86 10000 1.03 0 19:56 22.06.2022
1402 Clear 23 1012 73 10000 2.06 140 18:47 22.06.2022
1403 Clouds 22 1012 72 10000 1.03 0 17:28 22.06.2022
1404 Rain 22 1012 82 10000 1.03 0 16:33 22.06.2022
1405 Rain 22 1013 82 10000 2.06 230 15:27 22.06.2022
1406 Rain 21 1013 84 10000 2.57 220 14:21 22.06.2022
1407 Clouds 22 1013 85 10000 1.03 0 13:42 22.06.2022
1408 Clouds 22 1013 83 10000 1.03 0 13:23 22.06.2022
1409 Rain 22 1012 77 10000 0.51 0 11:50 22.06.2022
1410 Rain 22 1012 77 10000 0.51 0 11:50 22.06.2022
1411 Rain 22 1012 77 10000 0.51 0 11:50 22.06.2022
1412 Clear 22 1012 87 10000 1.54 60 10:57 22.06.2022
1413 Clear 21 1012 82 10000 0.51 0 10:19 22.06.2022
1414 Rain 22 1012 82 10000 1.03 0 08:37 22.06.2022
1415 Clear 19 1011 87 10000 1.03 0 05:59 22.06.2022
1416 Clouds 21 1011 73 10000 1.03 0 01:49 22.06.2022
1417 Rain 22 1012 73 10000 0.51 0 00:36 22.06.2022
1418 Rain 23 1011 73 10000 1.54 80 22:37 21.06.2022
1419 Clear 26 1011 53 10000 3.09 40 20:39 21.06.2022
1420 Clear 28 1011 50 10000 2.57 70 18:51 21.06.2022
1421 Clear 28 1011 52 10000 3.6 40 17:42 21.06.2022
1422 Clear 27 1012 57 10000 3.6 70 15:21 21.06.2022
1423 Clouds 22 1013 57 10000 2.21 105 11:55 21.06.2022
1424 Clear 20 1015 57 10000 2.06 90 10:20 21.06.2022
1425 Clear 18 1015 63 10000 1.03 0 08:51 21.06.2022
1426 Clear 15 1015 73 10000 2.06 80 07:35 21.06.2022
1427 Clear 12 1015 83 10000 1.03 0 04:40 21.06.2022
1428 Clouds 17 1016 77 10000 3.09 10 23:27 20.06.2022
1429 Clouds 19 1016 69 10000 4.63 330 21:59 20.06.2022
1430 Clouds 20 1015 74 10000 4.12 320 21:32 20.06.2022
1431 Clouds 21 1015 73 10000 5.14 350 20:25 20.06.2022
1432 Clouds 23 1014 70 10000 2.06 320 18:56 20.06.2022
1433 Clouds 23 1014 70 10000 2.57 10 18:24 20.06.2022
1434 Clouds 23 1014 72 10000 3.6 330 17:44 20.06.2022
1435 Clouds 23 1014 72 10000 6.69 330 16:24 20.06.2022
1436 Clear 26 1013 61 10000 10.29 290 14:36 20.06.2022
1437 Clear 26 1012 64 10000 2.57 0 11:47 20.06.2022
1438 Clouds 23 1012 77 10000 0.51 0 09:55 20.06.2022
1439 Clouds 21 1012 88 10000 0.51 0 08:46 20.06.2022
1440 Clouds 20 1011 69 10000 1.03 0 07:36 20.06.2022
1441 Rain 21 1009 80 10000 0.51 0 04:56 20.06.2022
1442 Clear 22 1009 74 10000 1.03 0 01:32 20.06.2022
1443 Clear 25 1009 53 10000 3.09 300 23:48 19.06.2022
1444 Clear 26 1009 55 10000 1.03 0 22:20 19.06.2022
1445 Clear 29 1009 47 10000 1.54 330 21:42 19.06.2022
1446 Clear 32 1009 40 10000 2.06 350 20:52 19.06.2022
1447 Clear 34 1008 32 10000 3.09 250 19:49 19.06.2022
1448 Clear 34 1008 30 10000 3.09 250 19:49 19.06.2022
1449 Clear 35 1008 30 10000 2.57 250 19:25 19.06.2022
1450 Clear 36 1008 28 10000 4.63 250 18:32 19.06.2022
1451 Clear 35 1009 27 10000 4.12 250 17:48 19.06.2022
1452 Clear 36 1009 30 10000 3.6 230 17:20 19.06.2022
1453 Clear 36 1009 28 10000 6.17 250 16:34 19.06.2022
1454 Clear 36 1010 28 10000 5.14 250 15:35 19.06.2022
1455 Clear 36 1010 28 10000 6.69 230 14:51 19.06.2022
1456 Clear 36 1010 28 10000 5.66 240 13:54 19.06.2022
1457 Clear 34 1010 31 10000 8.75 270 12:39 19.06.2022
1458 Clear 31 1009 49 10000 3.48 246 10:54 19.06.2022
1459 Clear 28 1011 56 10000 1.54 110 09:40 19.06.2022
1460 Clear 26 1011 58 10000 1.54 110 08:47 19.06.2022
1461 Clear 23 1011 69 10000 0.51 0 07:48 19.06.2022
1462 Clear 19 1011 78 10000 1.03 0 04:45 19.06.2022
1463 Clear 21 1013 78 10000 1.54 0 01:29 19.06.2022
1464 Clear 22 1014 74 10000 1.03 70 00:24 19.06.2022
1465 Clear 23 1015 70 10000 1.54 60 23:35 18.06.2022
1466 Clear 24 1015 65 10000 2.06 70 22:36 18.06.2022
1467 Clear 29 1015 47 10000 1.54 130 20:56 18.06.2022
1468 Clear 31 1016 43 10000 1.54 120 20:28 18.06.2022
1469 Clear 32 1016 35 10000 2.57 140 19:37 18.06.2022
1470 Clear 33 1016 31 10000 2.57 140 18:45 18.06.2022
1471 Clear 35 1017 30 10000 2.57 110 17:31 18.06.2022
1472 Clear 34 1018 32 10000 2.06 0 16:47 18.06.2022
1473 Clear 34 1019 32 10000 2.06 100 15:31 18.06.2022
1474 Clear 33 1019 31 10000 1.54 0 14:42 18.06.2022
1475 Clear 32 1020 33 10000 1.03 0 13:22 18.06.2022
1476 Clear 32 1020 33 10000 1.03 0 13:22 18.06.2022
1477 Clear 29 1021 43 10000 1.54 70 11:39 18.06.2022
1478 Clear 27 1021 50 10000 1.03 0 10:46 18.06.2022
1479 Clear 24 1022 61 10000 1.03 0 09:23 18.06.2022
1480 Clear 20 1022 70 10000 1.03 0 08:24 18.06.2022
1481 Clear 16 1022 78 10000 1.03 0 06:46 18.06.2022
1482 Clear 16 1023 79 10000 0 0 03:45 18.06.2022
1483 Clear 18 1023 74 10000 1.03 350 01:26 18.06.2022
1484 Clear 18 1023 74 10000 1.03 350 01:26 18.06.2022
1485 Clear 18 1023 74 10000 1.03 350 01:26 18.06.2022
1486 Clear 18 1023 72 10000 1.03 320 00:48 18.06.2022
1487 Clear 19 1023 68 10000 1.54 320 23:52 17.06.2022
1488 Clear 20 1023 65 10000 0.51 0 23:24 17.06.2022
1489 Clear 24 1023 50 10000 1.54 70 21:18 17.06.2022
1490 Clear 28 1023 36 10000 1.54 0 20:00 17.06.2022
1491 Clear 29 1024 32 10000 1.54 0 18:49 17.06.2022
1492 Clear 29 1024 30 10000 2.06 60 17:44 17.06.2022
1493 Clear 29 1024 31 10000 2.06 0 16:43 17.06.2022
1494 Clear 29 1024 31 10000 2.06 0 16:43 17.06.2022
1495 Clear 28 1024 35 10000 1.54 0 15:49 17.06.2022
1496 Clear 28 1024 37 10000 1.54 150 15:22 17.06.2022
1497 Clear 27 1025 40 10000 1.54 0 14:20 17.06.2022
1498 Clear 27 1025 40 10000 1.03 0 13:46 17.06.2022
1499 Clear 26 1025 41 10000 1.03 0 13:26 17.06.2022
1500 Clear 25 1025 48 10000 1.54 0 11:58 17.06.2022
1501 Clear 24 1025 51 10000 1.54 70 11:39 17.06.2022
1502 Clear 23 1025 53 10000 1.54 70 11:21 17.06.2022
1503 Clear 18 1025 71 10000 1.03 0 08:33 17.06.2022
1504 Clear 16 1025 77 10000 0.51 0 07:51 17.06.2022
1505 Clear 13 1024 81 10000 1.54 320 06:32 17.06.2022
1506 Clouds 15 1024 76 10000 0.99 24 03:24 17.06.2022
1507 Clear 17 1023 63 10000 3.6 310 00:46 17.06.2022
1508 Clear 20 1022 49 10000 2.06 290 23:30 16.06.2022
1509 Clouds 20 1022 58 10000 1.66 330 22:38 16.06.2022
1510 Clouds 20 1022 58 10000 1.66 330 22:38 16.06.2022
1511 Clear 25 1021 29 10000 3.09 340 21:19 16.06.2022
1512 Clear 26 1021 29 10000 5.14 330 20:50 16.06.2022
1513 Clear 27 1020 34 10000 5.66 320 19:59 16.06.2022
1514 Clear 28 1020 35 10000 4.63 330 18:48 16.06.2022
1515 Clear 29 1020 36 10000 5.66 320 17:49 16.06.2022
1516 Clear 29 1020 37 10000 5.66 320 17:49 16.06.2022
1517 Clear 29 1020 36 10000 6.69 320 17:27 16.06.2022
1518 Clear 29 1020 37 10000 7.2 320 16:19 16.06.2022
1519 Clear 29 1020 43 10000 7.72 330 15:21 16.06.2022
1520 Rain 29 1020 46 10000 6.69 340 14:27 16.06.2022
1521 Rain 27 1019 48 10000 5.66 320 12:53 16.06.2022
1522 Rain 27 1019 50 10000 5.14 290 12:34 16.06.2022
1523 Clear 26 1019 50 10000 6.69 300 11:48 16.06.2022
1524 Clear 25 1018 56 10000 1.54 60 10:41 16.06.2022
1525 Rain 23 1018 60 10000 1.03 0 09:43 16.06.2022
1526 Clear 21 1017 68 10000 1.54 90 08:59 16.06.2022
1527 Clear 18 1017 74 10000 1.03 0 07:42 16.06.2022
1528 Clear 16 1017 85 10000 1.03 0 06:36 16.06.2022
1529 Clear 15 1017 82 10000 1.03 0 04:27 16.06.2022
1530 Clear 17 1017 75 10000 1.54 270 01:53 16.06.2022
1531 Clear 18 1017 73 10000 1.03 0 01:29 16.06.2022
1532 Clear 18 1017 70 10000 1.03 0 00:31 16.06.2022
1533 Clear 21 1017 61 10000 0.51 0 22:59 15.06.2022
1534 Clear 22 1016 65 10000 0.77 146 21:55 15.06.2022
1535 Clear 25 1016 47 10000 2.06 340 21:20 15.06.2022
1536 Clear 27 1016 42 10000 3.6 360 20:37 15.06.2022
1537 Clear 28 1016 39 10000 3.6 360 20:18 15.06.2022
1538 Clear 30 1016 34 10000 1.54 40 18:48 15.06.2022
1539 Clear 30 1016 33 10000 1.03 0 17:54 15.06.2022
1540 Clear 31 1017 35 10000 1.03 0 16:37 15.06.2022
1541 Clear 30 1017 35 10000 1.03 0 15:23 15.06.2022
1542 Clear 28 1017 41 10000 2.06 100 13:37 15.06.2022
1543 Clear 28 1018 44 10000 1.03 0 12:53 15.06.2022
1544 Rain 26 1018 49 10000 1.54 0 11:42 15.06.2022
1545 Rain 24 1017 55 10000 1.03 0 10:23 15.06.2022
1546 Clear 22 1017 60 10000 1.03 0 09:37 15.06.2022
1547 Clear 19 1017 71 10000 1.03 80 08:27 15.06.2022
1548 Clear 13 1017 85 10000 1.03 0 06:33 15.06.2022
1549 Clear 14 1018 82 10000 1.54 290 03:30 15.06.2022
1550 Clear 15 1018 80 10000 1.03 0 01:38 15.06.2022
1551 Clear 16 1018 78 10000 1.03 0 00:50 15.06.2022
1552 Clear 17 1018 71 10000 1.03 90 23:39 14.06.2022
1553 Clear 19 1018 63 10000 2.06 90 22:52 14.06.2022
1554 Clear 19 1018 68 10000 2.57 90 22:18 14.06.2022
1555 Clear 21 1018 61 10000 2.06 90 21:28 14.06.2022
1556 Clear 23 1018 49 10000 3.09 80 20:48 14.06.2022
1557 Clear 24 1018 46 10000 2.57 80 20:28 14.06.2022
1558 Clear 26 1018 38 10000 1.54 80 18:45 14.06.2022
1559 Clear 26 1019 38 10000 2.57 70 17:39 14.06.2022
1560 Clear 26 1019 38 10000 2.06 0 16:43 14.06.2022
1561 Clear 26 1020 39 10000 1.54 0 15:50 14.06.2022
1562 Clear 26 1020 39 10000 1.54 0 15:50 14.06.2022
1563 Clear 25 1021 40 10000 2.06 80 14:57 14.06.2022
1564 Clear 25 1021 40 10000 2.06 80 14:57 14.06.2022
1565 Clear 25 1021 40 10000 3.09 0 14:23 14.06.2022
1566 Clear 24 1021 42 10000 2.06 0 13:40 14.06.2022
1567 Clear 23 1022 47 10000 2.06 0 12:30 14.06.2022
1568 Clear 22 1022 52 10000 1.54 0 11:28 14.06.2022
1569 Clear 21 1022 58 10000 1.54 100 10:44 14.06.2022
1570 Clear 19 1023 67 10000 1.03 0 09:48 14.06.2022
1571 Clear 16 1022 77 10000 1.03 0 08:46 14.06.2022
1572 Clear 13 1022 87 10000 1.03 0 07:31 14.06.2022
1573 Clear 10 1022 87 10000 1.03 0 05:19 14.06.2022
1574 Clear 12 1023 81 10000 0.51 0 02:49 14.06.2022
1575 Clouds 14 1023 81 10000 0.72 312 00:28 14.06.2022
1576 Clouds 15 1023 80 10000 1 341 23:27 13.06.2022
1577 Clear 17 1022 66 10000 3.09 340 22:26 13.06.2022
1578 Clear 18 1021 62 10000 2.57 320 21:49 13.06.2022
1579 Clear 21 1021 43 10000 3.09 340 20:31 13.06.2022
1580 Clear 23 1021 39 10000 3.09 330 19:34 13.06.2022
1581 Clear 23 1021 44 10000 3.6 330 18:25 13.06.2022
1582 Clear 23 1021 43 10000 5.14 340 17:46 13.06.2022
1583 Clear 23 1021 44 10000 5.14 340 16:52 13.06.2022
1584 Clear 23 1022 46 10000 4.63 330 15:38 13.06.2022
1585 Clear 22 1021 49 10000 5.14 310 14:43 13.06.2022
1586 Clear 22 1022 48 10000 5.66 290 13:54 13.06.2022
1587 Clouds 22 1022 54 10000 4.12 280 12:48 13.06.2022
1588 Clouds 22 1022 53 10000 4.12 280 12:48 13.06.2022
1589 Clouds 21 1022 61 10000 3.6 330 11:34 13.06.2022
1590 Clear 19 1021 68 10000 3.6 320 10:27 13.06.2022
1591 Clear 18 1021 71 10000 4.63 320 09:39 13.06.2022
1592 Clear 16 1020 83 10000 2.06 300 07:53 13.06.2022
1593 Clear 15 1019 69 10000 3.6 270 06:28 13.06.2022
1594 Clear 17 1019 91 10000 1.03 0 03:18 13.06.2022
1595 Rain 19 1018 88 10000 2.06 210 01:38 13.06.2022
1596 Clouds 20 1018 87 10000 1.54 220 00:22 13.06.2022
1597 Rain 23 1019 60 10000 2.57 320 23:29 12.06.2022
1598 Rain 24 1019 53 10000 3.6 320 22:23 12.06.2022
1599 Clear 26 1018 47 10000 3.09 320 21:39 12.06.2022
1600 Clear 27 1018 41 10000 2.57 330 20:39 12.06.2022
1601 Clear 27 1018 41 10000 3.09 330 19:38 12.06.2022
1602 Clear 28 1019 41 10000 2.06 320 18:43 12.06.2022
1603 Clear 29 1020 44 10000 3.6 20 16:42 12.06.2022
1604 Clear 29 1020 44 10000 2.06 0 15:30 12.06.2022
1605 Clear 28 1021 43 10000 1.54 0 14:32 12.06.2022
1606 Clear 29 1021 45 10000 2.06 0 13:57 12.06.2022
1607 Clear 28 1021 46 10000 2.06 0 13:38 12.06.2022
1608 Clear 26 1022 56 10000 1.54 90 11:48 12.06.2022
1609 Clear 25 1023 62 10000 1.03 0 10:45 12.06.2022
1610 Rain 22 1023 69 10000 0.51 0 09:36 12.06.2022
1611 Rain 21 1023 74 10000 1.03 0 08:49 12.06.2022
1612 Clear 17 1023 82 10000 0.51 0 07:47 12.06.2022
1613 Clear 14 1023 92 10000 1.03 50 05:51 12.06.2022
1614 Clear 14 1023 90 10000 0.51 0 03:38 12.06.2022
1615 Clear 15 1023 88 10000 1.54 340 03:38 12.06.2022
1616 Clear 16 1023 86 10000 1.03 340 01:44 12.06.2022
1617 Clear 17 1023 84 10000 2.57 320 00:59 12.06.2022
1618 Clear 17 1023 82 10000 0.51 0 00:30 12.06.2022
1619 Clear 18 1023 80 10000 1.03 0 23:56 11.06.2022
1620 Clear 19 1023 74 10000 0.51 0 22:53 11.06.2022
1621 Clear 20 1023 77 10000 1.32 146 22:29 11.06.2022
1622 Clear 25 1023 50 10000 2.57 360 20:55 11.06.2022
1623 Clear 25 1022 47 10000 3.09 360 20:26 11.06.2022
1624 Clear 26 1022 44 10000 3.09 10 19:33 11.06.2022
1625 Clear 27 1022 44 10000 2.57 20 18:37 11.06.2022
1626 Clear 27 1022 42 10000 0.51 0 17:58 11.06.2022
1627 Clear 28 1023 41 10000 1.54 0 17:38 11.06.2022
1628 Clear 27 1023 41 10000 1.54 0 17:19 11.06.2022
1629 Clear 27 1023 41 10000 1.54 0 16:38 11.06.2022
1630 Clear 27 1023 41 10000 2.06 100 15:46 11.06.2022
1631 Clear 26 1024 47 10000 1.54 0 13:54 11.06.2022
1632 Clear 26 1022 50 10000 0.65 239 13:36 11.06.2022
1633 Rain 24 1024 54 10000 1.54 0 11:36 11.06.2022
1634 Rain 22 1024 61 10000 1.54 0 10:29 11.06.2022
1635 Rain 21 1024 66 10000 1.03 0 09:40 11.06.2022
1636 Clear 17 1024 79 10000 1.03 0 08:21 11.06.2022
1637 Clear 12 1023 91 10000 1.54 70 06:32 11.06.2022
1638 Clear 11 1023 92 10000 1.03 0 05:26 11.06.2022
1639 Clear 13 1023 89 10000 0 0 02:42 11.06.2022
1640 Clear 14 1023 85 10000 0.51 0 01:41 11.06.2022
1641 Clear 15 1023 85 10000 0.51 0 00:54 11.06.2022
1642 Clear 17 1023 76 10000 0.51 70 22:55 10.06.2022
1643 Clear 18 1023 77 10000 1.19 157 22:20 10.06.2022
1644 Clear 20 1022 67 10000 1.03 0 21:22 10.06.2022
1645 Clear 21 1023 56 10000 1.03 0 20:36 10.06.2022
1646 Clear 23 1023 47 10000 1.54 140 20:18 10.06.2022
1647 Clear 24 1023 45 10000 2.57 140 19:19 10.06.2022
1648 Clear 24 1023 43 10000 2.06 160 18:29 10.06.2022
1649 Clear 24 1023 43 10000 2.57 160 17:42 10.06.2022
1650 Clear 24 1023 41 10000 2.06 140 16:59 10.06.2022
1651 Clear 24 1023 45 10000 2.06 0 16:23 10.06.2022
1652 Clear 25 1023 40 10000 2.06 0 15:37 10.06.2022
1653 Clouds 23 1024 49 10000 2.06 0 13:55 10.06.2022
1654 Clouds 22 1024 55 10000 1.54 0 12:50 10.06.2022
1655 Clear 21 1025 60 10000 1.03 0 11:43 10.06.2022
1656 Rain 19 1025 67 10000 1.03 0 10:45 10.06.2022
1657 Clear 18 1024 73 10000 1.03 0 09:48 10.06.2022
1658 Clear 15 1024 83 10000 1.03 0 08:42 10.06.2022
1659 Clear 12 1024 86 10000 0 0 07:26 10.06.2022
1660 Clear 10 1024 89 10000 1.54 80 06:44 10.06.2022
1661 Clear 10 1023 89 10000 1.03 40 06:25 10.06.2022
1662 Clouds 10 1023 89 10000 0.51 0 03:55 10.06.2022
1663 Clear 12 1022 90 10000 1.03 190 01:41 10.06.2022
1664 Clear 13 1022 87 10000 1.54 260 00:32 10.06.2022
1665 Clear 14 1022 83 10000 2.06 280 23:39 09.06.2022
1666 Clear 15 1021 78 10000 2.06 270 22:18 09.06.2022
1667 Clear 16 1020 74 10000 4.12 300 21:33 09.06.2022
1668 Clear 17 1020 71 10000 4.63 300 20:54 09.06.2022
1669 Clear 17 1019 68 10000 5.14 300 20:21 09.06.2022
1670 Clouds 17 1019 67 10000 6.17 310 19:21 09.06.2022
1671 Clear 18 1018 66 10000 6.69 280 18:28 09.06.2022
1672 Clouds 20 1017 55 10000 4.63 320 16:51 09.06.2022
1673 Clouds 21 1016 56 10000 4.63 310 15:49 09.06.2022
1674 Clouds 20 1016 60 10000 6.69 330 14:35 09.06.2022
1675 Clouds 19 1015 62 10000 5.14 320 13:54 09.06.2022
1676 Clouds 19 1015 64 10000 5.66 300 13:28 09.06.2022
1677 Clouds 18 1015 68 10000 6.17 300 11:54 09.06.2022
1678 Clouds 17 1015 70 10000 6.17 280 11:19 09.06.2022
1679 Clouds 16 1014 79 10000 4.63 260 09:45 09.06.2022
1680 Clouds 15 1014 83 10000 6.17 260 09:24 09.06.2022
1681 Clouds 14 1013 90 10000 4.12 270 07:52 09.06.2022
1682 Clear 14 1012 90 10000 3.6 270 06:41 09.06.2022
1683 Rain 14 1011 89 10000 2.57 260 03:19 09.06.2022
1684 Clouds 15 1011 92 10000 2.21 198 23:48 08.06.2022
1685 Clouds 15 1010 90 10000 1.54 210 22:58 08.06.2022
1686 Rain 15 1010 91 10000 1.03 0 22:27 08.06.2022
1687 Clouds 16 1010 91 10000 0.51 0 21:55 08.06.2022
1688 Clouds 16 1010 90 10000 1.54 220 21:23 08.06.2022
1689 Rain 16 1010 84 10000 1.03 0 20:22 08.06.2022
1690 Rain 16 1010 86 10000 3.09 250 19:39 08.06.2022
1691 Rain 17 1010 83 10000 5.14 250 18:47 08.06.2022
1692 Rain 20 1009 63 10000 4.12 230 17:25 08.06.2022
1693 Clear 23 1009 46 10000 3.09 230 15:48 08.06.2022
1694 Clear 24 1009 48 10000 2.57 180 13:58 08.06.2022
1695 Clouds 22 1011 57 10000 2.57 150 12:22 08.06.2022
1696 Clouds 21 1010 65 10000 2.28 194 11:33 08.06.2022
1697 Clouds 20 1011 73 10000 1.99 181 10:30 08.06.2022
1698 Clear 17 1012 80 10000 1.54 0 09:22 08.06.2022
1699 Clear 16 1013 81 10000 1.03 0 08:43 08.06.2022
1700 Clear 13 1013 77 10000 1.03 80 06:36 08.06.2022
1701 Clear 13 1014 91 10000 1.86 190 04:22 08.06.2022
1702 Clear 15 1015 89 10000 1.03 0 00:49 08.06.2022
1703 Clear 16 1016 90 10000 0.51 0 23:30 07.06.2022
1704 Clouds 16 1016 88 10000 0.51 0 22:48 07.06.2022
1705 Rain 16 1016 87 10000 1.03 0 22:30 07.06.2022
1706 Clear 16 1015 87 10000 1.03 0 21:35 07.06.2022
1707 Clouds 16 1016 87 10000 1.03 0 20:59 07.06.2022
1708 Clouds 17 1015 86 10000 2.06 220 20:33 07.06.2022
1709 Mist 17 1015 88 8000 5.14 260 19:48 07.06.2022
1710 Clouds 22 1014 56 10000 1.54 70 18:24 07.06.2022
1711 Clouds 22 1014 55 10000 1.54 100 17:27 07.06.2022
1712 Clouds 22 1014 56 10000 1.54 140 16:43 07.06.2022
1713 Clouds 22 1015 56 10000 2.06 310 15:57 07.06.2022
1714 Clouds 22 1015 61 10000 1.54 0 15:27 07.06.2022
1715 Clouds 21 1015 62 10000 1.54 250 14:52 07.06.2022
1716 Clouds 21 1015 64 10000 2.06 0 14:34 07.06.2022
1717 Clouds 21 1016 63 10000 2.57 200 13:32 07.06.2022
1718 Clouds 21 1016 67 10000 2.06 180 12:52 07.06.2022
1719 Clouds 21 1015 67 10000 1.79 298 11:49 07.06.2022
1720 Clouds 19 1017 71 10000 2.06 220 10:27 07.06.2022
1721 Clear 17 1017 83 10000 1.54 0 08:53 07.06.2022
1722 Clouds 16 1016 87 10000 1.03 0 07:35 07.06.2022
1723 Clouds 15 1016 86 10000 1.03 0 06:38 07.06.2022
1724 Clouds 15 1016 86 10000 1.03 0 06:38 07.06.2022
1725 Clouds 15 1016 87 10000 0.51 0 04:39 07.06.2022
1726 Clear 17 1017 79 10000 1.54 220 01:27 07.06.2022
1727 Clear 18 1017 75 10000 0.51 220 23:52 06.06.2022
1728 Clear 18 1017 74 10000 1.03 0 22:54 06.06.2022
1729 Clear 19 1017 74 10000 0.51 0 22:29 06.06.2022
1730 Clear 20 1017 61 10000 3.09 290 20:47 06.06.2022
1731 Clear 21 1016 66 10000 5.66 310 19:28 06.06.2022
1732 Clear 21 1016 65 10000 4.63 320 18:49 06.06.2022
1733 Clear 22 1016 62 10000 4.12 320 18:21 06.06.2022
1734 Clear 22 1017 59 10000 4.63 300 17:24 06.06.2022
1735 Clear 22 1017 58 10000 5.14 260 16:18 06.06.2022
1736 Clear 22 1017 56 10000 4.63 250 15:23 06.06.2022
1737 Clear 23 1017 57 10000 5.14 250 14:30 06.06.2022
1738 Clouds 23 1018 54 10000 4.63 250 13:22 06.06.2022
1739 Clouds 22 1018 62 10000 3.09 220 12:36 06.06.2022
1740 Clouds 22 1018 67 10000 2.57 240 11:53 06.06.2022
1741 Clouds 20 1019 79 10000 2.57 230 10:21 06.06.2022
1742 Clear 19 1019 86 10000 1.54 80 09:24 06.06.2022
1743 Clear 17 1019 87 10000 1.54 90 08:31 06.06.2022
1744 Clouds 15 1018 88 10000 0.51 0 07:28 06.06.2022
1745 Clear 13 1017 90 10000 0.51 0 05:18 06.06.2022
1746 Clear 14 1018 88 10000 4.12 240 02:42 06.06.2022
1747 Clear 15 1019 89 10000 1.54 240 00:57 06.06.2022
1748 Clear 15 1018 90 10000 1.54 190 00:37 06.06.2022
1749 Clear 15 1018 89 10000 1.03 0 23:28 05.06.2022
1750 Clear 16 1018 89 10000 1.54 230 22:45 05.06.2022
1751 Clear 16 1018 89 10000 1.54 230 22:45 05.06.2022
1752 Clouds 18 1017 86 10000 2.57 240 20:46 05.06.2022
1753 Clouds 18 1015 88 10000 4.07 268 19:38 05.06.2022
1754 Rain 19 1014 92 10000 4.27 281 18:29 05.06.2022
1755 Rain 21 1015 84 10000 4.12 190 17:51 05.06.2022
1756 Rain 20 1015 82 10000 3.6 190 17:25 05.06.2022
1757 Clear 20 1015 81 10000 3.6 170 16:49 05.06.2022
1758 Clear 22 1014 76 10000 4.63 180 16:30 05.06.2022
1759 Clouds 21 1015 82 10000 4.12 160 14:24 05.06.2022
1760 Rain 22 1015 79 10000 4.12 160 12:49 05.06.2022
1761 Clear 21 1015 79 10000 4.12 160 11:45 05.06.2022
1762 Clouds 18 1014 88 10000 3.6 200 10:33 05.06.2022
1763 Rain 17 1013 100 10000 9.26 80 09:59 05.06.2022
1764 Thunderstorm 17 1017 94 4500 3.6 240 08:32 05.06.2022
1765 Rain 17 1017 93 10000 6.17 290 07:43 05.06.2022
1766 Clear 18 1015 90 10000 3.6 30 05:22 05.06.2022
1767 Clear 17 1017 91 10000 2.06 60 03:47 05.06.2022
1768 Clear 18 1017 91 10000 2.06 90 01:32 05.06.2022
1769 Rain 19 1018 90 10000 1.54 60 00:33 05.06.2022
1770 Clear 20 1018 83 10000 1.54 50 22:22 04.06.2022
1771 Clear 24 1018 66 10000 1.54 50 20:33 04.06.2022
1772 Clear 25 1018 60 10000 2.06 40 18:45 04.06.2022
1773 Clouds 25 1019 68 10000 2.06 0 16:47 04.06.2022
1774 Clouds 24 1019 73 10000 2.06 0 16:18 04.06.2022
1775 Clouds 22 1019 86 10000 3.09 20 14:53 04.06.2022
1776 Rain 22 1018 81 10000 1.03 0 12:38 04.06.2022
1777 Clouds 21 1018 86 10000 2.06 110 11:22 04.06.2022
1778 Clouds 20 1018 87 10000 2.06 150 10:49 04.06.2022
1779 Rain 18 1017 92 10000 3.09 50 09:45 04.06.2022
1780 Rain 18 1019 92 10000 3.6 210 08:43 04.06.2022
1781 Clouds 17 1017 89 10000 0.51 0 07:42 04.06.2022
1782 Clear 14 1017 92 10000 1.03 0 05:38 04.06.2022
1783 Clear 16 1017 91 10000 1.03 0 02:20 04.06.2022
1784 Clear 18 1016 87 10000 0.51 200 00:20 04.06.2022
1785 Clear 19 1017 87 10000 1.03 0 22:41 03.06.2022
1786 Clear 21 1016 83 10000 2.57 330 21:39 03.06.2022
1787 Clouds 23 1016 62 10000 1.54 170 20:38 03.06.2022
1788 Clouds 25 1015 64 10000 2.06 0 19:19 03.06.2022
1789 Clouds 24 1015 68 10000 2.57 340 16:54 03.06.2022
1790 Rain 26 1015 64 10000 1.54 10 15:40 03.06.2022
1791 Rain 28 1015 51 10000 1.54 240 13:49 03.06.2022
1792 Rain 26 1015 58 10000 3.09 80 11:51 03.06.2022
1793 Clear 22 1017 67 10000 1.54 0 09:54 03.06.2022
1794 Clear 21 1017 70 10000 1.03 0 09:29 03.06.2022
1795 Clear 15 1017 78 10000 0.51 0 07:42 03.06.2022
1796 Clear 13 1017 86 10000 0.51 160 06:46 03.06.2022
1797 Clear 13 1017 86 10000 0.51 0 06:27 03.06.2022
1798 Clear 14 1018 85 10000 1.03 0 02:50 03.06.2022
1799 Clear 16 1018 75 10000 0.51 0 23:36 02.06.2022
1800 Clear 19 1018 62 10000 1.54 70 21:58 02.06.2022
1801 Clear 21 1018 56 10000 2.06 80 20:34 02.06.2022
1802 Clear 23 1018 43 10000 3.09 60 19:55 02.06.2022
1803 Clear 23 1018 43 10000 3.09 60 19:37 02.06.2022
1804 Clear 23 1018 53 10000 1.54 80 18:39 02.06.2022
1805 Clear 24 1019 45 10000 1.54 0 16:28 02.06.2022
1806 Clear 23 1019 44 10000 1.54 10 15:46 02.06.2022
1807 Clear 22 1020 43 10000 3.6 70 13:31 02.06.2022
1808 Clear 22 1020 44 10000 2.57 0 12:49 02.06.2022
1809 Clear 19 1020 53 10000 3.09 80 10:36 02.06.2022
1810 Clear 17 1020 58 10000 2.06 70 09:29 02.06.2022
1811 Clear 16 1020 61 10000 3.09 80 08:44 02.06.2022
1812 Clear 15 1020 64 10000 2.57 60 08:23 02.06.2022
1813 Clear 12 1019 76 10000 2.57 10 06:21 02.06.2022
1814 Clear 14 1018 54 10000 3.6 350 03:50 02.06.2022
1815 Clouds 15 1019 73 10000 1.81 294 00:55 02.06.2022
1816 Clear 17 1016 59 10000 2.06 300 22:58 01.06.2022
1817 Clear 18 1016 55 10000 2.06 280 22:18 01.06.2022
1818 Clear 19 1015 47 10000 3.6 300 21:24 01.06.2022
1819 Clear 21 1015 40 10000 5.66 300 20:38 01.06.2022
1820 Clear 22 1014 40 10000 6.17 280 19:52 01.06.2022
1821 Clear 22 1014 37 10000 4.12 290 18:37 01.06.2022
1822 Clear 23 1014 38 10000 4.12 260 16:58 01.06.2022
1823 Clouds 23 1014 39 10000 4.09 306 15:45 01.06.2022
1824 Clear 24 1015 36 10000 5.14 260 14:49 01.06.2022
1825 Clear 23 1015 43 10000 6.17 250 13:26 01.06.2022
1826 Clear 21 1015 48 10000 3.09 210 10:48 01.06.2022
1827 Clear 18 1015 70 10000 2.57 210 09:30 01.06.2022
1828 Clear 14 1015 83 10000 1.03 0 08:19 01.06.2022
1829 Clear 11 1015 89 10000 1.54 80 07:20 01.06.2022
1830 Clear 10 1015 88 10000 1.03 0 04:41 01.06.2022
1831 Clear 14 1014 78 10000 1.54 240 23:50 31.05.2022
1832 Clear 15 1014 82 10000 1.54 260 22:43 31.05.2022
1833 Clear 15 1013 79 10000 1.54 280 22:24 31.05.2022
1834 Clouds 16 1013 82 10000 0.51 0 21:44 31.05.2022
1835 Rain 16 1013 72 10000 4.12 310 20:44 31.05.2022
1836 Rain 16 1013 72 10000 4.12 310 20:44 31.05.2022
1837 Rain 16 1013 72 10000 4.12 310 20:44 31.05.2022
1838 Rain 20 1012 39 10000 1.54 50 19:46 31.05.2022
1839 Clear 20 1012 45 10000 3.6 330 18:33 31.05.2022
1840 Clear 20 1011 40 10000 3.6 360 17:46 31.05.2022
1841 Rain 22 1011 39 10000 4.63 360 16:21 31.05.2022
1842 Clear 22 1011 38 10000 4.12 310 15:37 31.05.2022
1843 Clear 22 1012 42 10000 2.06 0 13:22 31.05.2022
1844 Clear 21 1012 47 10000 2.57 0 12:19 31.05.2022
1845 Clear 19 1012 55 10000 1.54 0 10:52 31.05.2022
1846 Clear 13 1012 74 10000 0.51 0 08:35 31.05.2022
1847 Clear 8 1012 87 10000 1.03 0 06:52 31.05.2022
1848 Clear 8 1012 84 10000 1.54 290 04:34 31.05.2022
1849 Clear 11 1013 73 10000 1.03 60 23:49 30.05.2022
1850 Clear 10 1014 78 10000 2.02 93 23:25 30.05.2022
1851 Clear 11 1014 74 10000 2.02 93 22:44 30.05.2022
1852 Clear 15 1012 44 10000 2.57 30 21:47 30.05.2022
1853 Clear 15 1012 49 10000 3.09 30 21:29 30.05.2022
1854 Clear 18 1012 36 10000 3.09 40 19:51 30.05.2022
1855 Clear 19 1012 33 10000 3.6 360 18:26 30.05.2022
1856 Clouds 20 1011 34 10000 1.79 3 17:23 30.05.2022
1857 Clear 19 1012 35 10000 3.6 70 16:36 30.05.2022
1858 Clear 18 1011 46 10000 1.03 0 13:44 30.05.2022
1859 Clear 16 1011 51 10000 1.54 0 12:19 30.05.2022
1860 Clear 14 1011 71 10000 1.54 0 10:26 30.05.2022
1861 Clear 11 1011 77 10000 1.03 0 09:19 30.05.2022
1862 Clear 4 1010 91 10000 0 0 06:28 30.05.2022
1863 Clear 4 1010 91 10000 1.03 210 05:47 30.05.2022
1864 Clear 6 1011 91 10000 0.51 0 01:32 30.05.2022
1865 Clear 9 1012 84 10000 0.51 290 22:50 29.05.2022
1866 Clear 9 1011 85 10000 0.51 0 22:31 29.05.2022
1867 Clouds 12 1011 69 10000 0.51 0 20:51 29.05.2022
1868 Clouds 14 1012 56 10000 1.03 0 19:30 29.05.2022
1869 Clear 14 1012 55 10000 2.57 20 18:37 29.05.2022
1870 Rain 13 1012 62 10000 2.06 30 17:23 29.05.2022
1871 Clouds 13 1012 64 10000 4.12 70 15:48 29.05.2022
1872 Clouds 12 1012 77 10000 5.14 80 14:57 29.05.2022
1873 Clouds 10 1013 83 10000 2.57 0 13:52 29.05.2022
1874 Rain 12 1013 69 10000 5.14 320 11:41 29.05.2022
1875 Clouds 12 1013 66 10000 3.6 20 10:38 29.05.2022
1876 Clouds 11 1012 80 10000 1.54 350 08:51 29.05.2022
1877 Rain 10 1012 85 10000 2.57 360 05:54 29.05.2022
1878 Clouds 10 1013 80 10000 7.2 50 04:44 29.05.2022
1879 Rain 11 1013 79 10000 0.51 0 03:47 29.05.2022
1880 Clear 12 1016 73 10000 0.51 0 23:50 28.05.2022
1881 Clear 12 1016 71 10000 2.06 310 23:26 28.05.2022
1882 Clear 13 1017 69 10000 2.06 350 22:36 28.05.2022
1883 Clear 14 1016 62 10000 2.06 350 21:38 28.05.2022
1884 Clear 16 1017 46 10000 4.12 330 19:49 28.05.2022
1885 Clear 17 1017 44 10000 5.14 330 18:50 28.05.2022
1886 Clear 18 1018 44 10000 4.63 340 17:37 28.05.2022
1887 Clear 18 1018 44 10000 2.57 0 16:43 28.05.2022
1888 Clear 17 1019 46 10000 4.12 320 15:43 28.05.2022
1889 Clear 17 1020 50 10000 3.6 320 14:26 28.05.2022
1890 Clouds 16 1020 56 10000 3.6 350 12:51 28.05.2022
1891 Clouds 16 1021 55 10000 3.6 0 12:33 28.05.2022
1892 Clear 15 1021 58 10000 4.12 320 11:22 28.05.2022
1893 Clear 14 1022 64 10000 3.09 330 09:59 28.05.2022
1894 Clear 13 1021 69 10000 4.12 330 09:21 28.05.2022
1895 Clear 10 1021 79 10000 3.09 290 07:23 28.05.2022
1896 Clouds 10 1021 85 10000 3.09 290 05:48 28.05.2022
1897 Clouds 13 1021 89 10000 1.54 330 02:52 28.05.2022
1898 Clear 13 1021 84 10000 3.6 240 00:33 28.05.2022
1899 Clear 14 1021 82 10000 4.63 250 23:32 27.05.2022
1900 Clear 16 1021 70 10000 4.63 270 21:50 27.05.2022
1901 Clear 16 1021 70 10000 4.63 270 21:50 27.05.2022
1902 Clouds 16 1021 70 10000 3.37 274 20:56 27.05.2022
1903 Clear 17 1021 65 10000 7.2 280 20:25 27.05.2022
1904 Clouds 18 1021 64 10000 6.69 280 19:51 27.05.2022
1905 Clouds 18 1021 66 10000 6.69 280 19:32 27.05.2022
1906 Clouds 18 1021 65 10000 8.75 280 18:24 27.05.2022
1907 Clouds 19 1021 66 10000 6.69 290 16:40 27.05.2022
1908 Clouds 20 1021 62 10000 6.17 250 15:34 27.05.2022
1909 Clouds 19 1021 64 10000 7.2 260 14:44 27.05.2022
1910 Clouds 19 1022 66 10000 5.14 250 13:23 27.05.2022
1911 Clouds 17 1023 77 10000 4.12 260 11:34 27.05.2022
1912 Clouds 16 1022 79 10000 3.09 280 10:57 27.05.2022
1913 Clouds 16 1022 79 10000 3.6 260 10:32 27.05.2022
1914 Clouds 15 1022 80 10000 3.09 250 09:37 27.05.2022
1915 Clouds 15 1022 82 10000 2.06 230 08:19 27.05.2022
1916 Clouds 13 1022 86 10000 1.54 240 06:45 27.05.2022
1917 Clear 12 1023 87 10000 2.06 250 02:53 27.05.2022
1918 Clear 13 1024 85 10000 2.06 250 00:37 27.05.2022
1919 Clear 15 1024 77 10000 2.06 290 22:47 26.05.2022
1920 Clouds 17 1023 63 10000 2.57 300 21:42 26.05.2022
1921 Clouds 19 1023 55 10000 3.09 250 20:59 26.05.2022
1922 Clouds 20 1023 60 10000 3.76 291 19:27 26.05.2022
1923 Clear 21 1023 59 10000 5.66 290 18:21 26.05.2022
1924 Clear 20 1024 62 10000 5.14 300 16:56 26.05.2022
1925 Clouds 20 1024 62 10000 4.12 260 15:49 26.05.2022
1926 Clouds 19 1025 63 10000 4.12 260 14:48 26.05.2022
1927 Clouds 19 1024 63 10000 5.14 270 13:23 26.05.2022
1928 Clear 18 1024 61 10000 5.14 260 11:36 26.05.2022
1929 Clear 18 1024 63 10000 4.12 250 10:24 26.05.2022
1930 Clear 17 1023 64 10000 2.06 0 09:35 26.05.2022
1931 Clear 16 1023 69 10000 3.09 230 08:37 26.05.2022
1932 Clear 11 1022 87 10000 1.03 0 05:24 26.05.2022
1933 Clear 13 1021 80 10000 1.54 260 01:24 26.05.2022
1934 Clear 14 1021 65 10000 1.54 240 23:40 25.05.2022
1935 Clear 16 1020 66 10000 1.03 0 22:30 25.05.2022
1936 Clear 18 1019 51 10000 3.09 310 21:33 25.05.2022
1937 Clear 19 1018 48 10000 4.12 330 20:39 25.05.2022
1938 Clear 21 1017 45 10000 3.6 330 19:31 25.05.2022
1939 Clear 21 1017 40 10000 3.09 360 18:20 25.05.2022
1940 Clear 22 1017 45 10000 2.57 10 16:41 25.05.2022
1941 Clear 21 1017 44 10000 2.06 320 15:58 25.05.2022
1942 Clear 21 1018 45 10000 3.09 0 14:56 25.05.2022
1943 Clouds 21 1018 49 10000 2.57 0 14:37 25.05.2022
1944 Clouds 20 1018 49 10000 2.57 0 14:19 25.05.2022
1945 Clouds 20 1017 56 10000 2.2 305 12:48 25.05.2022
1946 Clouds 19 1017 56 10000 1.82 300 11:31 25.05.2022
1947 Clouds 18 1017 62 10000 2.06 0 10:22 25.05.2022
1948 Clouds 15 1017 76 10000 1.85 298 08:45 25.05.2022
1949 Clouds 13 1016 85 10000 1.01 231 07:23 25.05.2022
1950 Clouds 13 1016 86 10000 1.02 230 07:23 25.05.2022
1951 Rain 13 1014 85 10000 0.51 0 05:23 25.05.2022
1952 Clouds 14 1013 79 10000 1.03 0 00:38 25.05.2022
1953 Clouds 15 1013 73 10000 2.57 300 23:47 24.05.2022
1954 Clear 16 1013 70 10000 3.6 320 22:53 24.05.2022
1955 Clouds 16 1012 72 10000 3.09 320 21:46 24.05.2022
1956 Clouds 17 1011 66 10000 3.09 330 21:22 24.05.2022
1957 Clouds 18 1011 55 10000 2.06 330 20:59 24.05.2022
1958 Clear 19 1010 55 10000 2.57 20 19:20 24.05.2022
1959 Clear 19 1010 55 10000 3.6 340 17:50 24.05.2022
1960 Clear 20 1010 52 10000 4.63 300 16:36 24.05.2022
1961 Clouds 20 1010 54 10000 4.12 320 15:31 24.05.2022
1962 Clouds 19 1010 55 10000 5.66 280 14:37 24.05.2022
1963 Clouds 19 1010 57 10000 5.66 260 13:46 24.05.2022
1964 Clouds 17 1010 73 10000 6.69 280 12:19 24.05.2022
1965 Rain 14 1009 83 10000 2.26 264 09:52 24.05.2022
1966 Clear 17 1007 78 10000 2.06 220 08:51 24.05.2022
1967 Clear 16 1006 89 10000 0.51 0 07:44 24.05.2022
1968 Clouds 15 1006 91 10000 1.03 0 06:39 24.05.2022
1969 Clouds 16 1006 88 10000 4.12 300 03:38 24.05.2022
1970 Clear 18 1005 82 10000 3.09 210 01:46 24.05.2022
1971 Clouds 18 1005 77 10000 2.06 200 00:30 24.05.2022
1972 Clouds 19 1004 74 10000 2.57 230 22:24 23.05.2022
1973 Clouds 18 1005 81 10000 3.77 220 21:50 23.05.2022
1974 Clear 19 1003 83 10000 3.09 190 20:49 23.05.2022
1975 Clear 18 1003 85 10000 1.54 90 19:55 23.05.2022
1976 Rain 19 1003 81 10000 2.57 150 19:24 23.05.2022
1977 Rain 20 1003 76 10000 4.12 150 18:41 23.05.2022
1978 Rain 20 1003 76 10000 4.12 150 18:41 23.05.2022
1979 Rain 23 1004 70 10000 3.09 200 17:56 23.05.2022
1980 Clear 22 1004 77 10000 2.57 190 16:40 23.05.2022
1981 Rain 19 1007 88 10000 6.17 220 14:20 23.05.2022
1982 Rain 21 1005 78 10000 1.03 0 11:57 23.05.2022
1983 Rain 20 1006 78 10000 1.03 0 11:20 23.05.2022
1984 Rain 18 1006 83 10000 3.09 90 09:48 23.05.2022
1985 Clouds 16 1007 90 10000 2.57 100 08:50 23.05.2022
1986 Clouds 15 1009 92 10000 2.06 120 07:41 23.05.2022
1987 Rain 15 1007 84 10000 2.57 270 06:41 23.05.2022
1988 Clear 14 1008 85 10000 1.03 0 04:40 23.05.2022
1989 Clear 16 1009 79 10000 1.03 0 02:19 23.05.2022
1990 Clear 17 1010 77 10000 0.51 330 01:34 23.05.2022
1991 Clear 18 1011 73 10000 0.51 0 23:42 22.05.2022
1992 Clear 18 1011 67 10000 0.51 0 22:34 22.05.2022
1993 Clear 20 1011 65 10000 0.51 0 21:54 22.05.2022
1994 Rain 21 1012 48 10000 1.54 360 20:51 22.05.2022
1995 Rain 22 1012 49 10000 1.03 130 20:25 22.05.2022
1996 Clear 22 1011 44 10000 3.09 40 19:54 22.05.2022
1997 Clear 22 1011 46 10000 3.09 40 19:54 22.05.2022
1998 Rain 23 1012 44 10000 3.09 40 18:53 22.05.2022
1999 Rain 23 1013 48 10000 3.6 20 18:24 22.05.2022
2000 Clear 24 1013 42 10000 2.57 30 17:32 22.05.2022
2001 Clear 25 1013 35 10000 1.03 0 16:25 22.05.2022
2002 Clear 24 1014 43 10000 2.06 0 14:48 22.05.2022
2003 Clear 23 1015 45 10000 1.54 0 13:45 22.05.2022
2004 Clear 23 1016 49 10000 1.03 0 12:50 22.05.2022
2005 Clear 22 1016 51 10000 1.54 0 11:42 22.05.2022
2006 Clear 18 1017 70 10000 1.03 0 09:43 22.05.2022
2007 Clear 15 1017 79 10000 0.51 0 08:35 22.05.2022
2008 Clear 12 1017 86 10000 0.51 60 07:21 22.05.2022
2009 Clear 10 1018 90 10000 1.03 0 05:44 22.05.2022
2010 Clear 12 1019 88 10000 0.51 0 01:43 22.05.2022
2011 Clear 13 1020 84 10000 1.03 0 00:43 22.05.2022
2012 Clear 13 1020 81 10000 1.03 260 23:55 21.05.2022
2013 Clear 15 1020 77 10000 1.03 310 23:20 21.05.2022
2014 Clear 17 1020 71 10000 2.06 10 21:45 21.05.2022
2015 Clear 18 1020 67 10000 2.57 30 21:25 21.05.2022
2016 Clear 20 1020 55 10000 2.06 360 20:25 21.05.2022
2017 Clear 21 1020 50 10000 4.12 320 19:35 21.05.2022
2018 Clear 22 1021 50 10000 5.14 330 17:57 21.05.2022
2019 Clear 22 1021 46 10000 5.14 300 16:53 21.05.2022
2020 Clear 22 1022 51 10000 3.6 360 14:38 21.05.2022
2021 Clear 21 1022 54 10000 2.57 40 13:53 21.05.2022
2022 Clear 21 1023 55 10000 3.6 320 12:57 21.05.2022
2023 Clouds 20 1023 57 10000 3.09 300 12:37 21.05.2022
2024 Clear 18 1024 60 10000 4.12 290 10:45 21.05.2022
2025 Clear 17 1024 65 10000 5.14 290 09:49 21.05.2022
2026 Clear 16 1024 70 10000 6.17 280 08:58 21.05.2022
2027 Clear 15 1024 71 10000 6.17 280 08:34 21.05.2022
2028 Clear 15 1024 86 10000 2.6 280 05:28 21.05.2022
2029 Clouds 18 1021 86 10000 3.09 260 01:24 21.05.2022
2030 Rain 20 1019 85 10000 5.18 287 23:29 20.05.2022
2031 Clouds 21 1018 80 10000 4.93 270 22:24 20.05.2022
2032 Clouds 23 1018 81 10000 4.91 270 21:55 20.05.2022
2033 Clear 25 1016 67 10000 1.03 0 20:58 20.05.2022
2034 Clear 25 1016 67 10000 1.03 0 20:58 20.05.2022
2035 Clear 25 1016 65 10000 2.06 160 20:29 20.05.2022
2036 Clear 27 1016 57 10000 2.06 270 19:30 20.05.2022
2037 Clear 26 1016 57 10000 5.66 310 18:48 20.05.2022
2038 Clouds 29 1016 48 10000 8.23 320 17:47 20.05.2022
2039 Clear 32 1016 34 10000 3.6 210 16:21 20.05.2022
2040 Clear 32 1017 33 10000 3.09 0 15:53 20.05.2022
2041 Clear 32 1019 36 10000 4.12 230 14:31 20.05.2022
2042 Clear 31 1019 35 10000 5.66 240 13:56 20.05.2022
2043 Clear 29 1021 52 10000 3.09 230 11:51 20.05.2022
2044 Clear 25 1022 70 10000 1.03 0 10:30 20.05.2022
2045 Clear 22 1022 74 10000 0.51 0 08:58 20.05.2022
2046 Clear 18 1022 86 10000 0.51 0 07:40 20.05.2022
2047 Clear 16 1022 74 10000 0 0 06:38 20.05.2022
2048 Clear 16 1022 74 10000 1.03 0 05:39 20.05.2022
2049 Clear 18 1023 68 10000 1.54 130 01:18 20.05.2022
2050 Clouds 18 1023 57 10000 2.28 190 23:28 19.05.2022
2051 Clouds 18 1023 45 10000 2.28 190 22:34 19.05.2022
2052 Clouds 19 1023 85 10000 3.17 185 21:49 19.05.2022
2053 Clouds 19 1023 45 10000 3.16 185 21:49 19.05.2022
2054 Rain 19 1022 91 10000 2.63 194 21:23 19.05.2022
2055 Clouds 19 1022 99 10000 2.63 194 20:43 19.05.2022
2056 Rain 27 1020 50 10000 3.6 200 19:54 19.05.2022
2057 Clear 28 1020 43 10000 4.12 200 18:59 19.05.2022
2058 Clear 31 1019 40 10000 4.63 240 17:35 19.05.2022
2059 Clear 31 1020 41 10000 4.63 260 15:34 19.05.2022
2060 Clear 30 1020 43 10000 2.06 0 14:39 19.05.2022
2061 Clear 30 1020 41 10000 2.06 0 14:19 19.05.2022
2062 Clear 27 1021 51 10000 2.06 90 11:53 19.05.2022
2063 Clear 23 1022 57 10000 1.54 0 10:30 19.05.2022
2064 Clear 18 1021 69 10000 1.03 0 08:33 19.05.2022
2065 Clear 15 1021 80 10000 0.51 0 07:18 19.05.2022
2066 Clear 14 1021 84 10000 0.51 0 03:26 19.05.2022
2067 Clear 18 1022 70 10000 1.54 100 00:56 19.05.2022
2068 Clear 19 1022 68 10000 2.57 80 23:35 18.05.2022
2069 Clear 20 1022 63 10000 2.57 90 22:43 18.05.2022
2070 Clear 21 1022 60 10000 3.6 80 21:42 18.05.2022
2071 Clear 23 1022 53 10000 3.09 90 21:20 18.05.2022
2072 Clear 25 1021 46 10000 4.63 80 20:19 18.05.2022
2073 Clear 27 1021 38 10000 5.66 80 18:53 18.05.2022
2074 Clear 27 1021 38 10000 5.66 80 18:53 18.05.2022
2075 Clear 27 1022 39 10000 5.14 70 17:42 18.05.2022
2076 Clear 28 1022 41 10000 3.09 100 17:24 18.05.2022
2077 Clear 27 1022 40 10000 3.6 70 16:53 18.05.2022
2078 Clear 27 1022 41 10000 3.6 90 15:45 18.05.2022
2079 Clear 28 1022 40 10000 3.09 110 15:20 18.05.2022
2080 Clear 27 1023 42 10000 3.6 80 14:21 18.05.2022
2081 Clear 27 1023 47 10000 2.06 0 12:54 18.05.2022
2082 Clear 25 1024 49 10000 2.57 60 11:48 18.05.2022
2083 Clear 25 1024 53 10000 1.54 90 11:30 18.05.2022
2084 Clear 24 1024 57 10000 1.54 60 10:43 18.05.2022
2085 Clear 17 1023 79 10000 0.51 0 08:19 18.05.2022
2086 Clear 14 1023 86 10000 0.51 0 07:27 18.05.2022
2087 Clear 14 1022 87 10000 1.03 360 03:40 18.05.2022
2088 Clear 16 1022 81 10000 0.51 0 00:51 18.05.2022
2089 Clouds 17 1022 82 10000 1.67 108 23:33 17.05.2022
2090 Clear 21 1020 59 10000 1.54 90 21:21 17.05.2022
2091 Clear 23 1020 49 10000 1.54 90 20:44 17.05.2022
2092 Clear 24 1020 43 10000 2.06 50 19:41 17.05.2022
2093 Clear 24 1020 48 10000 2.06 70 19:20 17.05.2022
2094 Clear 25 1020 43 10000 2.06 0 17:34 17.05.2022
2095 Clear 26 1020 44 10000 2.06 0 16:57 17.05.2022
2096 Clear 26 1021 45 10000 2.06 0 15:59 17.05.2022
2097 Clear 25 1022 47 10000 1.54 80 14:55 17.05.2022
2098 Clear 25 1022 48 10000 2.57 60 14:28 17.05.2022
2099 Clouds 24 1022 52 10000 2.06 100 13:24 17.05.2022
2100 Clouds 22 1023 70 10000 1.54 120 10:42 17.05.2022
2101 Clouds 17 1023 80 10000 1.03 0 08:53 17.05.2022
2102 Clouds 15 1022 88 10000 1.03 0 07:56 17.05.2022
2103 Clouds 11 1022 92 10000 0.51 0 06:26 17.05.2022
2104 Clear 14 1021 87 10000 2.06 240 01:59 17.05.2022
2105 Clear 16 1022 84 10000 1.54 240 23:59 16.05.2022
2106 Clear 17 1021 80 10000 2.06 280 22:40 16.05.2022
2107 Clouds 19 1021 73 10000 3.09 280 21:31 16.05.2022
2108 Clouds 20 1020 65 10000 5.14 280 20:43 16.05.2022
2109 Clouds 22 1019 65 10000 5.66 310 18:53 16.05.2022
2110 Clouds 23 1019 64 10000 3.09 260 17:34 16.05.2022
2111 Clouds 20 1018 76 10000 3.47 278 15:36 16.05.2022
2112 Clouds 23 1019 60 10000 6.69 280 13:48 16.05.2022
2113 Clouds 24 1019 58 10000 5.14 260 12:46 16.05.2022
2114 Rain 22 1018 65 10000 2.06 170 10:47 16.05.2022
2115 Clouds 17 1018 76 10000 0.51 0 08:37 16.05.2022
2116 Rain 14 1017 81 10000 0.51 0 06:33 16.05.2022
2117 Clear 14 1017 78 10000 1.03 0 02:33 16.05.2022
2118 Clouds 17 1017 69 10000 1.53 151 22:52 15.05.2022
2119 Clear 18 1016 64 10000 1.54 90 22:28 15.05.2022
2120 Clear 20 1016 55 10000 2.06 90 21:38 15.05.2022
2121 Clear 23 1016 46 10000 2.57 90 20:53 15.05.2022
2122 Clear 25 1016 38 10000 3.09 90 19:24 15.05.2022
2123 Clear 26 1017 37 10000 2.57 80 17:48 15.05.2022
2124 Clear 27 1017 37 10000 3.09 70 15:44 15.05.2022
2125 Clear 26 1018 41 10000 4.12 70 13:49 15.05.2022
2126 Clear 24 1019 44 10000 2.57 60 12:23 15.05.2022
2127 Clouds 24 1018 48 10000 2.36 104 11:38 15.05.2022
2128 Clouds 24 1018 48 10000 2.36 104 11:38 15.05.2022
2129 Clear 20 1019 61 10000 1.03 0 10:23 15.05.2022
2130 Clear 13 1020 76 10000 0.51 0 07:46 15.05.2022
2131 Clear 11 1019 76 10000 0.51 0 06:57 15.05.2022
2132 Clear 10 1019 86 10000 0.51 0 05:33 15.05.2022
2133 Clear 12 1020 78 10000 1.03 0 00:49 15.05.2022
2134 Clear 14 1020 70 10000 1.03 0 23:38 14.05.2022
2135 Clear 15 1020 65 10000 1.03 0 22:47 14.05.2022
2136 Clear 17 1020 56 10000 2.06 360 21:29 14.05.2022
2137 Clear 20 1020 44 10000 2.57 20 20:51 14.05.2022
2138 Clear 22 1019 40 10000 3.09 40 19:38 14.05.2022
2139 Clear 23 1019 36 10000 3.6 20 19:19 14.05.2022
2140 Clear 23 1019 37 10000 2.57 70 18:41 14.05.2022
2141 Clear 24 1020 38 10000 2.57 50 16:38 14.05.2022
2142 Clear 24 1021 42 10000 2.06 360 15:30 14.05.2022
2143 Clear 23 1021 44 10000 2.57 50 14:34 14.05.2022
2144 Clouds 21 1022 51 10000 1.03 0 12:24 14.05.2022
2145 Clouds 19 1022 57 10000 1.03 0 10:59 14.05.2022
2146 Clear 18 1022 65 10000 1.54 90 10:21 14.05.2022
2147 Clear 17 1022 73 10000 0.51 0 09:53 14.05.2022
2148 Clear 14 1022 76 10000 0.51 0 08:49 14.05.2022
2149 Clear 9 1022 90 10000 0.51 60 06:41 14.05.2022
2150 Clear 10 1022 86 10000 0.51 0 02:39 14.05.2022
2151 Clear 13 1023 83 10000 1.03 252 23:36 13.05.2022
2152 Clear 14 1022 72 10000 1.54 280 22:58 13.05.2022
2153 Clear 15 1021 70 10000 2.06 310 22:27 13.05.2022
2154 Clear 16 1021 67 10000 2.57 320 21:52 13.05.2022
2155 Clear 19 1021 48 10000 4.12 310 20:46 13.05.2022
2156 Clear 19 1021 42 10000 4.12 310 20:27 13.05.2022
2157 Clear 21 1020 43 10000 4.63 310 19:28 13.05.2022
2158 Clear 22 1020 46 10000 3.6 270 17:51 13.05.2022
2159 Clouds 23 1020 45 10000 4.46 299 17:29 13.05.2022
2160 Clouds 23 1021 50 10000 4.12 260 16:20 13.05.2022
2161 Clouds 21 1021 56 10000 4.12 240 15:29 13.05.2022
2162 Clouds 20 1021 65 10000 4.12 290 13:54 13.05.2022
2163 Clouds 19 1021 69 10000 3.6 280 12:32 13.05.2022
2164 Clouds 19 1021 75 10000 3.6 300 11:23 13.05.2022
2165 Clouds 19 1021 75 10000 3.6 300 11:23 13.05.2022
2166 Clouds 17 1020 70 10000 1.03 0 09:35 13.05.2022
2167 Clouds 16 1020 73 10000 1.54 320 08:49 13.05.2022
2168 Clouds 16 1020 77 10000 0.51 0 07:48 13.05.2022
2169 Clouds 16 1020 79 10000 0.51 260 06:34 13.05.2022
2170 Rain 17 1020 72 10000 1.03 0 03:34 13.05.2022
2171 Rain 17 1020 75 10000 2.06 220 00:39 13.05.2022
2172 Clear 17 1020 73 10000 1.03 0 22:46 12.05.2022
2173 Clear 17 1019 90 10000 1.03 0 21:58 12.05.2022
2174 Clear 17 1019 87 10000 2.06 350 20:37 12.05.2022
2175 Thunderstorm 19 1019 84 10000 8.75 310 19:18 12.05.2022
2176 Clear 24 1018 59 10000 3.09 20 17:27 12.05.2022
2177 Clear 24 1019 51 10000 2.57 0 16:23 12.05.2022
2178 Clear 25 1019 51 10000 4.12 260 14:47 12.05.2022
2179 Clear 24 1020 54 10000 5.66 260 13:47 12.05.2022
2180 Clouds 21 1020 64 10000 4.12 290 11:23 12.05.2022
2181 Clouds 20 1020 67 10000 4.12 310 09:31 12.05.2022
2182 Clear 19 1019 66 10000 1.54 0 08:51 12.05.2022
2183 Clear 18 1019 67 10000 2.06 250 07:41 12.05.2022
2184 Clear 15 1017 74 10000 3.09 270 06:39 12.05.2022
2185 Clear 17 1015 51 10000 4.12 240 03:31 12.05.2022
2186 Clouds 17 1016 57 10000 2.32 207 00:41 12.05.2022
2187 Clear 19 1015 40 10000 2.06 230 22:41 11.05.2022
2188 Clear 21 1015 31 10000 4.12 240 21:59 11.05.2022
2189 Clear 25 1014 29 10000 4.12 240 21:24 11.05.2022
2190 Clear 27 1014 29 10000 3.6 230 19:42 11.05.2022
2191 Clear 29 1014 30 10000 7.2 240 17:24 11.05.2022
2192 Clouds 29 1014 33 10000 5.69 240 15:59 11.05.2022
2193 Clear 29 1015 36 10000 4.63 230 14:45 11.05.2022
2194 Clear 29 1015 36 10000 4.12 240 14:24 11.05.2022
2195 Clear 27 1017 45 10000 4.63 220 12:23 11.05.2022
2196 Clear 26 1017 47 10000 4.63 230 11:47 11.05.2022
2197 Clear 21 1018 66 10000 1.03 0 09:29 11.05.2022
2198 Clear 13 1017 87 10000 0.51 0 06:27 11.05.2022
2199 Clouds 16 1018 86 10000 1.99 191 01:53 11.05.2022
2200 Clouds 18 1019 79 10000 1.44 207 22:56 10.05.2022
2201 Clear 19 1018 74 10000 1.54 290 22:21 10.05.2022
2202 Clouds 20 1019 73 10000 0.9 228 21:26 10.05.2022
2203 Clouds 24 1018 46 10000 1.54 340 20:26 10.05.2022
2204 Clear 25 1018 45 10000 3.09 270 18:38 10.05.2022
2205 Clear 25 1019 41 10000 2.57 260 17:38 10.05.2022
2206 Clouds 26 1018 42 10000 1.72 253 16:24 10.05.2022
2207 Clear 25 1021 44 10000 2.57 100 13:19 10.05.2022
2208 Clouds 24 1022 53 10000 1.54 130 11:53 10.05.2022
2209 Clouds 23 1022 58 10000 2.06 130 11:32 10.05.2022
2210 Clouds 22 1022 64 10000 1.54 0 10:56 10.05.2022
2211 Clear 19 1022 73 10000 1.03 0 09:47 10.05.2022
2212 Clear 14 1022 87 10000 1.03 0 08:18 10.05.2022
2213 Clear 10 1022 92 10000 1.03 110 06:20 10.05.2022
2214 Clear 12 1023 87 10000 1.03 300 02:23 10.05.2022
2215 Clear 14 1023 82 10000 1.03 320 23:53 09.05.2022
2216 Clear 17 1023 76 10000 0.51 100 22:36 09.05.2022
2217 Clear 18 1023 63 10000 1.03 70 21:42 09.05.2022
2218 Clear 22 1022 49 10000 3.6 80 20:21 09.05.2022
2219 Clear 23 1022 46 10000 3.09 100 18:26 09.05.2022
2220 Clear 23 1023 45 10000 3.09 80 17:26 09.05.2022
2221 Clear 23 1023 47 10000 4.63 80 16:19 09.05.2022
2222 Clear 23 1024 46 10000 4.12 80 15:47 09.05.2022
2223 Clouds 23 1024 48 10000 2.06 0 14:37 09.05.2022
2224 Clouds 23 1024 50 10000 2.57 0 13:59 09.05.2022
2225 Clouds 22 1025 55 10000 3.09 70 13:23 09.05.2022
2226 Clouds 20 1025 62 10000 3.09 80 11:53 09.05.2022
2227 Clouds 19 1025 70 10000 2.57 70 10:50 09.05.2022
2228 Clouds 19 1025 71 10000 3.09 70 10:26 09.05.2022
2229 Clear 11 1024 88 10000 0.51 140 07:57 09.05.2022
2230 Clear 9 1024 92 10000 0.51 20 05:59 09.05.2022
2231 Clear 11 1024 89 10000 0.51 0 01:59 09.05.2022
2232 Clouds 14 1024 84 10000 1.26 37 23:29 08.05.2022
2233 Clouds 14 1024 89 10000 1.26 37 22:42 08.05.2022
2234 Clouds 16 1023 78 10000 1.54 150 21:37 08.05.2022
2235 Clouds 18 1022 63 10000 1.03 0 20:25 08.05.2022
2236 Clouds 20 1022 54 10000 2.06 90 19:35 08.05.2022
2237 Clouds 20 1022 53 10000 2.57 100 18:49 08.05.2022
2238 Clouds 21 1023 49 10000 6.69 50 17:45 08.05.2022
2239 Clouds 21 1023 51 10000 5.66 40 16:23 08.05.2022
2240 Clouds 21 1023 49 10000 5.66 60 15:25 08.05.2022
2241 Clouds 21 1023 52 10000 6.69 50 14:23 08.05.2022
2242 Clouds 20 1022 68 10000 3.11 71 11:53 08.05.2022
2243 Clouds 15 1023 84 10000 1.03 0 10:27 08.05.2022
2244 Clear 12 1023 87 10000 0.51 0 09:54 08.05.2022
2245 Clear 10 1023 93 10000 0.51 0 08:37 08.05.2022
2246 Clear 8 1022 90 10000 1.03 0 06:31 08.05.2022
2247 Clear 9 1022 92 10000 1.03 0 03:23 08.05.2022
2248 Clear 11 1022 87 10000 2.06 300 01:25 08.05.2022
2249 Clear 12 1022 84 10000 1.54 310 00:20 08.05.2022
2250 Clear 12 1022 81 10000 0.51 40 23:41 07.05.2022
2251 Clear 14 1021 75 10000 0.51 0 22:46 07.05.2022
2252 Clear 14 1021 73 10000 1.54 80 21:57 07.05.2022
2253 Clear 15 1021 69 10000 1.54 80 21:32 07.05.2022
2254 Clear 18 1021 55 10000 3.09 70 20:27 07.05.2022
2255 Clear 20 1020 47 10000 4.12 50 18:59 07.05.2022
2256 Clear 21 1021 44 10000 2.57 30 17:31 07.05.2022
2257 Clear 21 1021 42 10000 2.57 10 15:18 07.05.2022
2258 Clouds 19 1022 51 10000 3.6 40 12:34 07.05.2022
2259 Clear 16 1023 74 10000 1.03 0 10:23 07.05.2022
2260 Clear 12 1023 81 10000 1.03 0 08:37 07.05.2022
2261 Fog 10 1023 81 10000 0 0 07:43 07.05.2022
2262 Fog 7 1022 93 10000 0.51 160 06:43 07.05.2022
2263 Clear 7 1022 90 10000 1.03 280 04:24 07.05.2022
2264 Clear 9 1023 89 10000 1.03 0 00:50 07.05.2022
2265 Clouds 11 1023 84 10000 1.01 330 22:55 06.05.2022
2266 Clear 13 1023 79 10000 1.03 0 22:21 06.05.2022
2267 Clouds 14 1023 79 10000 1.41 356 21:36 06.05.2022
2268 Clear 17 1023 62 10000 2.06 30 20:20 06.05.2022
2269 Clouds 17 1022 65 10000 2.06 60 19:29 06.05.2022
2270 Clouds 18 1022 64 10000 2.57 70 18:54 06.05.2022
2271 Clouds 18 1022 61 10000 3.6 70 17:38 06.05.2022
2272 Clouds 18 1023 58 10000 3.6 40 15:56 06.05.2022
2273 Clouds 18 1023 59 10000 1.54 60 15:38 06.05.2022
2274 Clouds 18 1023 61 10000 3.09 50 14:23 06.05.2022
2275 Clouds 17 1023 70 10000 2.57 360 12:53 06.05.2022
2276 Clouds 15 1023 75 10000 3.6 350 12:31 06.05.2022
2277 Clouds 13 1023 85 10000 3.09 350 11:38 06.05.2022
2278 Clouds 12 1023 89 10000 3.6 340 09:49 06.05.2022
2279 Clouds 12 1023 90 10000 3.09 340 09:19 06.05.2022
2280 Clouds 12 1022 91 10000 2.57 320 07:57 06.05.2022
2281 Clouds 11 1022 91 10000 3.6 330 06:39 06.05.2022
2282 Clouds 12 1022 91 10000 1.57 346 04:37 06.05.2022
2283 Clouds 12 1022 91 10000 0.51 0 02:43 06.05.2022
2284 Rain 13 1022 88 10000 3.09 310 23:34 05.05.2022
2285 Clouds 14 1021 84 10000 3.6 320 21:52 05.05.2022
2286 Clouds 14 1021 83 10000 4.12 310 20:53 05.05.2022
2287 Clouds 15 1020 85 10000 5.14 310 19:49 05.05.2022
2288 Clouds 16 1020 78 10000 4.12 320 16:57 05.05.2022
2289 Clouds 16 1020 77 10000 3.6 330 16:18 05.05.2022
2290 Clouds 16 1020 85 10000 1.54 10 14:43 05.05.2022
2291 Rain 15 1021 85 10000 0.51 0 13:20 05.05.2022
2292 Clouds 14 1021 84 10000 0.51 0 12:24 05.05.2022
2293 Rain 13 1020 86 10000 2.06 320 10:33 05.05.2022
2294 Rain 12 1020 85 10000 0.51 0 09:39 05.05.2022
2295 Clear 10 1019 91 10000 0.51 0 07:34 05.05.2022
2296 Clear 11 1018 90 10000 0.51 0 03:00 05.05.2022
2297 Clear 11 1018 90 10000 0.51 0 01:50 05.05.2022
2298 Clear 11 1018 88 10000 2.06 260 01:22 05.05.2022
2299 Clear 12 1018 88 10000 1.03 0 23:34 04.05.2022
2300 Clear 12 1018 87 10000 1.03 0 22:27 04.05.2022
2301 Clouds 13 1017 83 10000 3.09 350 21:49 04.05.2022
2302 Rain 13 1017 83 10000 3.09 350 21:26 04.05.2022
2303 Clouds 14 1016 80 10000 3.09 20 20:22 04.05.2022
2304 Rain 14 1016 79 10000 3.6 290 19:51 04.05.2022
2305 Clouds 17 1015 62 10000 2.57 250 18:54 04.05.2022
2306 Clouds 18 1015 63 10000 1.54 250 18:22 04.05.2022
2307 Clouds 19 1016 60 10000 2.06 200 17:38 04.05.2022
2308 Clouds 20 1015 56 10000 1.66 294 15:40 04.05.2022
2309 Rain 19 1016 58 10000 0.51 0 15:22 04.05.2022
2310 Clouds 19 1016 64 10000 2.06 20 14:21 04.05.2022
2311 Clouds 18 1017 69 10000 3.09 30 13:26 04.05.2022
2312 Clouds 17 1017 75 10000 3.6 320 12:33 04.05.2022
2313 Rain 15 1017 82 10000 0.51 0 10:40 04.05.2022
2314 Rain 14 1016 87 10000 0.51 100 09:43 04.05.2022
2315 Rain 13 1017 91 10000 0.86 220 08:46 04.05.2022
2316 Rain 10 1016 92 10000 1.03 0 06:41 04.05.2022
2317 Clear 10 1016 90 10000 1.54 230 02:58 04.05.2022
2318 Clouds 11 1016 89 10000 3.6 310 00:33 04.05.2022
2319 Rain 13 1016 83 10000 1.54 210 22:34 03.05.2022
2320 Clouds 14 1015 83 10000 0.51 0 21:46 03.05.2022
2321 Clouds 15 1015 80 10000 1.54 280 20:54 03.05.2022
2322 Clouds 17 1014 71 10000 4.63 280 19:57 03.05.2022
2323 Clouds 19 1014 63 10000 1.54 250 18:54 03.05.2022
2324 Clouds 19 1013 63 10000 2.45 47 18:21 03.05.2022
2325 Rain 19 1013 65 10000 2.56 38 16:44 03.05.2022
2326 Rain 18 1013 64 10000 2.6 22 15:38 03.05.2022
2327 Clouds 20 1015 56 10000 1.54 0 12:47 03.05.2022
2328 Clouds 19 1015 58 10000 1.54 0 12:27 03.05.2022
2329 Clouds 17 1016 69 10000 0.51 80 10:57 03.05.2022
2330 Clear 14 1015 82 10000 1.03 0 09:35 03.05.2022
2331 Clear 9 1015 90 10000 0.51 90 07:33 03.05.2022
2332 Clear 7 1014 91 10000 1.03 270 06:45 03.05.2022
2333 Clear 11 1015 87 10000 0.51 0 01:47 03.05.2022
2334 Clouds 13 1015 82 10000 0.28 236 22:44 02.05.2022
2335 Clear 13 1015 80 10000 1.03 0 21:54 02.05.2022
2336 Clouds 14 1015 84 10000 1.12 28 21:23 02.05.2022
2337 Clouds 19 1014 52 10000 3.09 30 18:46 02.05.2022
2338 Clouds 19 1014 52 10000 3.09 30 18:25 02.05.2022
2339 Clouds 19 1014 51 10000 1.03 0 17:37 02.05.2022
2340 Clouds 19 1015 50 10000 1.54 0 16:24 02.05.2022
2341 Clouds 19 1015 53 10000 3.6 20 15:37 02.05.2022
2342 Clouds 18 1015 54 10000 3.6 80 13:58 02.05.2022
2343 Clouds 18 1016 58 10000 3.09 80 12:27 02.05.2022
2344 Clouds 16 1017 65 10000 1.03 0 11:20 02.05.2022
2345 Clear 13 1017 83 10000 1.03 0 09:31 02.05.2022
2346 Clear 9 1017 89 10000 1.03 0 07:57 02.05.2022
2347 Clear 8 1017 93 10000 1.03 0 04:44 02.05.2022
2348 Clear 10 1019 89 10000 0.51 0 00:26 02.05.2022
2349 Clear 11 1019 86 10000 1.03 50 23:52 01.05.2022
2350 Clouds 11 1020 89 10000 0.55 8 22:45 01.05.2022
2351 Clouds 12 1019 87 10000 0.79 28 21:30 01.05.2022
2352 Clouds 14 1018 67 10000 2.57 350 20:23 01.05.2022
2353 Clouds 16 1018 59 10000 1.03 0 19:18 01.05.2022
2354 Clouds 16 1019 60 10000 2.06 20 18:50 01.05.2022
2355 Clouds 16 1019 59 10000 2.06 0 17:47 01.05.2022
2356 Clouds 16 1019 59 10000 1.03 0 16:24 01.05.2022
2357 Clouds 16 1020 64 10000 1.03 0 15:45 01.05.2022
2358 Clouds 15 1020 61 10000 1.03 0 14:41 01.05.2022
2359 Clouds 13 1021 76 10000 1.03 0 11:53 01.05.2022
2360 Clouds 10 1021 87 10000 1.03 0 09:33 01.05.2022
2361 Clouds 10 1021 89 8000 1.54 350 08:49 01.05.2022
2362 Clouds 9 1021 93 10000 1.03 250 05:42 01.05.2022
2363 Clouds 9 1022 91 10000 1.54 260 01:32 01.05.2022
2364 Clouds 9 1022 89 10000 3.6 320 21:59 30.04.2022
2365 Clouds 10 1022 87 10000 4.12 300 21:30 30.04.2022
2366 Clouds 10 1022 87 10000 4.12 300 21:30 30.04.2022
2367 Clouds 10 1022 87 10000 4.12 300 21:30 30.04.2022
2368 Clouds 10 1021 85 10000 4.12 330 19:48 30.04.2022
2369 Clouds 11 1022 85 10000 3.68 327 18:52 30.04.2022
2370 Clouds 11 1022 83 10000 5.14 330 17:26 30.04.2022
2371 Clouds 12 1022 82 10000 6.17 330 15:51 30.04.2022
2372 Clouds 13 1022 81 10000 4.12 340 14:58 30.04.2022
2373 Rain 12 1022 88 10000 2.06 350 13:41 30.04.2022
2374 Rain 11 1022 91 10000 4.12 320 11:39 30.04.2022
2375 Rain 11 1022 92 10000 3.6 300 10:56 30.04.2022
2376 Rain 11 1022 90 9000 2.06 290 09:54 30.04.2022
2377 Rain 11 1022 90 10000 2.57 290 07:36 30.04.2022
2378 Clear 10 1021 83 10000 1.54 290 03:58 30.04.2022
2379 Clear 11 1022 76 10000 1.54 320 23:55 29.04.2022
2380 Clear 13 1023 69 10000 1.54 280 22:37 29.04.2022
2381 Clouds 13 1023 68 10000 0.76 46 21:55 29.04.2022
2382 Clear 14 1022 60 10000 2.06 40 21:24 29.04.2022
2383 Clear 17 1022 51 10000 1.54 80 19:55 29.04.2022
2384 Clear 18 1022 45 10000 2.57 80 19:27 29.04.2022
2385 Clear 20 1023 39 10000 2.06 110 17:34 29.04.2022
2386 Clear 20 1023 39 10000 2.57 0 16:36 29.04.2022
2387 Clear 19 1025 39 10000 4.12 70 14:36 29.04.2022
2388 Clear 19 1025 40 10000 4.63 80 13:36 29.04.2022
2389 Clear 18 1025 41 10000 5.66 80 12:36 29.04.2022
2390 Clear 14 1026 66 10000 2.06 70 10:29 29.04.2022
2391 Clear 8 1026 82 10000 0.51 0 07:55 29.04.2022
2392 Clear 6 1026 89 10000 0.51 0 07:25 29.04.2022
2393 Clear 5 1026 91 10000 1.03 290 06:30 29.04.2022
2394 Clear 8 1027 83 10000 1.03 0 01:47 29.04.2022
2395 Clear 9 1027 76 10000 1.03 0 23:55 28.04.2022
2396 Clear 10 1028 77 10000 1.1 109 23:25 28.04.2022
2397 Clear 11 1027 72 10000 1.03 0 22:24 28.04.2022
2398 Clear 13 1027 65 10000 2.06 70 21:41 28.04.2022
2399 Clear 17 1026 44 10000 3.6 50 20:45 28.04.2022
2400 Clear 18 1026 39 10000 3.09 40 19:52 28.04.2022
2401 Clear 18 1026 42 10000 3.6 60 19:24 28.04.2022
2402 Clear 18 1026 40 10000 2.57 90 18:52 28.04.2022
2403 Clear 19 1026 38 10000 2.57 120 17:54 28.04.2022
2404 Clear 19 1026 37 10000 2.57 100 16:58 28.04.2022
2405 Clear 19 1026 38 10000 4.12 90 16:21 28.04.2022
2406 Clear 19 1026 39 10000 3.09 0 15:49 28.04.2022
2407 Clear 19 1027 39 10000 3.6 90 15:18 28.04.2022
2408 Clear 19 1027 41 10000 3.32 90 13:42 28.04.2022
2409 Clouds 17 1027 42 10000 6.69 80 12:30 28.04.2022
2410 Clouds 17 1027 42 10000 6.69 80 12:30 28.04.2022
2411 Clouds 17 1027 45 10000 5.14 90 11:38 28.04.2022
2412 Clear 15 1027 67 10000 3.6 70 10:27 28.04.2022
2413 Clear 13 1027 77 10000 2.06 80 09:50 28.04.2022
2414 Clear 8 1026 81 10000 0.51 0 07:43 28.04.2022
2415 Clear 4 1025 90 10000 1.03 0 06:53 28.04.2022
2416 Clear 4 1025 90 10000 1.03 290 05:53 28.04.2022
2417 Clear 4 1025 92 10000 0.51 0 04:43 28.04.2022
2418 Clear 5 1025 91 10000 1.03 270 02:45 28.04.2022
2419 Clear 8 1024 84 10000 1.03 0 23:36 27.04.2022
2420 Clear 10 1024 79 10000 1.54 100 22:25 27.04.2022
2421 Clear 11 1024 77 10000 3.09 40 21:47 27.04.2022
2422 Clear 12 1023 67 10000 2.57 80 20:47 27.04.2022
2423 Clear 13 1023 67 10000 2.57 80 20:47 27.04.2022
2424 Clear 13 1023 63 10000 3.6 90 20:29 27.04.2022
2425 Clear 15 1023 61 10000 3.6 80 19:36 27.04.2022
2426 Clear 16 1023 55 10000 3.09 90 18:45 27.04.2022
2427 Clear 16 1023 56 10000 3.09 100 18:21 27.04.2022
2428 Clouds 16 1023 61 10000 4.63 70 16:21 27.04.2022
2429 Clouds 14 1023 72 10000 2.06 90 13:29 27.04.2022
2430 Clouds 12 1023 81 10000 2.06 30 11:37 27.04.2022
2431 Clouds 11 1023 83 10000 2.06 30 11:18 27.04.2022
2432 Clouds 9 1022 91 10000 0.51 0 08:53 27.04.2022
2433 Clouds 8 1020 94 8000 1.54 90 06:45 27.04.2022
2434 Clouds 8 1019 93 10000 1.03 310 03:30 27.04.2022
2435 Clouds 8 1019 93 9000 2.06 320 01:30 27.04.2022
2436 Clouds 8 1019 92 10000 2.06 300 00:36 27.04.2022
2437 Clouds 8 1018 92 10000 1.54 340 23:25 26.04.2022
2438 Clouds 9 1020 90 10000 1.54 298 22:52 26.04.2022
2439 Rain 9 1018 89 10000 2.06 250 22:34 26.04.2022
2440 Rain 9 1018 88 10000 0.51 0 21:26 26.04.2022
2441 Clouds 9 1017 83 10000 2.06 330 20:40 26.04.2022
2442 Clouds 10 1017 79 10000 4.12 340 19:48 26.04.2022
2443 Clouds 11 1016 78 10000 3.6 310 19:26 26.04.2022
2444 Clouds 11 1016 77 10000 7.2 310 18:44 26.04.2022
2445 Rain 13 1016 62 10000 3.6 240 17:50 26.04.2022
2446 Clouds 13 1015 68 10000 5.26 284 16:26 26.04.2022
2447 Clouds 12 1014 68 10000 2.06 230 13:59 26.04.2022
2448 Clouds 13 1014 64 10000 3.6 240 13:31 26.04.2022
2449 Clouds 12 1014 83 10000 2.57 270 11:48 26.04.2022
2450 Clouds 10 1013 87 10000 2.06 270 10:31 26.04.2022
2451 Rain 9 1013 91 10000 1.03 0 08:47 26.04.2022
2452 Rain 9 1012 93 8000 0.51 0 06:57 26.04.2022
2453 Rain 10 1012 93 10000 1.03 0 04:23 26.04.2022
2454 Rain 10 1012 93 10000 1.03 0 04:23 26.04.2022
2455 Rain 10 1012 90 10000 1.03 0 01:22 26.04.2022
2456 Rain 10 1012 92 10000 1.03 0 00:25 26.04.2022
2457 Clear 11 1012 87 10000 1.03 0 22:21 25.04.2022
2458 Clear 11 1012 87 10000 1.03 0 21:39 25.04.2022
2459 Rain 12 1011 86 10000 1.54 230 20:35 25.04.2022
2460 Rain 13 1011 80 10000 1.54 120 18:54 25.04.2022
2461 Clouds 14 1010 73 10000 2.57 130 17:43 25.04.2022
2462 Clouds 13 1010 84 10000 2.57 150 16:52 25.04.2022
2463 Clouds 13 1010 82 10000 2.06 190 15:24 25.04.2022
2464 Rain 14 1010 75 10000 2.06 310 14:38 25.04.2022
2465 Rain 15 1009 63 10000 2.57 70 13:32 25.04.2022
2466 Clouds 13 1009 74 10000 1.03 0 11:37 25.04.2022
2467 Clouds 12 1008 78 10000 1.03 0 10:23 25.04.2022
2468 Clouds 9 1008 91 10000 0.51 0 08:39 25.04.2022
2469 Clouds 9 1009 90 10000 0.62 314 06:39 25.04.2022
2470 Clouds 9 1006 90 10000 4.12 280 03:47 25.04.2022
2471 Clouds 9 1005 92 10000 2.57 250 00:57 25.04.2022
2472 Clouds 10 1005 93 10000 2.57 250 23:51 24.04.2022
2473 Clouds 10 1004 91 10000 1.54 230 22:43 24.04.2022
2474 Clouds 10 1004 93 10000 1.54 0 22:20 24.04.2022
2475 Clouds 10 1004 92 10000 2.06 250 21:26 24.04.2022
2476 Clouds 9 1003 92 10000 3.09 250 20:49 24.04.2022
2477 Clouds 10 1003 92 10000 4.12 250 20:29 24.04.2022
2478 Clouds 9 1003 91 10000 6.17 280 19:46 24.04.2022
2479 Clouds 9 1002 92 3200 4.12 240 18:20 24.04.2022
2480 Clouds 10 1002 92 10000 2.06 0 17:28 24.04.2022
2481 Clouds 10 1001 91 10000 2.57 220 16:59 24.04.2022
2482 Clouds 10 1001 89 10000 2.57 230 16:32 24.04.2022
2483 Clouds 10 1001 90 10000 3.6 230 15:54 24.04.2022
2484 Rain 10 1001 91 10000 3.09 240 15:29 24.04.2022
2485 Rain 10 1001 92 10000 2.06 0 13:57 24.04.2022
2486 Rain 9 1000 92 10000 2.06 210 13:25 24.04.2022
2487 Rain 9 1000 90 10000 2.57 200 12:30 24.04.2022
2488 Rain 8 1000 92 10000 2.57 190 11:28 24.04.2022
2489 Rain 8 999 93 10000 3.09 250 10:25 24.04.2022
2490 Rain 8 999 91 9000 5.66 260 09:23 24.04.2022
2491 Rain 9 997 93 5000 0.51 0 06:34 24.04.2022
2492 Clear 10 996 81 10000 2.06 40 03:43 24.04.2022
2493 Clear 10 997 80 10000 3.09 50 01:38 24.04.2022
2494 Clear 10 997 82 10000 4.63 80 00:24 24.04.2022
2495 Clear 11 998 78 10000 3.6 70 23:44 23.04.2022
2496 Clear 11 998 83 10000 3.09 60 23:21 23.04.2022
2497 Clouds 11 1000 80 10000 1.54 40 21:51 23.04.2022
2498 Clouds 12 1000 81 10000 1.54 40 21:33 23.04.2022
2499 Clear 13 1000 80 10000 2.57 90 20:45 23.04.2022
2500 Clear 13 1000 74 10000 2.57 90 20:45 23.04.2022
2501 Clouds 14 1000 65 10000 3.6 90 19:47 23.04.2022
2502 Clouds 15 1000 64 10000 4.63 80 19:19 23.04.2022
2503 Clouds 15 1000 65 10000 4.63 80 18:52 23.04.2022
2504 Clouds 15 1001 67 10000 5.14 80 17:51 23.04.2022
2505 Clouds 15 1001 67 10000 4.12 80 17:26 23.04.2022
2506 Clouds 15 1002 64 10000 4.63 100 16:41 23.04.2022
2507 Clouds 15 1002 65 10000 4.63 100 15:20 23.04.2022
2508 Clouds 13 1003 71 10000 4.63 80 12:44 23.04.2022
2509 Clouds 12 1003 76 10000 5.66 80 10:44 23.04.2022
2510 Clouds 11 1003 77 10000 5.66 80 09:33 23.04.2022
2511 Clouds 8 1004 89 10000 1.78 85 06:32 23.04.2022
2512 Clear 9 1002 84 10000 3.6 80 03:54 23.04.2022
2513 Clear 11 1003 75 10000 3.6 80 01:20 23.04.2022
2514 Clear 13 1002 68 10000 3.6 70 23:30 22.04.2022
2515 Clear 14 1001 60 10000 3.09 70 22:20 22.04.2022
2516 Clear 14 1001 65 10000 4.63 60 21:43 22.04.2022
2517 Clear 16 1001 51 10000 4.12 50 20:48 22.04.2022
2518 Clear 17 1001 49 10000 4.12 30 20:27 22.04.2022
2519 Clear 18 1000 42 10000 3.6 50 19:20 22.04.2022
2520 Clear 19 1000 39 10000 4.12 60 18:42 22.04.2022
2521 Clear 19 1000 42 10000 4.63 50 17:41 22.04.2022
2522 Clear 18 1000 45 10000 3.6 60 16:46 22.04.2022
2523 Clouds 18 1000 47 10000 4.12 80 15:44 22.04.2022
2524 Clouds 18 1000 48 10000 4.12 30 15:18 22.04.2022
2525 Clouds 17 1001 53 10000 4.12 10 13:54 22.04.2022
2526 Clouds 16 1001 59 10000 3.6 10 12:58 22.04.2022
2527 Clouds 15 1002 64 10000 4.12 20 11:52 22.04.2022
2528 Clouds 14 1002 65 10000 2.57 20 11:22 22.04.2022
2529 Clouds 13 1002 68 10000 3.6 20 10:50 22.04.2022
2530 Clear 12 1003 71 10000 2.66 50 10:30 22.04.2022
2531 Clouds 10 1003 76 10000 2.57 40 09:53 22.04.2022
2532 Clear 8 1003 83 10000 3.09 40 08:51 22.04.2022
2533 Clear 5 1003 89 10000 2.57 20 07:33 22.04.2022
2534 Clear 7 1004 82 10000 3.09 40 03:47 22.04.2022
2535 Clear 8 1006 70 10000 3.6 50 00:52 22.04.2022
2536 Clear 10 1006 72 10000 4.63 70 23:26 21.04.2022
2537 Clear 11 1007 66 10000 4.63 60 22:29 21.04.2022
2538 Clear 13 1007 50 10000 5.66 60 20:46 21.04.2022
2539 Clear 13 1006 55 10000 6.69 70 20:26 21.04.2022
2540 Clear 15 1006 45 10000 6.69 60 18:47 21.04.2022
2541 Clear 16 1006 45 10000 5.14 50 18:19 21.04.2022
2542 Clear 16 1006 44 10000 5.66 50 16:49 21.04.2022
2543 Clear 16 1007 47 10000 3.6 60 15:23 21.04.2022
2544 Clear 17 1007 45 10000 3.6 70 14:50 21.04.2022
2545 Clouds 16 1008 47 10000 2.57 0 13:44 21.04.2022
2546 Clouds 15 1008 48 10000 3.09 20 13:18 21.04.2022
2547 Clear 13 1009 55 10000 2.57 60 11:25 21.04.2022
2548 Clear 8 1010 79 10000 1.03 0 08:59 21.04.2022
2549 Clear 5 1010 87 10000 1.03 150 07:55 21.04.2022
2550 Clear 4 1010 86 10000 1.03 0 06:21 21.04.2022
2551 Clear 5 1010 78 10000 1.54 310 03:35 21.04.2022
2552 Clear 6 1011 77 10000 1.03 0 02:48 21.04.2022
2553 Clear 7 1011 72 10000 2.57 50 01:50 21.04.2022
2554 Clear 7 1012 63 10000 1.03 70 23:53 20.04.2022
2555 Clear 8 1011 60 10000 0.51 0 23:23 20.04.2022
2556 Clear 8 1012 57 10000 0.51 0 22:52 20.04.2022
2557 Clear 8 1013 61 10000 1.72 56 22:32 20.04.2022
2558 Clear 10 1011 51 10000 3.09 40 21:35 20.04.2022
2559 Clear 12 1011 41 10000 4.12 50 20:43 20.04.2022
2560 Clear 14 1011 35 10000 4.63 50 19:55 20.04.2022
2561 Clear 15 1011 36 10000 4.63 50 19:29 20.04.2022
2562 Clear 15 1011 35 10000 4.63 50 18:33 20.04.2022
2563 Clear 16 1011 34 10000 4.12 40 16:59 20.04.2022
2564 Clear 16 1011 33 10000 4.12 40 16:39 20.04.2022
2565 Clear 15 1012 38 10000 4.63 60 14:52 20.04.2022
2566 Clouds 12 1013 46 10000 5.14 90 11:57 20.04.2022
2567 Clouds 12 1013 47 10000 5.14 90 11:33 20.04.2022
2568 Clear 10 1013 56 10000 5.66 70 10:30 20.04.2022
2569 Clear 8 1013 63 10000 6.17 80 09:27 20.04.2022
2570 Clear 6 1013 73 10000 2.57 70 08:25 20.04.2022
2571 Clear 6 1013 73 10000 2.57 70 08:25 20.04.2022
2572 Clear 4 1013 77 10000 1.54 70 07:44 20.04.2022
2573 Clear 4 1013 77 10000 1.54 100 05:19 20.04.2022
2574 Clear 8 1013 50 10000 4.12 70 01:20 20.04.2022
2575 Clear 8 1013 50 10000 4.12 70 01:20 20.04.2022
2576 Clear 9 1013 48 10000 3.09 60 00:21 20.04.2022
2577 Clear 12 1012 50 10000 5.14 60 22:44 19.04.2022
2578 Clear 12 1012 47 10000 3.09 50 22:22 19.04.2022
2579 Clear 12 1011 49 10000 3.6 70 21:38 19.04.2022
2580 Clear 14 1011 41 10000 2.57 40 20:57 19.04.2022
2581 Clear 15 1010 41 10000 3.6 40 20:36 19.04.2022
2582 Clear 16 1010 37 10000 3.6 360 19:32 19.04.2022
2583 Clear 18 1010 36 10000 3.6 350 18:26 19.04.2022
2584 Clear 18 1011 34 10000 5.14 350 16:47 19.04.2022
2585 Clear 18 1011 35 10000 4.63 350 16:25 19.04.2022
2586 Clear 18 1011 34 10000 3.6 360 15:57 19.04.2022
2587 Clear 17 1011 36 10000 4.12 360 14:40 19.04.2022
2588 Clear 17 1012 39 10000 3.6 20 12:52 19.04.2022
2589 Clear 16 1012 40 10000 2.57 20 12:29 19.04.2022
2590 Clear 15 1013 49 10000 1.54 0 11:27 19.04.2022
2591 Clear 9 1013 73 10000 0.51 0 09:31 19.04.2022
2592 Clear 3 1013 80 10000 0.51 0 07:43 19.04.2022
2593 Clear 4 1013 83 10000 1.03 290 04:24 19.04.2022
2594 Clear 6 1015 78 10000 2.06 270 01:24 19.04.2022
2595 Clear 7 1015 71 10000 1.03 0 23:44 18.04.2022
2596 Clear 9 1016 68 10000 0.89 139 22:46 18.04.2022
2597 Clear 11 1015 57 10000 1.03 80 21:25 18.04.2022
2598 Clear 14 1015 38 10000 2.06 50 20:39 18.04.2022
2599 Clear 16 1015 33 10000 2.57 50 19:59 18.04.2022
2600 Clear 16 1015 37 10000 3.09 80 19:32 18.04.2022
2601 Clear 17 1015 34 10000 2.57 80 18:45 18.04.2022
2602 Clear 17 1015 32 10000 1.54 70 17:49 18.04.2022
2603 Clear 17 1015 33 10000 1.54 0 17:19 18.04.2022
2604 Clear 17 1015 34 10000 3.09 70 16:39 18.04.2022
2605 Clear 16 1016 35 10000 3.6 120 15:32 18.04.2022
2606 Clear 16 1017 36 10000 3.6 90 14:27 18.04.2022
2607 Clear 15 1017 38 10000 4.12 70 13:24 18.04.2022
2608 Clear 14 1018 40 10000 4.63 70 12:27 18.04.2022
2609 Clear 13 1018 46 10000 2.57 60 10:58 18.04.2022
2610 Clear 10 1018 58 10000 2.06 60 09:53 18.04.2022
2611 Clear 8 1018 62 10000 1.03 0 09:27 18.04.2022
2612 Clear 1 1019 83 10000 0.51 0 07:25 18.04.2022
2613 Clear 3 1020 78 10000 2.06 300 03:51 18.04.2022
2614 Clear 7 1021 67 10000 0.51 0 23:30 17.04.2022
2615 Clear 8 1022 60 10000 2.06 90 22:37 17.04.2022
2616 Clear 9 1022 54 10000 4.63 60 21:34 17.04.2022
2617 Clear 10 1021 46 10000 3.6 70 20:53 17.04.2022
2618 Clear 12 1021 40 10000 5.66 70 20:25 17.04.2022
2619 Clear 14 1021 35 10000 5.14 70 19:20 17.04.2022
2620 Clear 16 1022 32 10000 4.63 90 17:34 17.04.2022
2621 Clear 15 1024 34 10000 3.6 80 15:37 17.04.2022
2622 Clear 15 1024 35 10000 4.12 90 14:53 17.04.2022
2623 Clear 15 1025 36 10000 5.66 90 13:41 17.04.2022
2624 Clear 14 1025 37 10000 4.81 82 12:56 17.04.2022
2625 Clear 12 1027 42 10000 5.66 90 11:22 17.04.2022
2626 Clear 11 1027 45 10000 5.14 80 10:38 17.04.2022
2627 Clear 10 1027 52 10000 4.12 90 10:19 17.04.2022
2628 Clear 7 1027 62 10000 3.6 90 09:23 17.04.2022
2629 Clear 6 1028 62 10000 3.09 80 08:41 17.04.2022
2630 Clear 2 1028 78 10000 2.06 60 06:52 17.04.2022
2631 Clear 5 1029 71 10000 3.6 80 02:56 17.04.2022
2632 Clear 7 1029 61 10000 4.12 80 00:53 17.04.2022
2633 Clear 6 1029 66 10000 4.12 80 23:48 16.04.2022
2634 Clear 8 1029 58 10000 3.6 50 21:55 16.04.2022
2635 Clear 10 1028 51 10000 4.12 50 21:29 16.04.2022
2636 Clouds 13 1028 35 10000 4.12 60 19:54 16.04.2022
2637 Clouds 14 1028 34 10000 5.66 40 18:54 16.04.2022
2638 Clouds 14 1027 41 10000 5.66 60 17:38 16.04.2022
2639 Clouds 14 1028 46 10000 4.12 70 16:31 16.04.2022
2640 Clouds 14 1028 50 10000 5.66 60 15:26 16.04.2022
2641 Clouds 13 1028 54 10000 5.66 50 14:47 16.04.2022
2642 Clouds 13 1029 62 10000 4.12 50 13:56 16.04.2022
2643 Clouds 12 1029 61 10000 4.63 30 13:26 16.04.2022
2644 Clouds 11 1028 73 10000 5.66 50 12:18 16.04.2022
2645 Clouds 10 1028 77 10000 5.14 50 10:42 16.04.2022
2646 Clouds 9 1027 79 10000 2.06 30 09:41 16.04.2022
2647 Clouds 8 1027 84 10000 2.06 50 08:56 16.04.2022
2648 Clear 6 1027 85 10000 2.57 30 07:32 16.04.2022
2649 Clouds 6 1028 87 10000 2.04 54 06:46 16.04.2022
2650 Clear 10 1026 75 10000 4.63 40 01:59 16.04.2022
2651 Clear 11 1026 73 10000 4.63 30 00:21 16.04.2022
2652 Clear 13 1025 63 10000 5.14 30 22:54 15.04.2022
2653 Clear 14 1024 60 10000 4.12 330 22:31 15.04.2022
2654 Clear 15 1024 51 10000 3.6 330 21:47 15.04.2022
2655 Clear 16 1024 47 10000 3.6 310 20:56 15.04.2022
2656 Clear 18 1023 42 10000 4.12 320 19:59 15.04.2022
2657 Clear 18 1023 46 10000 5.14 320 19:38 15.04.2022
2658 Clear 19 1023 42 10000 4.63 320 18:46 15.04.2022
2659 Clear 19 1023 45 10000 4.12 330 18:24 15.04.2022
2660 Clear 20 1023 46 10000 5.66 330 17:32 15.04.2022
2661 Clear 20 1023 45 10000 4.12 290 16:26 15.04.2022
2662 Clear 20 1023 45 10000 4.63 320 15:59 15.04.2022
2663 Clouds 20 1024 49 10000 5.66 340 14:41 15.04.2022
2664 Clouds 19 1024 56 10000 3.6 0 13:34 15.04.2022
2665 Clouds 19 1024 59 10000 3.6 0 12:40 15.04.2022
2666 Clouds 18 1024 63 10000 2.57 0 11:55 15.04.2022
2667 Clouds 17 1024 69 10000 1.03 0 10:58 15.04.2022
2668 Clouds 17 1024 71 10000 1.03 0 10:40 15.04.2022
2669 Clear 15 1024 80 10000 1.03 0 09:41 15.04.2022
2670 Clear 13 1024 84 10000 0.51 140 09:19 15.04.2022
2671 Clear 9 1023 91 10000 0.51 0 07:28 15.04.2022
2672 Clear 9 1023 90 10000 1.03 0 06:28 15.04.2022
2673 Clear 12 1022 84 10000 2.06 290 02:39 15.04.2022
2674 Clouds 15 1022 70 10000 2.06 340 23:31 14.04.2022
2675 Clouds 16 1022 65 10000 2.57 350 22:49 14.04.2022
2676 Clouds 16 1022 66 10000 5.14 350 22:29 14.04.2022
2677 Clouds 16 1021 67 10000 4.12 330 21:59 14.04.2022
2678 Clouds 17 1021 66 10000 7.2 330 20:43 14.04.2022
2679 Clouds 20 1019 59 10000 4.63 310 19:23 14.04.2022
2680 Clouds 20 1019 59 10000 4.63 330 18:22 14.04.2022
2681 Clouds 20 1019 55 10000 4.63 330 17:38 14.04.2022
2682 Clouds 21 1019 56 10000 4.63 340 16:46 14.04.2022
2683 Clouds 21 1019 56 10000 4.12 360 15:24 14.04.2022
2684 Clouds 20 1019 59 10000 3.09 330 13:47 14.04.2022
2685 Clouds 20 1019 65 10000 1.03 0 12:57 14.04.2022
2686 Clouds 19 1019 69 10000 1.03 0 12:31 14.04.2022
2687 Clear 18 1019 72 10000 2.06 0 11:29 14.04.2022
2688 Clear 16 1019 77 10000 1.03 0 10:53 14.04.2022
2689 Clear 16 1019 79 10000 1.54 0 10:27 14.04.2022
2690 Clear 13 1019 86 10000 1.03 0 09:25 14.04.2022
2691 Clear 9 1018 87 10000 0.51 150 07:33 14.04.2022
2692 Clear 9 1017 83 10000 1.03 0 04:28 14.04.2022
2693 Clouds 13 1017 78 10000 0.26 47 23:29 13.04.2022
2694 Clouds 15 1016 72 10000 0.73 16 22:24 13.04.2022
2695 Clouds 16 1016 68 10000 0.73 16 21:42 13.04.2022
2696 Clear 21 1015 37 10000 4.63 340 20:24 13.04.2022
2697 Clear 22 1015 35 10000 4.63 330 19:39 13.04.2022
2698 Clear 23 1015 37 10000 5.14 340 18:36 13.04.2022
2699 Clear 24 1014 35 10000 4.12 10 17:24 13.04.2022
2700 Clear 24 1014 33 10000 3.6 360 16:41 13.04.2022
2701 Clear 24 1015 38 10000 3.09 360 15:43 13.04.2022
2702 Clear 23 1015 39 10000 3.6 350 14:53 13.04.2022
2703 Clear 23 1015 41 10000 3.09 360 14:30 13.04.2022
2704 Clear 22 1015 42 10000 2.06 350 13:36 13.04.2022
2705 Clear 21 1016 46 10000 1.03 0 12:38 13.04.2022
2706 Clear 19 1016 57 10000 1.03 0 11:24 13.04.2022
2707 Clear 15 1015 72 10000 1.03 0 09:45 13.04.2022
2708 Clear 12 1015 76 10000 0.51 0 08:43 13.04.2022
2709 Clear 9 1014 82 10000 0.51 0 07:23 13.04.2022
2710 Clear 8 1014 81 10000 1.54 290 06:46 13.04.2022
2711 Clear 9 1014 80 10000 0.51 0 06:18 13.04.2022
2712 Clear 12 1013 76 10000 0.51 0 00:28 13.04.2022
2713 Clear 12 1013 74 10000 1.03 70 23:55 12.04.2022
2714 Clear 15 1013 63 10000 1.54 90 22:31 12.04.2022
2715 Clear 14 1013 68 10000 2.57 100 21:42 12.04.2022
2716 Clear 16 1012 58 10000 2.57 80 20:44 12.04.2022
2717 Clear 19 1012 52 10000 3.6 80 19:54 12.04.2022
2718 Clear 19 1012 52 10000 3.6 80 19:54 12.04.2022
2719 Clear 20 1012 45 10000 4.12 80 19:35 12.04.2022
2720 Clear 21 1012 40 10000 4.63 80 18:52 12.04.2022
2721 Clear 22 1012 36 10000 4.12 80 17:37 12.04.2022
2722 Clear 22 1012 34 10000 4.12 70 16:34 12.04.2022
2723 Clear 22 1012 33 10000 3.09 70 15:33 12.04.2022
2724 Clear 22 1013 36 10000 2.06 50 14:33 12.04.2022
2725 Clear 21 1013 39 10000 2.06 0 13:45 12.04.2022
2726 Clear 19 1013 42 10000 1.03 0 13:23 12.04.2022
2727 Clouds 18 1013 49 10000 2.17 135 11:49 12.04.2022
2728 Clear 16 1013 53 10000 1.03 0 11:28 12.04.2022
2729 Clear 10 1014 73 10000 1.03 0 09:32 12.04.2022
2730 Clear 7 1014 83 10000 0 0 08:32 12.04.2022
2731 Clear 5 1014 86 10000 0 0 06:33 12.04.2022
2732 Clear 5 1014 85 10000 1.03 260 05:38 12.04.2022
2733 Clear 7 1014 76 10000 0.51 0 01:48 12.04.2022
2734 Clear 9 1015 66 10000 2.57 90 23:20 11.04.2022
2735 Clear 10 1015 61 10000 2.57 90 21:51 11.04.2022
2736 Clear 11 1014 62 10000 2.57 90 21:18 11.04.2022
2737 Clear 13 1014 50 10000 3.6 70 20:30 11.04.2022
2738 Clear 14 1014 47 10000 4.63 60 19:58 11.04.2022
2739 Clear 15 1014 42 10000 4.63 60 19:26 11.04.2022
2740 Clear 16 1014 39 10000 4.63 60 18:53 11.04.2022
2741 Clear 17 1014 37 10000 2.57 70 17:58 11.04.2022
2742 Clear 17 1014 36 10000 2.57 70 17:33 11.04.2022
2743 Clear 16 1015 37 10000 2.06 50 16:26 11.04.2022
2744 Clear 15 1016 39 10000 4.12 70 14:42 11.04.2022
2745 Clear 14 1017 42 10000 3.09 110 13:34 11.04.2022
2746 Clear 13 1017 45 10000 4.12 70 12:38 11.04.2022
2747 Clear 13 1018 47 10000 2.57 90 12:19 11.04.2022
2748 Clouds 10 1019 63 10000 2.7 125 10:36 11.04.2022
2749 Clear 8 1018 73 10000 1.54 70 09:41 11.04.2022
2750 Clear 1 1018 87 10000 1.03 250 07:54 11.04.2022
2751 Clear 0 1020 91 10000 0.51 0 04:18 11.04.2022
2752 Clear 2 1021 88 10000 0.51 0 23:27 10.04.2022
2753 Clear 3 1021 84 10000 0.51 0 22:26 10.04.2022
2754 Clear 4 1021 81 10000 1.03 60 21:43 10.04.2022
2755 Clear 6 1020 78 10000 2.06 40 20:50 10.04.2022
2756 Clear 6 1020 77 10000 2.06 40 20:50 10.04.2022
2757 Clouds 7 1020 71 10000 2.57 30 19:54 10.04.2022
2758 Clouds 8 1020 69 10000 2.06 70 19:33 10.04.2022
2759 Clouds 8 1020 70 10000 2.06 40 18:46 10.04.2022
2760 Clouds 8 1020 67 10000 1.54 110 18:24 10.04.2022
2761 Clouds 9 1020 62 10000 1.54 130 17:42 10.04.2022
2762 Clouds 9 1021 64 10000 2.06 140 16:51 10.04.2022
2763 Clouds 8 1021 65 10000 2.57 170 15:38 10.04.2022
2764 Clouds 9 1021 68 10000 3.09 230 14:40 10.04.2022
2765 Clouds 8 1021 65 10000 3.6 310 12:58 10.04.2022
2766 Clouds 8 1021 62 10000 3.6 320 12:26 10.04.2022
2767 Clouds 8 1021 67 10000 2.57 250 11:35 10.04.2022
2768 Clouds 7 1021 70 10000 2.06 230 10:58 10.04.2022
2769 Clouds 6 1021 76 10000 2.06 240 10:23 10.04.2022
2770 Clouds 5 1020 82 10000 2.06 240 09:41 10.04.2022
2771 Clouds 3 1020 89 10000 2.06 240 08:26 10.04.2022
2772 Clouds 2 1019 87 10000 2.06 230 07:53 10.04.2022
2773 Clear 1 1019 90 10000 1.54 250 06:48 10.04.2022
2774 Clear 2 1018 89 10000 2.06 250 03:36 10.04.2022
2775 Clear 2 1018 89 10000 2.06 250 03:36 10.04.2022
2776 Clear 3 1018 86 10000 2.06 240 01:30 10.04.2022
2777 Clouds 4 1017 82 10000 2.06 230 23:53 09.04.2022
2778 Clouds 4 1016 79 10000 3.6 260 22:52 09.04.2022
2779 Clouds 5 1015 65 10000 4.12 240 21:51 09.04.2022
2780 Clouds 6 1015 60 10000 3.6 250 20:58 09.04.2022
2781 Clouds 7 1014 52 10000 4.63 280 20:26 09.04.2022
2782 Clouds 8 1014 53 10000 5.14 260 19:49 09.04.2022
2783 Clouds 8 1014 50 10000 5.66 270 19:30 09.04.2022
2784 Clouds 8 1013 54 10000 5.14 260 18:23 09.04.2022
2785 Clear 9 1013 51 10000 5.14 250 17:43 09.04.2022
2786 Clear 8 1013 54 10000 4.12 250 16:55 09.04.2022
2787 Clouds 9 1013 56 10000 4.12 260 16:29 09.04.2022
2788 Clouds 9 1015 61 10000 5.03 288 15:48 09.04.2022
2789 Clouds 9 1013 56 10000 5.66 270 15:25 09.04.2022
2790 Clouds 8 1013 61 10000 6.69 280 14:25 09.04.2022
2791 Clouds 7 1013 66 10000 7.72 280 13:26 09.04.2022
2792 Clouds 7 1013 73 10000 6.17 280 12:53 09.04.2022
2793 Clouds 5 1013 83 10000 5.66 270 11:44 09.04.2022
2794 Clouds 4 1013 85 10000 5.66 270 10:41 09.04.2022
2795 Clouds 4 1012 84 10000 4.63 250 10:18 09.04.2022
2796 Clouds 3 1011 88 10000 4.12 250 09:22 09.04.2022
2797 Clouds 2 1009 90 10000 4.63 270 07:49 09.04.2022
2798 Snow 1 1003 92 10000 6.69 290 03:57 09.04.2022
2799 Rain 5 993 93 10000 3.09 320 00:33 09.04.2022
2800 Rain 8 992 93 10000 8.75 320 23:22 08.04.2022
2801 Rain 7 993 100 10000 2.06 100 21:43 08.04.2022
2802 Clouds 6 995 100 10000 2.57 90 20:43 08.04.2022
2803 Clouds 7 996 93 10000 3.09 290 19:46 08.04.2022
2804 Rain 11 994 87 10000 7.72 230 18:42 08.04.2022
2805 Rain 11 994 84 10000 8.23 230 18:20 08.04.2022
2806 Rain 9 994 92 10000 4.12 200 17:28 08.04.2022
2807 Rain 7 995 94 6000 4.63 150 16:55 08.04.2022
2808 Rain 7 996 94 4000 1.54 140 16:27 08.04.2022
2809 Rain 7 996 93 6000 1.54 60 15:33 08.04.2022
2810 Rain 7 997 93 9000 2.06 20 14:52 08.04.2022
2811 Drizzle 7 997 91 8000 2.57 30 14:19 08.04.2022
2812 Rain 7 999 92 10000 2.06 80 13:31 08.04.2022
2813 Clouds 7 999 90 10000 1.54 80 12:49 08.04.2022
2814 Clouds 7 1002 89 10000 3.6 180 11:35 08.04.2022
2815 Rain 7 1003 85 10000 2.06 220 09:59 08.04.2022
2816 Rain 8 1003 77 10000 4.63 230 09:19 08.04.2022
2817 Rain 8 1003 69 10000 1.54 180 07:44 08.04.2022
2818 Clouds 8 1003 66 10000 4.63 260 06:45 08.04.2022
2819 Clouds 9 1002 67 10000 7.72 270 03:35 08.04.2022
2820 Clouds 10 999 72 10000 10.29 270 00:31 08.04.2022
2821 Clouds 10 999 74 10000 7.72 260 23:52 07.04.2022
2822 Clouds 11 998 77 10000 5.14 240 22:55 07.04.2022
2823 Clouds 11 997 80 10000 6.17 230 22:36 07.04.2022
2824 Clouds 11 997 81 10000 6.17 230 22:18 07.04.2022
2825 Clouds 11 996 84 10000 6.69 240 21:30 07.04.2022
2826 Rain 11 996 83 10000 7.72 240 20:55 07.04.2022
2827 Rain 11 995 86 10000 7.2 250 20:26 07.04.2022
2828 Rain 15 992 58 10000 12.86 230 17:45 07.04.2022
2829 Clouds 15 992 54 10000 12.35 230 17:23 07.04.2022
2830 Clouds 14 994 66 10000 11.55 230 16:42 07.04.2022
2831 Clouds 14 994 64 10000 8.23 220 15:56 07.04.2022
2832 Clouds 14 994 62 10000 8.75 220 13:59 07.04.2022
2833 Clouds 14 994 62 10000 8.75 220 13:41 07.04.2022
2834 Clouds 13 996 69 10000 8.23 220 12:28 07.04.2022
2835 Clouds 12 997 71 10000 5.14 200 10:56 07.04.2022
2836 Clouds 11 998 72 10000 4.63 200 09:34 07.04.2022
2837 Clouds 10 999 79 10000 4.12 200 08:27 07.04.2022
2838 Clouds 10 1000 81 10000 3.6 210 06:18 07.04.2022
2839 Clouds 10 1002 87 10000 3.6 230 02:40 07.04.2022
2840 Clouds 11 1002 83 10000 3.09 200 01:27 07.04.2022
2841 Clear 11 1003 81 10000 2.57 200 23:53 06.04.2022
2842 Clouds 11 1003 79 10000 2.06 210 22:45 06.04.2022
2843 Rain 12 1004 73 10000 2.57 220 22:24 06.04.2022
2844 Clouds 12 1003 71 10000 4.63 260 21:18 06.04.2022
2845 Clouds 13 1003 71 10000 3.09 220 20:27 06.04.2022
2846 Clouds 14 1003 62 10000 4.63 230 19:53 06.04.2022
2847 Clouds 15 1003 60 10000 5.14 250 18:50 06.04.2022
2848 Clouds 16 1004 56 10000 6.69 240 17:52 06.04.2022
2849 Clear 16 1004 54 10000 8.23 260 17:28 06.04.2022
2850 Clouds 16 1004 51 10000 6.17 240 16:35 06.04.2022
2851 Clouds 16 1005 49 10000 5.66 250 15:47 06.04.2022
2852 Clouds 15 1006 56 10000 4.63 240 14:23 06.04.2022
2853 Clouds 14 1007 65 10000 6.17 260 12:58 06.04.2022
2854 Clouds 13 1008 74 10000 4.63 230 11:55 06.04.2022
2855 Clouds 12 1008 80 10000 4.12 220 10:45 06.04.2022
2856 Clouds 11 1008 82 10000 2.57 220 10:20 06.04.2022
2857 Clouds 11 1008 83 10000 3.09 220 09:40 06.04.2022
2858 Clouds 10 1008 88 10000 2.06 210 08:32 06.04.2022
2859 Clouds 9 1008 87 10000 2.57 220 07:47 06.04.2022
2860 Clouds 9 1010 85 10000 2.06 210 03:37 06.04.2022
2861 Clouds 9 1011 86 10000 2.06 210 23:51 05.04.2022
2862 Clouds 9 1011 86 10000 5.14 240 22:30 05.04.2022
2863 Clouds 9 1010 87 10000 5.66 240 21:19 05.04.2022
2864 Clouds 9 1010 87 10000 4.63 230 20:25 05.04.2022
2865 Clouds 9 1012 92 10000 3.41 233 19:41 05.04.2022
2866 Clouds 9 1010 84 10000 5.66 230 17:55 05.04.2022
2867 Clouds 9 1010 85 10000 4.63 220 16:54 05.04.2022
2868 Clouds 9 1012 91 10000 4.55 241 15:53 05.04.2022
2869 Clouds 9 1012 92 10000 4.55 240 15:34 05.04.2022
2870 Rain 9 1011 85 10000 5.66 230 14:27 05.04.2022
2871 Rain 8 1011 88 10000 6.69 240 13:21 05.04.2022
2872 Clouds 7 1011 85 10000 5.66 230 11:51 05.04.2022
2873 Clouds 7 1011 84 10000 6.69 240 11:32 05.04.2022
2874 Rain 5 1010 86 10000 4.63 230 09:55 05.04.2022
2875 Rain 5 1010 85 10000 5.14 230 08:52 05.04.2022
2876 Rain 4 1010 82 10000 5.66 240 06:58 05.04.2022
2877 Clouds 6 1012 69 10000 5.66 230 01:55 05.04.2022
2878 Clouds 6 1012 63 10000 5.66 230 22:42 04.04.2022
2879 Clouds 6 1013 60 10000 5.14 230 22:24 04.04.2022
2880 Clouds 6 1012 60 10000 7.2 240 21:21 04.04.2022
2881 Clouds 6 1012 57 10000 6.69 240 20:49 04.04.2022
2882 Rain 7 1012 53 10000 5.66 230 19:58 04.04.2022
2883 Rain 7 1012 55 10000 4.12 230 19:26 04.04.2022
2884 Clouds 8 1012 54 10000 6.69 240 18:33 04.04.2022
2885 Clouds 8 1013 49 10000 5.66 220 16:37 04.04.2022
2886 Clouds 9 1014 48 10000 6.17 220 15:47 04.04.2022
2887 Clouds 8 1014 49 10000 6.17 230 15:29 04.04.2022
2888 Clouds 8 1015 50 10000 6.17 230 14:46 04.04.2022
2889 Clouds 7 1016 50 10000 5.66 200 13:33 04.04.2022
2890 Clouds 6 1017 49 10000 4.12 200 12:23 04.04.2022
2891 Clouds 5 1018 58 10000 3.6 230 11:29 04.04.2022
2892 Clear 0 1019 83 10000 1.03 0 09:20 04.04.2022
2893 Clear -3 1019 91 10000 0.51 130 05:27 04.04.2022
2894 Clear -3 1020 90 10000 1.03 260 02:41 04.04.2022
2895 Clouds 0 1021 74 10000 1.03 0 22:47 03.04.2022
2896 Clouds -1 1020 80 10000 1.54 250 21:58 03.04.2022
2897 Clouds 0 1020 74 10000 1.54 240 21:25 03.04.2022
2898 Clouds 2 1020 65 10000 3.6 280 19:52 03.04.2022
2899 Clouds 4 1019 59 10000 2.57 280 18:37 03.04.2022
2900 Clouds 4 1019 59 10000 1.54 300 17:50 03.04.2022
2901 Clouds 4 1019 62 10000 2.06 300 17:32 03.04.2022
2902 Clouds 4 1019 64 10000 3.09 320 16:49 03.04.2022
2903 Clouds 4 1019 67 10000 3.09 360 15:42 03.04.2022
2904 Clouds 4 1020 67 10000 2.57 350 13:58 03.04.2022
2905 Clouds 3 1020 71 10000 3.6 340 12:58 03.04.2022
2906 Clouds 2 1020 75 10000 3.09 20 11:39 03.04.2022
2907 Clouds 1 1019 85 10000 2.57 10 09:52 03.04.2022
2908 Clouds 0 1018 91 6000 2.57 350 08:57 03.04.2022
2909 Clouds 0 1017 94 10000 2.06 350 05:45 03.04.2022
2910 Clouds 0 1016 92 10000 2.57 360 02:55 03.04.2022
2911 Snow 0 1016 95 6000 3.6 360 23:35 02.04.2022
2912 Snow 0 1015 95 3500 3.6 350 22:44 02.04.2022
2913 Snow 0 1015 95 3000 2.57 350 21:56 02.04.2022
2914 Snow 0 1014 94 3300 3.6 350 21:20 02.04.2022
2915 Snow 0 1014 94 2500 3.09 350 20:36 02.04.2022
2916 Snow 1 1012 92 3000 4.12 350 18:47 02.04.2022
2917 Snow 1 1012 92 3200 3.6 360 18:19 02.04.2022
2918 Snow 1 1011 92 3600 5.14 10 17:23 02.04.2022
2919 Snow 1 1011 91 2400 5.14 10 15:55 02.04.2022
2920 Snow 1 1010 91 2300 4.63 20 15:20 02.04.2022
2921 Snow 1 1010 88 4300 6.17 10 14:31 02.04.2022
2922 Mist 1 1009 91 3200 5.66 360 13:34 02.04.2022
2923 Snow 0 1008 91 3200 5.66 10 12:21 02.04.2022
2924 Mist 0 1007 92 2800 5.14 360 10:46 02.04.2022
2925 Mist 0 1005 93 2500 5.66 360 08:33 02.04.2022
2926 Snow 1 1004 91 10000 4.63 360 05:24 02.04.2022
2927 Snow 1 1003 92 6000 4.63 350 03:28 02.04.2022
2928 Snow 0 1003 92 6000 4.12 340 23:55 01.04.2022
2929 Snow 0 1003 92 7000 4.63 340 22:51 01.04.2022
2930 Snow 1 1003 90 9000 5.14 350 21:27 01.04.2022
2931 Clouds 1 1002 89 7000 4.63 350 20:49 01.04.2022
2932 Snow 1 1002 92 6000 4.12 360 19:51 01.04.2022
2933 Snow 1 1001 91 7000 5.14 10 19:27 01.04.2022
2934 Snow 1 1001 90 7000 4.12 360 18:42 01.04.2022
2935 Snow 1 1000 92 3000 3.6 350 17:45 01.04.2022
2936 Clouds 2 1000 93 2000 5.14 360 16:34 01.04.2022
2937 Clouds 2 999 92 3800 4.12 350 15:19 01.04.2022
2938 Snow 2 999 90 4000 3.09 340 14:18 01.04.2022
2939 Snow 3 999 92 7000 4.63 320 13:32 01.04.2022
2940 Snow 3 998 92 7000 4.12 320 12:32 01.04.2022
2941 Snow 3 998 92 6000 4.63 310 11:18 01.04.2022
2942 Snow 3 997 92 6000 4.12 300 09:53 01.04.2022
2943 Clouds 3 996 92 7000 3.09 360 07:50 01.04.2022
2944 Clouds 3 996 93 5000 3.6 340 06:30 01.04.2022
2945 Clouds 4 996 92 10000 2.57 340 04:45 01.04.2022
2946 Rain 4 996 91 10000 2.06 360 03:41 01.04.2022
2947 Rain 5 996 91 10000 3.6 330 01:53 01.04.2022
2948 Rain 6 995 92 6000 5.66 300 22:56 31.03.2022
2949 Rain 6 995 92 6000 6.17 300 21:50 31.03.2022
2950 Rain 7 995 90 7000 6.17 310 21:31 31.03.2022
2951 Rain 7 994 88 10000 6.17 320 20:28 31.03.2022
2952 Clouds 8 994 85 10000 5.14 330 19:46 31.03.2022
2953 Clouds 8 993 86 10000 4.63 330 18:43 31.03.2022
2954 Rain 9 993 84 10000 4.63 350 17:41 31.03.2022
2955 Rain 10 994 79 10000 4.12 350 16:34 31.03.2022
2956 Clouds 11 994 76 10000 3.6 360 15:35 31.03.2022
2957 Clouds 10 994 77 10000 1.54 30 14:54 31.03.2022
2958 Clouds 10 994 78 10000 2.06 40 14:34 31.03.2022
2959 Clouds 7 995 85 10000 1.54 360 11:34 31.03.2022
2960 Clouds 7 996 87 10000 1.03 0 10:55 31.03.2022
2961 Clouds 6 996 87 10000 2.06 340 09:44 31.03.2022
2962 Clouds 5 996 90 8000 3.09 350 07:53 31.03.2022
2963 Clouds 6 997 88 10000 2.06 20 04:46 31.03.2022
2964 Clouds 8 999 92 10000 1.03 0 23:37 30.03.2022
2965 Clouds 8 999 89 10000 2.57 30 22:27 30.03.2022
2966 Clouds 8 1000 89 7000 3.09 20 21:38 30.03.2022
2967 Clouds 8 999 85 10000 2.57 320 20:44 30.03.2022
2968 Clouds 8 999 84 10000 4.63 330 19:59 30.03.2022
2969 Clouds 9 999 83 10000 3.6 340 18:59 30.03.2022
2970 Clouds 10 999 85 10000 4.63 330 18:18 30.03.2022
2971 Clouds 10 999 84 10000 4.12 330 17:44 30.03.2022
2972 Clouds 10 1000 85 10000 5.14 310 16:54 30.03.2022
2973 Clouds 10 1000 86 10000 5.14 330 16:31 30.03.2022
2974 Clouds 11 1000 86 10000 3.6 310 14:56 30.03.2022
2975 Clouds 11 1001 86 10000 1.03 0 13:34 30.03.2022
2976 Clouds 10 1001 89 10000 0.51 0 12:42 30.03.2022
2977 Clouds 9 1002 90 10000 1.03 0 10:55 30.03.2022
2978 Clouds 9 1002 90 10000 1.03 0 09:59 30.03.2022
2979 Clouds 9 1002 89 10000 1.03 0 09:20 30.03.2022
2980 Rain 9 1003 79 10000 3.09 230 07:31 30.03.2022
2981 Clear 9 1003 72 10000 1.03 0 05:40 30.03.2022
2982 Clear 9 1004 69 10000 2.57 250 03:31 30.03.2022
2983 Clear 11 1005 59 10000 3.09 320 00:31 30.03.2022
2984 Clear 13 1006 49 10000 1.54 30 22:20 29.03.2022
2985 Clear 14 1006 48 10000 2.06 110 21:44 29.03.2022
2986 Clear 15 1006 45 10000 2.06 10 20:49 29.03.2022
2987 Clear 16 1006 43 10000 3.6 330 19:53 29.03.2022
2988 Rain 17 1006 40 10000 3.09 230 18:55 29.03.2022
2989 Clear 17 1007 37 10000 8.23 260 18:19 29.03.2022
2990 Clear 18 1007 34 10000 5.66 210 17:21 29.03.2022
2991 Rain 18 1007 34 10000 3.09 270 16:56 29.03.2022
2992 Clear 18 1008 35 10000 2.57 250 15:57 29.03.2022
2993 Clear 18 1009 39 10000 1.03 0 14:50 29.03.2022
2994 Clear 17 1010 41 10000 2.06 60 13:53 29.03.2022
2995 Clear 16 1011 45 10000 1.54 70 12:51 29.03.2022
2996 Clear 13 1012 54 10000 1.03 0 11:31 29.03.2022
2997 Clear 11 1012 61 10000 1.03 0 10:28 29.03.2022
2998 Clear 9 1012 66 10000 1.03 0 09:33 29.03.2022
2999 Clear 6 1012 70 10000 1.03 60 06:56 29.03.2022
3000 Clear 6 1014 70 10000 1.03 30 03:49 29.03.2022
3001 Clear 9 1016 57 10000 1.54 320 23:54 28.03.2022
3002 Clear 10 1017 52 10000 1.03 0 23:19 28.03.2022
3003 Clear 11 1017 55 10000 1.03 0 22:47 28.03.2022
3004 Clear 12 1017 50 10000 1.54 230 22:22 28.03.2022
3005 Clouds 13 1018 46 10000 1.56 257 20:54 28.03.2022
3006 Clear 15 1017 38 10000 0.51 0 20:20 28.03.2022
3007 Clear 18 1018 31 10000 2.57 10 19:41 28.03.2022
3008 Clear 19 1018 26 10000 4.12 360 18:54 28.03.2022
3009 Clear 20 1018 27 10000 4.63 360 18:20 28.03.2022
3010 Clear 21 1019 27 10000 3.09 350 17:32 28.03.2022
3011 Clear 21 1020 30 10000 5.14 330 15:54 28.03.2022
3012 Clear 21 1021 28 10000 3.09 240 14:27 28.03.2022
3013 Clear 20 1022 33 10000 2.57 90 13:47 28.03.2022
3014 Clear 16 1023 42 10000 1.54 90 11:58 28.03.2022
3015 Clear 14 1024 46 10000 1.41 227 10:50 28.03.2022
3016 Clear 8 1024 61 10000 1.03 0 09:41 28.03.2022
3017 Clear 7 1024 67 10000 1.03 0 09:19 28.03.2022
3018 Clear 3 1024 75 10000 1.03 70 08:22 28.03.2022
3019 Clear 3 1024 75 10000 1.03 0 07:28 28.03.2022
3020 Clear 4 1025 65 10000 1.03 250 03:43 28.03.2022
3021 Clear 8 1027 63 10000 2.06 300 23:28 27.03.2022
3022 Clear 10 1026 56 10000 0.51 0 22:24 27.03.2022
3023 Clear 12 1026 50 10000 1.03 330 21:41 27.03.2022
3024 Clear 13 1027 47 10000 1.32 126 20:54 27.03.2022
3025 Clear 17 1026 33 10000 2.06 10 19:47 27.03.2022
3026 Clear 20 1026 24 10000 2.06 360 18:55 27.03.2022
3027 Clear 20 1026 27 10000 1.54 350 18:27 27.03.2022
3028 Clear 20 1026 27 10000 1.54 350 18:27 27.03.2022
3029 Clear 21 1026 26 10000 2.57 360 17:38 27.03.2022
3030 Clear 20 1027 26 10000 3.09 70 16:21 27.03.2022
3031 Clear 20 1027 27 10000 2.06 90 15:18 27.03.2022
3032 Clear 20 1028 32 10000 3.09 30 13:55 27.03.2022
3033 Clear 16 1028 46 10000 2.57 80 12:20 27.03.2022
3034 Clear 13 1029 54 10000 1.03 0 10:53 27.03.2022
3035 Clear 5 1028 70 10000 0.51 0 08:43 27.03.2022
3036 Clear 4 1028 72 10000 2.06 310 05:54 27.03.2022
3037 Clear 6 1028 61 10000 1.54 350 00:47 27.03.2022
3038 Clear 8 1029 55 10000 0.51 0 23:34 26.03.2022
3039 Clear 8 1028 51 10000 1.03 70 22:36 26.03.2022
3040 Clear 9 1028 47 10000 1.03 0 21:33 26.03.2022
3041 Clear 12 1027 35 10000 3.09 30 20:20 26.03.2022
3042 Clear 14 1027 32 10000 3.6 30 19:19 26.03.2022
3043 Clear 18 1027 22 10000 4.63 40 17:51 26.03.2022
3044 Clear 18 1027 25 10000 5.14 30 17:30 26.03.2022
3045 Clear 19 1026 26 10000 4.63 40 16:25 26.03.2022
3046 Clear 19 1027 26 10000 5.14 30 14:57 26.03.2022
3047 Clear 19 1027 28 10000 4.63 40 13:52 26.03.2022
3048 Clear 18 1028 30 10000 4.63 90 12:47 26.03.2022
3049 Clear 16 1028 38 10000 3.6 20 11:33 26.03.2022
3050 Clear 13 1028 48 10000 2.06 40 10:18 26.03.2022
3051 Clear 7 1028 66 10000 1.54 320 08:33 26.03.2022
3052 Clear 3 1027 71 10000 0.51 0 05:54 26.03.2022
3053 Clear 5 1027 64 10000 1.03 0 04:21 26.03.2022
3054 Clear 8 1027 55 10000 1.03 0 23:51 25.03.2022
3055 Clear 10 1026 46 10000 1.54 50 21:35 25.03.2022
3056 Clear 10 1026 46 10000 1.54 50 21:35 25.03.2022
3057 Clear 11 1026 41 10000 3.09 30 20:46 25.03.2022
3058 Clear 14 1025 37 10000 4.12 30 19:28 25.03.2022
3059 Clear 16 1025 31 10000 4.63 30 18:47 25.03.2022
3060 Clear 18 1025 29 10000 3.6 30 17:37 25.03.2022
3061 Clear 19 1025 27 10000 4.63 350 16:50 25.03.2022
3062 Clear 19 1025 27 10000 3.6 360 15:57 25.03.2022
3063 Clear 19 1026 30 10000 2.57 20 14:22 25.03.2022
3064 Clear 17 1027 39 10000 2.06 0 12:33 25.03.2022
3065 Clear 11 1027 55 10000 1.03 0 09:55 25.03.2022
3066 Clear 9 1027 58 10000 1.03 0 09:26 25.03.2022
3067 Clear 2 1026 75 10000 1.03 80 07:51 25.03.2022
3068 Clear 2 1026 75 10000 0.51 60 07:26 25.03.2022
3069 Clear 2 1026 69 10000 0.51 0 05:23 25.03.2022
3070 Clear 7 1026 58 10000 0.51 310 00:42 25.03.2022
3071 Clear 8 1026 56 10000 1.54 260 22:30 24.03.2022
3072 Clear 10 1026 47 10000 1.54 300 21:35 24.03.2022
3073 Clear 12 1027 40 10000 1.02 47 19:51 24.03.2022
3074 Clear 15 1026 29 10000 3.09 350 18:58 24.03.2022
3075 Clear 18 1025 24 10000 3.6 350 17:46 24.03.2022
3076 Clear 19 1026 23 10000 3.6 340 16:54 24.03.2022
3077 Clear 20 1026 24 10000 3.6 340 15:21 24.03.2022
3078 Clear 20 1027 25 10000 3.6 20 14:43 24.03.2022
3079 Clear 19 1027 25 10000 3.09 10 14:18 24.03.2022
3080 Clear 18 1028 30 10000 1.54 30 12:47 24.03.2022
3081 Clear 15 1028 40 10000 1.03 0 11:33 24.03.2022
3082 Clear 12 1028 54 10000 0.38 52 09:51 24.03.2022
3083 Clear 5 1028 65 10000 0.51 0 08:40 24.03.2022
3084 Clear 1 1028 74 10000 0.51 100 06:48 24.03.2022
3085 Clear 4 1028 65 10000 0.51 100 02:24 24.03.2022
3086 Clear 7 1028 54 10000 1.54 290 23:20 23.03.2022
3087 Clear 9 1030 50 10000 0.6 70 21:27 23.03.2022
3088 Clear 9 1030 47 10000 0.6 70 20:59 23.03.2022
3089 Clear 13 1028 35 10000 3.09 320 19:45 23.03.2022
3090 Clear 16 1028 29 10000 3.09 340 18:45 23.03.2022
3091 Clear 18 1027 23 10000 4.12 350 17:36 23.03.2022
3092 Clear 19 1028 25 10000 4.63 340 16:33 23.03.2022
3093 Clear 19 1029 26 10000 1.54 310 14:51 23.03.2022
3094 Clear 19 1029 27 10000 2.06 0 14:26 23.03.2022
3095 Clear 18 1030 33 10000 1.75 13 12:51 23.03.2022
3096 Clear 10 1031 52 10000 1.03 0 09:45 23.03.2022
3097 Clear -1 1030 80 10000 0.51 0 06:48 23.03.2022
3098 Clear 1 1029 80 10000 1.03 0 05:23 23.03.2022
3099 Clear 5 1030 65 10000 3.09 290 00:35 23.03.2022
3100 Clear 5 1030 65 10000 2.06 290 23:39 22.03.2022
3101 Clear 7 1030 58 10000 0.51 0 21:30 22.03.2022
3102 Clear 9 1029 54 10000 1.03 0 20:49 22.03.2022
3103 Clear 12 1029 48 10000 2.06 20 19:51 22.03.2022
3104 Clear 13 1029 43 10000 3.09 360 19:23 22.03.2022
3105 Clear 15 1028 39 10000 4.63 360 18:38 22.03.2022
3106 Clear 17 1028 35 10000 4.12 350 17:37 22.03.2022
3107 Clear 18 1029 32 10000 2.57 350 16:27 22.03.2022
3108 Clear 18 1029 32 10000 2.57 30 15:23 22.03.2022
3109 Clear 18 1030 32 10000 2.06 0 14:57 22.03.2022
3110 Clear 17 1030 32 10000 2.06 0 14:38 22.03.2022
3111 Clear 16 1030 36 10000 1.54 0 13:36 22.03.2022
3112 Clear 13 1031 41 10000 1.03 0 11:52 22.03.2022
3113 Clear 11 1031 49 10000 1.54 0 10:44 22.03.2022
3114 Clear 5 1031 65 10000 1.54 100 08:36 22.03.2022
3115 Clear 0 1031 80 10000 0.51 50 06:53 22.03.2022
3116 Clear 2 1030 69 10000 1.03 0 03:52 22.03.2022
3117 Clear 4 1031 64 10000 1.54 340 00:29 22.03.2022
3118 Clear 6 1031 58 10000 1.03 70 22:42 21.03.2022
3119 Clear 8 1031 51 10000 3.09 70 21:18 21.03.2022
3120 Clear 8 1031 51 10000 3.09 70 21:18 21.03.2022
3121 Clear 9 1031 48 10000 3.09 60 20:41 21.03.2022
3122 Clear 10 1030 48 10000 1.54 80 19:59 21.03.2022
3123 Clear 11 1030 46 10000 3.6 60 19:34 21.03.2022
3124 Clear 12 1030 41 10000 3.09 80 18:46 21.03.2022
3125 Clear 16 1030 35 10000 2.57 50 17:32 21.03.2022
3126 Clear 16 1030 35 10000 2.06 30 16:53 21.03.2022
3127 Clear 17 1030 35 10000 2.06 20 16:24 21.03.2022
3128 Clear 17 1030 34 10000 2.57 30 15:21 21.03.2022
3129 Clear 16 1031 35 10000 2.06 80 14:28 21.03.2022
3130 Clear 15 1031 37 10000 1.54 0 12:53 21.03.2022
3131 Clear 13 1032 41 10000 1.03 0 11:54 21.03.2022
3132 Clear 12 1032 41 10000 1.54 140 10:59 21.03.2022
3133 Clear 9 1032 51 10000 1.03 0 09:42 21.03.2022
3134 Clear 3 1031 71 10000 0.51 0 07:22 21.03.2022
3135 Clear 3 1030 70 10000 1.03 270 04:54 21.03.2022
3136 Clear 6 1030 59 10000 1.03 0 00:46 21.03.2022
3137 Clear 8 1030 48 10000 2.57 100 22:56 20.03.2022
3138 Clear 8 1030 53 10000 3.09 80 22:22 20.03.2022
3139 Clear 9 1029 50 10000 2.57 90 21:31 20.03.2022
3140 Clear 10 1029 48 10000 3.09 90 20:48 20.03.2022
3141 Clear 10 1029 46 10000 3.09 80 20:25 20.03.2022
3142 Clear 11 1029 41 10000 2.06 90 19:43 20.03.2022
3143 Clear 14 1028 33 10000 4.12 110 18:48 20.03.2022
3144 Clear 16 1028 31 10000 6.17 80 17:43 20.03.2022
3145 Clear 16 1028 34 10000 5.66 80 17:24 20.03.2022
3146 Clear 17 1028 33 10000 4.12 80 15:57 20.03.2022
3147 Clear 17 1028 36 10000 2.57 0 14:38 20.03.2022
3148 Clear 17 1029 40 10000 1.54 0 13:38 20.03.2022
3149 Clear 15 1029 42 10000 2.06 70 11:58 20.03.2022
3150 Clear 10 1028 52 10000 1.03 0 09:59 20.03.2022
3151 Clouds 6 1028 63 10000 1.03 0 08:20 20.03.2022
3152 Clear 4 1027 69 10000 0.51 80 05:49 20.03.2022
3153 Clear 4 1027 70 10000 0.51 250 03:18 20.03.2022
3154 Clear 4 1028 69 10000 1.03 0 00:53 20.03.2022
3155 Clear 4 1028 69 10000 2.06 30 00:28 20.03.2022
3156 Clear 4 1029 74 10000 4.63 60 22:31 19.03.2022
3157 Clear 5 1030 73 10000 3.6 60 21:26 19.03.2022
3158 Clear 6 1031 69 10000 5.66 60 19:29 19.03.2022
3159 Clear 6 1031 66 10000 6.17 50 18:38 19.03.2022
3160 Clouds 7 1031 62 10000 7.72 50 17:52 19.03.2022
3161 Clouds 8 1030 52 10000 8.23 60 16:57 19.03.2022
3162 Clear 11 1031 36 10000 6.17 40 15:29 19.03.2022
3163 Clear 12 1032 41 10000 7.72 50 14:19 19.03.2022
3164 Clouds 12 1034 45 10000 8.23 50 12:56 19.03.2022
3165 Clouds 12 1034 45 10000 8.23 50 12:37 19.03.2022
3166 Clear 11 1035 51 10000 7.2 60 11:46 19.03.2022
3167 Clear 8 1036 62 10000 5.14 50 09:31 19.03.2022
3168 Clear 4 1037 80 10000 2.06 30 05:48 19.03.2022
3169 Clear 5 1038 80 10000 5.66 50 02:37 19.03.2022
3170 Clear 6 1038 81 10000 5.66 60 00:54 19.03.2022
3171 Clear 7 1038 80 10000 6.17 70 23:19 18.03.2022
3172 Clear 7 1038 78 10000 6.17 50 22:23 18.03.2022
3173 Clear 8 1038 75 10000 6.17 40 20:48 18.03.2022
3174 Clear 9 1037 71 10000 5.14 30 19:48 18.03.2022
3175 Clear 10 1037 69 10000 5.66 40 19:19 18.03.2022
3176 Clear 10 1037 69 10000 5.66 40 19:19 18.03.2022
3177 Clouds 12 1036 62 10000 5.66 30 17:27 18.03.2022
3178 Clouds 12 1036 61 10000 6.69 50 16:45 18.03.2022
3179 Clouds 12 1036 61 10000 6.17 30 14:37 18.03.2022
3180 Clouds 12 1036 63 10000 6.69 50 14:18 18.03.2022
3181 Clouds 10 1037 71 10000 6.17 20 12:19 18.03.2022
3182 Clouds 9 1036 77 10000 5.66 40 10:38 18.03.2022
3183 Clouds 8 1036 81 10000 4.12 30 09:21 18.03.2022
3184 Clouds 7 1035 87 10000 4.12 10 07:45 18.03.2022
3185 Clouds 7 1034 90 10000 3.6 10 05:46 18.03.2022
3186 Clouds 7 1033 91 8000 4.12 350 02:50 18.03.2022
3187 Clouds 8 1032 92 3700 3.09 10 00:22 18.03.2022
3188 Clouds 8 1032 92 4000 3.6 360 23:20 17.03.2022
3189 Clouds 8 1032 92 4000 5.14 360 22:23 17.03.2022
3190 Clouds 8 1031 91 6000 5.14 360 21:47 17.03.2022
3191 Clouds 8 1031 91 6000 4.12 350 21:20 17.03.2022
3192 Clouds 9 1031 85 9000 4.12 360 20:41 17.03.2022
3193 Clouds 9 1030 86 10000 1.54 30 19:45 17.03.2022
3194 Clouds 9 1029 80 9000 1.54 60 18:57 17.03.2022
3195 Clouds 10 1028 78 10000 3.09 360 17:56 17.03.2022
3196 Clouds 10 1028 77 10000 3.6 340 16:48 17.03.2022
3197 Clouds 11 1027 76 10000 4.63 340 15:44 17.03.2022
3198 Clouds 11 1027 75 9000 3.6 350 15:23 17.03.2022
3199 Clouds 11 1027 77 9000 2.57 310 14:28 17.03.2022
3200 Clear 11 1026 72 10000 0.51 0 12:51 17.03.2022
3201 Clear 11 1026 72 10000 0.51 0 12:22 17.03.2022
3202 Clear 10 1025 72 10000 0.51 0 11:27 17.03.2022
3203 Clear 9 1025 74 10000 1.03 0 10:29 17.03.2022
3204 Rain 8 1024 77 10000 0.51 0 08:34 17.03.2022
3205 Rain 7 1023 77 10000 0.51 0 07:33 17.03.2022
3206 Clouds 8 1024 74 10000 1.25 146 05:47 17.03.2022
3207 Clouds 8 1024 75 10000 1.25 146 05:47 17.03.2022
3208 Clear 7 1022 79 10000 0.51 0 01:30 17.03.2022
3209 Clear 9 1022 77 10000 1.54 110 23:50 16.03.2022
3210 Clear 9 1022 77 10000 1.54 110 22:48 16.03.2022
3211 Clear 10 1022 75 10000 1.54 130 22:30 16.03.2022
3212 Clear 10 1023 75 10000 2.57 100 21:39 16.03.2022
3213 Clear 10 1023 76 10000 3.16 116 19:47 16.03.2022
3214 Clouds 10 1023 76 10000 2.06 110 19:21 16.03.2022
3215 Clear 11 1023 75 10000 2.57 120 18:37 16.03.2022
3216 Clouds 11 1022 75 10000 2.57 90 17:43 16.03.2022
3217 Clouds 11 1022 75 10000 2.57 90 17:43 16.03.2022
3218 Clouds 12 1022 75 10000 4.12 100 17:19 16.03.2022
3219 Clouds 12 1023 75 10000 6.17 70 15:55 16.03.2022
3220 Clouds 12 1023 76 10000 4.12 70 14:27 16.03.2022
3221 Clouds 12 1024 76 10000 4.12 80 13:31 16.03.2022
3222 Clouds 10 1024 84 8000 5.66 80 11:56 16.03.2022
3223 Clouds 9 1025 86 7000 5.14 80 11:21 16.03.2022
3224 Mist 8 1025 90 5000 3.6 70 10:23 16.03.2022
3225 Mist 7 1025 91 3000 2.06 90 08:53 16.03.2022
3226 Mist 7 1024 92 3000 1.03 30 06:27 16.03.2022
3227 Clouds 8 1024 92 8000 2.06 350 01:45 16.03.2022
3228 Rain 8 1023 93 6000 0.51 0 22:41 15.03.2022
3229 Rain 8 1023 93 10000 0.51 190 21:55 15.03.2022
3230 Clouds 9 1022 92 10000 0.51 0 20:33 15.03.2022
3231 Rain 9 1021 85 10000 2.06 290 18:58 15.03.2022
3232 Rain 10 1020 83 10000 2.57 280 16:59 15.03.2022
3233 Clear 10 1020 83 10000 2.57 280 16:32 15.03.2022
3234 Rain 10 1021 84 10000 1.03 0 15:21 15.03.2022
3235 Rain 10 1021 84 10000 1.03 0 15:21 15.03.2022
3236 Clouds 9 1022 84 10000 1.03 0 14:40 15.03.2022
3237 Clouds 9 1023 82 10000 1.78 208 13:46 15.03.2022
3238 Rain 10 1024 77 10000 1.03 0 12:24 15.03.2022
3239 Clouds 9 1025 75 10000 1.03 0 11:31 15.03.2022
3240 Rain 7 1026 79 10000 1.03 0 09:45 15.03.2022
3241 Rain 6 1026 80 10000 0.51 0 08:42 15.03.2022
3242 Clear 5 1026 84 10000 1.54 100 07:52 15.03.2022
3243 Clear 5 1027 84 10000 0 0 07:32 15.03.2022
3244 Clear 5 1027 82 10000 2.06 310 03:41 15.03.2022
3245 Clear 5 1029 80 10000 0.51 0 23:57 14.03.2022
3246 Clear 5 1029 79 10000 1.03 40 23:24 14.03.2022
3247 Clear 5 1029 78 10000 0 0 22:30 14.03.2022
3248 Clear 6 1029 74 10000 0.51 0 21:30 14.03.2022
3249 Clear 7 1029 71 10000 1.03 60 20:48 14.03.2022
3250 Clear 8 1029 68 10000 1.03 0 20:20 14.03.2022
3251 Clear 10 1028 58 10000 2.57 30 18:55 14.03.2022
3252 Clear 13 1028 51 10000 4.12 360 17:54 14.03.2022
3253 Clear 13 1028 49 10000 4.63 10 17:23 14.03.2022
3254 Clear 14 1027 47 10000 2.06 0 15:56 14.03.2022
3255 Clear 14 1027 45 10000 4.12 250 14:41 14.03.2022
3256 Clouds 13 1028 50 10000 4.63 200 12:51 14.03.2022
3257 Clouds 10 1028 62 10000 4.12 260 10:54 14.03.2022
3258 Clouds 10 1027 73 10000 5.66 240 09:55 14.03.2022
3259 Clouds 9 1026 77 10000 3.6 220 09:22 14.03.2022
3260 Clouds 8 1026 80 10000 2.57 230 08:56 14.03.2022
3261 Clouds 7 1025 84 10000 2.57 230 07:43 14.03.2022
3262 Rain 7 1023 90 10000 2.57 220 05:46 14.03.2022
3263 Rain 7 1017 58 10000 1.54 230 01:58 14.03.2022
3264 Clear 6 1017 57 10000 2.57 260 01:29 14.03.2022
3265 Clear 7 1016 53 10000 1.54 40 22:56 13.03.2022
3266 Clear 8 1015 49 10000 1.54 90 21:31 13.03.2022
3267 Clear 9 1015 44 10000 1.54 80 20:59 13.03.2022
3268 Clear 9 1015 44 10000 1.54 80 20:37 13.03.2022
3269 Clear 10 1014 42 10000 2.06 90 20:19 13.03.2022
3270 Clear 11 1014 40 10000 3.09 90 19:39 13.03.2022
3271 Clear 11 1014 40 10000 3.09 90 19:19 13.03.2022
3272 Clear 13 1014 36 10000 3.6 80 18:39 13.03.2022
3273 Clear 16 1014 29 10000 4.63 80 17:47 13.03.2022
3274 Clear 17 1014 30 10000 3.6 80 17:21 13.03.2022
3275 Clear 17 1014 29 10000 4.12 60 16:43 13.03.2022
3276 Clear 17 1014 31 10000 2.57 80 16:20 13.03.2022
3277 Clear 17 1014 30 10000 2.57 60 15:33 13.03.2022
3278 Clear 16 1015 34 10000 2.57 90 13:53 13.03.2022
3279 Clouds 16 1015 36 10000 1.96 73 13:26 13.03.2022
3280 Clear 14 1016 37 10000 1.54 0 12:20 13.03.2022
3281 Clear 13 1016 39 10000 1.03 0 11:36 13.03.2022
3282 Clear 11 1016 44 10000 1.03 0 10:48 13.03.2022
3283 Clear 9 1017 47 10000 1.03 0 10:25 13.03.2022
3284 Clear 7 1017 51 10000 1.03 0 09:41 13.03.2022
3285 Clear 4 1017 64 10000 1.03 0 08:47 13.03.2022
3286 Clear 1 1016 75 10000 1.03 0 07:57 13.03.2022
3287 Clear 0 1015 72 10000 1.03 60 05:55 13.03.2022
3288 Clear 1 1016 72 10000 1.54 300 03:26 13.03.2022
3289 Clear 3 1016 64 10000 1.03 0 00:30 13.03.2022
3290 Clear 4 1017 59 10000 0.51 0 22:47 12.03.2022
3291 Clear 7 1017 54 10000 2.06 90 20:59 12.03.2022
3292 Clear 8 1017 54 10000 3.09 70 19:57 12.03.2022
3293 Clear 8 1017 54 10000 3.09 70 19:57 12.03.2022
3294 Clear 9 1017 53 10000 3.09 70 19:38 12.03.2022
3295 Clear 11 1017 48 10000 3.6 50 18:29 12.03.2022
3296 Clear 13 1017 43 10000 3.09 60 17:43 12.03.2022
3297 Clear 15 1017 42 10000 3.6 60 16:25 12.03.2022
3298 Clear 15 1018 42 10000 1.54 0 15:24 12.03.2022
3299 Clear 15 1018 43 10000 2.57 20 14:52 12.03.2022
3300 Clear 14 1019 42 10000 3.09 60 13:53 12.03.2022
3301 Clear 14 1019 42 10000 3.09 60 13:53 12.03.2022
3302 Clear 13 1020 39 10000 3.09 90 12:25 12.03.2022
3303 Clear 12 1020 38 10000 2.57 80 11:51 12.03.2022
3304 Clear 11 1020 39 10000 1.54 0 11:19 12.03.2022
3305 Clear 7 1020 45 10000 1.03 0 09:58 12.03.2022
3306 Clear 7 1020 47 10000 1.03 0 09:39 12.03.2022
3307 Clear 2 1020 57 10000 1.03 0 07:51 12.03.2022
3308 Clear 3 1019 57 10000 1.54 100 05:44 12.03.2022
3309 Clear 4 1018 50 10000 0.51 0 00:24 12.03.2022
3310 Clear 4 1017 47 10000 1.03 0 23:28 11.03.2022
3311 Clear 5 1017 45 10000 3.09 90 21:48 11.03.2022
3312 Clear 7 1017 42 10000 4.63 80 20:58 11.03.2022
3313 Clear 7 1017 42 10000 4.63 80 20:37 11.03.2022
3314 Clear 8 1017 41 10000 4.63 90 19:54 11.03.2022
3315 Clear 9 1016 38 10000 5.14 80 19:27 11.03.2022
3316 Clear 13 1016 35 10000 6.17 70 17:38 11.03.2022
3317 Clear 13 1016 34 10000 6.17 70 17:19 11.03.2022
3318 Clear 14 1016 32 10000 4.63 70 15:57 11.03.2022
3319 Clear 14 1017 34 10000 3.09 40 14:22 11.03.2022
3320 Clear 13 1018 36 10000 2.57 60 13:27 11.03.2022
3321 Clear 11 1018 38 10000 3.6 70 12:23 11.03.2022
3322 Clear 10 1019 40 10000 3.6 80 11:56 11.03.2022
3323 Clear 6 1019 46 10000 1.54 100 10:24 11.03.2022
3324 Clear 4 1019 48 10000 2.57 90 09:32 11.03.2022
3325 Clear 2 1019 54 10000 1.54 90 08:25 11.03.2022
3326 Clear 1 1019 57 10000 1.54 100 07:46 11.03.2022
3327 Clouds 1 1021 57 10000 2.01 128 06:25 11.03.2022
3328 Clear 2 1019 67 10000 1.54 100 04:24 11.03.2022
3329 Clear 4 1020 49 10000 2.06 80 00:39 11.03.2022
3330 Clear 6 1021 44 10000 1.54 80 22:32 10.03.2022
3331 Clear 6 1021 43 10000 1.54 90 21:52 10.03.2022
3332 Clear 6 1021 44 10000 2.06 80 21:24 10.03.2022
3333 Clear 8 1021 40 10000 2.06 90 20:18 10.03.2022
3334 Clear 10 1021 31 10000 3.6 80 18:56 10.03.2022
3335 Clear 13 1021 26 10000 5.14 90 17:37 10.03.2022
3336 Clear 14 1021 24 10000 5.14 80 16:52 10.03.2022
3337 Clear 15 1022 25 10000 5.66 80 15:27 10.03.2022
3338 Clear 15 1023 29 10000 5.66 90 13:41 10.03.2022
3339 Clear 14 1024 31 10000 4.63 70 12:35 10.03.2022
3340 Clear 11 1025 42 10000 3.09 70 11:28 10.03.2022
3341 Clear 5 1025 61 10000 0.51 0 09:28 10.03.2022
3342 Clear 0 1025 74 10000 0.51 280 07:47 10.03.2022
3343 Clear -1 1025 68 10000 0.51 110 05:30 10.03.2022
3344 Clear 0 1024 67 10000 1.54 300 01:59 10.03.2022
3345 Clear 1 1024 63 10000 1.03 0 23:32 09.03.2022
3346 Clear 1 1024 62 10000 0.51 0 22:22 09.03.2022
3347 Clear 2 1024 59 10000 1.54 300 21:43 09.03.2022
3348 Clear 4 1024 52 10000 1.03 0 20:36 09.03.2022
3349 Clear 9 1022 33 10000 2.57 350 18:41 09.03.2022
3350 Clear 12 1022 28 10000 1.54 40 17:28 09.03.2022
3351 Clear 12 1022 24 10000 1.54 30 16:36 09.03.2022
3352 Clear 13 1023 25 10000 1.03 0 15:32 09.03.2022
3353 Clear 12 1023 29 10000 2.06 0 14:19 09.03.2022
3354 Clouds 11 1024 36 10000 0.55 109 12:59 09.03.2022
3355 Clear 10 1023 39 10000 1.54 60 12:20 09.03.2022
3356 Clear 9 1023 41 10000 1.54 100 11:45 09.03.2022
3357 Clear 6 1023 48 10000 1.54 0 10:49 09.03.2022
3358 Clear 2 1024 63 10000 1.03 0 09:22 09.03.2022
3359 Clear 0 1023 68 10000 1.03 0 08:42 09.03.2022
3360 Clear -3 1022 74 10000 0.51 0 04:49 09.03.2022
3361 Clear -1 1022 67 10000 1.03 0 00:56 09.03.2022
3362 Clear 0 1022 61 10000 0.51 0 23:37 08.03.2022
3363 Clear 0 1021 59 10000 0.51 80 22:45 08.03.2022
3364 Clear 1 1021 56 10000 0.51 0 21:43 08.03.2022
3365 Clear 1 1021 55 10000 1.54 80 21:18 08.03.2022
3366 Clear 2 1021 47 10000 0.51 160 20:18 08.03.2022
3367 Clear 5 1020 33 10000 2.57 90 18:55 08.03.2022
3368 Clear 8 1020 29 10000 4.63 90 17:58 08.03.2022
3369 Clear 9 1020 31 10000 5.14 90 16:37 08.03.2022
3370 Clear 9 1020 32 10000 5.14 100 14:24 08.03.2022
3371 Clouds 9 1020 34 10000 5.14 110 13:22 08.03.2022
3372 Clear 7 1021 36 10000 5.14 120 12:20 08.03.2022
3373 Clear 7 1021 39 10000 5.66 110 11:41 08.03.2022
3374 Clouds 5 1021 48 10000 5.14 100 10:27 08.03.2022
3375 Clear 2 1021 56 10000 1.54 80 08:54 08.03.2022
3376 Clear -3 1021 68 10000 2.06 70 05:49 08.03.2022
3377 Clear -2 1022 65 10000 1.54 50 01:49 08.03.2022
3378 Clear -1 1023 62 10000 1.03 0 22:41 07.03.2022
3379 Clear 0 1023 59 10000 3.6 80 21:36 07.03.2022
3380 Clear 0 1023 55 10000 3.09 80 20:55 07.03.2022
3381 Clear 1 1023 54 10000 2.06 80 20:29 07.03.2022
3382 Clear 1 1022 52 10000 1.54 100 19:48 07.03.2022
3383 Clear 2 1022 47 10000 2.57 110 18:50 07.03.2022
3384 Clear 3 1021 46 10000 3.09 100 18:28 07.03.2022
3385 Clear 4 1021 42 10000 6.17 60 17:24 07.03.2022
3386 Clear 5 1021 43 10000 4.63 80 16:41 07.03.2022
3387 Clouds 5 1022 42 10000 5.14 80 14:49 07.03.2022
3388 Clouds 4 1023 50 10000 4.63 80 12:34 07.03.2022
3389 Clouds 3 1023 51 10000 5.14 60 11:26 07.03.2022
3390 Clouds 2 1023 56 10000 4.63 80 10:30 07.03.2022
3391 Clouds -1 1022 66 10000 3.09 50 08:34 07.03.2022
3392 Clear 1 1021 59 10000 4.12 40 02:25 07.03.2022
3393 Clear 1 1021 55 10000 3.09 50 00:20 07.03.2022
3394 Clear 2 1021 51 10000 4.12 60 23:23 06.03.2022
3395 Clear 2 1021 51 10000 4.63 70 22:27 06.03.2022
3396 Clouds 2 1023 52 10000 3.65 57 21:37 06.03.2022
3397 Clear 3 1021 50 10000 4.63 40 20:29 06.03.2022
3398 Clear 3 1020 51 10000 3.6 30 19:39 06.03.2022
3399 Clear 3 1020 50 10000 4.12 40 18:50 06.03.2022
3400 Clear 4 1020 48 10000 5.14 40 17:46 06.03.2022
3401 Clear 4 1020 46 10000 5.66 60 17:19 06.03.2022
3402 Clear 5 1019 45 10000 5.14 40 16:39 06.03.2022
3403 Clear 6 1019 44 10000 4.63 40 15:31 06.03.2022
3404 Clear 6 1019 42 10000 3.09 40 14:42 06.03.2022
3405 Clouds 6 1020 43 10000 4.63 50 13:49 06.03.2022
3406 Clouds 6 1020 44 10000 4.12 70 12:40 06.03.2022
3407 Clouds 5 1020 50 10000 5.66 90 11:46 06.03.2022
3408 Clouds 4 1020 56 10000 5.14 70 10:43 06.03.2022
3409 Clear 0 1020 75 10000 1.54 80 09:21 06.03.2022
3410 Clear -2 1020 80 10000 2.06 50 08:28 06.03.2022
3411 Clear -3 1020 81 10000 1.54 20 07:26 06.03.2022
3412 Clear -2 1019 73 10000 1.54 60 03:18 06.03.2022
3413 Clear 0 1019 66 10000 1.54 40 00:41 06.03.2022
3414 Clear -1 1019 67 10000 1.03 60 00:22 06.03.2022
3415 Clear 0 1019 63 10000 1.54 60 23:19 05.03.2022
3416 Clear 0 1019 63 10000 1.54 70 22:38 05.03.2022
3417 Clear 1 1019 58 10000 2.06 50 21:31 05.03.2022
3418 Clear 1 1019 56 10000 2.06 80 20:39 05.03.2022
3419 Clear 3 1018 49 10000 4.63 80 19:23 05.03.2022
3420 Clear 4 1018 46 10000 5.66 70 18:48 05.03.2022
3421 Clear 6 1018 40 10000 4.63 60 17:39 05.03.2022
3422 Clear 7 1018 38 10000 3.6 110 16:20 05.03.2022
3423 Clear 8 1018 39 10000 4.12 110 15:30 05.03.2022
3424 Clear 7 1018 39 10000 4.12 80 14:37 05.03.2022
3425 Clouds 7 1019 41 10000 5.66 90 13:46 05.03.2022
3426 Clouds 7 1019 43 10000 6.17 90 12:46 05.03.2022
3427 Clouds 6 1019 47 10000 5.14 70 11:39 05.03.2022
3428 Clouds 5 1019 52 10000 5.14 70 11:18 05.03.2022
3429 Clear 3 1020 65 10000 4.63 80 09:40 05.03.2022
3430 Clear 0 1020 72 10000 1.03 0 08:46 05.03.2022
3431 Clear -3 1019 81 10000 1.03 0 07:23 05.03.2022
3432 Clear -2 1018 78 10000 1.03 100 05:41 05.03.2022
3433 Clear 0 1018 70 10000 0 0 01:25 05.03.2022
3434 Clear 1 1019 63 10000 1.03 0 23:30 04.03.2022
3435 Clear 1 1018 61 10000 1.03 0 22:40 04.03.2022
3436 Clear 1 1018 60 10000 2.06 50 21:47 04.03.2022
3437 Clear 2 1018 55 10000 1.54 80 20:49 04.03.2022
3438 Clear 2 1020 56 10000 2.09 78 20:18 04.03.2022
3439 Clear 4 1018 49 10000 3.6 50 19:35 04.03.2022
3440 Clear 5 1018 40 10000 3.09 70 18:36 04.03.2022
3441 Clear 8 1017 33 10000 4.12 50 17:30 04.03.2022
3442 Clear 9 1017 32 10000 5.14 50 16:43 04.03.2022
3443 Clear 9 1017 33 10000 2.06 30 15:28 04.03.2022
3444 Clear 9 1018 32 10000 3.6 90 13:53 04.03.2022
3445 Clear 8 1018 39 10000 1.03 0 12:54 04.03.2022
3446 Clear 7 1019 46 10000 1.54 0 11:38 04.03.2022
3447 Clear 5 1019 55 10000 2.57 80 10:42 04.03.2022
3448 Clear 2 1018 67 10000 0.51 0 09:28 04.03.2022
3449 Clear -1 1018 69 10000 0.51 0 08:34 04.03.2022
3450 Clear -2 1017 73 10000 0.51 0 07:23 04.03.2022
3451 Clear -1 1017 72 10000 0.51 0 03:43 04.03.2022
3452 Clear 0 1017 64 10000 1.54 20 00:24 04.03.2022
3453 Clear 1 1017 57 10000 2.06 50 22:21 03.03.2022
3454 Clear 2 1019 58 10000 1.55 72 21:40 03.03.2022
3455 Clear 3 1016 51 10000 1.54 60 21:18 03.03.2022
3456 Clear 5 1016 49 10000 3.6 350 19:50 03.03.2022
3457 Clear 7 1015 43 10000 3.09 330 18:53 03.03.2022
3458 Clear 8 1015 43 10000 3.09 320 18:22 03.03.2022
3459 Clear 10 1015 41 10000 5.14 350 17:28 03.03.2022
3460 Clear 11 1015 41 10000 4.63 360 16:22 03.03.2022
3461 Clear 11 1015 42 10000 3.6 340 15:21 03.03.2022
3462 Clear 11 1015 42 10000 3.09 350 14:42 03.03.2022
3463 Clear 10 1016 46 10000 1.54 0 13:19 03.03.2022
3464 Clear 8 1017 52 10000 1.54 0 11:54 03.03.2022
3465 Clear 6 1017 63 10000 1.03 0 10:42 03.03.2022
3466 Clear 3 1017 72 10000 1.03 0 09:38 03.03.2022
3467 Clear -2 1018 86 10000 1.54 330 07:48 03.03.2022
3468 Clear -2 1018 86 10000 1.03 180 06:35 03.03.2022
3469 Clear -1 1019 83 10000 2.06 260 02:42 03.03.2022
3470 Clear 0 1020 79 10000 2.06 300 23:34 02.03.2022
3471 Clear 1 1020 77 10000 1.03 0 22:52 02.03.2022
3472 Clear 3 1020 69 10000 0.51 0 21:34 02.03.2022
3473 Clear 4 1020 66 10000 1.54 340 20:55 02.03.2022
3474 Clear 5 1020 63 10000 2.06 360 20:24 02.03.2022
3475 Clear 5 1020 63 10000 2.06 360 20:24 02.03.2022
3476 Clear 5 1020 61 10000 2.57 360 19:36 02.03.2022
3477 Clear 6 1020 59 10000 2.57 10 18:54 02.03.2022
3478 Clear 6 1020 55 10000 2.57 350 18:19 02.03.2022
3479 Clear 7 1020 53 10000 2.06 360 17:36 02.03.2022
3480 Clear 7 1020 51 10000 1.54 350 16:51 02.03.2022
3481 Rain 8 1021 47 10000 1.03 0 14:59 02.03.2022
3482 Rain 7 1021 48 10000 0.51 0 13:30 02.03.2022
3483 Rain 7 1021 49 10000 0.51 0 12:45 02.03.2022
3484 Rain 6 1022 51 10000 1.03 0 12:21 02.03.2022
3485 Rain 5 1022 56 10000 1.03 0 11:26 02.03.2022
3486 Clear 3 1023 66 10000 0.51 0 10:30 02.03.2022
3487 Rain 3 1023 65 10000 0.51 0 10:30 02.03.2022
3488 Clear 0 1023 77 10000 0.51 0 09:31 02.03.2022
3489 Clear -1 1022 80 10000 0 0 07:59 02.03.2022
3490 Clear -2 1023 86 10000 0.51 140 07:23 02.03.2022
3491 Clear -2 1024 76 10000 1.03 200 03:56 02.03.2022
3492 Clear -1 1025 72 10000 0.51 0 00:40 02.03.2022
3493 Clear 0 1026 68 10000 1.03 0 22:53 01.03.2022
3494 Clear 0 1026 68 10000 1.03 0 22:35 01.03.2022
3495 Clear 1 1026 63 10000 1.03 0 21:37 01.03.2022
3496 Clear 2 1026 59 10000 1.03 90 20:38 01.03.2022
3497 Clear 2 1026 57 10000 1.03 90 20:19 01.03.2022
3498 Clear 4 1026 47 10000 1.03 60 18:52 01.03.2022
3499 Clear 5 1026 42 10000 1.54 90 18:22 01.03.2022
3500 Clear 6 1026 37 10000 0.51 0 17:42 01.03.2022
3501 Clear 8 1026 35 10000 2.57 60 16:36 01.03.2022
3502 Clear 8 1026 33 10000 1.03 0 15:47 01.03.2022
3503 Clear 8 1027 33 10000 1.03 0 14:54 01.03.2022
3504 Clear 8 1027 35 10000 2.06 350 14:31 01.03.2022
3505 Clear 7 1027 38 10000 1.54 0 13:26 01.03.2022
3506 Clear 7 1028 41 10000 1.03 0 12:37 01.03.2022
3507 Clear 5 1028 47 10000 4.12 80 11:35 01.03.2022
3508 Clear 2 1029 56 10000 3.6 80 09:52 01.03.2022
3509 Clear -1 1029 72 10000 0.51 0 08:30 01.03.2022
3510 Clear -2 1028 72 10000 2.06 90 07:19 01.03.2022
3511 Clear -1 1029 70 10000 1.03 0 03:27 01.03.2022
3512 Clear 1 1029 61 10000 3.6 80 00:48 01.03.2022
3513 Clear 1 1029 60 10000 3.09 80 23:47 28.02.2022
3514 Clear 2 1029 62 10000 3.6 70 22:43 28.02.2022
3515 Clear 2 1029 62 10000 2.06 90 21:48 28.02.2022
3516 Clear 2 1029 61 10000 1.54 110 20:55 28.02.2022
3517 Clear 3 1029 55 10000 2.06 80 19:51 28.02.2022
3518 Clear 5 1029 48 10000 1.54 90 18:57 28.02.2022
3519 Clear 8 1029 36 10000 2.06 90 17:57 28.02.2022
3520 Clear 9 1029 36 10000 2.57 110 17:23 28.02.2022
3521 Clear 10 1029 34 10000 4.12 80 16:32 28.02.2022
3522 Clear 10 1029 36 10000 3.09 60 15:21 28.02.2022
3523 Clear 10 1029 39 10000 4.12 70 14:29 28.02.2022
3524 Clear 9 1030 41 10000 4.63 80 13:24 28.02.2022
3525 Clear 8 1030 44 10000 2.57 70 12:31 28.02.2022
3526 Clear 7 1031 50 10000 3.6 90 11:37 28.02.2022
3527 Clear 5 1031 62 10000 2.06 80 10:24 28.02.2022
3528 Clear 4 1030 64 10000 1.03 0 09:59 28.02.2022
3529 Clear 2 1030 73 10000 0.51 0 09:30 28.02.2022
3530 Clear -1 1030 81 10000 1.54 320 08:26 28.02.2022
3531 Clear -3 1030 83 10000 1.03 360 07:19 28.02.2022
3532 Clear -1 1029 79 10000 1.54 40 04:31 28.02.2022
3533 Clear -1 1029 81 10000 1.54 300 03:30 28.02.2022
3534 Clear 0 1030 74 10000 2.06 80 23:26 27.02.2022
3535 Clear 2 1030 70 10000 1.54 120 22:33 27.02.2022
3536 Clear 2 1030 66 10000 1.03 0 21:47 27.02.2022
3537 Clear 3 1030 64 10000 1.03 0 20:54 27.02.2022
3538 Clear 3 1030 62 10000 2.57 80 20:27 27.02.2022
3539 Clear 4 1030 62 10000 3.6 90 19:56 27.02.2022
3540 Clear 4 1030 60 10000 3.6 100 19:26 27.02.2022
3541 Clear 5 1029 56 10000 3.09 90 18:40 27.02.2022
3542 Clear 6 1029 52 10000 6.69 90 17:54 27.02.2022
3543 Clear 8 1029 44 10000 7.2 80 16:38 27.02.2022
3544 Clear 8 1029 44 10000 8.75 80 15:59 27.02.2022
3545 Clouds 8 1030 49 10000 5.14 120 13:25 27.02.2022
3546 Clouds 8 1030 51 10000 7.2 110 12:32 27.02.2022
3547 Clouds 6 1031 66 10000 6.17 80 10:56 27.02.2022
3548 Clouds 5 1031 73 10000 5.14 90 10:18 27.02.2022
3549 Clear 3 1031 82 10000 5.14 80 09:44 27.02.2022
3550 Clear 3 1031 80 10000 3.6 90 09:19 27.02.2022
3551 Clouds -1 1030 90 10000 1.03 0 07:37 27.02.2022
3552 Clear -1 1029 89 10000 1.03 0 05:38 27.02.2022
3553 Clear 0 1030 86 10000 2.57 50 01:53 27.02.2022
3554 Clear 2 1031 80 10000 2.06 60 23:22 26.02.2022
3555 Clear 3 1031 74 10000 2.06 70 21:49 26.02.2022
3556 Clear 3 1031 71 10000 2.57 60 20:59 26.02.2022
3557 Clouds 3 1032 71 10000 2.57 80 20:20 26.02.2022
3558 Clouds 3 1031 69 10000 4.12 90 19:49 26.02.2022
3559 Clouds 4 1031 65 10000 3.09 80 19:26 26.02.2022
3560 Clouds 5 1031 56 10000 3.6 90 17:52 26.02.2022
3561 Clouds 5 1031 54 10000 6.17 70 17:28 26.02.2022
3562 Clouds 6 1032 52 10000 4.12 20 15:57 26.02.2022
3563 Clouds 6 1032 52 10000 4.12 20 15:25 26.02.2022
3564 Clouds 6 1032 52 10000 2.57 60 14:55 26.02.2022
3565 Clouds 6 1032 54 10000 2.57 60 14:36 26.02.2022
3566 Clouds 6 1033 54 10000 2.06 30 13:27 26.02.2022
3567 Clouds 6 1033 54 10000 3.6 70 12:51 26.02.2022
3568 Clouds 5 1033 69 10000 2.57 80 11:29 26.02.2022
3569 Clouds 4 1034 75 10000 2.06 50 10:55 26.02.2022
3570 Clouds 3 1033 89 10000 2.06 360 09:21 26.02.2022
3571 Clouds 2 1032 90 10000 2.06 320 07:57 26.02.2022
3572 Clouds 2 1032 90 10000 2.06 320 07:57 26.02.2022
3573 Clouds 3 1030 88 10000 3.6 300 02:53 26.02.2022
3574 Clouds 3 1029 87 10000 2.57 260 23:32 25.02.2022
3575 Clouds 3 1027 84 10000 3.09 240 21:49 25.02.2022
3576 Clear 3 1027 85 10000 2.57 240 21:29 25.02.2022
3577 Clear 4 1027 83 10000 4.12 230 20:33 25.02.2022
3578 Clouds 4 1027 81 10000 2.06 220 19:41 25.02.2022
3579 Clouds 5 1025 77 10000 3.6 230 17:48 25.02.2022
3580 Clouds 5 1025 78 10000 6.17 240 16:46 25.02.2022
3581 Clouds 5 1025 75 10000 8.75 270 15:49 25.02.2022
3582 Clouds 6 1024 66 10000 8.23 240 15:23 25.02.2022
3583 Clouds 7 1024 56 10000 6.69 240 14:49 25.02.2022
3584 Clouds 7 1024 55 10000 8.23 270 14:18 25.02.2022
3585 Clouds 7 1024 54 10000 8.23 260 13:20 25.02.2022
3586 Clouds 7 1024 60 10000 8.23 240 11:52 25.02.2022
3587 Clouds 6 1024 63 10000 7.2 240 11:18 25.02.2022
3588 Clouds 5 1024 70 10000 6.17 240 10:23 25.02.2022
3589 Clouds 4 1024 77 10000 5.14 240 09:42 25.02.2022
3590 Clouds 2 1023 84 10000 1.54 250 07:48 25.02.2022
3591 Clouds 2 1023 85 10000 2.57 240 06:51 25.02.2022
3592 Clouds 1 1022 83 10000 1.03 0 05:40 25.02.2022
3593 Clouds 3 1020 83 10000 5.14 260 01:23 25.02.2022
3594 Rain 4 1017 90 10000 9.77 320 22:31 24.02.2022
3595 Clouds 8 1014 76 10000 3.09 220 21:43 24.02.2022
3596 Rain 9 1014 72 10000 3.09 220 21:21 24.02.2022
3597 Clear 10 1013 62 10000 3.09 220 20:44 24.02.2022
3598 Clouds 11 1013 61 10000 3.6 220 19:31 24.02.2022
3599 Clouds 12 1013 54 10000 7.2 230 18:20 24.02.2022
3600 Clouds 12 1013 55 10000 5.14 230 17:54 24.02.2022
3601 Clouds 12 1013 57 10000 5.66 230 17:20 24.02.2022
3602 Clouds 12 1013 56 10000 6.69 230 16:28 24.02.2022
3603 Clouds 13 1013 55 10000 6.17 220 15:43 24.02.2022
3604 Clear 14 1013 52 10000 8.23 220 14:45 24.02.2022
3605 Clouds 14 1014 52 10000 7.72 230 13:59 24.02.2022
3606 Clouds 14 1014 53 10000 8.23 230 13:37 24.02.2022
3607 Clouds 12 1015 64 10000 1.54 0 11:41 24.02.2022
3608 Clear 8 1016 81 10000 0.51 0 10:32 24.02.2022
3609 Clouds 5 1018 88 10000 2 189 08:43 24.02.2022
3610 Clouds 4 1018 90 10000 1.03 100 07:26 24.02.2022
3611 Clouds 4 1019 88 10000 0.51 0 05:43 24.02.2022
3612 Clear 4 1022 87 10000 1.03 0 00:32 24.02.2022
3613 Clear 4 1022 87 10000 0.51 0 22:29 23.02.2022
3614 Clear 5 1023 83 10000 1.54 150 20:52 23.02.2022
3615 Clear 6 1023 83 10000 2.06 150 20:30 23.02.2022
3616 Clear 7 1024 78 10000 1.03 0 19:36 23.02.2022
3617 Clouds 9 1024 73 10000 2.57 90 18:31 23.02.2022
3618 Clouds 12 1025 56 10000 1.03 0 16:43 23.02.2022
3619 Clouds 12 1027 56 10000 2.06 150 14:33 23.02.2022
3620 Clouds 11 1028 63 10000 2.57 120 12:37 23.02.2022
3621 Clouds 9 1028 76 10000 2.06 160 11:23 23.02.2022
3622 Clouds 8 1028 79 10000 1.54 180 10:30 23.02.2022
3623 Clouds 4 1028 92 10000 1.03 280 08:57 23.02.2022
3624 Clear 3 1027 93 10000 2.06 260 07:57 23.02.2022
3625 Clouds 6 1024 90 8000 9.26 340 03:48 23.02.2022
3626 Clouds 8 1021 83 10000 6.69 230 00:19 23.02.2022
3627 Clouds 8 1021 83 10000 8.23 230 23:35 22.02.2022
3628 Clouds 7 1021 84 10000 5.66 220 22:31 22.02.2022
3629 Clouds 8 1021 83 10000 6.17 220 21:49 22.02.2022
3630 Clouds 7 1021 83 10000 5.66 230 21:28 22.02.2022
3631 Clouds 7 1022 83 10000 7.72 230 20:51 22.02.2022
3632 Clouds 7 1021 83 10000 7.72 240 20:29 22.02.2022
3633 Clouds 7 1021 83 10000 7.72 240 20:29 22.02.2022
3634 Clouds 8 1021 79 10000 6.69 240 19:36 22.02.2022
3635 Clouds 8 1021 79 10000 6.69 240 19:18 22.02.2022
3636 Clouds 9 1021 71 10000 5.66 230 17:46 22.02.2022
3637 Clouds 9 1021 69 10000 5.14 240 17:20 22.02.2022
3638 Clouds 9 1021 67 10000 5.14 0 16:36 22.02.2022
3639 Clouds 9 1022 64 10000 6.17 250 15:39 22.02.2022
3640 Clouds 9 1021 67 10000 6.69 240 14:44 22.02.2022
3641 Clouds 8 1023 75 10000 4.63 250 12:23 22.02.2022
3642 Clouds 7 1023 77 10000 4.12 260 10:39 22.02.2022
3643 Clouds 4 1021 82 10000 1.54 220 08:40 22.02.2022
3644 Clouds 4 1020 85 10000 6.17 270 07:26 22.02.2022
3645 Clouds 5 1017 85 10000 4.12 260 04:31 22.02.2022
3646 Clouds 6 1016 81 10000 4.63 260 01:44 22.02.2022
3647 Clouds 6 1016 80 10000 4.63 260 01:44 22.02.2022
3648 Clouds 6 1013 83 10000 8.23 270 22:44 21.02.2022
3649 Clouds 6 1011 83 10000 8.75 280 21:31 21.02.2022
3650 Clouds 6 1009 86 10000 5.66 230 20:34 21.02.2022
3651 Clouds 5 1007 86 10000 9.77 230 18:46 21.02.2022
3652 Rain 7 1006 71 10000 6.69 230 16:56 21.02.2022
3653 Clouds 7 1007 63 10000 7.2 240 15:20 21.02.2022
3654 Clouds 7 1007 61 10000 8.23 240 14:21 21.02.2022
3655 Clouds 7 1008 63 10000 10.29 240 13:20 21.02.2022
3656 Clouds 7 1008 61 10000 11.83 250 12:23 21.02.2022
3657 Clouds 6 1008 69 10000 10.29 250 10:58 21.02.2022
3658 Clouds 6 1008 70 10000 9.26 250 09:34 21.02.2022
3659 Rain 4 1005 86 10000 13.89 290 05:35 21.02.2022
3660 Clouds 10 1009 76 10000 5.14 220 23:41 20.02.2022
3661 Clouds 10 1010 74 10000 8.23 230 22:21 20.02.2022
3662 Rain 10 1011 75 10000 10.29 230 21:42 20.02.2022
3663 Clouds 10 1011 74 10000 7.72 230 20:53 20.02.2022
3664 Clouds 10 1011 74 10000 7.72 230 20:33 20.02.2022
3665 Clouds 10 1012 73 10000 6.17 220 19:32 20.02.2022
3666 Clouds 10 1012 73 10000 6.17 210 18:50 20.02.2022
3667 Clouds 10 1013 73 10000 6.17 210 18:31 20.02.2022
3668 Clouds 10 1013 73 10000 7.72 230 17:48 20.02.2022
3669 Clouds 10 1015 70 10000 8.23 230 15:37 20.02.2022
3670 Rain 10 1016 70 10000 8.75 230 14:42 20.02.2022
3671 Rain 10 1016 69 10000 8.75 230 13:23 20.02.2022
3672 Clouds 9 1017 70 10000 8.75 240 12:28 20.02.2022
3673 Clouds 8 1018 73 10000 4.63 210 10:47 20.02.2022
3674 Clouds 7 1018 76 10000 5.14 220 10:19 20.02.2022
3675 Clouds 6 1019 80 10000 6.69 230 08:50 20.02.2022
3676 Clear 6 1016 62 10000 5.14 220 00:54 20.02.2022
3677 Clear 6 1016 62 10000 4.12 220 00:30 20.02.2022
3678 Clear 6 1017 60 10000 3.6 200 23:18 19.02.2022
3679 Clear 6 1017 59 10000 4.63 210 22:22 19.02.2022
3680 Clear 5 1017 62 10000 3.09 200 21:25 19.02.2022
3681 Clear 5 1018 62 10000 2.06 210 19:53 19.02.2022
3682 Clear 5 1018 61 10000 2.06 220 19:30 19.02.2022
3683 Clear 6 1018 56 10000 3.6 260 18:33 19.02.2022
3684 Clear 8 1018 49 10000 4.63 250 17:36 19.02.2022
3685 Clear 9 1018 47 10000 6.69 250 16:28 19.02.2022
3686 Clear 9 1018 42 10000 6.17 250 15:18 19.02.2022
3687 Clear 9 1018 43 10000 8.23 250 14:49 19.02.2022
3688 Clear 9 1019 48 10000 7.2 250 13:45 19.02.2022
3689 Clouds 8 1019 55 10000 7.72 260 11:38 19.02.2022
3690 Clouds 6 1019 62 10000 7.2 260 09:57 19.02.2022
3691 Clear 5 1016 64 10000 6.69 250 06:58 19.02.2022
3692 Clear 7 1013 59 10000 7.72 250 03:54 19.02.2022
3693 Clouds 8 1010 74 10000 6.69 240 23:38 18.02.2022
3694 Rain 8 1009 71 10000 8.23 240 21:53 18.02.2022
3695 Rain 9 1008 74 10000 9.77 260 20:51 18.02.2022
3696 Clouds 9 1005 79 9000 20.06 290 19:53 18.02.2022
3697 Clear 15 1003 64 10000 9.26 240 18:50 18.02.2022
3698 Clouds 15 1003 64 10000 8.75 240 18:22 18.02.2022
3699 Clouds 15 1003 65 10000 7.72 240 17:51 18.02.2022
3700 Clouds 16 1004 61 10000 11.32 240 15:22 18.02.2022
3701 Clouds 16 1005 62 10000 8.23 240 13:55 18.02.2022
3702 Clouds 16 1006 65 10000 7.2 240 12:55 18.02.2022
3703 Clouds 16 1007 67 10000 6.69 230 12:36 18.02.2022
3704 Clouds 13 1008 73 10000 4.63 190 11:29 18.02.2022
3705 Clouds 11 1009 75 10000 3.6 200 10:23 18.02.2022
3706 Clear 8 1013 80 10000 1.03 0 06:57 18.02.2022
3707 Clear 8 1013 77 10000 2.06 180 05:41 18.02.2022
3708 Clear 9 1016 68 10000 4.63 230 23:34 17.02.2022
3709 Clear 9 1016 68 10000 5.66 230 21:46 17.02.2022
3710 Clear 10 1016 66 10000 6.69 240 21:20 17.02.2022
3711 Clear 10 1015 65 10000 7.72 240 20:39 17.02.2022
3712 Clear 10 1014 67 10000 9.26 250 19:50 17.02.2022
3713 Clouds 10 1013 65 10000 11.32 260 18:52 17.02.2022
3714 Clouds 11 1012 64 10000 10.29 260 17:55 17.02.2022
3715 Clouds 11 1011 57 10000 12.35 250 16:43 17.02.2022
3716 Clouds 12 1010 56 10000 13.89 260 15:38 17.02.2022
3717 Clouds 12 1010 54 10000 14.92 270 14:28 17.02.2022
3718 Clouds 12 1009 59 10000 14.92 260 12:43 17.02.2022
3719 Clouds 11 1008 65 10000 15.43 270 11:27 17.02.2022
3720 Clouds 11 1006 77 10000 12.35 270 09:18 17.02.2022
3721 Clouds 12 1003 89 10000 7.72 230 04:20 17.02.2022
3722 Clouds 12 1004 86 10000 6.17 220 23:21 16.02.2022
3723 Clouds 12 1005 83 10000 6.17 210 21:45 16.02.2022
3724 Clouds 11 1006 84 10000 7.72 230 19:57 16.02.2022
3725 Clouds 11 1006 85 10000 4.63 210 18:43 16.02.2022
3726 Clouds 11 1006 84 10000 5.66 220 17:53 16.02.2022
3727 Clouds 10 1006 84 10000 7.2 230 15:55 16.02.2022
3728 Clouds 10 1005 84 10000 7.2 220 15:19 16.02.2022
3729 Clouds 10 1007 85 10000 6.17 230 13:31 16.02.2022
3730 Clouds 8 1007 83 10000 5.66 210 12:20 16.02.2022
3731 Clouds 7 1008 86 10000 4.63 210 11:28 16.02.2022
3732 Rain 7 1008 87 10000 5.14 210 10:34 16.02.2022
3733 Rain 7 1009 79 10000 5.14 200 08:24 16.02.2022
3734 Rain 6 1010 78 10000 5.14 200 06:43 16.02.2022
3735 Clear 4 1015 81 10000 2.06 200 23:45 15.02.2022
3736 Clear 4 1016 83 10000 3.09 200 22:33 15.02.2022
3737 Clear 4 1016 83 10000 3.09 200 21:49 15.02.2022
3738 Clear 4 1016 85 10000 2.57 210 21:29 15.02.2022
3739 Clear 5 1016 84 10000 2.57 210 20:56 15.02.2022
3740 Clouds 5 1016 83 10000 2.57 210 19:59 15.02.2022
3741 Clouds 5 1016 81 10000 2.57 210 19:26 15.02.2022
3742 Clouds 6 1015 77 10000 3.09 240 18:24 15.02.2022
3743 Clouds 7 1015 75 10000 4.12 240 17:52 15.02.2022
3744 Clouds 7 1017 75 10000 3.97 241 17:21 15.02.2022
3745 Clouds 7 1015 78 10000 3.6 300 15:32 15.02.2022
3746 Clouds 8 1015 72 10000 5.14 280 13:28 15.02.2022
3747 Clouds 8 1015 75 10000 6.17 280 12:59 15.02.2022
3748 Clouds 7 1014 81 10000 3.6 240 11:40 15.02.2022
3749 Clouds 6 1013 88 10000 2.06 230 09:52 15.02.2022
3750 Clouds 6 1011 68 10000 2.57 220 06:59 15.02.2022
3751 Clouds 6 1011 70 10000 2.06 220 06:19 15.02.2022
3752 Clouds 7 1009 84 10000 3.6 230 23:34 14.02.2022
3753 Clouds 7 1009 89 10000 1.54 220 21:55 14.02.2022
3754 Clouds 8 1009 86 10000 2.57 210 20:51 14.02.2022
3755 Rain 8 1008 84 10000 3.6 240 19:45 14.02.2022
3756 Rain 9 1008 84 10000 2.57 220 19:26 14.02.2022
3757 Rain 10 1007 79 10000 3.09 210 18:23 14.02.2022
3758 Clouds 10 1006 73 10000 6.17 260 17:27 14.02.2022
3759 Clouds 12 1006 68 10000 3.09 210 16:26 14.02.2022
3760 Clouds 12 1006 62 10000 5.14 230 14:43 14.02.2022
3761 Clouds 13 1007 58 10000 5.14 230 13:34 14.02.2022
3762 Clear 13 1007 53 10000 3.6 210 12:58 14.02.2022
3763 Clouds 12 1007 44 10000 4.12 190 11:56 14.02.2022
3764 Clouds 12 1007 40 10000 2.57 180 11:37 14.02.2022
3765 Clear 4 1008 70 10000 1.03 0 09:25 14.02.2022
3766 Clear 3 1008 71 10000 2.06 200 07:34 14.02.2022
3767 Clear 2 1008 80 10000 1.54 200 06:54 14.02.2022
3768 Clear 3 1012 74 10000 1.54 210 22:44 13.02.2022
3769 Clear 3 1012 73 10000 1.03 0 22:26 13.02.2022
3770 Clear 4 1012 71 10000 1.03 0 21:48 13.02.2022
3771 Clear 5 1013 67 10000 2.06 200 20:42 13.02.2022
3772 Clear 6 1013 64 10000 2.57 170 19:57 13.02.2022
3773 Clear 7 1013 61 10000 3.6 180 18:57 13.02.2022
3774 Clear 7 1013 62 10000 3.6 180 18:38 13.02.2022
3775 Clear 12 1014 43 10000 4.63 190 16:53 13.02.2022
3776 Clear 12 1015 44 10000 4.12 180 15:51 13.02.2022
3777 Clear 13 1016 45 10000 4.12 170 14:50 13.02.2022
3778 Clear 12 1018 52 10000 3.09 130 13:27 13.02.2022
3779 Clear 11 1018 55 10000 2.57 150 12:42 13.02.2022
3780 Clouds 7 1020 70 10000 2.65 195 10:43 13.02.2022
3781 Clear 5 1020 78 10000 1.54 70 10:23 13.02.2022
3782 Clear 1 1021 86 10000 0.51 0 08:55 13.02.2022
3783 Clear -1 1022 88 10000 1.54 80 02:49 13.02.2022
3784 Clear -1 1023 82 10000 0.51 0 00:32 13.02.2022
3785 Clear 0 1024 82 10000 0.51 0 22:55 12.02.2022
3786 Clear 0 1024 86 10000 0.51 0 22:30 12.02.2022
3787 Clear 0 1024 84 10000 1.03 170 20:55 12.02.2022
3788 Clear 1 1024 81 10000 1.54 140 20:24 12.02.2022
3789 Clear 3 1025 77 10000 1.54 160 18:54 12.02.2022
3790 Clear 3 1025 76 10000 1.54 160 18:36 12.02.2022
3791 Clear 5 1025 67 10000 3.09 150 17:40 12.02.2022
3792 Clear 7 1025 61 10000 3.09 140 16:46 12.02.2022
3793 Clear 7 1026 53 10000 3.09 110 15:59 12.02.2022
3794 Clear 7 1026 52 10000 3.09 120 15:23 12.02.2022
3795 Clouds 7 1027 50 10000 4.63 110 14:30 12.02.2022
3796 Clear 6 1029 73 10000 2.57 80 12:26 12.02.2022
3797 Clear 2 1030 91 10000 1.54 100 10:34 12.02.2022
3798 Clear 1 1030 86 10000 0.51 0 09:38 12.02.2022
3799 Fog -1 1030 93 10000 0.51 0 08:48 12.02.2022
3800 Fog -2 1030 97 10000 0.51 0 07:50 12.02.2022
3801 Mist -2 1031 95 1000 0.51 0 05:31 12.02.2022
3802 Fog -1 1033 95 300 2.06 290 02:20 12.02.2022
3803 Clear -1 1033 93 10000 2.57 300 00:31 12.02.2022
3804 Clouds 0 1034 94 10000 0.51 0 22:27 11.02.2022
3805 Clouds 1 1033 93 10000 1.03 0 21:43 11.02.2022
3806 Clouds 1 1033 89 10000 0.51 0 20:38 11.02.2022
3807 Clouds 2 1033 90 10000 0.51 0 19:33 11.02.2022
3808 Clouds 3 1032 89 10000 4.63 330 18:58 11.02.2022
3809 Clouds 4 1031 72 10000 6.69 280 17:28 11.02.2022
3810 Clouds 5 1031 67 10000 6.69 270 16:58 11.02.2022
3811 Clouds 6 1030 62 10000 5.66 270 15:33 11.02.2022
3812 Clouds 6 1030 67 10000 7.72 300 14:38 11.02.2022
3813 Clouds 6 1030 68 10000 6.17 270 14:20 11.02.2022
3814 Clouds 6 1030 71 10000 6.69 270 13:50 11.02.2022
3815 Clouds 5 1030 74 10000 5.14 260 13:31 11.02.2022
3816 Clouds 5 1029 76 10000 5.14 240 11:27 11.02.2022
3817 Clouds 3 1028 89 10000 4.63 270 09:39 11.02.2022
3818 Clouds 2 1026 89 10000 4.12 280 08:40 11.02.2022
3819 Clouds 2 1025 88 10000 4.12 290 08:22 11.02.2022
3820 Clouds 3 1023 92 10000 7.72 300 06:33 11.02.2022
3821 Clouds 6 1020 82 10000 3.09 310 02:26 11.02.2022
3822 Clouds 6 1021 85 10000 1.03 290 00:47 11.02.2022
3823 Clouds 6 1021 82 10000 0.51 0 22:45 10.02.2022
3824 Clouds 6 1022 80 10000 1.03 0 21:45 10.02.2022
3825 Clouds 7 1022 77 10000 2.57 230 20:54 10.02.2022
3826 Clouds 7 1022 77 10000 4.12 240 20:29 10.02.2022
3827 Clouds 7 1023 75 10000 4.63 260 19:25 10.02.2022
3828 Clouds 7 1022 76 10000 5.14 270 18:44 10.02.2022
3829 Clouds 7 1023 82 10000 3.23 282 17:26 10.02.2022
3830 Clouds 8 1022 79 10000 5.66 270 16:50 10.02.2022
3831 Clouds 8 1022 79 10000 7.72 280 15:49 10.02.2022
3832 Clouds 9 1022 78 10000 4.63 290 15:29 10.02.2022
3833 Clouds 9 1022 73 10000 7.72 260 14:47 10.02.2022
3834 Clouds 10 1022 72 10000 6.17 280 14:23 10.02.2022
3835 Clouds 11 1022 68 10000 7.2 280 13:26 10.02.2022
3836 Clouds 11 1023 65 10000 5.66 240 12:27 10.02.2022
3837 Clouds 10 1022 67 10000 2.57 220 11:33 10.02.2022
3838 Clouds 9 1023 71 10000 3.09 220 10:43 10.02.2022
3839 Clear 6 1022 80 10000 1.54 40 09:50 10.02.2022
3840 Clear 4 1022 87 10000 1.03 0 09:18 10.02.2022
3841 Clear 1 1022 87 10000 1.03 0 06:50 10.02.2022
3842 Clear 1 1023 89 10000 1.54 110 04:23 10.02.2022
3843 Clear 2 1024 90 10000 0.51 0 01:48 10.02.2022
3844 Clear 2 1024 88 10000 1.54 80 00:44 10.02.2022
3845 Clear 3 1024 88 10000 1.03 0 00:25 10.02.2022
3846 Clear 4 1025 84 10000 1.03 0 22:58 09.02.2022
3847 Clear 4 1025 84 10000 1.03 0 22:34 09.02.2022
3848 Clear 4 1025 86 10000 1.03 0 21:50 09.02.2022
3849 Clear 5 1025 83 10000 1.54 230 21:28 09.02.2022
3850 Clear 5 1026 86 10000 2.06 240 20:47 09.02.2022
3851 Clear 6 1026 85 10000 2.06 240 20:24 09.02.2022
3852 Clear 6 1026 84 10000 1.54 260 19:45 09.02.2022
3853 Clear 7 1025 83 10000 1.03 0 19:22 09.02.2022
3854 Clear 11 1025 54 10000 1.54 240 17:35 09.02.2022
3855 Clear 15 1026 47 10000 1.03 0 16:32 09.02.2022
3856 Clear 13 1026 57 10000 2.06 140 15:40 09.02.2022
3857 Clear 13 1027 61 10000 3.09 130 14:28 09.02.2022
3858 Clear 11 1029 66 10000 1.54 100 12:28 09.02.2022
3859 Clear 8 1029 77 10000 1.54 160 10:51 09.02.2022
3860 Clear 7 1029 78 10000 1.54 190 10:26 09.02.2022
3861 Clear 7 1029 83 10000 1.54 230 09:35 09.02.2022
3862 Clouds 5 1030 87 10000 1.54 180 08:59 09.02.2022
3863 Clouds 5 1030 75 10000 1.03 0 07:47 09.02.2022
3864 Clouds 6 1030 81 10000 1.03 210 05:30 09.02.2022
3865 Clouds 6 1030 81 10000 1.03 210 05:30 09.02.2022
3866 Clouds 6 1030 75 10000 1.03 0 03:50 09.02.2022
3867 Clouds 7 1031 90 10000 0.51 0 00:38 09.02.2022
3868 Clouds 7 1031 85 10000 2.06 350 23:31 08.02.2022
3869 Clouds 7 1031 88 10000 2.57 350 22:46 08.02.2022
3870 Clouds 7 1031 89 10000 1.54 330 22:21 08.02.2022
3871 Clouds 7 1031 88 10000 1.54 330 22:21 08.02.2022
3872 Clouds 7 1031 88 10000 1.54 330 22:21 08.02.2022
3873 Clouds 7 1031 88 10000 2.06 300 21:38 08.02.2022
3874 Clouds 7 1031 88 10000 2.06 290 21:20 08.02.2022
3875 Clouds 7 1031 87 10000 2.57 290 20:42 08.02.2022
3876 Clouds 8 1031 85 10000 2.06 260 19:46 08.02.2022
3877 Clouds 8 1031 85 10000 3.6 310 18:35 08.02.2022
3878 Clouds 8 1030 83 10000 4.63 290 17:38 08.02.2022
3879 Clouds 9 1030 79 10000 5.14 260 16:29 08.02.2022
3880 Clouds 10 1030 76 10000 5.66 260 15:29 08.02.2022
3881 Clouds 9 1031 70 10000 4.12 250 14:31 08.02.2022
3882 Clouds 9 1031 64 10000 5.14 230 13:20 08.02.2022
3883 Clouds 7 1031 63 10000 4.12 0 11:33 08.02.2022
3884 Clouds 5 1031 74 10000 4.12 230 10:23 08.02.2022
3885 Clouds 5 1031 76 10000 3.6 220 09:44 08.02.2022
3886 Clouds 3 1031 80 10000 3.09 210 07:46 08.02.2022
3887 Clouds 2 1031 81 10000 3.09 220 05:37 08.02.2022
3888 Clouds 2 1031 83 10000 3.6 230 04:39 08.02.2022
3889 Clouds 1 1031 84 10000 2.06 230 04:21 08.02.2022
3890 Clouds 1 1032 84 10000 1.54 230 03:36 08.02.2022
3891 Clouds 1 1032 85 10000 1.54 230 03:18 08.02.2022
3892 Clouds 1 1031 85 10000 2.57 230 02:58 08.02.2022
3893 Clouds 1 1031 87 10000 1.54 210 02:36 08.02.2022
3894 Clouds 1 1031 87 10000 1.54 210 02:18 08.02.2022
3895 Clear 1 1031 85 10000 3.09 190 01:43 08.02.2022
3896 Clear 0 1031 88 10000 2.57 180 01:24 08.02.2022
3897 Clear 1 1031 88 10000 1.03 0 00:53 08.02.2022
3898 Clear 1 1031 85 10000 1.54 220 23:54 07.02.2022
3899 Clear 1 1030 85 10000 1.54 250 23:36 07.02.2022
3900 Clear 1 1030 85 10000 1.54 250 23:18 07.02.2022
3901 Clouds 2 1033 85 10000 3.43 238 22:19 07.02.2022
3902 Clouds 2 1030 83 10000 2.06 220 21:55 07.02.2022
3903 Clouds 3 1029 82 10000 1.54 210 21:29 07.02.2022
3904 Clouds 3 1029 82 10000 1.54 200 20:56 07.02.2022
3905 Clouds 3 1029 82 10000 1.54 200 20:38 07.02.2022
3906 Clouds 3 1029 80 10000 3.6 230 19:49 07.02.2022
3907 Clouds 3 1028 80 10000 3.6 240 19:31 07.02.2022
3908 Clear 4 1027 78 10000 7.2 260 17:52 07.02.2022
3909 Clouds 5 1027 74 10000 9.77 270 16:53 07.02.2022
3910 Clouds 5 1026 75 10000 7.72 260 15:49 07.02.2022
3911 Clouds 5 1026 75 10000 6.17 250 14:55 07.02.2022
3912 Clouds 5 1025 75 10000 5.14 250 13:28 07.02.2022
3913 Clouds 5 1024 76 10000 4.63 250 12:42 07.02.2022
3914 Clouds 4 1023 78 10000 6.69 250 11:58 07.02.2022
3915 Clouds 4 1022 80 10000 7.2 270 11:35 07.02.2022
3916 Clouds 4 1022 82 10000 8.23 270 10:50 07.02.2022
3917 Clouds 3 1021 85 10000 5.66 270 10:30 07.02.2022
3918 Clouds 3 1020 86 10000 6.69 270 09:53 07.02.2022
3919 Clouds 2 1020 85 10000 7.72 270 09:18 07.02.2022
3920 Clouds 2 1018 83 10000 7.2 280 08:36 07.02.2022
3921 Clouds 2 1016 87 10000 7.2 290 06:58 07.02.2022
3922 Snow 2 1015 89 10000 8.23 300 06:34 07.02.2022
3923 Snow 3 1008 89 10000 7.72 290 02:59 07.02.2022
3924 Rain 3 1005 92 8000 8.23 280 00:45 07.02.2022
3925 Rain 3 1005 92 8000 8.23 280 00:45 07.02.2022
3926 Rain 4 1004 90 10000 8.23 270 23:48 06.02.2022
3927 Clouds 5 1004 88 10000 10.8 230 22:48 06.02.2022
3928 Clouds 6 1004 90 10000 10.8 240 21:55 06.02.2022
3929 Rain 6 1004 89 10000 9.77 230 21:35 06.02.2022
3930 Rain 6 1005 87 10000 10.8 230 20:55 06.02.2022
3931 Rain 7 1005 86 10000 10.29 220 20:31 06.02.2022
3932 Clouds 7 1006 84 10000 9.26 220 19:38 06.02.2022
3933 Rain 6 1007 86 10000 9.26 220 18:40 06.02.2022
3934 Rain 6 1007 85 10000 9.26 220 17:56 06.02.2022
3935 Rain 6 1008 87 10000 9.77 220 17:21 06.02.2022
3936 Rain 6 1009 86 10000 9.26 230 16:47 06.02.2022
3937 Rain 7 1009 81 10000 11.32 230 15:49 06.02.2022
3938 Rain 8 1010 79 10000 13.38 230 15:27 06.02.2022
3939 Rain 8 1010 73 10000 10.29 220 14:46 06.02.2022
3940 Clouds 8 1013 72 10000 8.75 230 13:27 06.02.2022
3941 Clouds 8 1014 72 10000 8.75 220 12:58 06.02.2022
3942 Clouds 7 1016 72 10000 6.17 220 11:38 06.02.2022
3943 Clouds 7 1016 72 10000 5.66 210 10:31 06.02.2022
3944 Clouds 6 1017 73 10000 4.63 210 09:25 06.02.2022
3945 Clouds 5 1018 75 10000 7.72 230 08:30 06.02.2022
3946 Clouds 4 1019 78 10000 4.63 210 05:33 06.02.2022
3947 Clouds 4 1021 79 10000 3.09 200 03:18 06.02.2022
3948 Clouds 3 1022 80 10000 3.09 200 02:24 06.02.2022
3949 Clear 3 1023 81 10000 2.57 210 00:29 06.02.2022
3950 Clouds 3 1023 80 10000 2.06 210 23:18 05.02.2022
3951 Clouds 4 1023 76 10000 3.09 210 21:33 05.02.2022
3952 Clouds 5 1024 73 10000 2.57 220 20:25 05.02.2022
3953 Clouds 5 1024 72 10000 2.57 210 19:49 05.02.2022
3954 Clouds 4 1024 75 10000 2.06 210 19:18 05.02.2022
3955 Clouds 5 1024 69 10000 4.63 240 18:23 05.02.2022
3956 Clouds 6 1023 64 10000 5.14 230 17:31 05.02.2022
3957 Clouds 8 1023 57 10000 5.14 250 15:42 05.02.2022
3958 Clouds 8 1023 55 10000 5.66 260 15:24 05.02.2022
3959 Clouds 7 1024 66 10000 4.12 230 12:54 05.02.2022
3960 Clouds 7 1024 68 10000 4.63 230 12:34 05.02.2022
3961 Clouds 5 1024 78 10000 3.09 220 10:57 05.02.2022
3962 Clouds 4 1024 80 10000 3.6 230 10:38 05.02.2022
3963 Clouds 3 1023 83 10000 2.06 220 09:47 05.02.2022
3964 Clouds 2 1023 86 10000 3.09 220 08:21 05.02.2022
3965 Clouds 2 1022 85 10000 3.6 240 06:58 05.02.2022
3966 Clear 1 1021 85 10000 3.6 230 05:38 05.02.2022
3967 Clouds 4 1018 84 10000 6.17 300 01:40 05.02.2022
3968 Clouds 4 1018 85 10000 6.17 300 01:18 05.02.2022
3969 Clouds 6 1016 88 10000 10.29 280 23:59 04.02.2022
3970 Clouds 7 1014 87 10000 5.14 230 23:33 04.02.2022
3971 Rain 8 1014 83 10000 4.12 220 22:28 04.02.2022
3972 Clouds 7 1014 82 10000 4.12 220 21:36 04.02.2022
3973 Clouds 7 1013 82 10000 4.12 220 21:18 04.02.2022
3974 Clouds 7 1013 80 10000 4.12 220 20:21 04.02.2022
3975 Clouds 7 1013 78 10000 3.6 210 18:27 04.02.2022
3976 Clouds 7 1014 77 10000 5.66 230 15:55 04.02.2022
3977 Clouds 8 1014 77 10000 5.66 250 14:56 04.02.2022
3978 Clouds 8 1014 81 10000 6.17 250 14:24 04.02.2022
3979 Clouds 7 1015 86 10000 5.14 240 12:43 04.02.2022
3980 Clouds 7 1016 86 10000 3.09 210 11:43 04.02.2022
3981 Clouds 7 1016 89 10000 3.09 230 10:51 04.02.2022
3982 Clouds 5 1016 91 10000 2.57 210 08:50 04.02.2022
3983 Rain 5 1016 90 10000 2.06 220 07:35 04.02.2022
3984 Clouds 6 1015 93 10000 1.03 0 02:54 04.02.2022
3985 Clouds 6 1015 93 10000 1.54 230 02:20 04.02.2022
3986 Clear 6 1014 93 10000 1.54 240 23:34 03.02.2022
3987 Clear 6 1014 92 10000 3.09 320 22:48 03.02.2022
3988 Clear 6 1014 89 10000 1.03 0 21:50 03.02.2022
3989 Clear 7 1015 89 10000 1.03 0 20:50 03.02.2022
3990 Clear 7 1015 88 10000 2.06 280 20:21 03.02.2022
3991 Clear 7 1015 89 10000 2.06 310 19:34 03.02.2022
3992 Clouds 7 1015 91 10000 2.06 250 18:48 03.02.2022
3993 Clouds 8 1015 88 10000 2.57 260 17:47 03.02.2022
3994 Clouds 9 1015 84 10000 1.54 180 16:39 03.02.2022
3995 Clouds 10 1016 78 10000 3.09 190 14:54 03.02.2022
3996 Clouds 9 1017 85 10000 2.57 170 13:19 03.02.2022
3997 Clouds 9 1019 85 10000 2.57 190 11:43 03.02.2022
3998 Clouds 6 1021 76 10000 1.54 250 08:40 03.02.2022
3999 Clear 6 1021 78 10000 0 0 07:20 03.02.2022
4000 Clouds 5 1023 93 10000 1.03 0 00:33 03.02.2022
4001 Clouds 5 1023 92 10000 0.51 0 23:45 02.02.2022
4002 Clouds 6 1025 93 10000 2.15 243 22:36 02.02.2022
4003 Clouds 5 1023 92 10000 1.03 0 21:37 02.02.2022
4004 Clouds 6 1023 89 10000 1.54 220 20:56 02.02.2022
4005 Clear 6 1023 92 10000 1.54 220 20:19 02.02.2022
4006 Clouds 6 1022 91 10000 3.09 250 19:45 02.02.2022
4007 Clouds 6 1022 90 10000 2.06 260 18:53 02.02.2022
4008 Clouds 7 1022 89 10000 3.6 260 18:22 02.02.2022
4009 Clouds 7 1021 86 10000 5.66 270 17:20 02.02.2022
4010 Clouds 8 1021 87 10000 5.14 270 16:47 02.02.2022
4011 Clouds 8 1019 80 10000 6.69 290 14:21 02.02.2022
4012 Clouds 8 1019 82 10000 7.2 290 12:26 02.02.2022
4013 Clouds 8 1018 81 10000 8.23 280 11:42 02.02.2022
4014 Clouds 8 1018 82 10000 7.72 280 11:23 02.02.2022
4015 Clouds 7 1015 84 10000 6.69 270 07:59 02.02.2022
4016 Clouds 6 1014 89 10000 3.09 220 01:36 02.02.2022
4017 Clouds 5 1014 91 7000 4.63 210 21:59 01.02.2022
4018 Clouds 4 1014 90 10000 5.14 220 20:49 01.02.2022
4019 Clouds 4 1014 86 10000 7.72 230 18:55 01.02.2022
4020 Clouds 3 1015 87 10000 6.17 220 16:44 01.02.2022
4021 Clouds 4 1017 81 10000 9.26 230 15:30 01.02.2022
4022 Rain 4 1020 77 10000 7.72 240 12:49 01.02.2022
4023 Clouds 4 1021 78 10000 6.69 240 11:48 01.02.2022
4024 Clouds 2 1022 84 10000 4.12 250 08:37 01.02.2022
4025 Clouds 3 1015 91 10000 11.32 290 00:28 01.02.2022
4026 Clouds 3 1014 91 8000 7.2 270 23:36 31.01.2022
4027 Rain 3 1014 90 10000 8.23 270 22:30 31.01.2022
4028 Clouds 3 1014 91 10000 6.69 260 21:34 31.01.2022
4029 Clouds 3 1013 90 10000 10.29 270 20:34 31.01.2022
4030 Clouds 4 1013 86 10000 9.26 270 19:46 31.01.2022
4031 Clouds 4 1011 85 10000 8.75 270 18:31 31.01.2022
4032 Clouds 4 1011 88 10000 9.77 270 17:55 31.01.2022
4033 Rain 3 1010 88 10000 11.32 270 16:58 31.01.2022
4034 Rain 4 1010 86 10000 10.29 260 16:20 31.01.2022
4035 Clouds 5 1010 86 10000 8.75 250 14:49 31.01.2022
4036 Rain 6 1010 78 10000 11.83 260 12:57 31.01.2022
4037 Clouds 5 1010 79 10000 9.77 260 12:36 31.01.2022
4038 Clouds 5 1011 86 10000 6.69 250 10:58 31.01.2022
4039 Clouds 4 1011 89 10000 6.17 240 10:38 31.01.2022
4040 Clouds 4 1011 91 10000 5.14 230 09:36 31.01.2022
4041 Rain 4 1011 89 10000 6.69 240 08:54 31.01.2022
4042 Snow 4 1011 87 10000 7.72 230 08:20 31.01.2022
4043 Rain 4 1012 83 10000 4.12 200 07:29 31.01.2022
4044 Clouds 2 1014 87 10000 3.6 200 05:24 31.01.2022
4045 Clouds 0 1022 86 10000 1.03 0 00:23 31.01.2022
4046 Clouds 1 1025 87 10000 1.54 230 22:33 30.01.2022
4047 Clouds 1 1025 87 10000 1.54 220 21:45 30.01.2022
4048 Clouds 1 1025 87 10000 2.06 240 21:24 30.01.2022
4049 Clouds 2 1026 84 10000 2.06 250 20:53 30.01.2022
4050 Clouds 2 1026 82 10000 3.6 290 20:31 30.01.2022
4051 Clouds 3 1027 81 10000 3.6 290 19:56 30.01.2022
4052 Clear 4 1029 78 10000 1.64 265 18:51 30.01.2022
4053 Clouds 5 1027 73 10000 4.63 270 18:22 30.01.2022
4054 Clouds 6 1027 69 10000 5.66 270 17:31 30.01.2022
4055 Clouds 6 1028 68 10000 5.14 290 16:43 30.01.2022
4056 Clouds 7 1028 68 10000 6.17 290 16:23 30.01.2022
4057 Clouds 7 1028 69 10000 6.17 290 16:23 30.01.2022
4058 Clouds 7 1028 66 10000 7.2 290 15:55 30.01.2022
4059 Clouds 7 1028 65 10000 5.66 300 15:33 30.01.2022
4060 Clouds 7 1028 62 10000 7.2 300 14:48 30.01.2022
4061 Clouds 7 1028 71 10000 7.2 270 13:49 30.01.2022
4062 Clouds 7 1029 69 10000 7.2 280 12:46 30.01.2022
4063 Clouds 7 1028 73 10000 8.75 270 11:23 30.01.2022
4064 Clouds 6 1028 76 10000 6.69 290 10:26 30.01.2022
4065 Clouds 6 1028 86 10000 5.14 290 09:26 30.01.2022
4066 Clouds 6 1028 86 10000 6.69 280 08:32 30.01.2022
4067 Drizzle 7 1025 90 10000 7.2 230 02:55 30.01.2022
4068 Clouds 7 1025 89 10000 6.17 240 01:54 30.01.2022
4069 Drizzle 6 1026 89 10000 6.69 220 23:49 29.01.2022
4070 Drizzle 6 1026 89 4200 9.26 230 22:58 29.01.2022
4071 Clouds 7 1026 83 10000 10.29 240 21:35 29.01.2022
4072 Clouds 7 1027 83 10000 6.69 240 21:00 29.01.2022
4073 Clouds 7 1027 83 10000 4.12 240 20:20 29.01.2022
4074 Clouds 6 1026 85 10000 5.14 230 19:33 29.01.2022
4075 Clouds 6 1026 84 10000 3.6 220 18:51 29.01.2022
4076 Clouds 6 1027 84 10000 4.12 220 17:56 29.01.2022
4077 Clouds 6 1027 84 10000 4.63 220 17:19 29.01.2022
4078 Clouds 6 1027 83 10000 5.66 220 15:35 29.01.2022
4079 Clouds 6 1029 83 10000 5.66 220 13:58 29.01.2022
4080 Clouds 7 1029 82 10000 5.14 230 13:36 29.01.2022
4081 Clouds 7 1029 81 10000 5.14 230 13:18 29.01.2022
4082 Clouds 5 1029 79 10000 5.14 220 11:40 29.01.2022
4083 Clouds 4 1030 81 10000 4.63 220 10:38 29.01.2022
4084 Clouds 2 1030 87 10000 2.57 280 08:36 29.01.2022
4085 Clear 2 1032 87 10000 2.06 230 03:25 29.01.2022
4086 Clear 2 1034 84 10000 2.57 250 00:32 29.01.2022
4087 Clouds 3 1034 86 10000 2.06 220 23:43 28.01.2022
4088 Clouds 3 1035 85 10000 3.09 230 22:48 28.01.2022
4089 Clouds 3 1035 85 10000 3.6 230 22:20 28.01.2022
4090 Clouds 4 1035 83 10000 2.06 240 20:42 28.01.2022
4091 Clouds 4 1035 83 10000 2.57 250 19:59 28.01.2022
4092 Clouds 4 1034 84 10000 2.57 250 19:28 28.01.2022
4093 Clouds 4 1034 84 10000 2.57 240 18:38 28.01.2022
4094 Clouds 5 1034 79 10000 5.14 270 16:39 28.01.2022
4095 Clouds 6 1033 78 10000 5.14 290 14:59 28.01.2022
4096 Clouds 6 1034 77 10000 7.2 280 13:23 28.01.2022
4097 Clouds 6 1034 77 10000 6.17 260 12:26 28.01.2022
4098 Clouds 4 1033 87 10000 4.12 260 10:32 28.01.2022
4099 Clouds 3 1033 90 10000 5.14 260 09:48 28.01.2022
4100 Clouds 2 1032 91 10000 4.12 250 07:43 28.01.2022
4101 Clouds 3 1031 90 10000 4.63 260 06:31 28.01.2022
4102 Clouds 3 1030 91 10000 2.57 250 03:52 28.01.2022
4103 Clouds 3 1029 89 10000 5.66 260 02:29 28.01.2022
4104 Clouds 3 1029 90 10000 5.66 270 01:57 28.01.2022
4105 Clouds 3 1029 90 10000 5.66 270 01:57 28.01.2022
4106 Clouds 3 1028 89 10000 4.63 270 01:29 28.01.2022
4107 Clouds 3 1026 92 10000 3.09 210 22:40 27.01.2022
4108 Drizzle 3 1027 94 2300 3.09 240 21:41 27.01.2022
4109 Drizzle 3 1026 93 7000 3.6 240 21:21 27.01.2022
4110 Drizzle 3 1026 91 6000 3.6 230 20:23 27.01.2022
4111 Drizzle 3 1026 91 10000 3.6 210 18:23 27.01.2022
4112 Clouds 3 1026 86 10000 3.09 210 17:18 27.01.2022
4113 Clouds 2 1027 84 10000 3.09 200 14:25 27.01.2022
4114 Clouds 2 1028 86 10000 2.57 200 13:19 27.01.2022
4115 Clouds 1 1028 89 10000 3.09 190 12:20 27.01.2022
4116 Clouds -1 1029 90 8000 1.54 310 09:56 27.01.2022
4117 Clouds -1 1028 90 8000 2.06 240 08:41 27.01.2022
4118 Clouds -1 1028 92 8000 1.54 240 08:18 27.01.2022
4119 Clouds -1 1029 91 10000 2.06 280 03:37 27.01.2022
4120 Mist -1 1030 94 3500 1.03 0 00:25 27.01.2022
4121 Mist -1 1031 93 5000 1.03 0 22:37 26.01.2022
4122 Mist -1 1031 93 4800 0.51 0 21:45 26.01.2022
4123 Clouds -1 1031 95 5000 1.03 0 20:59 26.01.2022
4124 Clouds -1 1031 95 5000 1.03 0 20:35 26.01.2022
4125 Clouds -1 1031 93 8000 2.06 360 19:52 26.01.2022
4126 Clouds -1 1031 93 8000 2.57 320 19:18 26.01.2022
4127 Clouds -1 1031 93 7000 3.09 300 18:26 26.01.2022
4128 Mist -1 1031 95 4200 2.57 320 17:49 26.01.2022
4129 Mist -1 1031 94 2500 2.57 330 17:19 26.01.2022
4130 Mist 0 1031 93 4000 4.63 350 16:26 26.01.2022
4131 Mist 1 1031 100 3800 3.09 360 15:24 26.01.2022
4132 Mist 1 1031 93 4800 1.54 290 12:52 26.01.2022
4133 Fog 1 1032 92 4500 1.54 250 11:34 26.01.2022
4134 Fog -1 1031 92 1500 2.57 320 10:19 26.01.2022
4135 Fog -1 1031 94 800 2.06 330 09:42 26.01.2022
4136 Fog -1 1030 95 800 1.54 10 07:31 26.01.2022
4137 Fog -1 1030 95 150 0.51 0 00:48 26.01.2022
4138 Fog -1 1030 95 150 0.51 0 00:48 26.01.2022
4139 Fog -1 1031 95 150 1.03 0 23:48 25.01.2022
4140 Fog 0 1031 95 100 1.54 150 22:50 25.01.2022
4141 Fog 0 1031 94 100 1.54 150 22:50 25.01.2022
4142 Fog 0 1031 95 100 1.54 150 22:50 25.01.2022
4143 Fog 0 1031 94 100 1.03 0 22:21 25.01.2022
4144 Fog 0 1031 95 150 0.51 0 21:37 25.01.2022
4145 Fog 0 1031 94 150 0.51 0 20:46 25.01.2022
4146 Fog 0 1031 94 150 2.06 320 20:21 25.01.2022
4147 Fog 0 1031 94 150 1.03 340 19:44 25.01.2022
4148 Mist 1 1031 94 2900 2.06 340 18:22 25.01.2022
4149 Clear 1 1031 92 6000 1.54 0 17:42 25.01.2022
4150 Clear 3 1031 89 10000 2.57 10 16:35 25.01.2022
4151 Clear 5 1031 83 10000 1.54 10 15:47 25.01.2022
4152 Clear 6 1031 81 10000 2.57 10 15:28 25.01.2022
4153 Clear 5 1031 80 10000 3.09 360 14:57 25.01.2022
4154 Clear 5 1031 80 10000 3.09 360 14:57 25.01.2022
4155 Clear 5 1031 76 10000 1.03 0 13:18 25.01.2022
4156 Clear 2 1032 86 10000 0.51 0 10:35 25.01.2022
4157 Clear -2 1032 100 8000 0.51 0 08:33 25.01.2022
4158 Fog -2 1031 93 10000 1.03 350 07:28 25.01.2022
4159 Fog -2 1031 93 9000 0.51 30 06:22 25.01.2022
4160 Clear -1 1032 92 10000 0.51 0 01:36 25.01.2022
4161 Clear 0 1032 93 10000 0.51 0 23:36 24.01.2022
4162 Clear 0 1032 92 10000 0.51 0 23:18 24.01.2022
4163 Clear 0 1032 92 10000 0.51 110 22:59 24.01.2022
4164 Clear 0 1032 92 10000 0.51 110 22:41 24.01.2022
4165 Clear 0 1032 89 10000 0 0 21:49 24.01.2022
4166 Clear 1 1032 89 10000 1.03 290 21:27 24.01.2022
4167 Clear 1 1031 90 10000 0.51 140 20:29 24.01.2022
4168 Clear 2 1031 87 10000 0.51 0 19:39 24.01.2022
4169 Clear 2 1031 87 10000 0.51 0 19:19 24.01.2022
4170 Clear 4 1032 81 10000 2.06 90 17:44 24.01.2022
4171 Clear 5 1031 79 10000 2.06 90 17:23 24.01.2022
4172 Clear 7 1031 73 10000 1.54 100 16:33 24.01.2022
4173 Clear 7 1031 68 10000 1.54 30 15:52 24.01.2022
4174 Clouds 7 1032 69 10000 2.06 80 14:28 24.01.2022
4175 Clouds 6 1032 74 10000 2.57 70 12:38 24.01.2022
4176 Clouds 5 1033 78 10000 2.06 80 11:59 24.01.2022
4177 Clouds 3 1033 86 10000 0.51 0 10:25 24.01.2022
4178 Clouds 2 1033 92 10000 0.51 0 09:47 24.01.2022
4179 Clouds 0 1032 93 10000 0.51 0 08:24 24.01.2022
4180 Clear 0 1032 90 10000 1.03 270 04:50 24.01.2022
4181 Clouds 1 1033 87 10000 1.03 80 01:29 24.01.2022
4182 Clouds 1 1033 86 10000 1.54 70 00:35 24.01.2022
4183 Clouds 2 1033 82 10000 1.54 90 23:49 23.01.2022
4184 Clouds 3 1033 82 10000 2.57 70 22:27 23.01.2022
4185 Clouds 4 1033 82 10000 3.09 70 21:44 23.01.2022
4186 Clouds 4 1033 81 10000 2.06 80 21:24 23.01.2022
4187 Clouds 4 1033 80 10000 3.09 80 20:30 23.01.2022
4188 Clouds 4 1033 81 10000 2.57 70 19:43 23.01.2022
4189 Clouds 4 1033 82 10000 1.54 80 18:50 23.01.2022
4190 Clouds 5 1033 79 10000 2.06 110 17:34 23.01.2022
4191 Clouds 5 1033 78 10000 2.57 100 16:45 23.01.2022
4192 Clouds 5 1033 81 10000 2.06 50 14:59 23.01.2022
4193 Clouds 5 1033 82 10000 1.54 60 14:25 23.01.2022
4194 Clouds 5 1033 85 10000 1.54 60 14:25 23.01.2022
4195 Clouds 5 1034 89 10000 1.54 60 12:54 23.01.2022
4196 Clouds 5 1034 89 10000 1.03 0 12:22 23.01.2022
4197 Clouds 5 1034 89 10000 1.03 0 12:22 23.01.2022
4198 Clouds 4 1034 90 10000 1.03 0 11:52 23.01.2022
4199 Clouds 4 1034 91 10000 0.51 0 11:18 23.01.2022
4200 Clouds 3 1034 92 7000 0.51 0 10:27 23.01.2022
4201 Clouds 3 1034 92 8000 1.03 0 09:51 23.01.2022
4202 Clouds 3 1034 95 8000 0.51 0 08:54 23.01.2022
4203 Drizzle 3 1033 93 10000 0.51 0 05:57 23.01.2022
4204 Drizzle 3 1033 92 10000 1.03 0 01:52 23.01.2022
4205 Drizzle 3 1033 92 10000 3.09 260 01:27 23.01.2022
4206 Drizzle 3 1033 92 10000 3.09 260 00:23 23.01.2022
4207 Drizzle 3 1033 92 10000 3.6 260 23:56 22.01.2022
4208 Drizzle 3 1034 90 10000 4.12 260 22:46 22.01.2022
4209 Clouds 3 1034 93 9000 3.09 250 21:36 22.01.2022
4210 Clouds 3 1034 91 10000 3.09 260 20:21 22.01.2022
4211 Clouds 4 1033 90 10000 4.63 270 18:56 22.01.2022
4212 Clouds 4 1033 90 10000 3.6 270 18:24 22.01.2022
4213 Clouds 4 1033 90 10000 4.12 280 17:40 22.01.2022
4214 Clouds 4 1032 90 10000 4.12 290 16:56 22.01.2022
4215 Clouds 4 1032 89 10000 3.6 300 15:53 22.01.2022
4216 Clouds 4 1032 88 10000 3.6 300 15:32 22.01.2022
4217 Clouds 4 1032 91 10000 1.03 0 13:51 22.01.2022
4218 Clouds 3 1032 91 10000 2.06 240 12:53 22.01.2022
4219 Clouds 3 1033 91 10000 3.09 230 12:29 22.01.2022
4220 Clouds 3 1033 91 10000 2.57 240 11:49 22.01.2022
4221 Clouds 3 1032 89 9000 2.06 250 10:31 22.01.2022
4222 Clouds 3 1032 89 7000 3.09 250 09:59 22.01.2022
4223 Clouds 2 1032 90 10000 3.09 240 08:53 22.01.2022
4224 Clouds 2 1032 90 10000 2.57 240 07:56 22.01.2022
4225 Clouds 2 1031 91 10000 2.06 220 04:53 22.01.2022
4226 Clouds 1 1031 89 10000 3.6 230 01:58 22.01.2022
4227 Snow 1 1032 90 10000 2.57 220 23:48 21.01.2022
4228 Snow 2 1032 89 10000 4.12 230 22:41 21.01.2022
4229 Clouds 2 1032 85 10000 3.6 240 20:45 21.01.2022
4230 Clouds 2 1032 84 10000 3.09 230 18:41 21.01.2022
4231 Clouds 2 1032 84 10000 2.57 250 17:45 21.01.2022
4232 Clouds 3 1032 82 10000 4.63 290 15:48 21.01.2022
4233 Clouds 2 1032 82 10000 4.12 280 14:37 21.01.2022
4234 Clouds 2 1033 79 10000 2.7 298 12:40 21.01.2022
4235 Clouds 1 1032 85 10000 4.63 290 11:29 21.01.2022
4236 Clouds 1 1032 87 10000 5.66 300 10:27 21.01.2022
4237 Clouds 0 1031 88 10000 5.14 320 08:50 21.01.2022
4238 Clouds 0 1031 87 10000 5.14 300 07:26 21.01.2022
4239 Clouds 0 1029 87 10000 5.14 290 01:48 21.01.2022
4240 Clouds 1 1028 85 10000 4.63 290 22:46 20.01.2022
4241 Clouds 1 1028 84 10000 5.14 280 21:48 20.01.2022
4242 Clear 1 1028 85 10000 6.69 290 20:57 20.01.2022
4243 Clouds 1 1027 87 10000 5.66 280 19:46 20.01.2022
4244 Clouds 1 1027 85 10000 5.14 280 19:18 20.01.2022
4245 Clouds 2 1026 85 10000 6.17 300 17:36 20.01.2022
4246 Clouds 2 1025 91 5000 5.14 270 15:59 20.01.2022
4247 Snow 2 1025 91 6000 5.14 280 15:29 20.01.2022
4248 Rain 3 1025 90 10000 8.23 280 14:18 20.01.2022
4249 Clouds 4 1025 87 10000 7.2 280 12:48 20.01.2022
4250 Clouds 4 1025 84 10000 6.69 270 12:27 20.01.2022
4251 Clouds 3 1025 89 10000 3.6 250 10:59 20.01.2022
4252 Clouds 3 1025 90 10000 3.6 250 09:44 20.01.2022
4253 Clouds 3 1024 90 10000 5.66 250 08:37 20.01.2022
4254 Clouds 3 1023 90 10000 3.6 250 06:49 20.01.2022
4255 Clouds 3 1023 87 10000 3.6 220 00:30 20.01.2022
4256 Clouds 4 1023 81 10000 4.12 230 22:38 19.01.2022
4257 Clouds 4 1024 81 10000 2.57 210 21:33 19.01.2022
4258 Clouds 4 1024 81 10000 4.63 230 20:56 19.01.2022
4259 Clouds 4 1024 81 10000 3.6 220 20:30 19.01.2022
4260 Clouds 4 1023 80 10000 4.63 230 18:52 19.01.2022
4261 Clouds 4 1024 79 10000 3.6 220 17:51 19.01.2022
4262 Clouds 5 1024 76 10000 4.63 220 17:18 19.01.2022
4263 Clouds 5 1024 77 10000 4.63 220 17:18 19.01.2022
4264 Clouds 5 1024 75 10000 1.03 0 15:32 19.01.2022
4265 Clear 5 1025 71 10000 2.57 250 13:25 19.01.2022
4266 Clear 4 1027 79 10000 1.54 110 11:58 19.01.2022
4267 Clear 4 1027 81 10000 1.54 110 11:38 19.01.2022
4268 Clear 1 1027 90 10000 1.03 0 09:35 19.01.2022
4269 Clouds 0 1028 91 10000 1.03 0 08:38 19.01.2022
4270 Clouds -1 1029 93 10000 1.54 100 05:20 19.01.2022
4271 Clouds 3 1033 84 10000 1.54 110 00:22 19.01.2022
4272 Clouds 3 1033 75 10000 2.06 110 23:18 18.01.2022
4273 Clouds 4 1034 81 10000 3.09 90 21:45 18.01.2022
4274 Clouds 5 1035 78 10000 3.09 100 20:38 18.01.2022
4275 Clouds 5 1035 77 10000 3.09 90 19:51 18.01.2022
4276 Clouds 5 1035 83 10000 4.63 80 19:33 18.01.2022
4277 Clouds 5 1035 82 10000 4.12 60 18:23 18.01.2022
4278 Clouds 5 1035 83 10000 3.6 60 17:33 18.01.2022
4279 Clouds 6 1035 81 10000 2.57 60 16:22 18.01.2022
4280 Clouds 6 1036 78 10000 4.12 40 15:25 18.01.2022
4281 Clouds 6 1036 83 10000 3.09 30 14:34 18.01.2022
4282 Clouds 5 1037 89 8000 2.06 100 11:51 18.01.2022
4283 Clouds 4 1037 91 7000 0.51 0 10:30 18.01.2022
4284 Clouds 3 1036 93 6000 2.57 10 08:36 18.01.2022
4285 Clouds 4 1036 93 9000 1.54 30 07:45 18.01.2022
4286 Clouds 3 1035 91 10000 1.03 210 01:34 18.01.2022
4287 Clouds 4 1035 90 10000 1.54 230 22:47 17.01.2022
4288 Clouds 4 1035 90 10000 1.54 220 21:58 17.01.2022
4289 Clouds 4 1035 90 10000 1.54 240 21:31 17.01.2022
4290 Clouds 4 1035 89 10000 2.06 240 19:42 17.01.2022
4291 Rain 4 1034 86 10000 2.57 240 18:27 17.01.2022
4292 Clouds 4 1034 85 10000 5.14 260 17:24 17.01.2022
4293 Clouds 5 1033 81 10000 4.12 250 16:24 17.01.2022
4294 Clouds 5 1033 84 10000 6.69 270 14:58 17.01.2022
4295 Clouds 5 1033 85 10000 6.69 270 14:33 17.01.2022
4296 Clouds 5 1033 87 10000 4.63 250 13:20 17.01.2022
4297 Clouds 5 1034 86 10000 5.14 250 12:52 17.01.2022
4298 Clouds 4 1033 87 10000 5.66 240 11:48 17.01.2022
4299 Clouds 3 1032 90 10000 3.6 240 10:21 17.01.2022
4300 Clouds 3 1032 91 10000 2.06 0 08:44 17.01.2022
4301 Clouds 2 1031 93 10000 3.09 260 07:22 17.01.2022
4302 Clear 2 1031 87 10000 2.57 330 02:23 17.01.2022
4303 Clouds 2 1031 87 10000 1.03 0 00:53 17.01.2022
4304 Clouds 2 1030 88 10000 1.54 210 21:44 16.01.2022
4305 Clouds 2 1029 88 10000 1.54 220 20:33 16.01.2022
4306 Clouds 2 1029 88 10000 1.54 220 20:33 16.01.2022
4307 Clouds 2 1029 86 10000 2.57 270 18:50 16.01.2022
4308 Clouds 2 1028 84 10000 2.57 230 17:55 16.01.2022
4309 Clouds 3 1028 83 10000 2.57 230 16:56 16.01.2022
4310 Clouds 2 1028 86 10000 4.12 240 16:20 16.01.2022
4311 Clouds 2 1027 89 10000 1.03 0 14:30 16.01.2022
4312 Clouds 2 1027 89 10000 1.03 0 14:30 16.01.2022
4313 Clouds 2 1027 91 10000 1.03 0 13:33 16.01.2022
4314 Clouds 1 1026 91 10000 1.03 0 12:26 16.01.2022
4315 Fog 0 1026 91 10000 1.03 0 11:38 16.01.2022
4316 Fog 0 1026 90 6000 0.51 330 10:45 16.01.2022
4317 Fog -1 1025 94 300 1.54 350 09:59 16.01.2022
4318 Clouds -1 1027 95 10000 1.15 235 09:38 16.01.2022
4319 Clouds -1 1027 95 10000 1.15 235 09:20 16.01.2022
4320 Fog -1 1024 95 300 0.51 0 07:21 16.01.2022
4321 Clouds 0 1026 94 10000 1.13 190 00:36 16.01.2022
4322 Clouds 0 1026 97 10000 1.31 182 23:22 15.01.2022
4323 Clouds 0 1025 92 8000 1.03 0 21:23 15.01.2022
4324 Clouds 0 1025 92 9000 2.06 100 20:48 15.01.2022
4325 Clouds 0 1025 92 8000 2.06 100 20:29 15.01.2022
4326 Clear 0 1025 91 10000 1.54 80 19:27 15.01.2022
4327 Clear 1 1025 94 10000 1.54 70 18:28 15.01.2022
4328 Clear 2 1025 88 10000 1.54 360 16:49 15.01.2022
4329 Clear 4 1025 82 10000 1.54 80 15:38 15.01.2022
4330 Clear 5 1027 78 10000 2.06 80 13:35 15.01.2022
4331 Clouds 3 1028 85 10000 1.03 0 11:46 15.01.2022
4332 Clear -2 1028 96 10000 0 0 09:49 15.01.2022
4333 Clear -2 1029 100 10000 1.03 240 05:26 15.01.2022
4334 Clear -1 1031 90 10000 1.03 270 23:40 14.01.2022
4335 Clear 0 1032 87 10000 1.03 0 21:29 14.01.2022
4336 Clear 0 1032 90 10000 1.03 0 20:37 14.01.2022
4337 Clear 1 1032 89 10000 2.06 320 19:56 14.01.2022
4338 Clear 2 1032 85 10000 1.54 320 18:43 14.01.2022
4339 Clear 3 1032 82 10000 1.03 100 17:53 14.01.2022
4340 Clear 4 1034 76 10000 0.22 267 16:47 14.01.2022
4341 Clear 6 1033 68 10000 1.03 80 15:33 14.01.2022
4342 Clear 7 1034 70 10000 1.54 120 14:29 14.01.2022
4343 Clear 5 1035 75 10000 1.03 0 12:59 14.01.2022
4344 Clear 4 1035 82 10000 0.51 0 11:59 14.01.2022
4345 Clear 2 1035 84 10000 0.51 0 10:46 14.01.2022
4346 Clear -2 1035 93 10000 1.03 30 08:54 14.01.2022
4347 Clear -2 1035 93 10000 1.03 0 07:46 14.01.2022
4348 Clear -2 1036 92 10000 0.51 0 03:19 14.01.2022
4349 Clear -1 1037 92 10000 0.51 170 00:44 14.01.2022
4350 Clear -1 1038 90 10000 1.03 250 21:57 13.01.2022
4351 Clear 0 1038 89 10000 1.03 0 21:30 13.01.2022
4352 Clear 0 1038 88 10000 0 0 20:33 13.01.2022
4353 Clear 0 1038 90 10000 1.54 310 19:32 13.01.2022
4354 Clear 1 1039 87 10000 2.57 330 18:51 13.01.2022
4355 Clear 3 1038 82 10000 1.03 190 17:23 13.01.2022
4356 Clear 5 1039 77 10000 1.03 0 16:18 13.01.2022
4357 Clear 4 1039 76 10000 1.03 0 15:31 13.01.2022
4358 Clouds 4 1040 77 10000 1.03 0 13:47 13.01.2022
4359 Clouds 2 1040 83 10000 1.03 0 12:20 13.01.2022
4360 Clouds -1 1040 89 10000 1.03 0 09:38 13.01.2022
4361 Clouds -2 1040 90 10000 1.03 0 08:54 13.01.2022
4362 Clouds -2 1040 91 10000 1.54 140 08:24 13.01.2022
4363 Clouds -2 1039 90 10000 1.03 0 07:21 13.01.2022
4364 Clouds -2 1039 91 10000 0.51 0 05:57 13.01.2022
4365 Clouds -2 1039 91 10000 0.51 0 05:18 13.01.2022
4366 Clouds -2 1039 91 10000 1.03 0 01:49 13.01.2022
4367 Clear -3 1039 90 10000 0.51 0 00:40 13.01.2022
4368 Clear -3 1039 92 10000 1.03 280 23:45 12.01.2022
4369 Clear -3 1039 93 10000 1.03 0 22:57 12.01.2022
4370 Clear -3 1039 88 10000 1.03 330 21:56 12.01.2022
4371 Clear -2 1038 90 10000 0.51 190 21:21 12.01.2022
4372 Clear -2 1039 91 10000 0.51 150 20:56 12.01.2022
4373 Clear -2 1038 90 10000 0.51 0 19:35 12.01.2022
4374 Clear -1 1038 85 10000 1.54 30 18:30 12.01.2022
4375 Clear -1 1038 85 10000 1.54 30 18:30 12.01.2022
4376 Clear 1 1037 81 10000 1.54 30 16:59 12.01.2022
4377 Clear 1 1037 78 10000 2.06 10 16:26 12.01.2022
4378 Clouds 2 1037 72 10000 0.51 0 14:48 12.01.2022
4379 Clouds 1 1038 78 10000 1.03 0 12:59 12.01.2022
4380 Clouds 1 1038 78 10000 1.03 0 12:58 12.01.2022
4381 Clear -1 1037 89 10000 0.51 0 10:38 12.01.2022
4382 Clouds -3 1036 92 10000 0.51 0 08:37 12.01.2022
4383 Clouds -3 1036 94 10000 0.51 0 07:49 12.01.2022
4384 Clouds -3 1036 92 10000 1.03 0 07:31 12.01.2022
4385 Clouds 0 1034 83 10000 1.54 70 23:40 11.01.2022
4386 Clouds 1 1033 82 10000 1.54 100 22:54 11.01.2022
4387 Clouds 2 1033 79 10000 2.06 80 22:22 11.01.2022
4388 Clouds 3 1033 77 10000 2.57 80 20:54 11.01.2022
4389 Clouds 3 1033 78 10000 1.54 90 19:50 11.01.2022
4390 Clouds 3 1032 79 10000 2.06 100 18:31 11.01.2022
4391 Clouds 3 1032 77 10000 4.12 80 17:26 11.01.2022
4392 Clouds 4 1031 76 10000 3.09 80 16:37 11.01.2022
4393 Clouds 4 1031 77 10000 3.6 70 15:46 11.01.2022
4394 Clouds 5 1031 74 10000 4.63 80 14:42 11.01.2022
4395 Clear 5 1033 75 10000 2.72 60 13:56 11.01.2022
4396 Clouds 5 1031 69 10000 5.14 70 13:36 11.01.2022
4397 Clouds 5 1031 83 10000 3.6 60 12:48 11.01.2022
4398 Clouds 4 1032 90 10000 2.06 60 11:45 11.01.2022
4399 Clouds 2 1031 93 8000 0.51 90 09:58 11.01.2022
4400 Clouds 1 1029 93 7000 1.54 360 07:18 11.01.2022
4401 Clouds 1 1028 93 7000 0.51 350 00:43 11.01.2022
4402 Clouds 1 1028 95 7000 0.51 0 00:21 11.01.2022
4403 Clouds 1 1028 95 9000 1.54 320 23:28 10.01.2022
4404 Clouds 1 1027 93 9000 2.06 290 22:19 10.01.2022
4405 Clouds 1 1027 93 8000 0.51 0 21:54 10.01.2022
4406 Clouds 1 1027 93 10000 1.03 0 21:31 10.01.2022
4407 Clouds 1 1026 92 10000 2.06 320 20:58 10.01.2022
4408 Clouds 1 1026 91 10000 1.54 300 20:29 10.01.2022
4409 Clouds 2 1026 92 10000 1.54 320 19:45 10.01.2022
4410 Clouds 2 1025 90 10000 1.54 20 19:22 10.01.2022
4411 Clouds 2 1025 91 10000 1.54 340 18:50 10.01.2022
4412 Clouds 3 1024 91 10000 1.54 340 18:31 10.01.2022
4413 Clouds 4 1023 89 10000 0.51 0 16:42 10.01.2022
4414 Clouds 4 1022 88 10000 0.51 90 15:50 10.01.2022
4415 Clouds 4 1021 87 10000 1.03 0 14:39 10.01.2022
4416 Clouds 4 1019 91 10000 1.54 0 12:31 10.01.2022
4417 Clouds 3 1019 93 10000 2.06 10 11:25 10.01.2022
4418 Clouds 2 1018 94 10000 2.57 350 10:21 10.01.2022
4419 Clouds 2 1016 94 10000 2.06 360 08:57 10.01.2022
4420 Clouds 2 1013 93 10000 1.03 280 05:50 10.01.2022
4421 Clouds 2 1010 93 10000 0.51 0 01:33 10.01.2022
4422 Clouds 2 1009 93 10000 0.51 0 00:36 10.01.2022
4423 Clouds 2 1009 93 10000 1.03 0 23:54 09.01.2022
4424 Clouds 2 1008 92 10000 0.51 0 22:43 09.01.2022
4425 Clouds 2 1008 92 10000 1.54 300 21:47 09.01.2022
4426 Clouds 2 1007 91 10000 1.03 0 21:25 09.01.2022
4427 Clouds 2 1007 92 10000 0.51 0 20:58 09.01.2022
4428 Clouds 2 1007 92 10000 0.51 0 20:39 09.01.2022
4429 Clouds 2 1007 92 10000 1.54 210 20:21 09.01.2022
4430 Clouds 2 1006 93 10000 0.51 0 19:38 09.01.2022
4431 Clouds 2 1006 93 10000 0.51 220 19:18 09.01.2022
4432 Clouds 2 1006 92 10000 2.57 280 18:37 09.01.2022
4433 Clouds 3 1006 93 6000 5.14 290 17:48 09.01.2022
4434 Clouds 3 1005 90 2500 7.72 310 17:29 09.01.2022
4435 Rain 4 1005 86 10000 3.6 220 16:43 09.01.2022
4436 Clouds 4 1004 86 10000 3.09 260 15:42 09.01.2022
4437 Clouds 4 1004 86 10000 3.09 260 15:42 09.01.2022
4438 Clouds 4 1004 86 10000 5.14 230 14:58 09.01.2022
4439 Clouds 4 1004 87 10000 5.66 240 14:24 09.01.2022
4440 Clouds 5 1004 83 10000 6.17 250 13:48 09.01.2022
4441 Clouds 5 1003 83 10000 6.17 270 11:56 09.01.2022
4442 Clouds 4 1003 83 10000 4.63 240 11:28 09.01.2022
4443 Clouds 4 1002 87 10000 6.17 250 09:55 09.01.2022
4444 Clouds 3 1001 90 10000 6.17 240 09:20 09.01.2022
4445 Rain 4 997 90 10000 7.72 250 06:57 09.01.2022
4446 Rain 4 996 87 10000 4.12 180 01:30 09.01.2022
4447 Rain 4 998 82 10000 5.14 180 00:38 09.01.2022
4448 Clouds 4 999 82 10000 3.09 170 23:34 08.01.2022
4449 Clouds 3 1001 83 10000 1.03 0 22:48 08.01.2022
4450 Clear 2 1004 82 10000 2.06 130 21:28 08.01.2022
4451 Clear 2 1005 83 10000 2.57 140 20:44 08.01.2022
4452 Clear 2 1005 83 10000 2.57 140 20:44 08.01.2022
4453 Clouds 2 1006 82 10000 2.57 200 20:22 08.01.2022
4454 Clouds 2 1007 81 10000 2.06 170 19:22 08.01.2022
4455 Clouds 3 1009 77 10000 2.57 190 17:43 08.01.2022
4456 Rain 3 1010 77 10000 2.57 200 16:57 08.01.2022
4457 Clouds 3 1012 77 10000 2.06 200 15:34 08.01.2022
4458 Clouds 4 1014 73 10000 3.6 230 14:33 08.01.2022
4459 Clouds 3 1015 76 10000 3.09 240 12:35 08.01.2022
4460 Clouds 2 1015 89 10000 5.66 260 10:43 08.01.2022
4461 Clouds 2 1015 89 10000 4.12 260 10:23 08.01.2022
4462 Clouds 2 1015 89 10000 4.12 260 10:23 08.01.2022
4463 Clouds 2 1013 91 8000 7.72 280 09:34 08.01.2022
4464 Clouds 2 1009 93 7000 5.66 230 07:18 08.01.2022
4465 Clouds 2 1012 86 10000 1.03 0 01:49 08.01.2022
4466 Clouds 2 1013 85 10000 2.57 230 00:23 08.01.2022
4467 Clouds 2 1015 88 10000 2.57 200 22:21 07.01.2022
4468 Clouds 2 1015 88 10000 3.09 220 20:40 07.01.2022
4469 Clouds 2 1015 87 10000 3.09 210 19:34 07.01.2022
4470 Clouds 2 1015 88 10000 3.09 220 18:50 07.01.2022
4471 Clouds 2 1015 89 10000 2.57 210 18:26 07.01.2022
4472 Clouds 2 1015 88 10000 4.63 240 17:24 07.01.2022
4473 Clouds 2 1015 88 10000 2.57 220 16:22 07.01.2022
4474 Clouds 1 1016 89 10000 2.57 170 13:53 07.01.2022
4475 Clouds 1 1016 90 9000 2.57 180 13:18 07.01.2022
4476 Snow 1 1017 87 6000 3.09 0 12:35 07.01.2022
4477 Clear -1 1019 90 10000 2.57 200 07:31 07.01.2022
4478 Clear -2 1019 93 10000 0.51 0 02:54 07.01.2022
4479 Fog -2 1020 95 10000 1.03 0 01:52 07.01.2022
4480 Clear -2 1020 94 10000 0.51 0 01:27 07.01.2022
4481 Clear -2 1020 94 10000 0 0 00:57 07.01.2022
4482 Clear -1 1021 92 10000 0.51 0 22:46 06.01.2022
4483 Clear -1 1020 92 10000 0.51 0 21:23 06.01.2022
4484 Clear 0 1021 91 10000 1.03 0 20:20 06.01.2022
4485 Clouds 0 1021 91 10000 2.06 260 19:40 06.01.2022
4486 Clouds 2 1020 89 10000 0.51 0 17:53 06.01.2022
4487 Clouds 2 1020 86 10000 1.03 0 17:34 06.01.2022
4488 Clouds 3 1020 84 10000 1.03 130 16:40 06.01.2022
4489 Clouds 3 1019 85 10000 2.57 320 15:45 06.01.2022
4490 Clouds 4 1019 83 10000 3.09 330 15:24 06.01.2022
4491 Clouds 4 1019 80 10000 2.57 300 14:21 06.01.2022
4492 Clouds 4 1019 80 10000 5.14 320 13:47 06.01.2022
4493 Clouds 4 1019 81 10000 4.12 330 12:43 06.01.2022
4494 Clouds 4 1018 88 10000 4.12 280 11:41 06.01.2022
4495 Clouds 3 1018 88 10000 4.12 280 11:21 06.01.2022
4496 Clouds 2 1017 92 10000 3.6 250 08:51 06.01.2022
4497 Clouds 3 1014 86 8000 3.6 250 00:43 06.01.2022
4498 Clouds 3 1013 82 10000 3.6 240 23:36 05.01.2022
4499 Clouds 3 1013 79 10000 4.12 240 22:56 05.01.2022
4500 Clouds 3 1013 79 10000 4.12 240 22:31 05.01.2022
4501 Clouds 3 1013 78 10000 3.6 230 21:47 05.01.2022
4502 Clouds 3 1012 78 10000 3.6 210 20:56 05.01.2022
4503 Clouds 3 1013 78 10000 3.09 230 20:18 05.01.2022
4504 Clouds 2 1012 76 10000 4.12 230 18:42 05.01.2022
4505 Clouds 2 1011 75 10000 5.14 270 17:23 05.01.2022
4506 Clouds 3 1011 73 10000 4.63 290 16:38 05.01.2022
4507 Clouds 3 1010 71 10000 6.17 260 15:26 05.01.2022
4508 Clouds 3 1010 73 10000 6.17 260 13:51 05.01.2022
4509 Clouds 3 1009 74 10000 7.72 270 12:59 05.01.2022
4510 Clouds 2 1008 85 10000 7.2 280 10:32 05.01.2022
4511 Clouds 2 1004 92 10000 6.69 290 07:45 05.01.2022
4512 Clouds 5 1002 90 10000 5.14 220 06:24 05.01.2022
4513 Clouds 5 1001 76 10000 2.57 180 00:58 05.01.2022
4514 Rain 4 1001 93 10000 1.03 0 23:28 04.01.2022
4515 Rain 4 1001 93 10000 1.03 0 23:28 04.01.2022
4516 Rain 4 1001 93 10000 1.54 200 22:46 04.01.2022
4517 Rain 4 1001 92 10000 2.06 290 21:24 04.01.2022
4518 Rain 5 1001 92 10000 3.6 290 19:20 04.01.2022
4519 Clouds 6 1000 92 10000 7.2 320 17:51 04.01.2022
4520 Clouds 7 999 92 10000 6.69 310 16:44 04.01.2022
4521 Drizzle 8 998 93 5000 7.2 320 16:24 04.01.2022
4522 Rain 12 997 90 10000 6.69 230 14:54 04.01.2022
4523 Rain 12 996 90 10000 6.69 230 14:34 04.01.2022
4524 Rain 13 996 87 10000 8.75 240 13:29 04.01.2022
4525 Rain 12 998 88 10000 5.66 230 10:41 04.01.2022
4526 Rain 11 998 93 10000 4.63 200 09:47 04.01.2022
4527 Rain 11 999 92 10000 4.12 210 08:34 04.01.2022
4528 Clouds 11 1006 86 10000 3.6 200 02:52 04.01.2022
4529 Clouds 11 1008 84 10000 3.09 200 00:42 04.01.2022
4530 Clouds 10 1009 84 10000 2.57 200 23:34 03.01.2022
4531 Clouds 10 1011 81 10000 5.14 230 22:21 03.01.2022
4532 Clouds 10 1011 78 10000 5.14 230 21:34 03.01.2022
4533 Clouds 10 1012 76 10000 3.6 220 20:28 03.01.2022
4534 Clear 11 1013 74 10000 3.6 210 18:54 03.01.2022
4535 Clear 11 1014 74 10000 4.12 220 18:28 03.01.2022
4536 Clouds 11 1014 69 10000 4.12 220 17:18 03.01.2022
4537 Clouds 12 1015 72 10000 6.69 240 15:50 03.01.2022
4538 Clouds 12 1016 71 10000 3.6 240 14:31 03.01.2022
4539 Clouds 11 1017 79 10000 5.14 230 12:51 03.01.2022
4540 Clouds 11 1018 82 10000 5.66 240 11:50 03.01.2022
4541 Clouds 10 1018 81 10000 4.63 240 10:37 03.01.2022
4542 Rain 10 1018 82 10000 6.17 240 08:54 03.01.2022
4543 Rain 10 1018 84 10000 5.66 230 07:51 03.01.2022
4544 Clear 12 1017 71 10000 7.72 240 02:28 03.01.2022
4545 Clouds 11 1018 68 10000 2.06 210 23:22 02.01.2022
4546 Clouds 10 1018 74 10000 3.09 210 22:56 02.01.2022
4547 Clouds 9 1018 82 10000 1.03 0 21:52 02.01.2022
4548 Clear 9 1018 82 10000 1.03 0 20:50 02.01.2022
4549 Clear 8 1018 86 10000 2.06 80 20:29 02.01.2022
4550 Clear 9 1018 81 10000 1.54 250 19:31 02.01.2022
4551 Clear 10 1018 79 10000 2.06 240 18:55 02.01.2022
4552 Clear 11 1018 75 10000 3.6 240 17:56 02.01.2022
4553 Clear 11 1018 74 10000 3.6 240 17:38 02.01.2022
4554 Clear 12 1018 71 10000 3.6 240 17:20 02.01.2022
4555 Clear 13 1018 60 10000 3.6 220 16:27 02.01.2022
4556 Clear 13 1018 65 10000 3.6 230 14:41 02.01.2022
4557 Clear 10 1019 78 10000 1.03 0 13:25 02.01.2022
4558 Clear 8 1019 89 10000 1.54 110 12:32 02.01.2022
4559 Clear 8 1020 88 10000 1.54 90 11:49 02.01.2022
4560 Clear 7 1020 91 10000 0.51 0 10:53 02.01.2022
4561 Clear 4 1020 100 10000 1.03 0 09:56 02.01.2022
4562 Fog 3 1020 100 10000 1.03 0 07:34 02.01.2022
4563 Clouds 5 1023 96 10000 1.82 183 02:56 02.01.2022
4564 Fog 5 1024 98 10000 0.51 80 23:42 01.01.2022
4565 Fog 5 1024 97 10000 0.51 0 23:24 01.01.2022
4566 Clear 6 1024 94 10000 0.51 0 22:25 01.01.2022
4567 Clear 6 1024 80 10000 1.03 220 21:46 01.01.2022
4568 Clear 6 1024 78 10000 1.03 0 21:28 01.01.2022
4569 Clear 7 1025 93 10000 1.54 260 20:25 01.01.2022
4570 Clear 7 1025 94 10000 2.06 270 19:34 01.01.2022
4571 Clear 8 1025 91 10000 2.06 300 18:51 01.01.2022
4572 Clouds 9 1026 90 10000 1.24 178 17:38 01.01.2022
4573 Clear 12 1026 82 10000 1.03 0 16:35 01.01.2022
4574 Clear 13 1026 75 10000 2.06 80 15:37 01.01.2022
4575 Clear 13 1026 73 10000 1.54 80 14:39 01.01.2022
4576 Clouds 13 1027 73 10000 1.54 130 13:41 01.01.2022
4577 Clouds 13 1028 74 10000 3.09 140 12:25 01.01.2022
4578 Clouds 11 1028 82 10000 1.03 0 11:26 01.01.2022
4579 Clouds 10 1028 85 10000 1.03 0 10:58 01.01.2022
4580 Clouds 8 1028 75 10000 1.54 190 09:48 01.01.2022
4581 Clouds 8 1028 74 10000 1.03 0 08:39 01.01.2022
4582 Clouds 7 1028 74 10000 0.51 0 07:57 01.01.2022
4583 Clouds 8 1028 74 10000 0.51 0 07:38 01.01.2022
4584 Clouds 8 1027 74 10000 1.03 0 06:44 01.01.2022
4585 Clouds 9 1027 73 10000 1.54 210 05:24 01.01.2022
4586 Clouds 9 1027 75 10000 2.57 280 04:35 01.01.2022
4587 Clouds 9 1027 74 10000 1.03 0 00:23 01.01.2022
4588 Clear 8 1026 76 10000 3.09 270 22:30 31.12.2021
4589 Clear 8 1026 79 10000 2.06 240 21:47 31.12.2021
4590 Clear 9 1024 76 10000 3.09 260 19:48 31.12.2021
4591 Clear 10 1023 71 10000 4.63 250 19:28 31.12.2021
4592 Clear 11 1022 87 10000 1.54 250 18:24 31.12.2021
4593 Clear 11 1022 89 10000 1.54 190 17:37 31.12.2021
4594 Clouds 12 1023 90 10000 1.56 206 16:56 31.12.2021
4595 Clouds 13 1022 81 10000 2.57 270 16:18 31.12.2021
4596 Clouds 13 1023 84 10000 1.17 217 15:50 31.12.2021
4597 Clouds 14 1022 81 10000 1.03 0 15:28 31.12.2021
4598 Clouds 14 1022 79 10000 2.57 260 14:41 31.12.2021
4599 Clear 14 1022 79 10000 2.06 210 13:58 31.12.2021
4600 Clear 14 1022 80 10000 2.57 220 13:23 31.12.2021
4601 Clouds 13 1023 86 10000 2.06 190 12:33 31.12.2021
4602 Clouds 12 1023 85 10000 3.09 190 11:42 31.12.2021
4603 Clear 11 1023 86 10000 2.57 170 11:19 31.12.2021
4604 Clear 9 1024 78 10000 0.51 0 10:30 31.12.2021
4605 Fog 8 1023 80 10000 1.03 90 09:35 31.12.2021
4606 Clear 7 1023 75 10000 0.51 0 08:56 31.12.2021
4607 Clear 7 1023 77 10000 0.51 0 08:25 31.12.2021
4608 Clouds 8 1023 77 10000 1.54 260 07:30 31.12.2021
4609 Clouds 13 1024 86 10000 2.57 220 23:23 30.12.2021
4610 Clouds 13 1024 88 10000 3.6 200 22:33 30.12.2021
4611 Clouds 13 1023 88 10000 2.57 220 21:51 30.12.2021
4612 Clouds 13 1023 88 10000 2.57 220 21:33 30.12.2021
4613 Clouds 13 1023 89 10000 2.57 240 20:44 30.12.2021
4614 Clouds 13 1023 89 10000 2.57 240 20:24 30.12.2021
4615 Clouds 13 1023 89 10000 1.54 210 19:44 30.12.2021
4616 Clouds 14 1022 73 10000 3.09 240 18:29 30.12.2021
4617 Clouds 14 1022 87 10000 2.06 220 17:52 30.12.2021
4618 Clouds 15 1021 88 10000 3.6 230 16:19 30.12.2021
4619 Clouds 15 1021 86 10000 5.14 240 15:42 30.12.2021
4620 Clouds 15 1021 86 10000 4.63 230 14:38 30.12.2021
4621 Clouds 16 1021 86 10000 3.09 230 13:49 30.12.2021
4622 Clouds 15 1021 89 10000 2.06 220 12:40 30.12.2021
4623 Clouds 14 1020 90 10000 3.09 230 10:58 30.12.2021
4624 Clouds 13 1020 77 10000 4.63 230 09:59 30.12.2021
4625 Clouds 12 1020 77 10000 3.6 230 08:58 30.12.2021
4626 Clouds 12 1018 76 10000 1.54 210 06:52 30.12.2021
4627 Clouds 12 1017 92 10000 1.54 240 03:43 30.12.2021
4628 Clouds 12 1016 93 10000 2.06 250 03:23 30.12.2021
4629 Clouds 12 1013 74 10000 1.54 220 23:57 29.12.2021
4630 Clouds 11 1013 69 10000 3.09 220 23:23 29.12.2021
4631 Clouds 11 1012 76 10000 4.12 220 22:22 29.12.2021
4632 Clouds 9 1012 71 10000 4.63 230 21:45 29.12.2021
4633 Clouds 9 1011 76 10000 2.57 230 20:40 29.12.2021
4634 Clouds 9 1011 95 9000 2.57 200 19:54 29.12.2021
4635 Clouds 9 1011 93 5000 2.06 200 19:25 29.12.2021
4636 Rain 9 1011 94 10000 2.57 190 18:19 29.12.2021
4637 Rain 9 1011 91 10000 2.57 210 17:29 29.12.2021
4638 Clouds 10 1011 90 10000 2.06 210 16:49 29.12.2021
4639 Clouds 10 1011 87 10000 2.57 210 16:19 29.12.2021
4640 Clouds 10 1011 86 10000 3.09 220 14:46 29.12.2021
4641 Clouds 10 1011 88 10000 3.09 210 12:49 29.12.2021
4642 Clouds 10 1011 88 10000 2.57 210 12:27 29.12.2021
4643 Clouds 9 1011 90 10000 1.54 190 10:38 29.12.2021
4644 Clouds 8 1009 92 10000 2.06 220 08:37 29.12.2021
4645 Clouds 8 1008 91 10000 3.09 250 06:49 29.12.2021
4646 Clouds 9 1008 89 10000 2.06 220 06:28 29.12.2021
4647 Clouds 9 1007 87 10000 2.06 200 05:50 29.12.2021
4648 Clouds 9 1006 86 10000 6.17 240 03:46 29.12.2021
4649 Clouds 9 1002 86 10000 6.69 230 00:28 29.12.2021
4650 Clouds 9 1002 87 10000 5.14 220 23:56 28.12.2021
4651 Clouds 8 1001 90 10000 4.63 200 22:56 28.12.2021
4652 Clouds 8 1001 90 10000 3.09 200 22:24 28.12.2021
4653 Rain 7 1001 91 10000 2.57 200 21:54 28.12.2021
4654 Rain 7 1001 92 10000 2.57 180 21:28 28.12.2021
4655 Clouds 7 1002 88 10000 3.09 210 19:52 28.12.2021
4656 Clouds 8 1001 84 10000 7.72 240 18:53 28.12.2021
4657 Clouds 7 1002 86 10000 10.8 280 18:25 28.12.2021
4658 Rain 9 1000 88 9000 11.83 280 17:29 28.12.2021
4659 Rain 11 997 88 10000 2.57 220 15:53 28.12.2021
4660 Clouds 11 998 86 10000 5.14 220 15:29 28.12.2021
4661 Clouds 11 998 88 10000 4.12 220 14:55 28.12.2021
4662 Clouds 11 998 89 10000 2.57 220 14:37 28.12.2021
4663 Clouds 11 998 90 10000 2.57 220 14:18 28.12.2021
4664 Clouds 12 999 89 10000 4.12 200 13:37 28.12.2021
4665 Clouds 11 999 89 10000 3.6 210 12:56 28.12.2021
4666 Clouds 11 999 89 10000 3.6 220 12:21 28.12.2021
4667 Clouds 10 999 88 10000 4.12 200 10:47 28.12.2021
4668 Clouds 7 999 75 10000 3.6 180 07:39 28.12.2021
4669 Clouds 6 1001 75 10000 1.03 0 03:37 28.12.2021
4670 Clouds 8 1003 91 10000 1.54 180 23:41 27.12.2021
4671 Clouds 8 1002 73 10000 3.6 200 22:27 27.12.2021
4672 Clouds 8 1002 73 10000 1.54 190 21:31 27.12.2021
4673 Clouds 8 1002 74 10000 2.57 180 20:39 27.12.2021
4674 Rain 8 1003 75 10000 2.57 190 19:55 27.12.2021
4675 Rain 8 1002 76 10000 2.06 200 19:37 27.12.2021
4676 Rain 8 1002 76 10000 1.03 0 17:55 27.12.2021
4677 Rain 8 1002 74 10000 1.03 0 17:55 27.12.2021
4678 Rain 8 1002 74 10000 1.03 150 17:29 27.12.2021
4679 Clouds 9 1002 88 10000 2.06 180 16:27 27.12.2021
4680 Clouds 9 1002 86 10000 1.03 0 15:49 27.12.2021
4681 Clouds 10 1002 84 10000 1.54 190 14:26 27.12.2021
4682 Clouds 10 1002 87 10000 1.54 140 13:32 27.12.2021
4683 Clouds 8 1003 71 10000 0.51 0 11:34 27.12.2021
4684 Clear 7 1003 79 10000 0.51 0 10:27 27.12.2021
4685 Fog 5 1003 78 10000 0.51 0 09:38 27.12.2021
4686 Clouds 6 1004 77 10000 0.51 70 07:35 27.12.2021
4687 Clouds 6 1004 79 10000 0.51 80 06:30 27.12.2021
4688 Clouds 6 1005 77 10000 1.54 260 01:59 27.12.2021
4689 Fog 6 1005 78 3500 0.51 50 23:52 26.12.2021
4690 Fog 6 1005 77 4000 0.51 0 23:34 26.12.2021
4691 Fog 6 1005 79 5000 0.51 70 21:48 26.12.2021
4692 Clouds 6 1005 78 10000 1.54 70 20:42 26.12.2021
4693 Rain 6 1006 78 10000 1.54 80 19:31 26.12.2021
4694 Rain 6 1006 76 10000 0.51 0 18:23 26.12.2021
4695 Clouds 7 1006 92 10000 1.54 90 15:56 26.12.2021
4696 Clouds 7 1006 91 10000 1.54 70 14:27 26.12.2021
4697 Clouds 7 1006 92 10000 2.06 90 13:40 26.12.2021
4698 Clouds 7 1006 92 10000 1.54 110 13:18 26.12.2021
4699 Clouds 6 1006 93 6000 1.03 0 12:27 26.12.2021
4700 Drizzle 5 1007 75 6000 1.54 90 10:22 26.12.2021
4701 Mist 4 1006 77 4700 0.51 0 09:19 26.12.2021
4702 Mist 4 1006 77 4500 0 0 08:43 26.12.2021
4703 Mist 4 1006 77 4500 0.51 0 07:34 26.12.2021
4704 Drizzle 4 1006 77 3200 1.54 350 01:24 26.12.2021
4705 Drizzle 4 1006 77 2200 1.54 350 23:54 25.12.2021
4706 Drizzle 4 1006 77 1800 1.54 330 23:27 25.12.2021
4707 Drizzle 4 1006 77 1300 2.57 350 22:26 25.12.2021
4708 Drizzle 5 1006 75 2300 2.06 350 20:57 25.12.2021
4709 Fog 6 1005 76 500 3.09 360 19:26 25.12.2021
4710 Clouds 6 1005 77 4000 2.57 20 18:55 25.12.2021
4711 Clouds 7 1005 76 10000 1.03 0 17:37 25.12.2021
4712 Clouds 7 1005 75 10000 2.57 340 16:36 25.12.2021
4713 Clouds 8 1004 91 10000 1.03 0 15:18 25.12.2021
4714 Clouds 9 1004 90 10000 2.06 250 13:31 25.12.2021
4715 Clouds 9 1005 76 10000 1.54 230 11:51 25.12.2021
4716 Rain 8 1004 78 10000 2.57 250 09:57 25.12.2021
4717 Clouds 8 1004 77 10000 2.57 250 09:37 25.12.2021
4718 Rain 7 1004 76 10000 1.54 210 04:34 25.12.2021
4719 Rain 8 1005 76 10000 2.06 270 01:25 25.12.2021
4720 Clouds 8 1005 91 10000 2.57 240 23:47 24.12.2021
4721 Clouds 7 1005 91 10000 3.6 230 19:50 24.12.2021
4722 Clouds 8 1005 91 10000 2.06 230 19:24 24.12.2021
4723 Clouds 8 1006 91 10000 1.54 210 16:59 24.12.2021
4724 Clouds 9 1006 91 10000 2.06 220 16:23 24.12.2021
4725 Clouds 9 1006 91 10000 2.06 190 15:48 24.12.2021
4726 Rain 9 1006 91 10000 2.06 210 15:20 24.12.2021
4727 Clouds 9 1007 91 10000 3.09 210 14:31 24.12.2021
4728 Clouds 8 1007 91 10000 3.09 220 13:44 24.12.2021
4729 Rain 8 1007 91 10000 3.09 220 12:49 24.12.2021
4730 Rain 8 1007 91 10000 3.09 220 12:23 24.12.2021
4731 Rain 9 1008 88 10000 4.12 230 11:42 24.12.2021
4732 Rain 9 1008 88 10000 3.09 220 11:19 24.12.2021
4733 Rain 9 1008 83 10000 4.12 230 10:33 24.12.2021
4734 Clouds 8 1008 84 10000 5.14 240 08:38 24.12.2021
4735 Clouds 8 1008 84 10000 3.6 230 07:58 24.12.2021
4736 Clouds 7 1008 85 10000 2.57 210 06:44 24.12.2021
4737 Clear 7 1011 81 10000 3.6 230 00:21 24.12.2021
4738 Clear 6 1011 85 10000 4.63 250 23:39 23.12.2021
4739 Clear 6 1011 85 10000 4.63 230 22:50 23.12.2021
4740 Clear 6 1011 86 10000 3.6 220 22:22 23.12.2021
4741 Clear 6 1011 84 10000 2.57 220 21:39 23.12.2021
4742 Clear 6 1011 80 10000 2.06 280 20:27 23.12.2021
4743 Clear 5 1011 79 10000 1.03 0 19:28 23.12.2021
4744 Clouds 5 1012 80 10000 1.54 200 18:18 23.12.2021
4745 Clouds 5 1012 78 10000 2.06 230 17:45 23.12.2021
4746 Clouds 4 1012 78 10000 3.09 200 16:27 23.12.2021
4747 Clouds 4 1013 77 10000 1.03 0 15:40 23.12.2021
4748 Clouds 4 1013 77 10000 1.03 0 15:22 23.12.2021
4749 Clear 4 1013 79 10000 1.03 0 14:40 23.12.2021
4750 Rain 3 1014 80 10000 2.06 70 13:31 23.12.2021
4751 Clear 1 1015 85 10000 1.54 100 11:52 23.12.2021
4752 Clear -2 1016 86 10000 1.54 140 09:53 23.12.2021
4753 Clear -2 1016 80 10000 1.54 120 09:34 23.12.2021
4754 Clear -3 1016 83 10000 1.54 120 08:38 23.12.2021
4755 Clear -3 1017 93 10000 1.03 0 05:43 23.12.2021
4756 Clear -4 1019 92 10000 1.54 120 02:56 23.12.2021
4757 Clear -3 1020 87 10000 0 0 22:53 22.12.2021
4758 Clear -3 1021 89 10000 0.51 100 22:22 22.12.2021
4759 Clear -4 1021 89 10000 0.51 0 21:37 22.12.2021
4760 Clear -3 1021 89 10000 1.54 100 21:19 22.12.2021
4761 Clear -3 1022 91 10000 0.51 80 20:40 22.12.2021
4762 Clear -3 1022 90 10000 1.03 110 19:57 22.12.2021
4763 Clear -2 1022 89 10000 2.06 90 18:56 22.12.2021
4764 Clear -2 1022 86 10000 1.54 90 17:38 22.12.2021
4765 Clear 0 1022 81 10000 1.54 140 16:32 22.12.2021
4766 Clear 1 1023 74 10000 1.03 0 15:21 22.12.2021
4767 Clear 0 1024 77 10000 1.54 150 12:59 22.12.2021
4768 Clear -1 1025 81 10000 2.06 180 11:50 22.12.2021
4769 Clear -4 1025 92 10000 0.51 0 09:53 22.12.2021
4770 Clear -5 1025 93 10000 0 0 08:58 22.12.2021
4771 Clear -5 1025 93 10000 0.51 0 07:21 22.12.2021
4772 Clear -5 1025 93 10000 0.51 100 05:39 22.12.2021
4773 Clear -5 1025 93 10000 0.51 100 05:20 22.12.2021
4774 Clear -4 1025 93 10000 0.51 100 04:42 22.12.2021
4775 Clear -5 1025 92 10000 0 0 03:56 22.12.2021
4776 Clear -5 1025 87 10000 0.51 0 03:31 22.12.2021
4777 Clear -3 1024 89 10000 0.51 0 23:57 21.12.2021
4778 Clear -3 1024 89 10000 1.03 290 22:44 21.12.2021
4779 Clear -3 1024 91 10000 0.51 360 22:24 21.12.2021
4780 Clear -2 1024 89 10000 1.03 0 21:42 21.12.2021
4781 Clear -2 1024 88 10000 0.51 0 20:44 21.12.2021
4782 Clear -2 1023 90 10000 1.03 170 20:20 21.12.2021
4783 Clear -2 1023 89 10000 1.03 170 20:20 21.12.2021
4784 Clouds -2 1023 90 10000 1.03 150 19:41 21.12.2021
4785 Clear -1 1023 86 10000 3.09 50 18:36 21.12.2021
4786 Clear 0 1022 85 10000 2.06 50 17:59 21.12.2021
4787 Clear 0 1022 85 10000 2.06 50 17:40 21.12.2021
4788 Clouds 2 1022 74 10000 2.06 360 15:46 21.12.2021
4789 Clouds 3 1022 73 10000 3.6 80 14:59 21.12.2021
4790 Clear 3 1022 75 10000 2.06 70 13:47 21.12.2021
4791 Clear 2 1022 78 10000 1.03 0 13:29 21.12.2021
4792 Clear 0 1023 88 10000 0.51 0 10:55 21.12.2021
4793 Clear -3 1023 91 10000 0 0 09:57 21.12.2021
4794 Clear -3 1023 87 10000 0.51 150 09:18 21.12.2021
4795 Clear -3 1023 93 10000 0 0 07:54 21.12.2021
4796 Clear -3 1023 93 10000 0.51 0 07:25 21.12.2021
4797 Clear -3 1023 86 10000 0.51 0 04:56 21.12.2021
4798 Clear -2 1023 92 10000 0.51 0 02:39 21.12.2021
4799 Clear -2 1024 94 10000 0.51 190 23:58 20.12.2021
4800 Clear -2 1025 92 10000 0.51 360 22:49 20.12.2021
4801 Clear -1 1025 92 10000 0.51 0 22:28 20.12.2021
4802 Clear -1 1025 90 10000 1.54 20 21:43 20.12.2021
4803 Clear -1 1025 92 10000 1.54 70 21:23 20.12.2021
4804 Clear -1 1025 89 10000 0.51 0 20:42 20.12.2021
4805 Clear 0 1025 86 10000 0.51 70 19:48 20.12.2021
4806 Clear 0 1025 88 10000 1.03 60 19:29 20.12.2021
4807 Clear 0 1025 85 10000 1.03 360 18:53 20.12.2021
4808 Clouds 2 1025 86 10000 1.54 340 17:52 20.12.2021
4809 Clouds 2 1025 85 10000 1.03 50 17:23 20.12.2021
4810 Clouds 3 1025 83 10000 2.57 60 16:38 20.12.2021
4811 Clouds 5 1025 82 10000 1.54 40 15:48 20.12.2021
4812 Clouds 5 1024 82 10000 2.57 40 14:42 20.12.2021
4813 Clouds 5 1025 88 10000 2.57 50 12:51 20.12.2021
4814 Clouds 4 1025 93 7000 1.03 80 11:19 20.12.2021
4815 Clouds 3 1025 93 6000 0.51 0 09:47 20.12.2021
4816 Clouds 3 1025 94 6000 0.51 0 08:58 20.12.2021
4817 Clouds 2 1025 94 6000 0.51 0 08:40 20.12.2021
4818 Clouds 3 1024 95 9000 1.03 0 07:49 20.12.2021
4819 Clouds 2 1024 94 9000 0.51 160 07:25 20.12.2021
4820 Clouds 3 1024 92 8000 1.03 210 03:43 20.12.2021
4821 Clouds 3 1026 92 7000 1.03 0 23:58 19.12.2021
4822 Drizzle 2 1026 92 5000 1.54 260 22:45 19.12.2021
4823 Drizzle 2 1026 94 6000 2.06 240 21:50 19.12.2021
4824 Drizzle 2 1026 94 7000 2.57 240 21:29 19.12.2021
4825 Drizzle 2 1026 92 4500 2.57 230 20:30 19.12.2021
4826 Drizzle 2 1026 92 4500 1.54 240 19:46 19.12.2021
4827 Drizzle 2 1026 92 5000 2.57 300 18:58 19.12.2021
4828 Clouds 2 1026 92 7000 3.09 350 18:29 19.12.2021
4829 Clouds 2 1026 92 7000 1.54 200 17:51 19.12.2021
4830 Clouds 2 1026 92 7000 1.03 0 17:18 19.12.2021
4831 Clouds 2 1026 93 9000 1.03 0 16:25 19.12.2021
4832 Mist 2 1027 93 4700 2.06 230 15:31 19.12.2021
4833 Mist 2 1027 94 4500 1.54 210 14:59 19.12.2021
4834 Mist 2 1028 94 4500 2.06 210 14:36 19.12.2021
4835 Clouds 2 1029 94 6000 1.54 200 13:22 19.12.2021
4836 Clouds 2 1029 93 10000 1.54 230 12:33 19.12.2021
4837 Clouds 2 1030 95 10000 1.54 230 11:44 19.12.2021
4838 Mist 2 1031 94 3400 1.54 230 10:59 19.12.2021
4839 Mist 2 1031 94 2800 2.06 200 10:25 19.12.2021
4840 Mist 1 1031 94 2800 1.03 0 09:37 19.12.2021
4841 Mist 1 1031 94 2000 2.06 240 07:50 19.12.2021
4842 Mist 2 1032 94 1500 1.54 180 04:45 19.12.2021
4843 Clouds 2 1034 94 6000 0.51 0 01:19 19.12.2021
4844 Clouds 2 1034 93 7000 0.51 0 00:52 19.12.2021
4845 Clouds 2 1034 92 10000 0.51 0 22:36 18.12.2021
4846 Clouds 2 1034 92 10000 1.54 150 21:57 18.12.2021
4847 Clouds 2 1034 92 10000 1.54 150 21:35 18.12.2021
4848 Clouds 3 1035 92 10000 2.06 30 20:44 18.12.2021
4849 Clouds 3 1034 90 10000 1.54 30 19:59 18.12.2021
4850 Clouds 3 1034 90 10000 2.06 50 19:20 18.12.2021
4851 Clouds 3 1035 90 10000 2.57 40 18:21 18.12.2021
4852 Clouds 3 1035 90 10000 2.06 40 17:48 18.12.2021
4853 Clouds 3 1035 89 10000 2.06 360 16:26 18.12.2021
4854 Clouds 3 1035 89 10000 2.06 360 16:26 18.12.2021
4855 Clouds 4 1035 87 10000 2.57 30 15:27 18.12.2021
4856 Clouds 4 1035 84 10000 2.06 100 14:38 18.12.2021
4857 Clouds 4 1036 87 10000 2.57 110 13:21 18.12.2021
4858 Clouds 3 1037 88 10000 2.57 80 11:22 18.12.2021
4859 Clouds 3 1037 91 10000 0.51 0 09:40 18.12.2021
4860 Clouds 2 1037 91 9000 1.03 0 08:47 18.12.2021
4861 Clouds 2 1037 92 7000 1.54 70 08:23 18.12.2021
4862 Clouds 3 1037 90 10000 2.57 70 03:58 18.12.2021
4863 Clouds 3 1037 89 10000 2.06 70 00:29 18.12.2021
4864 Clouds 4 1037 89 10000 1.54 80 23:46 17.12.2021
4865 Clouds 4 1037 89 10000 2.06 20 21:58 17.12.2021
4866 Clouds 4 1037 89 10000 1.54 360 21:19 17.12.2021
4867 Clouds 4 1037 89 10000 2.57 360 20:40 17.12.2021
4868 Clear 4 1039 90 10000 0.59 48 19:28 17.12.2021
4869 Clouds 5 1037 89 10000 1.54 20 18:39 17.12.2021
4870 Clouds 5 1037 87 10000 3.6 360 17:33 17.12.2021
4871 Clouds 6 1037 87 10000 4.63 10 16:49 17.12.2021
4872 Clouds 7 1037 85 10000 3.6 10 16:22 17.12.2021
4873 Clouds 7 1036 80 10000 2.57 360 15:25 17.12.2021
4874 Clouds 7 1036 79 10000 3.6 360 14:40 17.12.2021
4875 Clouds 8 1037 78 10000 2.57 360 13:21 17.12.2021
4876 Clouds 7 1037 81 10000 1.54 60 12:21 17.12.2021
4877 Clouds 5 1037 70 10000 2.06 90 10:38 17.12.2021
4878 Clouds 4 1037 90 10000 3.09 50 09:34 17.12.2021
4879 Clouds 4 1036 93 10000 2.06 60 08:31 17.12.2021
4880 Clouds 4 1036 93 10000 1.03 0 07:18 17.12.2021
4881 Clouds 4 1037 93 10000 0.51 0 04:39 17.12.2021
4882 Clouds 2 1037 95 10000 0.51 0 23:47 16.12.2021
4883 Clear 2 1037 94 10000 1.54 320 22:24 16.12.2021
4884 Clear 2 1037 94 10000 1.54 300 21:51 16.12.2021
4885 Clear 2 1037 92 10000 1.03 270 21:30 16.12.2021
4886 Clear 3 1037 94 10000 2.06 310 20:31 16.12.2021
4887 Clouds 4 1037 91 10000 1.54 300 19:49 16.12.2021
4888 Clouds 4 1037 91 10000 1.03 230 18:41 16.12.2021
4889 Clouds 4 1037 92 10000 1.54 90 17:57 16.12.2021
4890 Clouds 5 1037 91 10000 1.03 0 17:31 16.12.2021
4891 Clouds 6 1037 88 10000 0.51 80 16:23 16.12.2021
4892 Clouds 6 1036 88 10000 1.03 0 14:54 16.12.2021
4893 Clouds 6 1036 89 10000 0.51 0 13:43 16.12.2021
4894 Clouds 5 1037 92 8000 1.54 130 11:46 16.12.2021
4895 Clouds 5 1036 92 9000 1.54 140 11:18 16.12.2021
4896 Clouds 5 1036 93 10000 1.03 0 10:32 16.12.2021
4897 Clouds 4 1035 93 8000 2.06 260 08:56 16.12.2021
4898 Clouds 4 1034 93 8000 2.06 180 06:23 16.12.2021
4899 Mist 4 1034 93 3900 1.03 0 02:59 16.12.2021
4900 Clouds 5 1034 91 10000 1.54 360 23:36 15.12.2021
4901 Clouds 5 1034 91 10000 1.03 0 22:49 15.12.2021
4902 Clouds 5 1034 91 10000 2.06 80 22:19 15.12.2021
4903 Clouds 5 1034 90 10000 2.57 70 21:31 15.12.2021
4904 Clouds 5 1033 91 10000 2.06 50 20:32 15.12.2021
4905 Clouds 5 1033 91 10000 1.54 90 19:53 15.12.2021
4906 Clouds 5 1032 90 10000 1.54 50 18:40 15.12.2021
4907 Clouds 5 1032 88 10000 1.03 0 18:18 15.12.2021
4908 Clouds 5 1032 88 10000 1.03 0 17:40 15.12.2021
4909 Clouds 6 1032 88 10000 1.03 0 16:57 15.12.2021
4910 Clouds 6 1031 89 10000 1.54 130 15:47 15.12.2021
4911 Clouds 6 1031 89 10000 1.03 0 15:29 15.12.2021
4912 Clouds 6 1031 87 10000 1.03 0 14:44 15.12.2021
4913 Clouds 6 1032 87 10000 1.54 160 13:27 15.12.2021
4914 Clouds 6 1032 90 10000 2.06 170 11:40 15.12.2021
4915 Clouds 5 1032 89 10000 2.06 130 09:38 15.12.2021
4916 Clouds 5 1031 94 10000 1.54 90 07:55 15.12.2021
4917 Mist 6 1030 93 3000 0.51 90 04:22 15.12.2021
4918 Mist 6 1030 93 5000 0.51 80 23:53 14.12.2021
4919 Mist 6 1030 93 5000 0.51 0 23:21 14.12.2021
4920 Clouds 6 1030 92 7000 0.51 0 22:42 14.12.2021
4921 Clouds 6 1029 92 10000 1.03 0 21:38 14.12.2021
4922 Clouds 6 1029 92 10000 0.51 0 20:20 14.12.2021
4923 Clouds 6 1029 92 10000 0.51 0 19:21 14.12.2021
4924 Clouds 6 1029 92 10000 3.09 340 18:38 14.12.2021
4925 Clouds 6 1029 92 10000 4.12 330 17:53 14.12.2021
4926 Clouds 6 1028 91 10000 4.12 340 16:43 14.12.2021
4927 Clouds 6 1027 91 10000 1.54 40 16:18 14.12.2021
4928 Clouds 7 1027 90 10000 1.03 0 13:58 14.12.2021
4929 Clouds 6 1027 92 10000 1.03 0 12:48 14.12.2021
4930 Fog 5 1027 92 9000 1.03 0 11:25 14.12.2021
4931 Fog 5 1027 94 9000 1.54 100 10:59 14.12.2021
4932 Fog 4 1027 93 3500 2.06 160 09:54 14.12.2021
4933 Fog 4 1027 92 500 3.6 150 08:49 14.12.2021
4934 Fog 4 1027 94 3000 1.54 170 08:21 14.12.2021
4935 Fog 4 1027 94 900 1.54 0 07:23 14.12.2021
4936 Clouds 6 1028 91 8000 2.57 150 23:52 13.12.2021
4937 Clouds 6 1028 94 10000 2.06 140 22:26 13.12.2021
4938 Clouds 6 1028 87 10000 1.03 190 21:39 13.12.2021
4939 Clouds 6 1028 87 10000 2.06 170 20:54 13.12.2021
4940 Clouds 7 1028 90 10000 3.6 160 20:22 13.12.2021
4941 Clouds 7 1028 91 10000 3.6 170 19:49 13.12.2021
4942 Clouds 7 1028 91 10000 3.6 170 19:49 13.12.2021
4943 Clouds 8 1028 92 10000 2.06 80 17:28 13.12.2021
4944 Clouds 8 1028 93 10000 1.03 100 16:43 13.12.2021
4945 Clouds 8 1028 93 10000 1.03 50 15:43 13.12.2021
4946 Clouds 8 1028 91 10000 1.03 0 14:43 13.12.2021
4947 Clouds 8 1028 93 7000 0.51 0 13:37 13.12.2021
4948 Mist 8 1028 92 1700 0.51 0 12:40 13.12.2021
4949 Mist 7 1029 94 1400 0.51 0 11:53 13.12.2021
4950 Mist 7 1029 92 2000 0.51 0 11:34 13.12.2021
4951 Mist 6 1029 94 1300 0.51 0 10:37 13.12.2021
4952 Fog 5 1028 95 2000 0.51 90 08:44 13.12.2021
4953 Fog 5 1028 95 6000 1.54 70 06:55 13.12.2021
4954 Drizzle 5 1027 94 8000 0.51 0 05:19 13.12.2021
4955 Clouds 5 1027 90 10000 0.51 0 00:27 13.12.2021
4956 Clouds 6 1027 82 10000 2.06 230 21:59 12.12.2021
4957 Clouds 6 1027 81 10000 1.03 0 21:29 12.12.2021
4958 Clouds 6 1027 78 10000 1.54 200 19:36 12.12.2021
4959 Clouds 6 1027 77 10000 2.06 240 18:23 12.12.2021
4960 Clouds 6 1026 75 10000 2.06 210 16:47 12.12.2021
4961 Clouds 6 1026 75 10000 2.06 230 16:22 12.12.2021
4962 Clouds 6 1026 70 10000 4.12 230 15:28 12.12.2021
4963 Clouds 6 1026 69 10000 3.09 230 14:54 12.12.2021
4964 Clouds 6 1026 68 10000 2.57 210 14:22 12.12.2021
4965 Clear 5 1027 78 10000 2.57 230 12:51 12.12.2021
4966 Clear 5 1027 79 10000 2.06 200 12:23 12.12.2021
4967 Clear 4 1027 82 10000 2.57 210 11:43 12.12.2021
4968 Clear 3 1027 84 10000 0.51 200 10:45 12.12.2021
4969 Clear 2 1027 84 10000 0.51 0 10:21 12.12.2021
4970 Clear 0 1027 90 10000 1.54 220 08:50 12.12.2021
4971 Clouds 1 1026 89 10000 1.54 250 07:31 12.12.2021
4972 Clouds 2 1026 84 10000 1.03 0 05:56 12.12.2021
4973 Clouds 2 1026 83 10000 1.03 0 04:55 12.12.2021
4974 Clouds 3 1025 87 10000 2.06 270 02:56 12.12.2021
4975 Clouds 3 1024 87 10000 1.03 0 23:30 11.12.2021
4976 Clouds 3 1023 88 10000 0.51 230 22:21 11.12.2021
4977 Clouds 3 1023 88 10000 1.03 0 21:50 11.12.2021
4978 Clouds 3 1022 87 10000 2.06 230 20:21 11.12.2021
4979 Clouds 3 1021 86 10000 2.06 220 19:21 11.12.2021
4980 Clouds 3 1021 84 10000 1.54 210 18:50 11.12.2021
4981 Clouds 3 1020 86 10000 2.57 260 17:56 11.12.2021
4982 Clouds 3 1019 85 10000 1.54 220 16:40 11.12.2021
4983 Clouds 4 1019 83 10000 2.57 240 15:47 11.12.2021
4984 Clouds 4 1017 82 10000 2.57 250 14:54 11.12.2021
4985 Clouds 3 1016 87 10000 6.17 280 12:42 11.12.2021
4986 Clouds 3 1015 90 10000 4.12 270 11:24 11.12.2021
4987 Clouds 2 1013 92 10000 5.14 290 09:45 11.12.2021
4988 Clouds 2 1013 92 10000 5.14 290 09:45 11.12.2021
4989 Clouds 2 1013 92 10000 5.14 290 09:45 11.12.2021
4990 Clouds 2 1013 92 10000 5.14 290 09:45 11.12.2021
4991 Clouds 2 1009 92 7000 3.09 280 07:32 11.12.2021
4992 Clouds 3 1002 92 10000 4.12 220 00:51 11.12.2021
4993 Clouds 4 1001 90 10000 4.12 220 23:49 10.12.2021
4994 Clouds 4 1000 90 10000 5.14 230 23:18 10.12.2021
4995 Clouds 4 999 89 10000 3.6 220 21:52 10.12.2021
4996 Clouds 4 998 89 10000 3.6 210 20:57 10.12.2021
4997 Clouds 3 996 91 10000 3.09 210 19:21 10.12.2021
4998 Clouds 2 994 90 10000 3.09 210 17:59 10.12.2021
4999 Clouds 2 994 90 10000 2.57 200 16:56 10.12.2021
5000 Rain 2 993 93 10000 1.54 140 16:19 10.12.2021
5001 Snow 2 993 93 10000 1.03 160 15:39 10.12.2021
5002 Snow 1 993 93 10000 1.03 0 15:20 10.12.2021
5003 Snow 2 993 90 5000 2.06 130 13:51 10.12.2021
5004 Snow 3 993 81 5000 5.14 180 13:26 10.12.2021
5005 Clouds 3 993 79 10000 2.06 170 12:35 10.12.2021
5006 Clouds 2 994 84 10000 1.54 180 11:28 10.12.2021
5007 Clear 1 995 87 10000 0.51 0 10:26 10.12.2021
5008 Clear 0 995 92 10000 2.06 80 08:52 10.12.2021
5009 Clear 0 998 90 10000 1.03 110 06:22 10.12.2021
5010 Clear 1 1002 87 10000 1.54 200 02:48 10.12.2021
5011 Clouds 3 1004 87 10000 2.57 190 00:32 10.12.2021
5012 Clouds 3 1006 87 10000 3.09 220 23:22 09.12.2021
5013 Clouds 3 1006 88 10000 3.6 230 22:26 09.12.2021
5014 Clouds 3 1006 88 10000 3.6 220 21:59 09.12.2021
5015 Rain 3 1006 88 10000 4.12 220 21:18 09.12.2021
5016 Clouds 3 1007 89 10000 2.57 210 20:28 09.12.2021
5017 Clouds 3 1007 88 10000 3.09 220 19:21 09.12.2021
5018 Clouds 3 1007 87 10000 3.09 230 18:48 09.12.2021
5019 Clouds 3 1007 87 10000 2.57 200 17:56 09.12.2021
5020 Clouds 3 1007 90 10000 2.06 210 17:27 09.12.2021
5021 Clouds 3 1007 89 10000 2.57 220 16:56 09.12.2021
5022 Clouds 4 1008 90 10000 2.35 233 15:57 09.12.2021
5023 Clouds 4 1006 89 10000 3.09 220 14:50 09.12.2021
5024 Clouds 5 1006 88 10000 3.6 240 13:39 09.12.2021
5025 Clouds 4 1007 89 10000 4.12 240 12:47 09.12.2021
5026 Clouds 4 1007 91 10000 3.09 240 11:24 09.12.2021
5027 Clouds 3 1006 92 10000 3.09 230 09:45 09.12.2021
5028 Clouds 3 1005 94 10000 3.09 250 06:51 09.12.2021
5029 Clouds 3 1003 76 10000 1.03 210 03:46 09.12.2021
5030 Clouds 3 1002 93 10000 2.06 240 23:50 08.12.2021
5031 Clouds 3 1002 93 10000 1.54 250 23:31 08.12.2021
5032 Clouds 3 1002 92 10000 1.03 240 22:53 08.12.2021
5033 Rain 4 1002 92 10000 1.03 200 21:49 08.12.2021
5034 Clouds 4 1001 92 10000 0.51 0 21:30 08.12.2021
5035 Rain 4 1001 72 10000 3.6 290 20:19 08.12.2021
5036 Rain 4 1001 75 10000 2.57 310 19:39 08.12.2021
5037 Rain 4 1001 76 10000 2.06 260 18:53 08.12.2021
5038 Rain 4 1000 76 10000 0.51 0 18:21 08.12.2021
5039 Rain 4 1000 93 10000 0.51 0 16:44 08.12.2021
5040 Rain 5 1000 93 10000 1.54 170 15:40 08.12.2021
5041 Rain 5 999 93 10000 1.54 150 15:21 08.12.2021
5042 Rain 5 1000 91 10000 0.51 0 13:21 08.12.2021
5043 Rain 4 1001 94 10000 0.51 0 10:42 08.12.2021
5044 Rain 3 1001 93 5000 1.03 0 09:32 08.12.2021
5045 Rain 3 1001 94 10000 0.51 80 07:37 08.12.2021
5046 Rain 2 1001 94 10000 1.03 90 04:58 08.12.2021
5047 Rain 2 1003 82 10000 1.54 150 00:21 08.12.2021
5048 Clear 2 1004 86 10000 1.03 0 22:48 07.12.2021
5049 Clear 1 1006 86 10000 1.54 90 21:24 07.12.2021
5050 Clear 1 1007 84 10000 0.51 0 20:25 07.12.2021
5051 Clear 2 1008 83 10000 1.54 100 18:57 07.12.2021
5052 Clear 2 1009 85 10000 1.54 110 18:20 07.12.2021
5053 Clear 2 1010 82 10000 1.54 120 17:23 07.12.2021
5054 Clouds 4 1010 77 10000 1.03 0 16:41 07.12.2021
5055 Clouds 5 1011 71 10000 3.6 230 15:59 07.12.2021
5056 Clouds 6 1012 66 10000 4.12 210 14:37 07.12.2021
5057 Clouds 6 1012 73 10000 4.12 230 13:38 07.12.2021
5058 Clouds 5 1013 77 10000 3.09 220 12:22 07.12.2021
5059 Clouds 4 1014 89 10000 3.09 230 10:48 07.12.2021
5060 Clouds 3 1013 91 10000 1.03 0 09:20 07.12.2021
5061 Clouds 3 1011 90 10000 3.09 210 06:50 07.12.2021
5062 Clouds 2 1011 91 10000 3.09 230 05:50 07.12.2021
5063 Rain 2 1009 90 10000 4.12 200 03:25 07.12.2021
5064 Clouds 1 1011 90 10000 2.06 160 23:23 06.12.2021
5065 Clouds 0 1011 92 10000 1.54 120 22:40 06.12.2021
5066 Clouds 0 1013 90 10000 1.54 270 21:59 06.12.2021
5067 Clouds 0 1013 91 10000 1.03 0 21:31 06.12.2021
5068 Clouds 1 1013 91 10000 1.54 180 20:32 06.12.2021
5069 Clouds 1 1013 91 10000 1.54 180 20:32 06.12.2021
5070 Clouds 1 1013 88 10000 1.54 170 19:24 06.12.2021
5071 Clouds 2 1013 88 10000 1.54 220 18:40 06.12.2021
5072 Clouds 3 1014 87 10000 2.57 210 17:54 06.12.2021
5073 Clouds 3 1014 87 10000 3.09 250 17:33 06.12.2021
5074 Clouds 4 1016 92 10000 0.9 157 15:51 06.12.2021
5075 Clouds 4 1016 86 10000 0.77 188 14:40 06.12.2021
5076 Clouds 4 1014 87 10000 1.54 180 13:28 06.12.2021
5077 Clouds 4 1014 90 10000 1.54 180 12:37 06.12.2021
5078 Clouds 2 1014 92 10000 1.03 0 10:23 06.12.2021
5079 Clouds 2 1012 93 9000 0.51 230 07:40 06.12.2021
5080 Clouds 1 1009 93 10000 1.54 310 02:28 06.12.2021
5081 Clouds 2 1007 90 10000 0.51 0 22:26 05.12.2021
5082 Clouds 2 1006 90 10000 1.54 80 21:25 05.12.2021
5083 Clouds 2 1006 91 10000 1.03 0 20:54 05.12.2021
5084 Clouds 2 1006 91 10000 0.51 0 20:18 05.12.2021
5085 Clouds 3 1005 89 10000 0.51 0 19:26 05.12.2021
5086 Clouds 3 1005 89 10000 1.03 0 18:31 05.12.2021
5087 Clouds 3 1005 88 10000 1.03 170 17:52 05.12.2021
5088 Clouds 3 1004 88 10000 1.03 0 17:34 05.12.2021
5089 Clouds 4 1004 87 10000 1.54 210 16:36 05.12.2021
5090 Clouds 4 1004 82 10000 1.54 240 16:18 05.12.2021
5091 Clouds 6 1003 79 10000 3.09 220 14:48 05.12.2021
5092 Clouds 6 1003 78 10000 3.09 220 14:30 05.12.2021
5093 Clouds 6 1003 77 10000 4.12 250 13:36 05.12.2021
5094 Clouds 6 1003 76 10000 3.09 230 12:47 05.12.2021
5095 Clouds 6 1003 75 10000 3.09 210 12:27 05.12.2021
5096 Clouds 6 1004 80 10000 2.06 200 11:46 05.12.2021
5097 Clouds 4 1004 87 10000 2.06 180 10:43 05.12.2021
5098 Clouds 3 1004 92 10000 2.06 230 09:51 05.12.2021
5099 Clouds 4 1003 88 10000 2.06 210 06:31 05.12.2021
5100 Clouds 3 1004 90 10000 2.06 210 01:38 05.12.2021
5101 Clouds 5 1002 87 10000 3.6 240 23:25 04.12.2021
5102 Rain 6 1001 90 10000 5.66 250 21:52 04.12.2021
5103 Clouds 7 1000 86 10000 4.63 260 20:47 04.12.2021
5104 Clouds 8 998 86 10000 8.75 270 19:54 04.12.2021
5105 Clouds 8 997 88 10000 3.09 230 19:30 04.12.2021
5106 Clouds 9 997 91 10000 3.6 220 17:58 04.12.2021
5107 Clouds 9 996 92 10000 4.12 220 17:36 04.12.2021
5108 Clouds 9 996 90 10000 3.6 200 16:47 04.12.2021
5109 Clouds 9 996 92 10000 4.63 200 16:29 04.12.2021
5110 Clouds 9 996 90 10000 4.63 200 14:23 04.12.2021
5111 Clouds 7 998 91 10000 3.09 210 11:45 04.12.2021
5112 Clouds 6 998 91 10000 2.57 200 11:25 04.12.2021
5113 Clouds 6 998 89 10000 2.06 200 10:42 04.12.2021
5114 Rain 4 999 95 10000 1.54 150 08:45 04.12.2021
5115 Snow 3 1000 93 10000 2.06 120 06:24 04.12.2021
5116 Snow 2 1002 93 10000 1.03 180 04:41 04.12.2021
5117 Clouds 2 1007 75 10000 2.06 180 23:49 03.12.2021
5118 Clouds 2 1007 75 10000 2.06 180 23:49 03.12.2021
5119 Clouds 3 1008 74 10000 2.57 200 22:57 03.12.2021
5120 Clear 2 1009 75 10000 1.54 190 22:38 03.12.2021
5121 Clouds 2 1009 78 10000 2.57 170 21:25 03.12.2021
5122 Clouds 2 1010 79 10000 2.06 180 20:46 03.12.2021
5123 Clear 2 1011 80 10000 1.54 110 19:40 03.12.2021
5124 Clear 2 1012 80 10000 2.06 200 18:28 03.12.2021
5125 Clear 2 1012 78 10000 2.57 200 17:59 03.12.2021
5126 Clouds 4 1013 70 10000 3.09 220 14:47 03.12.2021
5127 Clouds 3 1014 72 10000 4.12 220 12:54 03.12.2021
5128 Clouds 3 1015 75 10000 2.57 210 11:39 03.12.2021
5129 Clouds 2 1015 78 10000 2.06 230 10:51 03.12.2021
5130 Clouds 0 1014 86 10000 2.06 230 08:25 03.12.2021
5131 Clouds 0 1014 89 10000 2.57 250 07:40 03.12.2021
5132 Clouds 0 1012 89 10000 3.6 280 04:26 03.12.2021
5133 Clouds 2 1010 91 10000 3.6 270 00:48 03.12.2021
5134 Clouds 2 1009 91 10000 2.57 250 23:47 02.12.2021
5135 Clouds 2 1007 89 10000 4.12 280 21:57 02.12.2021
5136 Snow 2 1007 90 10000 3.09 270 21:30 02.12.2021
5137 Clouds 2 1006 90 10000 4.12 280 20:40 02.12.2021
5138 Snow 2 1006 92 10000 5.66 330 19:43 02.12.2021
5139 Snow 2 1004 92 10000 3.09 290 18:34 02.12.2021
5140 Snow 3 1001 93 10000 5.14 300 15:52 02.12.2021
5141 Clouds 4 1001 92 10000 6.17 280 15:28 02.12.2021
5142 Clouds 4 1000 92 10000 4.12 300 14:48 02.12.2021
5143 Snow 4 1000 90 10000 6.17 290 12:53 02.12.2021
5144 Snow 4 1000 93 9000 7.2 280 12:19 02.12.2021
5145 Clouds 5 1000 89 10000 3.09 210 10:41 02.12.2021
5146 Clouds 4 1000 90 10000 1.54 210 09:25 02.12.2021
5147 Rain 4 1000 91 10000 2.06 220 06:45 02.12.2021
5148 Clouds 6 1000 85 10000 3.09 240 00:55 02.12.2021
5149 Clouds 7 999 86 10000 3.09 230 23:30 01.12.2021
5150 Clouds 7 999 85 10000 5.66 230 22:25 01.12.2021
5151 Clouds 7 999 86 10000 3.6 230 21:36 01.12.2021
5152 Clouds 8 998 84 10000 7.72 230 19:59 01.12.2021
5153 Clouds 8 998 83 10000 8.23 240 19:36 01.12.2021
5154 Clouds 9 997 85 10000 6.17 230 17:50 01.12.2021
5155 Clouds 9 997 85 10000 4.63 220 16:59 01.12.2021
5156 Clouds 9 997 84 10000 5.66 210 15:37 01.12.2021
5157 Clouds 10 998 81 10000 6.17 220 14:24 01.12.2021
5158 Clouds 10 999 79 10000 4.12 200 13:36 01.12.2021
5159 Clouds 9 1003 79 10000 4.12 220 10:44 01.12.2021
5160 Clouds 8 1004 81 10000 2.06 0 09:59 01.12.2021
5161 Clouds 7 1005 83 10000 4.63 220 08:51 01.12.2021
5162 Clouds 6 1005 85 10000 4.63 220 07:56 01.12.2021
5163 Clouds 6 1006 87 10000 4.63 210 07:19 01.12.2021
5164 Clouds 5 1010 91 10000 4.12 220 03:53 01.12.2021
5165 Clouds 5 1010 91 10000 4.63 230 03:20 01.12.2021
5166 Clouds 4 1012 90 10000 4.12 220 00:20 01.12.2021
5167 Clouds 4 1012 90 10000 4.12 220 00:20 01.12.2021
5168 Clouds 4 1013 90 10000 5.14 230 23:29 30.11.2021
5169 Clouds 4 1013 91 10000 4.63 220 22:31 30.11.2021
5170 Clouds 4 1013 91 10000 5.14 230 20:47 30.11.2021
5171 Clouds 4 1012 90 10000 5.14 220 20:25 30.11.2021
5172 Rain 3 1012 90 10000 5.14 220 19:39 30.11.2021
5173 Rain 3 1012 90 10000 5.66 230 18:53 30.11.2021
5174 Rain 3 1012 88 10000 6.17 230 17:46 30.11.2021
5175 Rain 3 1011 91 10000 7.72 230 16:19 30.11.2021
5176 Clouds 2 1011 92 4500 8.75 240 14:34 30.11.2021
5177 Snow 2 1010 88 10000 10.8 230 13:41 30.11.2021
5178 Snow 2 1011 87 7000 9.26 230 12:54 30.11.2021
5179 Snow 2 1011 89 7000 8.75 230 12:21 30.11.2021
5180 Snow 2 1012 87 10000 9.77 230 11:26 30.11.2021
5181 Snow 2 1013 88 10000 7.72 220 10:36 30.11.2021
5182 Snow 1 1014 88 6000 6.17 210 08:58 30.11.2021
5183 Snow 1 1014 89 3000 5.14 220 08:32 30.11.2021
5184 Snow 1 1014 88 10000 5.66 220 07:59 30.11.2021
5185 Snow 2 1015 86 10000 5.14 220 06:38 30.11.2021
5186 Snow 2 1015 92 4800 4.63 230 01:50 30.11.2021
5187 Snow 1 1015 93 5000 3.6 220 01:28 30.11.2021
5188 Snow 1 1014 92 4500 4.12 230 23:51 29.11.2021
5189 Snow 2 1014 91 10000 3.6 240 23:20 29.11.2021
5190 Snow 1 1014 92 10000 3.09 240 22:42 29.11.2021
5191 Snow 1 1014 89 10000 4.12 250 22:23 29.11.2021
5192 Snow 1 1013 90 10000 4.63 240 21:21 29.11.2021
5193 Rain 1 1013 90 10000 5.14 240 20:54 29.11.2021
5194 Snow 1 1012 86 10000 5.14 240 20:21 29.11.2021
5195 Rain 1 1012 86 10000 5.14 250 19:43 29.11.2021
5196 Rain 1 1011 90 10000 5.66 240 19:25 29.11.2021
5197 Snow 1 1014 87 10000 4.49 247 18:45 29.11.2021
5198 Clouds 1 1013 86 10000 4.5 257 17:22 29.11.2021
5199 Clouds 1 1013 86 10000 4.51 257 16:54 29.11.2021
5200 Clouds 1 1012 82 10000 4.7 265 16:25 29.11.2021
5201 Clouds 2 1011 77 10000 4.96 270 15:24 29.11.2021
5202 Clouds 2 1011 77 10000 4.96 270 14:41 29.11.2021
5203 Clouds 3 1010 72 10000 4.08 280 13:25 29.11.2021
5204 Clouds 2 1009 78 10000 4.19 286 12:20 29.11.2021
5205 Clouds 2 1009 76 10000 3.77 285 11:31 29.11.2021
5206 Clouds 1 1009 83 10000 3.08 283 10:27 29.11.2021
5207 Rain 2 1004 86 8000 5.66 300 08:30 29.11.2021
5208 Clouds 2 1002 86 10000 4.63 310 05:54 29.11.2021
5209 Snow 2 999 93 4500 1.54 290 01:35 29.11.2021
5210 Rain 2 999 93 10000 1.54 280 00:36 29.11.2021
5211 Mist 1 999 100 5000 1.03 280 23:42 28.11.2021
5212 Snow 1 998 100 2000 1.03 0 22:30 28.11.2021
5213 Snow 1 998 100 500 2.57 350 21:41 28.11.2021
5214 Snow 2 997 93 8000 2.57 330 20:51 28.11.2021
5215 Snow 2 997 86 10000 1.03 40 19:55 28.11.2021
5216 Rain 2 997 86 10000 0.51 0 18:45 28.11.2021
5217 Clouds 2 996 86 10000 1.03 70 18:26 28.11.2021
5218 Snow 2 996 86 10000 1.54 90 17:49 28.11.2021
5219 Clouds 3 996 80 10000 1.03 0 17:30 28.11.2021
5220 Clouds 4 996 75 10000 0.51 0 16:28 28.11.2021
5221 Clouds 4 996 75 10000 1.54 260 15:53 28.11.2021
5222 Clouds 4 996 75 10000 0.51 0 14:57 28.11.2021
5223 Clouds 4 996 75 10000 0.51 0 14:35 28.11.2021
5224 Clouds 3 996 80 10000 1.54 230 12:58 28.11.2021
5225 Clouds 3 996 80 10000 0.51 0 12:29 28.11.2021
5226 Clouds 1 996 93 10000 0.51 0 10:53 28.11.2021
5227 Clouds 1 996 93 10000 0 0 10:20 28.11.2021
5228 Clouds 1 996 93 10000 1.54 70 09:37 28.11.2021
5229 Clouds 1 995 86 10000 0.51 0 06:30 28.11.2021
5230 Clouds -1 996 93 10000 1.03 0 23:37 27.11.2021
5231 Clouds 1 995 100 10000 0.51 140 20:44 27.11.2021
5232 Clouds 2 995 93 10000 1.54 180 19:18 27.11.2021
5233 Clouds 2 995 93 10000 1.54 180 19:18 27.11.2021
5234 Clouds 3 993 87 10000 1.03 0 16:56 27.11.2021
5235 Clouds 3 993 93 10000 2.57 290 15:56 27.11.2021
5236 Rain 6 991 70 10000 4.12 240 13:48 27.11.2021
5237 Clouds 6 991 70 10000 4.63 250 12:55 27.11.2021
5238 Rain 5 990 75 10000 2.57 220 10:48 27.11.2021
5239 Clouds 4 990 81 10000 2.57 210 09:53 27.11.2021
5240 Clouds 3 989 87 10000 2.06 170 08:43 27.11.2021
5241 Clouds 4 988 75 10000 3.6 200 06:34 27.11.2021
5242 Clouds 3 990 69 10000 2.57 200 01:57 27.11.2021
5243 Clouds 3 991 75 10000 3.09 190 23:38 26.11.2021
5244 Clouds 3 993 75 10000 2.06 150 22:25 26.11.2021
5245 Clouds 3 994 80 10000 2.06 160 21:38 26.11.2021
5246 Clouds 3 994 80 10000 2.06 160 21:18 26.11.2021
5247 Clouds 3 995 80 10000 2.57 210 20:29 26.11.2021
5248 Rain 3 995 80 10000 3.09 200 19:49 26.11.2021
5249 Rain 3 996 80 10000 2.57 220 18:41 26.11.2021
5250 Rain 3 997 80 10000 3.09 220 17:23 26.11.2021
5251 Clouds 4 997 81 10000 3.09 210 16:29 26.11.2021
5252 Clouds 3 1000 87 7000 2.57 230 13:36 26.11.2021
5253 Clouds 3 1000 86 7000 1.54 220 12:55 26.11.2021
5254 Snow 2 1002 88 5000 2.06 190 10:42 26.11.2021
5255 Snow 1 1003 90 4500 2.06 190 09:29 26.11.2021
5256 Snow 1 1004 90 5000 1.03 0 08:47 26.11.2021
5257 Snow 1 1004 90 3000 1.03 0 08:19 26.11.2021
5258 Clouds 1 1004 88 7000 0.51 0 06:29 26.11.2021
5259 Snow 1 1006 87 6000 1.03 0 04:52 26.11.2021
5260 Clouds 1 1006 87 8000 1.54 340 03:32 26.11.2021
5261 Clouds 1 1009 86 10000 1.03 0 23:30 25.11.2021
5262 Clouds 1 1009 86 10000 2.06 310 22:19 25.11.2021
5263 Clouds 1 1010 85 10000 2.06 340 20:41 25.11.2021
5264 Clouds 1 1010 83 10000 3.09 330 19:21 25.11.2021
5265 Clouds 2 1009 83 10000 2.57 10 18:25 25.11.2021
5266 Clouds 2 1009 82 10000 2.57 350 17:27 25.11.2021
5267 Clouds 2 1009 82 10000 2.06 20 16:44 25.11.2021
5268 Clouds 2 1009 80 10000 2.06 360 15:59 25.11.2021
5269 Clouds 3 1009 81 10000 1.03 0 14:30 25.11.2021
5270 Clouds 2 1010 85 10000 1.54 120 12:57 25.11.2021
5271 Clouds 2 1010 87 10000 1.03 0 11:56 25.11.2021
5272 Clouds 2 1010 87 10000 1.03 0 10:43 25.11.2021
5273 Clouds 1 1010 89 10000 0 0 08:21 25.11.2021
5274 Clouds 1 1011 91 10000 0.51 0 03:18 25.11.2021
5275 Clouds 1 1012 90 10000 1.54 100 01:26 25.11.2021
5276 Clouds 1 1014 88 10000 2.06 80 22:33 24.11.2021
5277 Clouds 1 1014 88 10000 2.57 90 21:48 24.11.2021
5278 Clouds 1 1014 88 10000 2.06 100 21:22 24.11.2021
5279 Clouds 1 1015 87 10000 2.06 110 20:28 24.11.2021
5280 Clouds 1 1016 88 10000 2.06 130 19:40 24.11.2021
5281 Clouds 1 1017 87 10000 2.57 140 18:19 24.11.2021
5282 Clouds 1 1018 86 10000 3.09 90 16:48 24.11.2021
5283 Clouds 4 1018 79 10000 3.6 90 15:21 24.11.2021
5284 Clouds 4 1019 76 10000 3.6 80 14:30 24.11.2021
5285 Clouds 5 1020 75 10000 4.12 90 13:43 24.11.2021
5286 Clouds 3 1022 87 10000 2.57 80 11:49 24.11.2021
5287 Clouds 2 1022 90 10000 1.54 80 11:19 24.11.2021
5288 Clouds 1 1023 88 10000 0.51 0 10:38 24.11.2021
5289 Clouds 0 1023 91 10000 0.51 0 09:40 24.11.2021
5290 Clouds -2 1023 94 10000 0.51 0 07:42 24.11.2021
5291 Clear -2 1026 96 10000 0.85 116 06:20 24.11.2021
5292 Clear -3 1025 89 10000 0.51 0 03:48 24.11.2021
5293 Clear -2 1026 88 10000 0.51 0 23:42 23.11.2021
5294 Clear -1 1027 88 10000 0.51 130 22:39 23.11.2021
5295 Clear -1 1027 88 10000 0.51 0 21:46 23.11.2021
5296 Clear 0 1027 86 10000 1.03 40 20:47 23.11.2021
5297 Clear 0 1027 83 10000 2.06 40 19:37 23.11.2021
5298 Clear 1 1027 80 10000 1.03 40 18:37 23.11.2021
5299 Clear 2 1027 77 10000 2.06 40 17:57 23.11.2021
5300 Clear 4 1027 69 10000 4.12 40 16:54 23.11.2021
5301 Clear 6 1027 65 10000 3.6 50 15:57 23.11.2021
5302 Clear 6 1027 61 10000 3.09 60 15:19 23.11.2021
5303 Clouds 6 1027 64 10000 4.12 60 13:43 23.11.2021
5304 Clouds 4 1028 81 10000 2.57 40 11:40 23.11.2021
5305 Clouds 1 1028 85 10000 2.57 30 09:59 23.11.2021
5306 Clear -2 1027 93 10000 2.57 10 08:44 23.11.2021
5307 Clear -1 1026 88 10000 0.51 0 05:57 23.11.2021
5308 Clouds 0 1026 87 10000 2.06 30 03:42 23.11.2021
5309 Clouds 2 1026 87 10000 4.12 40 00:54 23.11.2021
5310 Clouds 2 1025 86 10000 4.12 40 23:20 22.11.2021
5311 Clouds 3 1025 85 10000 4.12 40 22:32 22.11.2021
5312 Clouds 4 1025 87 10000 2.57 30 21:48 22.11.2021
5313 Clouds 4 1024 86 10000 3.09 20 21:29 22.11.2021
5314 Clouds 4 1024 86 10000 3.6 20 20:50 22.11.2021
5315 Clouds 5 1023 85 10000 3.6 20 19:47 22.11.2021
5316 Clouds 5 1023 84 10000 4.12 30 19:18 22.11.2021
5317 Clouds 6 1023 83 10000 4.12 40 18:37 22.11.2021
5318 Clouds 6 1022 86 10000 4.12 10 17:18 22.11.2021
5319 Clouds 6 1021 88 10000 4.63 20 15:47 22.11.2021
5320 Drizzle 6 1020 90 10000 4.12 30 13:58 22.11.2021
5321 Drizzle 6 1019 92 10000 3.6 20 11:50 22.11.2021
5322 Rain 6 1019 93 5000 3.6 10 10:39 22.11.2021
5323 Drizzle 5 1018 93 5000 2.57 360 09:26 22.11.2021
5324 Rain 5 1018 93 5000 2.57 360 09:26 22.11.2021
5325 Drizzle 5 1017 93 4500 2.57 350 08:39 22.11.2021
5326 Rain 4 1015 94 4000 1.03 0 04:36 22.11.2021
5327 Mist 4 1013 93 5000 1.03 0 23:26 21.11.2021
5328 Clouds 4 1013 94 6000 1.54 40 22:48 21.11.2021
5329 Clouds 4 1013 94 6000 0.51 0 21:51 21.11.2021
5330 Clouds 4 1012 93 10000 0.51 0 20:42 21.11.2021
5331 Clouds 4 1012 93 10000 0.51 0 20:42 21.11.2021
5332 Clouds 4 1012 93 10000 1.03 120 19:48 21.11.2021
5333 Clouds 4 1012 93 10000 1.03 180 18:24 21.11.2021
5334 Clouds 4 1012 92 10000 1.03 0 17:38 21.11.2021
5335 Mist 4 1011 94 2200 0.51 0 15:49 21.11.2021
5336 Mist 4 1011 94 2200 0.51 0 14:45 21.11.2021
5337 Mist 4 1012 100 1300 1.54 110 13:47 21.11.2021
5338 Fog 4 1012 100 600 1.03 0 12:37 21.11.2021
5339 Fog 3 1013 93 500 1.03 0 11:43 21.11.2021
5340 Fog 3 1013 100 500 1.54 140 11:24 21.11.2021
5341 Fog 3 1013 93 500 2.06 140 10:18 21.11.2021
5342 Fog 3 1013 94 800 0.51 0 08:45 21.11.2021
5343 Fog 3 1013 92 1200 1.03 0 08:25 21.11.2021
5344 Fog 3 1013 92 3500 1.54 250 07:48 21.11.2021
5345 Mist 3 1013 94 2500 2.06 170 05:55 21.11.2021
5346 Mist 3 1014 94 5000 1.03 0 05:26 21.11.2021
5347 Fog 3 1015 95 6000 1.54 190 03:19 21.11.2021
5348 Fog 3 1015 94 6000 2.06 250 02:52 21.11.2021
5349 Mist 4 1017 93 4000 1.54 200 00:59 21.11.2021
5350 Mist 4 1017 94 3000 1.54 200 23:59 20.11.2021
5351 Fog 5 1019 93 3500 2.06 190 21:49 20.11.2021
5352 Mist 5 1019 93 4000 2.06 190 21:28 20.11.2021
5353 Clouds 6 1020 91 10000 1.03 210 19:22 20.11.2021
5354 Clouds 7 1021 89 10000 1.42 184 18:45 20.11.2021
5355 Clouds 7 1021 89 10000 1.28 184 18:19 20.11.2021
5356 Clouds 7 1022 88 10000 0.51 60 17:18 20.11.2021
5357 Clouds 8 1023 86 10000 1.54 150 14:49 20.11.2021
5358 Clouds 8 1024 88 10000 1.54 150 14:28 20.11.2021
5359 Clouds 8 1024 87 10000 1.54 190 13:32 20.11.2021
5360 Clouds 8 1027 90 10000 1.03 0 11:20 20.11.2021
5361 Clouds 7 1027 91 8000 1.03 0 09:54 20.11.2021
5362 Clouds 6 1028 92 10000 0.51 0 08:26 20.11.2021
5363 Clouds 6 1029 92 8000 1.03 0 05:30 20.11.2021
5364 Clouds 6 1029 91 7000 0.51 0 04:51 20.11.2021
5365 Mist 6 1030 91 5000 1.03 0 03:25 20.11.2021
5366 Mist 6 1031 94 4000 2.06 190 00:42 20.11.2021
5367 Clouds 6 1031 94 6000 1.54 190 23:45 19.11.2021
5368 Clouds 6 1031 94 7000 1.03 0 22:53 19.11.2021
5369 Clouds 6 1031 94 10000 1.03 310 21:23 19.11.2021
5370 Clouds 6 1031 94 10000 1.54 330 20:39 19.11.2021
5371 Clouds 6 1031 94 10000 2.06 320 20:20 19.11.2021
5372 Clouds 6 1031 94 10000 3.09 330 19:43 19.11.2021
5373 Clouds 6 1031 91 10000 2.06 360 18:44 19.11.2021
5374 Clouds 6 1030 91 10000 1.54 360 17:44 19.11.2021
5375 Clouds 7 1030 89 10000 1.54 50 16:40 19.11.2021
5376 Clouds 7 1031 88 10000 2.06 30 14:51 19.11.2021
5377 Clouds 5 1032 87 9000 1.03 0 10:57 19.11.2021
5378 Fog 5 1032 89 9000 0.51 0 10:23 19.11.2021
5379 Clouds 3 1033 71 10000 1.31 200 08:32 19.11.2021
5380 Clouds 3 1033 92 10000 1.35 202 05:36 19.11.2021
5381 Clear 3 1031 94 10000 0.51 0 03:37 19.11.2021
5382 Clear 4 1031 91 10000 1.54 270 23:54 18.11.2021
5383 Clear 4 1031 92 10000 1.54 260 23:18 18.11.2021
5384 Clouds 5 1031 91 10000 1.03 220 21:18 18.11.2021
5385 Clouds 5 1031 91 10000 2.06 290 20:44 18.11.2021
5386 Clouds 6 1031 93 10000 2.06 320 20:23 18.11.2021
5387 Clouds 6 1031 89 10000 1.03 0 19:36 18.11.2021
5388 Clouds 7 1030 91 10000 1.54 10 18:38 18.11.2021
5389 Clouds 7 1030 89 10000 0.51 0 17:52 18.11.2021
5390 Clouds 8 1030 88 10000 2.06 350 17:31 18.11.2021
5391 Clouds 8 1030 88 10000 2.06 340 16:42 18.11.2021
5392 Clouds 8 1030 85 10000 2.06 200 15:23 18.11.2021
5393 Clouds 9 1030 86 10000 2.06 160 13:21 18.11.2021
5394 Clouds 8 1031 90 8000 1.03 0 11:45 18.11.2021
5395 Clouds 7 1031 88 7000 0.51 0 11:26 18.11.2021
5396 Clouds 7 1031 91 6000 0.51 0 10:55 18.11.2021
5397 Clouds 6 1030 92 6000 1.03 0 09:28 18.11.2021
5398 Clouds 6 1029 94 6000 0.51 0 07:31 18.11.2021
5399 Drizzle 6 1029 93 7000 1.03 0 05:47 18.11.2021
5400 Clouds 6 1028 92 10000 1.03 0 02:35 18.11.2021
5401 Clouds 6 1028 90 10000 0.51 0 01:21 18.11.2021
5402 Clouds 6 1027 92 10000 1.03 0 22:41 17.11.2021
5403 Clouds 6 1027 90 10000 0.51 0 22:20 17.11.2021
5404 Clouds 6 1027 90 10000 0.51 0 22:20 17.11.2021
5405 Clouds 6 1027 90 10000 1.03 0 21:36 17.11.2021
5406 Clouds 6 1026 88 10000 2.06 240 20:18 17.11.2021
5407 Clouds 6 1024 87 10000 2.06 260 17:48 17.11.2021
5408 Clouds 6 1024 86 10000 2.57 260 17:23 17.11.2021
5409 Clouds 6 1024 86 10000 2.57 260 17:23 17.11.2021
5410 Clouds 6 1023 85 10000 5.14 290 14:18 17.11.2021
5411 Clouds 6 1023 86 10000 3.6 280 12:39 17.11.2021
5412 Drizzle 6 1023 90 10000 4.12 270 11:41 17.11.2021
5413 Drizzle 5 1022 92 10000 2.57 280 10:28 17.11.2021
5414 Drizzle 5 1022 91 10000 2.06 270 09:23 17.11.2021
5415 Clouds 5 1021 92 10000 2.57 250 07:42 17.11.2021
5416 Clouds 6 1020 90 10000 1.03 0 03:43 17.11.2021
5417 Clouds 6 1020 89 10000 0.51 160 01:18 17.11.2021
5418 Drizzle 5 1020 91 10000 0.51 0 22:54 16.11.2021
5419 Clouds 6 1020 89 10000 1.54 250 20:37 16.11.2021
5420 Clouds 6 1020 89 10000 1.54 250 20:18 16.11.2021
5421 Clouds 6 1020 89 10000 1.54 250 20:18 16.11.2021
5422 Clouds 6 1020 88 10000 1.03 0 18:53 16.11.2021
5423 Clouds 6 1020 88 10000 2.06 270 18:30 16.11.2021
5424 Clouds 6 1020 88 10000 0.51 0 17:38 16.11.2021
5425 Clouds 6 1020 88 10000 0.51 0 16:37 16.11.2021
5426 Clouds 6 1020 88 10000 1.03 0 15:50 16.11.2021
5427 Clouds 6 1020 88 10000 1.03 0 15:27 16.11.2021
5428 Drizzle 6 1022 89 10000 1.03 0 11:50 16.11.2021
5429 Clouds 6 1022 88 10000 2.57 240 09:49 16.11.2021
5430 Clouds 6 1021 87 10000 4.12 230 08:45 16.11.2021
5431 Clouds 6 1021 90 10000 2.57 200 07:34 16.11.2021
5432 Clouds 6 1022 89 10000 1.54 210 02:47 16.11.2021
5433 Clouds 7 1021 91 10000 1.54 80 23:23 15.11.2021
5434 Clouds 7 1021 90 10000 0.51 0 22:37 15.11.2021
5435 Clouds 7 1021 90 10000 0.51 0 21:54 15.11.2021
5436 Clouds 7 1021 90 10000 1.03 0 21:29 15.11.2021
5437 Clouds 7 1021 89 10000 2.06 90 19:58 15.11.2021
5438 Clouds 7 1021 88 10000 2.57 90 18:48 15.11.2021
5439 Clouds 7 1021 88 10000 2.57 80 16:55 15.11.2021
5440 Clouds 7 1021 88 10000 2.57 80 15:44 15.11.2021
5441 Clouds 8 1021 88 10000 3.09 80 15:25 15.11.2021
5442 Clouds 8 1021 88 10000 3.6 90 13:35 15.11.2021
5443 Clouds 8 1022 89 10000 3.09 80 11:54 15.11.2021
5444 Clouds 7 1022 87 10000 3.09 80 09:29 15.11.2021
5445 Clouds 7 1021 87 10000 3.6 70 07:58 15.11.2021
5446 Clouds 8 1021 81 10000 4.12 70 05:24 15.11.2021
5447 Clouds 9 1021 81 10000 5.66 40 00:32 15.11.2021
5448 Clouds 9 1021 88 10000 4.12 40 22:38 14.11.2021
5449 Clouds 9 1021 87 10000 4.63 40 20:51 14.11.2021
5450 Clouds 10 1020 88 10000 5.14 40 19:18 14.11.2021
5451 Clouds 10 1020 89 10000 4.12 50 18:54 14.11.2021
5452 Clouds 10 1020 89 10000 4.12 50 18:36 14.11.2021
5453 Clouds 10 1020 89 10000 4.63 50 18:18 14.11.2021
5454 Clouds 10 1019 89 10000 5.66 40 17:57 14.11.2021
5455 Clouds 10 1019 89 10000 5.66 40 17:39 14.11.2021
5456 Clouds 10 1019 89 10000 4.12 20 17:21 14.11.2021
5457 Clouds 10 1019 90 10000 3.6 30 16:50 14.11.2021
5458 Clouds 10 1019 89 10000 3.6 20 16:21 14.11.2021
5459 Clouds 10 1019 89 10000 3.6 40 15:52 14.11.2021
5460 Clouds 10 1018 89 10000 2.57 30 15:19 14.11.2021
5461 Clouds 10 1018 89 10000 3.6 40 14:34 14.11.2021
5462 Clouds 10 1018 90 10000 3.6 30 13:59 14.11.2021
5463 Clouds 10 1018 90 10000 3.6 50 13:40 14.11.2021
5464 Clouds 10 1018 88 10000 3.6 60 12:45 14.11.2021
5465 Clouds 9 1018 88 9000 3.6 70 12:20 14.11.2021
5466 Clouds 9 1018 73 7000 2.57 80 10:52 14.11.2021
5467 Clouds 9 1018 76 7000 2.57 70 10:27 14.11.2021
5468 Clouds 7 1018 77 6000 0.51 0 09:18 14.11.2021
5469 Clouds 7 1017 76 8000 1.54 320 08:43 14.11.2021
5470 Fog 7 1016 78 800 1.03 60 04:46 14.11.2021
5471 Clouds 7 1015 76 10000 1.03 0 22:28 13.11.2021
5472 Clouds 7 1015 76 10000 1.03 0 22:28 13.11.2021
5473 Clouds 7 1015 78 10000 1.54 190 21:59 13.11.2021
5474 Clouds 8 1015 78 10000 2.06 190 21:29 13.11.2021
5475 Clouds 8 1015 76 10000 1.54 180 20:25 13.11.2021
5476 Rain 8 1015 92 10000 0.51 0 18:54 13.11.2021
5477 Rain 8 1015 92 10000 0.51 0 18:28 13.11.2021
5478 Clouds 8 1015 91 10000 2.06 180 17:32 13.11.2021
5479 Clouds 8 1014 87 10000 3.09 180 15:42 13.11.2021
5480 Clouds 8 1015 91 10000 2.06 100 14:39 13.11.2021
5481 Clouds 8 1015 90 10000 0.51 0 13:46 13.11.2021
5482 Clouds 7 1015 88 10000 1.54 70 12:41 13.11.2021
5483 Rain 7 1016 87 10000 0.51 0 11:46 13.11.2021
5484 Clouds 6 1016 90 10000 1.54 70 10:57 13.11.2021
5485 Clouds 6 1016 89 10000 1.03 0 10:29 13.11.2021
5486 Clouds 4 1016 93 8000 1.03 0 09:43 13.11.2021
5487 Clouds 4 1016 96 7000 1.03 0 09:22 13.11.2021
5488 Clouds 4 1016 93 6000 1.54 110 08:42 13.11.2021
5489 Mist 2 1016 94 5000 0.51 0 07:26 13.11.2021
5490 Fog 2 1016 94 200 0.51 0 04:40 13.11.2021
5491 Fog 2 1016 94 200 1.03 0 02:59 13.11.2021
5492 Fog 2 1017 99 200 1.03 0 23:35 12.11.2021
5493 Fog 3 1017 93 200 0.51 0 21:56 12.11.2021
5494 Fog 3 1017 93 200 1.03 0 20:46 12.11.2021
5495 Fog 3 1017 98 200 0.51 0 19:32 12.11.2021
5496 Fog 5 1018 100 250 1.03 0 18:57 12.11.2021
5497 Fog 5 1018 100 250 1.54 30 18:19 12.11.2021
5498 Clear 9 1017 81 10000 1.03 0 15:55 12.11.2021
5499 Fog 7 1018 93 300 1.03 0 13:28 12.11.2021
5500 Fog 4 1020 100 200 1.03 0 11:24 12.11.2021
5501 Fog 2 1020 100 300 1.03 0 10:20 12.11.2021
5502 Fog 2 1020 100 300 1.03 0 10:20 12.11.2021
5503 Fog 2 1020 100 50 0.51 0 08:56 12.11.2021
5504 Fog 1 1020 93 100 1.03 0 07:49 12.11.2021
5505 Fog 2 1022 94 150 0.51 0 00:21 12.11.2021
5506 Fog 2 1023 94 200 0.51 0 23:30 11.11.2021
5507 Fog 2 1023 94 200 1.03 0 22:21 11.11.2021
5508 Fog 3 1024 94 200 1.54 340 21:26 11.11.2021
5509 Fog 3 1024 92 700 1.03 30 19:56 11.11.2021
5510 Clear 4 1024 97 10000 0.51 0 18:40 11.11.2021
5511 Clear 5 1023 86 10000 1.03 0 17:41 11.11.2021
5512 Clear 9 1023 76 10000 2.06 10 15:51 11.11.2021
5513 Clear 10 1023 82 10000 2.06 40 14:42 11.11.2021
5514 Clear 10 1023 81 10000 2.06 50 14:22 11.11.2021
5515 Clear 10 1023 79 10000 1.03 0 13:35 11.11.2021
5516 Clear 9 1024 78 10000 1.03 0 12:30 11.11.2021
5517 Fog 6 1023 87 10000 0.51 0 10:24 11.11.2021
5518 Clear 5 1025 71 10000 0.41 215 09:23 11.11.2021
5519 Fog 1 1023 93 200 0.51 0 07:34 11.11.2021
5520 Clear 2 1023 95 10000 1.54 260 00:40 11.11.2021
5521 Clear 3 1023 91 10000 0 0 22:46 10.11.2021
5522 Clear 3 1023 91 10000 0.51 0 21:56 10.11.2021
5523 Clear 4 1023 91 10000 1.03 0 21:18 10.11.2021
5524 Clear 4 1023 88 10000 1.54 280 20:35 10.11.2021
5525 Clear 4 1023 87 10000 1.03 250 19:46 10.11.2021
5526 Clear 6 1023 83 10000 0 0 17:39 10.11.2021
5527 Clear 9 1023 79 10000 1.03 0 16:21 10.11.2021
5528 Clear 9 1023 75 10000 1.03 0 14:40 10.11.2021
5529 Clear 8 1024 80 10000 1.03 0 13:40 10.11.2021
5530 Clear 7 1024 90 10000 1.54 80 12:40 10.11.2021
5531 Clear 3 1024 90 10000 0.51 0 10:20 10.11.2021
5532 Clouds 2 1024 93 10000 0.51 150 08:45 10.11.2021
5533 Clear 0 1024 94 10000 1.03 0 07:22 10.11.2021
5534 Clear 1 1024 91 10000 1.54 310 06:25 10.11.2021
5535 Clear 1 1024 93 10000 1.54 340 05:44 10.11.2021
5536 Clear 2 1025 90 10000 1.54 260 22:54 09.11.2021
5537 Clear 3 1025 90 10000 1.03 0 21:47 09.11.2021
5538 Clear 4 1025 85 10000 1.03 0 20:26 09.11.2021
5539 Clear 5 1025 83 10000 1.54 40 19:20 09.11.2021
5540 Clear 7 1025 76 10000 3.09 90 17:30 09.11.2021
5541 Clear 10 1025 63 10000 5.14 80 15:45 09.11.2021
5542 Clear 11 1026 59 10000 6.69 80 14:24 09.11.2021
5543 Clouds 10 1026 62 10000 5.14 100 12:50 09.11.2021
5544 Clear 8 1027 76 10000 2.06 0 11:38 09.11.2021
5545 Clear 8 1027 76 10000 2.06 0 11:38 09.11.2021
5546 Clear 7 1027 85 10000 1.03 0 10:44 09.11.2021
5547 Clear 3 1027 92 10000 0.51 0 09:24 09.11.2021
5548 Fog 1 1026 95 10000 0.51 0 08:19 09.11.2021
5549 Clouds 1 1026 90 10000 0.51 0 05:45 09.11.2021
5550 Clouds 2 1025 93 10000 1.03 0 02:22 09.11.2021
5551 Clouds 2 1025 90 10000 0.51 0 01:43 09.11.2021
5552 Clouds 3 1025 90 10000 0.51 0 23:36 08.11.2021
5553 Clouds 3 1025 92 10000 1.54 320 22:49 08.11.2021
5554 Clouds 4 1025 91 10000 1.03 0 21:55 08.11.2021
5555 Clouds 4 1025 91 10000 0.51 230 20:53 08.11.2021
5556 Clouds 4 1024 88 10000 1.03 300 19:49 08.11.2021
5557 Clear 6 1023 83 10000 1.03 0 18:30 08.11.2021
5558 Clouds 9 1023 73 10000 3.09 360 16:22 08.11.2021
5559 Clouds 10 1023 74 10000 2.06 30 14:58 08.11.2021
5560 Clouds 10 1023 77 10000 1.54 10 14:38 08.11.2021
5561 Clouds 9 1023 74 10000 2.57 350 13:31 08.11.2021
5562 Clouds 9 1023 84 10000 3.09 50 11:56 08.11.2021
5563 Clouds 8 1023 88 10000 1.54 80 10:52 08.11.2021
5564 Fog 6 1023 75 10000 0.51 0 09:44 08.11.2021
5565 Clear 5 1024 92 10000 0.79 208 08:54 08.11.2021
5566 Clouds 4 1022 93 10000 2.57 300 07:29 08.11.2021
5567 Clear 5 1021 89 10000 1.54 240 03:56 08.11.2021
5568 Clear 6 1021 92 10000 1.03 0 03:28 08.11.2021
5569 Clear 7 1020 90 10000 2.06 260 23:46 07.11.2021
5570 Clouds 8 1020 88 10000 2.06 280 21:54 07.11.2021
5571 Clouds 8 1019 88 10000 3.6 230 21:20 07.11.2021
5572 Clouds 8 1020 91 10000 4.12 270 19:40 07.11.2021
5573 Clouds 8 1019 85 10000 5.66 260 18:22 07.11.2021
5574 Clouds 9 1019 85 10000 4.63 250 16:54 07.11.2021
5575 Clouds 10 1019 84 10000 6.69 260 15:54 07.11.2021
5576 Clouds 11 1019 78 10000 4.63 240 14:29 07.11.2021
5577 Clouds 10 1019 69 10000 2.06 240 13:35 07.11.2021
5578 Clouds 8 1020 77 10000 4.63 230 11:44 07.11.2021
5579 Clouds 5 1022 88 10000 3.09 220 09:57 07.11.2021
5580 Clouds 2 1022 92 10000 2.06 150 08:31 07.11.2021
5581 Fog 2 1025 94 400 1.54 280 02:41 07.11.2021
5582 Fog 3 1026 94 400 1.03 0 23:40 06.11.2021
5583 Fog 3 1026 95 400 1.03 0 22:50 06.11.2021
5584 Fog 3 1027 95 300 1.03 0 21:34 06.11.2021
5585 Fog 3 1027 95 250 1.54 190 20:52 06.11.2021
5586 Fog 4 1028 95 300 1.54 150 18:56 06.11.2021
5587 Mist 5 1028 93 2000 1.54 130 17:18 06.11.2021
5588 Mist 8 1028 91 5000 1.54 140 15:31 06.11.2021
5589 Mist 7 1030 100 1400 1.03 0 13:39 06.11.2021
5590 Fog 7 1030 100 700 1.03 0 12:29 06.11.2021
5591 Fog 4 1030 100 200 1.03 0 09:39 06.11.2021
5592 Fog 3 1030 94 200 1.54 190 07:58 06.11.2021
5593 Fog 4 1029 98 3500 0.51 0 03:20 06.11.2021
5594 Clouds 5 1028 92 10000 1.03 270 23:38 05.11.2021
5595 Clouds 6 1028 92 10000 0.51 200 22:50 05.11.2021
5596 Clouds 6 1028 92 10000 1.03 290 21:54 05.11.2021
5597 Clouds 6 1027 90 10000 1.54 230 20:20 05.11.2021
5598 Clouds 7 1027 88 10000 2.06 280 19:49 05.11.2021
5599 Clouds 8 1026 88 10000 2.06 310 18:41 05.11.2021
5600 Clouds 8 1025 86 10000 1.54 360 17:31 05.11.2021
5601 Clouds 9 1024 83 10000 1.54 330 15:48 05.11.2021
5602 Clouds 9 1023 85 10000 1.54 20 13:58 05.11.2021
5603 Clouds 8 1023 89 10000 2.06 320 11:42 05.11.2021
5604 Clouds 6 1020 92 10000 0.51 0 08:41 05.11.2021
5605 Clouds 6 1018 92 10000 0.51 0 07:45 05.11.2021
5606 Clouds 6 1017 90 10000 0.51 0 05:33 05.11.2021
5607 Rain 6 1015 88 10000 1.54 230 02:27 05.11.2021
5608 Clouds 6 1015 87 10000 2.57 220 00:53 05.11.2021
5609 Clouds 6 1014 82 10000 3.09 210 23:25 04.11.2021
5610 Clouds 6 1014 85 10000 2.57 220 22:20 04.11.2021
5611 Clouds 6 1013 86 10000 2.06 210 21:44 04.11.2021
5612 Clouds 6 1013 86 10000 3.09 230 21:19 04.11.2021
5613 Clouds 6 1012 88 10000 2.57 200 20:23 04.11.2021
5614 Clouds 6 1012 89 10000 2.57 210 19:48 04.11.2021
5615 Clouds 6 1012 88 10000 1.03 0 19:19 04.11.2021
5616 Clouds 7 1011 87 10000 3.09 220 18:21 04.11.2021
5617 Clouds 7 1010 86 10000 3.09 220 17:26 04.11.2021
5618 Clouds 7 1009 87 10000 5.14 260 15:34 04.11.2021
5619 Clouds 7 1007 89 10000 4.63 240 13:40 04.11.2021
5620 Rain 6 1004 90 10000 3.09 230 09:50 04.11.2021
5621 Clouds 6 1003 89 10000 2.06 230 08:31 04.11.2021
5622 Clouds 6 1002 89 10000 2.06 230 07:35 04.11.2021
5623 Clouds 6 1001 90 10000 1.54 210 06:22 04.11.2021
5624 Clouds 7 1001 75 10000 1.54 170 22:54 03.11.2021
5625 Rain 7 1001 92 10000 0.51 90 21:51 03.11.2021
5626 Rain 7 1001 93 10000 0.51 0 21:33 03.11.2021
5627 Rain 8 1001 90 10000 0.51 0 20:38 03.11.2021
5628 Rain 8 1001 92 10000 1.54 340 20:19 03.11.2021
5629 Clouds 8 1000 90 10000 1.03 0 19:19 03.11.2021
5630 Rain 8 1000 91 10000 1.03 170 18:26 03.11.2021
5631 Rain 8 1000 92 10000 1.03 0 17:41 03.11.2021
5632 Rain 9 1000 89 3000 1.54 0 16:31 03.11.2021
5633 Rain 9 1000 90 10000 1.54 240 15:47 03.11.2021
5634 Rain 9 1000 88 10000 2.57 260 15:29 03.11.2021
5635 Clouds 10 1000 81 10000 1.54 240 12:42 03.11.2021
5636 Rain 10 999 81 10000 0.51 0 11:28 03.11.2021
5637 Clear 9 999 82 10000 1.54 60 10:49 03.11.2021
5638 Clear 8 999 69 10000 2.06 90 09:34 03.11.2021
5639 Clouds 7 1000 76 10000 1.54 100 08:41 03.11.2021
5640 Clouds 6 999 78 10000 2.57 80 07:40 03.11.2021
5641 Clouds 6 1001 95 10000 0 0 05:45 03.11.2021
5642 Rain 6 1001 94 10000 0.51 0 04:21 03.11.2021
5643 Fog 5 1003 93 10000 1.03 90 00:55 03.11.2021
5644 Clouds 5 1004 92 10000 0.51 0 22:52 02.11.2021
5645 Clouds 5 1004 92 10000 0.51 0 22:52 02.11.2021
5646 Clouds 6 1004 91 10000 1.03 0 21:47 02.11.2021
5647 Clouds 7 1004 92 10000 1.03 250 20:35 02.11.2021
5648 Clouds 7 1004 93 10000 1.03 0 19:56 02.11.2021
5649 Clouds 7 1004 91 10000 1.03 0 19:26 02.11.2021
5650 Clouds 8 1003 91 10000 2.06 270 18:34 02.11.2021
5651 Clouds 8 1003 88 10000 1.54 240 17:43 02.11.2021
5652 Clouds 9 1003 84 10000 3.6 240 16:34 02.11.2021
5653 Clouds 10 1003 84 10000 3.09 230 15:48 02.11.2021
5654 Clouds 10 1002 82 10000 4.63 240 14:51 02.11.2021
5655 Rain 9 1002 86 10000 4.12 210 13:29 02.11.2021
5656 Clouds 9 1003 89 10000 2.06 180 12:46 02.11.2021
5657 Rain 9 1003 90 10000 2.57 190 11:38 02.11.2021
5658 Rain 9 1003 71 10000 2.06 190 10:55 02.11.2021
5659 Rain 9 1003 69 10000 2.06 190 10:32 02.11.2021
5660 Clouds 9 1003 71 10000 2.57 160 09:40 02.11.2021
5661 Clear 5 1002 76 10000 2.06 200 07:45 02.11.2021
5662 Clouds 7 1002 75 10000 1.54 210 04:58 02.11.2021
5663 Rain 7 1003 75 10000 0.51 0 03:20 02.11.2021
5664 Clear 6 1004 93 10000 1.54 270 23:42 01.11.2021
5665 Clouds 8 1006 69 10000 1.8 186 21:46 01.11.2021
5666 Clouds 9 1004 71 10000 2.06 210 20:44 01.11.2021
5667 Clouds 9 1004 73 10000 1.03 0 19:58 01.11.2021
5668 Clouds 9 1004 73 10000 1.54 210 19:38 01.11.2021
5669 Clouds 10 1004 88 10000 1.03 160 18:23 01.11.2021
5670 Clouds 10 1004 86 10000 0.51 0 17:43 01.11.2021
5671 Clouds 11 1004 88 10000 1.54 170 16:52 01.11.2021
5672 Clouds 11 1004 87 10000 1.54 180 16:20 01.11.2021
5673 Clouds 11 1005 89 10000 1.54 170 15:29 01.11.2021
5674 Clouds 11 1004 89 10000 2.06 150 14:45 01.11.2021
5675 Rain 11 1005 89 10000 1.54 170 14:25 01.11.2021
5676 Rain 10 1005 89 10000 1.54 180 13:50 01.11.2021
5677 Rain 10 1006 90 10000 2.06 190 12:36 01.11.2021
5678 Rain 10 1006 90 10000 2.06 190 11:30 01.11.2021
5679 Rain 10 1006 92 10000 2.57 190 10:19 01.11.2021
5680 Rain 10 1006 74 10000 3.09 250 08:18 01.11.2021
5681 Rain 10 1005 74 10000 1.54 0 07:45 01.11.2021
5682 Rain 12 1003 88 10000 2.06 350 03:49 01.11.2021
5683 Clear 11 1003 88 10000 1.03 0 01:44 01.11.2021
5684 Clear 11 1003 82 10000 0.51 0 22:48 31.10.2021
5685 Clear 13 1004 75 10000 1.54 130 20:50 31.10.2021
5686 Clear 13 1004 79 10000 1.03 0 19:22 31.10.2021
5687 Clear 13 1004 77 10000 1.03 0 18:41 31.10.2021
5688 Clear 15 1004 73 10000 1.03 0 17:54 31.10.2021
5689 Clouds 19 1005 53 10000 2.71 138 16:25 31.10.2021
5690 Clear 21 1006 48 10000 0.51 0 14:39 31.10.2021
5691 Clear 19 1008 62 10000 1.03 0 12:54 31.10.2021
5692 Clear 17 1009 78 10000 1.03 0 11:42 31.10.2021
5693 Clear 14 1010 84 10000 0.51 0 10:47 31.10.2021
5694 Clear 11 1010 89 10000 1.54 270 09:22 31.10.2021
5695 Fog 10 1010 91 10000 0.51 0 08:41 31.10.2021
5696 Clear 11 1011 90 10000 1.03 0 02:19 31.10.2021
5697 Clouds 10 1011 92 10000 1.03 0 23:41 30.10.2021
5698 Clear 10 1009 90 10000 1.03 0 21:36 30.10.2021
5699 Clear 10 1009 90 10000 1.03 0 21:18 30.10.2021
5700 Clouds 10 1008 92 10000 1.54 270 19:23 30.10.2021
5701 Clouds 10 1008 90 10000 1.54 100 17:42 30.10.2021
5702 Rain 10 1008 90 10000 1.03 0 15:26 30.10.2021
5703 Rain 10 1007 87 10000 1.03 0 13:56 30.10.2021
5704 Rain 10 1007 79 10000 0 0 13:21 30.10.2021
5705 Rain 9 1007 89 10000 1.54 260 12:57 30.10.2021
5706 Clear 9 1007 82 10000 0.51 0 11:49 30.10.2021
5707 Clear 6 1007 88 10000 0.51 0 10:32 30.10.2021
5708 Fog 4 1008 100 10000 0.51 0 08:54 30.10.2021
5709 Fog 4 1008 96 10000 1.03 0 07:55 30.10.2021
5710 Fog 4 1010 96 10000 1.03 300 05:45 30.10.2021
5711 Fog 5 1012 94 6000 1.03 90 01:57 30.10.2021
5712 Clear 8 1012 90 10000 0.51 0 22:54 29.10.2021
5713 Clear 8 1012 89 10000 0.51 0 22:32 29.10.2021
5714 Clear 9 1012 90 10000 2.06 90 20:47 29.10.2021
5715 Clear 9 1012 88 10000 2.57 100 20:26 29.10.2021
5716 Clear 10 1012 82 10000 1.54 100 18:49 29.10.2021
5717 Clear 15 1012 68 10000 0.51 0 17:28 29.10.2021
5718 Clear 16 1012 65 10000 1.54 100 15:22 29.10.2021
5719 Clear 11 1014 83 10000 0.51 0 12:29 29.10.2021
5720 Fog 8 1015 90 8000 1.03 0 10:46 29.10.2021
5721 Fog 4 1015 100 150 1.03 0 08:47 29.10.2021
5722 Fog 6 1017 94 8000 1.54 260 00:55 29.10.2021
5723 Fog 6 1017 94 8000 1.03 240 23:46 28.10.2021
5724 Clear 7 1017 93 10000 0.51 190 22:21 28.10.2021
5725 Clear 8 1018 91 10000 2.06 300 20:57 28.10.2021
5726 Clear 9 1018 89 10000 0.51 210 19:52 28.10.2021
5727 Clear 11 1018 84 10000 1.03 90 18:36 28.10.2021
5728 Clear 15 1018 74 10000 1.03 80 17:27 28.10.2021
5729 Clear 15 1018 68 10000 1.54 60 16:37 28.10.2021
5730 Clear 15 1019 71 10000 1.54 100 14:40 28.10.2021
5731 Clear 14 1020 75 10000 1.54 100 13:33 28.10.2021
5732 Clear 12 1021 85 10000 1.03 0 12:49 28.10.2021
5733 Clear 11 1021 81 10000 1.53 187 11:37 28.10.2021
5734 Clear 7 1022 59 10000 1.34 173 10:23 28.10.2021
5735 Clear 5 1022 61 10000 1.31 169 09:37 28.10.2021
5736 Clear 5 1022 71 10000 1.3 161 08:36 28.10.2021
5737 Fog 4 1021 77 150 0.51 0 07:41 28.10.2021
5738 Clouds 6 1023 91 9000 1.54 310 01:48 28.10.2021
5739 Clear 8 1024 92 10000 0.51 0 22:49 27.10.2021
5740 Clear 8 1024 91 10000 0.51 0 21:53 27.10.2021
5741 Clear 9 1024 91 10000 1.03 80 21:20 27.10.2021
5742 Clear 9 1024 90 10000 1.54 70 20:43 27.10.2021
5743 Clear 10 1024 86 10000 1.03 80 19:46 27.10.2021
5744 Clouds 11 1023 85 10000 0.94 98 18:56 27.10.2021
5745 Clear 15 1024 69 10000 1.54 50 17:49 27.10.2021
5746 Clouds 16 1025 64 10000 1.03 0 16:25 27.10.2021
5747 Clouds 16 1025 64 10000 1.54 70 15:25 27.10.2021
5748 Clouds 16 1026 69 10000 1.54 0 14:24 27.10.2021
5749 Clouds 11 1027 85 10000 0.95 159 11:18 27.10.2021
5750 Clouds 9 1027 90 10000 0.95 159 10:56 27.10.2021
5751 Clouds 6 1028 93 10000 1 186 09:28 27.10.2021
5752 Clouds 5 1027 94 10000 1.06 180 07:46 27.10.2021
5753 Clouds 6 1027 93 10000 1.02 187 05:49 27.10.2021
5754 Clear 7 1026 93 10000 1.03 0 01:26 27.10.2021
5755 Clear 7 1026 95 10000 1.03 0 00:54 27.10.2021
5756 Clear 8 1027 92 10000 1.54 280 23:56 26.10.2021
5757 Clouds 9 1026 91 10000 1.54 280 22:50 26.10.2021
5758 Clouds 9 1026 89 10000 1.54 290 22:27 26.10.2021
5759 Clouds 10 1026 89 10000 1.03 0 21:51 26.10.2021
5760 Clouds 11 1025 90 10000 2.06 320 19:59 26.10.2021
5761 Clouds 11 1025 90 10000 0.51 0 19:22 26.10.2021
5762 Clouds 13 1024 87 10000 0.51 0 18:25 26.10.2021
5763 Clouds 15 1024 81 10000 2.06 20 15:53 26.10.2021
5764 Clouds 15 1024 75 10000 2.57 240 14:18 26.10.2021
5765 Clouds 11 1024 89 10000 1.03 0 11:23 26.10.2021
5766 Clouds 8 1023 92 10000 1.03 0 09:28 26.10.2021
5767 Clouds 8 1022 93 10000 0.51 50 07:23 26.10.2021
5768 Clear 7 1021 86 10000 0.51 0 00:31 26.10.2021
5769 Clear 7 1021 83 10000 1.54 230 23:48 25.10.2021
5770 Clear 8 1020 88 10000 1.03 0 22:35 25.10.2021
5771 Clear 9 1020 85 10000 1.54 280 21:48 25.10.2021
5772 Clear 9 1020 85 10000 2.06 260 21:23 25.10.2021
5773 Clear 10 1020 83 10000 1.03 300 19:44 25.10.2021
5774 Clear 11 1020 79 10000 0.51 0 19:24 25.10.2021
5775 Clear 12 1019 76 10000 0.51 130 18:42 25.10.2021
5776 Clear 15 1020 66 10000 1.03 150 17:42 25.10.2021
5777 Clear 16 1020 55 10000 1.03 90 15:31 25.10.2021
5778 Clear 14 1022 74 10000 1.54 120 13:29 25.10.2021
5779 Clear 9 1022 83 10000 1.03 0 11:25 25.10.2021
5780 Clear 3 1022 93 10000 0.51 0 09:23 25.10.2021
5781 Fog 3 1022 94 7000 1.54 80 07:26 25.10.2021
5782 Fog 3 1022 93 8000 1.03 60 05:24 25.10.2021
5783 Clear 5 1023 89 10000 0.51 0 00:52 25.10.2021
5784 Clear 5 1023 88 10000 1.03 0 00:34 25.10.2021
5785 Clear 6 1023 88 10000 0.51 0 23:44 24.10.2021
5786 Clear 6 1023 89 10000 0.51 0 22:40 24.10.2021
5787 Clear 6 1023 89 10000 0.51 300 22:20 24.10.2021
5788 Clear 7 1023 88 10000 0.51 0 21:33 24.10.2021
5789 Clear 7 1023 86 10000 1.03 70 20:42 24.10.2021
5790 Clear 8 1023 83 10000 0.51 0 19:49 24.10.2021
5791 Clear 11 1023 77 10000 1.5 112 18:30 24.10.2021
5792 Clear 14 1023 57 10000 1.03 0 17:48 24.10.2021
5793 Clear 15 1024 56 10000 0.51 0 15:57 24.10.2021
5794 Clear 15 1024 56 10000 1.54 60 15:20 24.10.2021
5795 Clear 14 1025 62 10000 2.06 80 13:43 24.10.2021
5796 Clear 12 1026 69 10000 1.54 70 12:29 24.10.2021
5797 Clear 9 1026 79 10000 1.54 90 11:36 24.10.2021
5798 Clear 6 1026 80 10000 0.51 0 10:40 24.10.2021
5799 Clear 2 1026 86 10000 2.06 290 08:43 24.10.2021
5800 Clear 3 1027 90 10000 1.03 0 03:30 24.10.2021
5801 Clear 4 1028 90 10000 1.03 0 23:55 23.10.2021
5802 Clear 5 1029 87 10000 0.51 0 22:54 23.10.2021
5803 Clear 6 1029 87 10000 2.06 60 21:20 23.10.2021
5804 Clear 7 1029 82 10000 1.03 0 19:36 23.10.2021
5805 Clear 9 1028 77 10000 1.54 80 18:44 23.10.2021
5806 Clouds 11 1028 63 10000 3.09 20 17:46 23.10.2021
5807 Clouds 12 1028 61 10000 4.63 30 17:18 23.10.2021
5808 Clouds 12 1028 58 10000 2.57 10 15:57 23.10.2021
5809 Clouds 12 1028 66 10000 1.54 0 13:35 23.10.2021
5810 Clear 8 1025 83 10000 2.57 240 02:20 23.10.2021
5811 Clear 8 1024 77 10000 3.6 240 23:41 22.10.2021
5812 Clear 8 1023 75 10000 2.57 210 21:37 22.10.2021
5813 Clouds 9 1023 74 10000 4.12 270 19:43 22.10.2021
5814 Clouds 10 1021 68 10000 5.14 290 18:27 22.10.2021
5815 Clouds 11 1021 54 10000 5.66 270 16:44 22.10.2021
5816 Clouds 12 1020 48 10000 7.2 280 14:58 22.10.2021
5817 Clouds 10 1020 64 10000 5.66 270 12:45 22.10.2021
5818 Clouds 8 1020 64 10000 3.09 240 10:57 22.10.2021
5819 Clear 7 1020 70 10000 3.6 260 10:36 22.10.2021
5820 Clear 5 1019 91 10000 1.03 0 09:35 22.10.2021
5821 Clear 5 1018 91 10000 1.54 250 07:46 22.10.2021
5822 Clear 5 1018 92 10000 2.06 270 07:21 22.10.2021
5823 Clouds 8 1016 92 9000 3.09 290 01:41 22.10.2021
5824 Rain 9 1014 91 10000 2.57 310 23:51 21.10.2021
5825 Rain 10 1013 91 10000 2.57 340 22:44 21.10.2021
5826 Rain 11 1012 81 10000 1.54 230 21:38 21.10.2021
5827 Rain 13 1012 66 10000 3.09 220 20:24 21.10.2021
5828 Rain 13 1012 63 10000 3.09 190 19:56 21.10.2021
5829 Clear 13 1011 61 10000 2.57 190 19:26 21.10.2021
5830 Clear 14 1011 56 10000 3.6 230 18:34 21.10.2021
5831 Clear 14 1011 55 10000 4.63 220 17:53 21.10.2021
5832 Clear 15 1011 53 10000 3.6 240 17:18 21.10.2021
5833 Clouds 15 1012 55 10000 7.72 230 15:33 21.10.2021
5834 Clouds 15 1012 55 10000 9.26 250 14:57 21.10.2021
5835 Clouds 15 1012 51 10000 9.26 250 14:37 21.10.2021
5836 Clouds 13 1012 66 10000 12.86 260 12:37 21.10.2021
5837 Clouds 14 1006 64 10000 8.75 230 09:55 21.10.2021
5838 Clouds 14 1004 68 10000 9.26 230 08:20 21.10.2021
5839 Clouds 14 1003 71 10000 8.75 240 07:23 21.10.2021
5840 Rain 15 1006 88 10000 1.54 240 00:51 21.10.2021
5841 Clear 17 1007 78 10000 2.06 200 22:41 20.10.2021
5842 Clear 17 1008 80 10000 2.06 210 21:51 20.10.2021
5843 Clear 17 1009 79 10000 1.54 180 21:27 20.10.2021
5844 Clear 18 1009 77 10000 2.06 190 20:46 20.10.2021
5845 Clear 18 1009 75 10000 3.09 200 20:26 20.10.2021
5846 Clouds 19 1010 72 10000 1.54 250 19:28 20.10.2021
5847 Clouds 20 1010 69 10000 2.06 220 18:45 20.10.2021
5848 Clear 21 1011 59 10000 3.6 220 17:39 20.10.2021
5849 Clear 22 1013 58 10000 7.2 230 15:26 20.10.2021
5850 Clear 13 1016 85 10000 1.03 0 10:21 20.10.2021
5851 Clear 8 1016 87 10000 1.03 0 07:43 20.10.2021
5852 Clear 9 1020 93 10000 1.03 0 02:41 20.10.2021
5853 Clear 10 1021 89 10000 1.03 110 00:34 20.10.2021
5854 Clouds 10 1022 91 10000 2.24 188 23:32 19.10.2021
5855 Clouds 12 1022 90 10000 1.54 0 21:40 19.10.2021
5856 Clouds 12 1022 93 10000 1.54 140 20:36 19.10.2021
5857 Clouds 13 1022 93 10000 1.03 80 20:18 19.10.2021
5858 Clouds 14 1022 91 10000 1.03 0 19:37 19.10.2021
5859 Clouds 15 1022 89 10000 1.03 0 18:47 19.10.2021
5860 Clouds 16 1022 78 10000 1.03 0 17:56 19.10.2021
5861 Clouds 15 1023 86 10000 1.03 0 15:31 19.10.2021
5862 Rain 15 1024 82 10000 1.03 0 14:46 19.10.2021
5863 Rain 15 1024 82 10000 1.03 0 14:46 19.10.2021
5864 Clouds 14 1024 90 10000 1.54 150 13:57 19.10.2021
5865 Clouds 12 1025 89 10000 3.6 180 12:24 19.10.2021
5866 Clouds 11 1025 92 10000 1.03 0 11:31 19.10.2021
5867 Rain 10 1025 91 10000 1.03 0 09:55 19.10.2021
5868 Clouds 8 1024 93 10000 1.03 70 08:57 19.10.2021
5869 Fog 6 1024 93 10000 1.03 70 04:25 19.10.2021
5870 Clear 8 1025 94 10000 1.03 60 00:23 19.10.2021
5871 Clear 8 1025 93 10000 0.51 160 23:49 18.10.2021
5872 Clear 8 1025 93 10000 1.03 0 23:18 18.10.2021
5873 Clear 8 1025 91 10000 1.54 210 22:31 18.10.2021
5874 Clear 8 1025 91 10000 1.54 210 22:31 18.10.2021
5875 Clear 9 1024 89 10000 2.57 330 20:57 18.10.2021
5876 Clear 9 1024 90 10000 1.54 310 20:33 18.10.2021
5877 Clear 10 1024 89 10000 1.03 300 19:50 18.10.2021
5878 Clear 10 1024 87 10000 0 0 19:29 18.10.2021
5879 Clear 11 1024 85 10000 1.03 0 18:52 18.10.2021
5880 Clear 14 1024 69 10000 1.54 120 15:25 18.10.2021
5881 Clouds 11 1026 81 10000 1.54 100 12:55 18.10.2021
5882 Clouds 9 1026 91 9000 1.03 0 10:36 18.10.2021
5883 Fog 8 1025 93 4500 0.51 0 09:28 18.10.2021
5884 Fog 8 1023 95 700 2.06 260 02:30 18.10.2021
5885 Clouds 9 1023 93 10000 0.51 220 23:30 17.10.2021
5886 Clouds 9 1022 91 7000 0.51 0 21:52 17.10.2021
5887 Clouds 9 1022 93 6000 1.54 340 21:18 17.10.2021
5888 Clouds 9 1021 92 8000 1.54 340 20:38 17.10.2021
5889 Clouds 9 1021 92 10000 2.57 350 19:39 17.10.2021
5890 Clouds 9 1021 92 10000 1.36 349 18:58 17.10.2021
5891 Clouds 11 1020 88 10000 3.09 350 17:34 17.10.2021
5892 Clouds 14 1020 87 10000 3.6 360 15:42 17.10.2021
5893 Clouds 14 1020 80 10000 4.12 20 14:24 17.10.2021
5894 Clouds 14 1020 82 10000 2.57 350 13:42 17.10.2021
5895 Clouds 12 1021 81 10000 1.54 90 11:58 17.10.2021
5896 Fog 10 1021 86 10000 1.03 0 10:43 17.10.2021
5897 Fog 8 1020 92 6000 0.51 0 09:41 17.10.2021
5898 Fog 5 1020 94 7000 0.51 0 07:39 17.10.2021
5899 Fog 6 1020 95 9000 1.54 280 00:55 17.10.2021
5900 Fog 6 1020 92 10000 1.03 260 00:23 17.10.2021
5901 Fog 8 1020 92 10000 0.51 0 21:52 16.10.2021
5902 Clouds 9 1020 90 10000 1.54 340 20:32 16.10.2021
5903 Clouds 9 1020 90 10000 2.06 10 19:55 16.10.2021
5904 Clouds 10 1020 87 10000 2.06 360 19:37 16.10.2021
5905 Clouds 11 1020 86 10000 2.06 360 19:18 16.10.2021
5906 Clouds 12 1020 83 10000 1.54 20 18:42 16.10.2021
5907 Clouds 13 1020 80 10000 2.06 350 18:19 16.10.2021
5908 Clouds 14 1020 79 10000 2.06 350 17:28 16.10.2021
5909 Clouds 15 1020 72 10000 1.03 0 15:38 16.10.2021
5910 Clouds 12 1022 88 10000 0.98 69 12:30 16.10.2021
5911 Clouds 10 1021 91 10000 1.03 0 10:49 16.10.2021
5912 Clouds 8 1021 92 10000 1.03 0 08:54 16.10.2021
5913 Clouds 8 1020 90 10000 1.54 300 01:27 16.10.2021
5914 Clouds 7 1020 90 10000 2.06 300 23:59 15.10.2021
5915 Clouds 8 1020 89 10000 1.54 270 23:25 15.10.2021
5916 Clouds 8 1020 89 10000 1.03 0 22:20 15.10.2021
5917 Clear 8 1020 89 10000 2.57 310 21:32 15.10.2021
5918 Clear 8 1019 88 10000 1.03 0 20:52 15.10.2021
5919 Clear 9 1019 85 10000 2.06 300 20:18 15.10.2021
5920 Clouds 12 1018 77 10000 2.57 310 18:45 15.10.2021
5921 Clouds 13 1018 68 10000 2.06 10 17:59 15.10.2021
5922 Clouds 15 1018 64 10000 3.6 10 15:45 15.10.2021
5923 Clear 15 1019 68 10000 1.54 0 13:39 15.10.2021
5924 Clear 12 1019 79 10000 1.03 0 11:52 15.10.2021
5925 Clear 10 1019 82 10000 0.51 0 10:58 15.10.2021
5926 Clear 7 1019 87 10000 0.51 0 10:19 15.10.2021
5927 Fog 3 1019 93 10000 1.03 70 07:33 15.10.2021
5928 Clear 5 1021 93 10000 0.51 0 02:31 15.10.2021
5929 Clear 6 1023 95 10000 0.51 0 00:22 15.10.2021
5930 Clear 7 1023 92 10000 0.51 10 22:54 14.10.2021
5931 Clear 7 1023 92 10000 1.03 0 22:18 14.10.2021
5932 Clear 7 1024 89 10000 1.03 0 21:37 14.10.2021
5933 Clear 9 1024 87 10000 1.03 0 20:20 14.10.2021
5934 Clear 9 1024 86 10000 1.03 0 19:43 14.10.2021
5935 Clouds 12 1024 79 10000 1.24 147 18:26 14.10.2021
5936 Clouds 14 1025 64 10000 2.06 350 16:58 14.10.2021
5937 Clouds 14 1025 64 10000 1.54 0 16:31 14.10.2021
5938 Clouds 14 1026 62 10000 1.54 0 14:50 14.10.2021
5939 Clouds 13 1026 61 10000 2.57 230 14:26 14.10.2021
5940 Clouds 13 1027 62 10000 1.54 0 13:33 14.10.2021
5941 Clouds 9 1027 82 10000 2.06 0 11:34 14.10.2021
5942 Clouds 5 1028 90 10000 1.65 198 09:24 14.10.2021
5943 Clouds 4 1028 91 10000 1.5 199 06:19 14.10.2021
5944 Clouds 5 1028 92 10000 1.22 214 00:43 14.10.2021
5945 Clear 7 1027 90 10000 0.51 0 22:42 13.10.2021
5946 Clouds 7 1027 89 10000 2.06 260 21:37 13.10.2021
5947 Clouds 8 1027 86 10000 2.06 260 20:45 13.10.2021
5948 Clouds 8 1027 86 10000 2.06 260 20:45 13.10.2021
5949 Clouds 9 1026 84 10000 2.57 290 19:24 13.10.2021
5950 Clouds 9 1026 76 10000 3.6 300 18:38 13.10.2021
5951 Clouds 11 1025 76 10000 6.17 310 17:22 13.10.2021
5952 Clouds 11 1025 78 10000 5.66 340 14:47 13.10.2021
5953 Clouds 10 1025 78 10000 4.12 330 14:25 13.10.2021
5954 Clouds 10 1025 85 10000 2.57 330 12:48 13.10.2021
5955 Clouds 9 1025 87 10000 1.54 0 11:37 13.10.2021
5956 Clouds 8 1024 89 10000 1.54 270 10:18 13.10.2021
5957 Clouds 6 1023 92 10000 2.06 320 07:53 13.10.2021
5958 Clouds 7 1021 90 10000 2.57 340 04:50 13.10.2021
5959 Clouds 7 1020 92 10000 3.6 310 02:22 13.10.2021
5960 Clouds 9 1019 91 10000 4.12 320 23:38 12.10.2021
5961 Clouds 9 1018 92 10000 5.66 280 22:53 12.10.2021
5962 Clouds 9 1018 91 10000 4.12 260 22:34 12.10.2021
5963 Rain 10 1018 93 10000 2.57 250 20:55 12.10.2021
5964 Rain 10 1018 92 10000 2.57 250 20:31 12.10.2021
5965 Clouds 10 1018 91 10000 3.6 250 19:45 12.10.2021
5966 Rain 11 1018 84 10000 3.6 250 18:26 12.10.2021
5967 Clouds 11 1018 82 10000 4.63 270 17:29 12.10.2021
5968 Clouds 12 1018 79 10000 6.69 260 16:24 12.10.2021
5969 Clouds 12 1019 81 10000 4.12 250 15:35 12.10.2021
5970 Clouds 11 1020 91 10000 3.6 230 14:20 12.10.2021
5971 Clouds 11 1020 89 10000 2.57 210 13:41 12.10.2021
5972 Clouds 10 1021 89 10000 2.06 250 11:36 12.10.2021
5973 Clouds 9 1022 92 10000 1.03 0 09:41 12.10.2021
5974 Rain 9 1022 93 9000 0.51 0 08:35 12.10.2021
5975 Rain 8 1022 90 10000 1.54 250 06:46 12.10.2021
5976 Clear 8 1023 90 10000 1.03 0 04:52 12.10.2021
5977 Clear 8 1024 92 10000 2.06 280 04:28 12.10.2021
5978 Clear 8 1025 92 10000 1.03 0 23:59 11.10.2021
5979 Clear 9 1025 92 10000 1.03 0 23:37 11.10.2021
5980 Clear 9 1025 91 10000 1.03 260 22:55 11.10.2021
5981 Clouds 10 1025 88 10000 2.06 310 21:32 11.10.2021
5982 Clouds 11 1025 87 10000 1.54 290 20:32 11.10.2021
5983 Clouds 11 1025 87 10000 3.6 300 19:36 11.10.2021
5984 Clouds 11 1025 84 10000 5.14 320 18:24 11.10.2021
5985 Clouds 13 1025 72 10000 4.12 340 16:48 11.10.2021
5986 Clouds 14 1025 71 10000 4.12 330 16:28 11.10.2021
5987 Clouds 14 1025 64 10000 4.12 320 15:45 11.10.2021
5988 Clouds 14 1025 62 10000 1.54 320 14:54 11.10.2021
5989 Clouds 14 1025 66 10000 1.03 0 14:22 11.10.2021
5990 Clouds 13 1026 69 10000 1.03 0 13:36 11.10.2021
5991 Clear 10 1026 83 10000 1.03 0 11:25 11.10.2021
5992 Clear 6 1026 88 10000 0.51 0 09:47 11.10.2021
5993 Clear 2 1025 92 10000 1.03 0 08:41 11.10.2021
5994 Clear 3 1026 94 10000 0.51 310 03:47 11.10.2021
5995 Clear 4 1026 91 10000 0.51 0 01:34 11.10.2021
5996 Clear 4 1026 91 10000 0 0 00:43 11.10.2021
5997 Clear 5 1026 90 10000 0.51 0 23:52 10.10.2021
5998 Clear 6 1026 89 10000 1.03 0 21:51 10.10.2021
5999 Clear 7 1026 88 10000 1.03 0 21:51 10.10.2021
6000 Clear 7 1026 84 10000 1.54 280 21:28 10.10.2021
6001 Clear 8 1026 84 10000 2.06 270 20:41 10.10.2021
6002 Clear 9 1026 81 10000 2.06 310 20:20 10.10.2021
6003 Clear 9 1025 78 10000 1.03 0 19:52 10.10.2021
6004 Clouds 10 1025 76 10000 1.03 70 19:33 10.10.2021
6005 Clouds 13 1025 64 10000 1.54 50 18:28 10.10.2021
6006 Clouds 15 1025 51 10000 1.54 100 15:57 10.10.2021
6007 Clouds 15 1025 52 10000 1.54 100 15:38 10.10.2021
6008 Clouds 14 1026 59 10000 2.06 90 13:42 10.10.2021
6009 Clear 13 1026 66 10000 1.54 0 12:48 10.10.2021
6010 Clear 13 1027 69 10000 1.03 0 12:30 10.10.2021
6011 Clear 8 1026 84 10000 1.03 0 10:37 10.10.2021
6012 Clear 5 1026 92 10000 0 0 09:29 10.10.2021
6013 Clear 4 1026 93 10000 0.51 20 08:52 10.10.2021
6014 Clear 3 1026 91 10000 1.03 260 06:36 10.10.2021
6015 Clear 5 1026 89 10000 1.54 290 02:29 10.10.2021
6016 Clear 7 1026 89 10000 0.51 0 00:55 10.10.2021
6017 Clear 7 1027 90 10000 2.57 50 23:52 09.10.2021
6018 Clear 8 1027 88 10000 1.54 40 22:45 09.10.2021
6019 Clear 8 1027 88 10000 1.03 50 21:38 09.10.2021
6020 Clear 9 1026 86 10000 0.51 0 21:19 09.10.2021
6021 Clear 11 1026 79 10000 1.54 70 19:43 09.10.2021
6022 Clear 13 1026 67 10000 3.09 70 18:57 09.10.2021
6023 Clear 15 1025 63 10000 4.63 60 18:32 09.10.2021
6024 Clouds 17 1026 57 10000 4.12 30 16:29 09.10.2021
6025 Clouds 17 1026 57 10000 4.12 30 16:29 09.10.2021
6026 Clouds 17 1026 57 10000 4.12 30 16:29 09.10.2021
6027 Clouds 17 1026 57 10000 4.12 30 16:29 09.10.2021
6028 Clouds 17 1026 57 10000 3.09 60 15:28 09.10.2021
6029 Clouds 16 1026 62 10000 4.12 90 13:43 09.10.2021
6030 Clouds 15 1026 71 10000 7.2 70 12:38 09.10.2021
6031 Clouds 13 1026 72 10000 5.66 70 11:43 09.10.2021
6032 Clouds 12 1026 80 10000 5.14 70 10:41 09.10.2021
6033 Clouds 12 1026 80 10000 5.14 70 10:41 09.10.2021
6034 Clear 10 1026 86 10000 1.03 0 09:36 09.10.2021
6035 Clouds 6 1026 93 10000 1.03 320 08:29 09.10.2021
6036 Clouds 6 1025 91 10000 2.06 340 07:46 09.10.2021
6037 Clear 7 1025 91 10000 0.51 0 05:28 09.10.2021
6038 Clear 8 1026 92 10000 1.03 350 02:49 09.10.2021
6039 Clear 8 1026 90 10000 2.06 340 02:21 09.10.2021
6040 Clear 10 1026 88 10000 2.06 40 23:36 08.10.2021
6041 Clear 10 1026 89 10000 1.03 0 22:53 08.10.2021
6042 Clear 10 1026 87 10000 2.57 40 22:22 08.10.2021
6043 Clear 12 1026 88 10000 3.09 20 20:49 08.10.2021
6044 Clouds 14 1026 82 10000 3.09 50 18:51 08.10.2021
6045 Clouds 15 1026 75 10000 4.63 50 17:28 08.10.2021
6046 Clouds 15 1026 74 10000 4.12 50 16:50 08.10.2021
6047 Clouds 15 1026 76 10000 4.63 40 16:23 08.10.2021
6048 Clouds 14 1027 78 10000 3.6 20 13:57 08.10.2021
6049 Clouds 14 1027 84 10000 4.63 20 12:48 08.10.2021
6050 Clouds 12 1027 82 10000 2.57 50 11:31 08.10.2021
6051 Clouds 12 1028 84 10000 3.09 50 10:40 08.10.2021
6052 Clouds 9 1027 94 10000 2.57 330 08:27 08.10.2021
6053 Clear 9 1028 88 10000 0.51 0 23:38 07.10.2021
6054 Clear 9 1028 88 10000 1.03 0 23:18 07.10.2021
6055 Clear 10 1028 89 10000 1.54 30 21:45 07.10.2021
6056 Clear 10 1028 88 10000 3.09 40 21:20 07.10.2021
6057 Clouds 12 1027 83 10000 2.06 50 19:57 07.10.2021
6058 Clouds 13 1027 81 10000 2.57 50 19:28 07.10.2021
6059 Clouds 14 1027 77 10000 3.09 60 18:22 07.10.2021
6060 Clouds 15 1027 73 10000 3.09 30 17:18 07.10.2021
6061 Clouds 14 1027 71 10000 2.57 20 15:34 07.10.2021
6062 Clouds 14 1027 81 10000 1.03 0 13:47 07.10.2021
6063 Clouds 14 1027 81 10000 1.03 0 13:28 07.10.2021
6064 Clouds 13 1027 81 10000 0.51 0 12:40 07.10.2021
6065 Clouds 12 1027 87 10000 1.03 0 10:49 07.10.2021
6066 Clouds 11 1026 88 10000 0.51 0 10:19 07.10.2021
6067 Clouds 11 1026 90 10000 0.51 0 09:32 07.10.2021
6068 Clouds 10 1026 91 10000 0.51 0 08:41 07.10.2021
6069 Clouds 10 1026 91 10000 0.51 0 07:42 07.10.2021
6070 Clouds 10 1025 91 10000 0.51 0 06:59 07.10.2021
6071 Clouds 10 1024 91 10000 1.03 0 02:24 07.10.2021
6072 Clouds 10 1024 87 10000 2.06 210 23:55 06.10.2021
6073 Clouds 10 1024 88 10000 2.06 220 22:50 06.10.2021
6074 Clouds 10 1023 87 10000 2.06 190 21:53 06.10.2021
6075 Rain 11 1023 82 10000 1.54 210 20:35 06.10.2021
6076 Clouds 11 1022 79 10000 4.63 230 19:48 06.10.2021
6077 Clouds 12 1022 78 10000 6.17 290 18:40 06.10.2021
6078 Rain 14 1021 63 10000 5.66 250 16:56 06.10.2021
6079 Clouds 14 1020 77 10000 5.14 260 15:27 06.10.2021
6080 Clouds 14 1020 73 10000 5.14 250 13:55 06.10.2021
6081 Clouds 13 1020 80 10000 3.09 240 12:59 06.10.2021
6082 Clouds 13 1020 78 10000 3.09 240 12:41 06.10.2021
6083 Rain 13 1020 77 10000 5.14 0 12:21 06.10.2021
6084 Clouds 12 1019 84 10000 3.09 200 10:18 06.10.2021
6085 Clouds 11 1019 85 10000 3.6 200 09:39 06.10.2021
6086 Clouds 10 1018 88 10000 3.09 190 08:42 06.10.2021
6087 Clouds 10 1018 89 10000 2.06 200 07:44 06.10.2021
6088 Clouds 10 1016 91 10000 1.54 180 05:26 06.10.2021
6089 Clear 12 1014 85 10000 3.09 240 00:28 06.10.2021
6090 Clear 12 1014 83 10000 3.6 230 23:58 05.10.2021
6091 Clear 13 1014 83 10000 3.6 230 23:39 05.10.2021
6092 Clouds 13 1013 84 10000 5.14 250 23:20 05.10.2021
6093 Clouds 13 1012 87 10000 2.57 250 22:28 05.10.2021
6094 Clear 14 1012 88 10000 2.06 210 21:49 05.10.2021
6095 Rain 14 1011 85 10000 2.57 220 20:48 05.10.2021
6096 Rain 14 1011 84 10000 3.09 240 20:24 05.10.2021
6097 Rain 15 1011 83 10000 2.06 220 19:47 05.10.2021
6098 Clouds 15 1010 76 10000 1.03 0 18:57 05.10.2021
6099 Clouds 18 1010 69 10000 3.6 190 16:49 05.10.2021
6100 Clouds 16 1011 80 10000 2.57 200 14:57 05.10.2021
6101 Clouds 15 1011 85 10000 2.06 190 13:42 05.10.2021
6102 Rain 15 1011 88 10000 1.54 180 12:48 05.10.2021
6103 Clouds 14 1012 89 10000 2.06 240 12:19 05.10.2021
6104 Clouds 13 1012 86 10000 1.54 200 11:21 05.10.2021
6105 Clouds 12 1012 74 10000 0.51 0 09:27 05.10.2021
6106 Rain 12 1013 77 7000 1.03 320 05:36 05.10.2021
6107 Clear 12 1017 93 10000 1.54 310 23:54 04.10.2021
6108 Clouds 12 1017 90 10000 1.54 360 22:39 04.10.2021
6109 Clouds 13 1017 89 10000 1.03 0 20:43 04.10.2021
6110 Clouds 14 1018 90 10000 1.54 30 18:34 04.10.2021
6111 Clouds 14 1019 85 10000 1.54 60 16:39 04.10.2021
6112 Clouds 14 1019 84 10000 1.03 0 15:32 04.10.2021
6113 Clouds 14 1020 88 10000 1.54 90 14:43 04.10.2021
6114 Rain 13 1020 86 10000 1.03 0 13:57 04.10.2021
6115 Rain 13 1020 87 10000 1.03 0 13:30 04.10.2021
6116 Rain 13 1020 93 10000 2.57 310 12:30 04.10.2021
6117 Rain 13 1020 92 10000 2.06 330 11:31 04.10.2021
6118 Rain 12 1020 92 10000 1.54 310 10:34 04.10.2021
6119 Rain 12 1019 94 10000 0.51 0 09:25 04.10.2021
6120 Clouds 12 1018 92 10000 0.51 0 07:52 04.10.2021
6121 Clouds 14 1016 89 10000 1.54 360 03:34 04.10.2021
6122 Clouds 15 1015 90 10000 1.03 0 22:44 03.10.2021
6123 Rain 16 1014 87 10000 3.6 280 21:43 03.10.2021
6124 Rain 16 1013 88 10000 3.6 290 21:24 03.10.2021
6125 Rain 17 1012 87 10000 0.51 0 20:25 03.10.2021
6126 Rain 18 1010 86 10000 2.57 350 19:33 03.10.2021
6127 Rain 19 1008 81 10000 3.6 310 18:28 03.10.2021
6128 Rain 20 1007 80 10000 1.54 110 17:31 03.10.2021
6129 Clear 21 1006 73 10000 1.03 0 14:49 03.10.2021
6130 Clear 21 1006 74 10000 0.51 0 14:28 03.10.2021
6131 Clear 21 1006 69 10000 0.51 0 13:35 03.10.2021
6132 Clear 20 1006 71 10000 0.51 0 12:44 03.10.2021
6133 Clear 19 1006 70 10000 1.03 0 10:58 03.10.2021
6134 Clear 18 1006 73 10000 1.03 0 09:42 03.10.2021
6135 Clear 15 1007 84 10000 0.51 0 05:25 03.10.2021
6136 Clear 16 1009 81 10000 2.06 170 22:52 02.10.2021
6137 Clear 17 1010 78 10000 2.57 170 21:49 02.10.2021
6138 Clear 18 1010 78 10000 2.57 170 20:30 02.10.2021
6139 Clear 21 1010 52 10000 2.57 160 18:56 02.10.2021
6140 Clear 21 1010 52 10000 2.57 160 18:56 02.10.2021
6141 Clear 21 1010 52 10000 2.57 160 18:56 02.10.2021
6142 Clear 22 1010 54 10000 3.09 160 18:20 02.10.2021
6143 Clear 22 1011 49 10000 4.12 170 17:37 02.10.2021
6144 Clear 24 1012 48 10000 3.09 190 16:28 02.10.2021
6145 Clear 11 1017 91 10000 0.51 30 07:30 02.10.2021
6146 Clouds 16 1027 45 10000 1.54 260 15:37 30.09.2021
6147 Clouds 16 1029 49 10000 2.57 250 13:54 30.09.2021
6148 Clouds 14 1029 67 10000 2.57 250 11:54 30.09.2021
6149 Clouds 12 1030 79 10000 2.06 0 10:53 30.09.2021
6150 Clouds 11 1030 80 10000 1.54 220 10:22 30.09.2021
6151 Clouds 6 1029 90 10000 2.57 280 08:31 30.09.2021
6152 Clear 6 1029 91 10000 0.51 0 07:35 30.09.2021
6153 Clear 8 1028 88 10000 0.51 0 05:23 30.09.2021
6154 Clear 9 1028 87 10000 2.57 250 02:19 30.09.2021
6155 Clear 10 1027 86 10000 1.03 0 00:30 30.09.2021
6156 Clouds 12 1025 86 10000 2.06 220 22:39 29.09.2021
6157 Clouds 12 1025 83 10000 2.57 230 21:28 29.09.2021
6158 Clouds 13 1024 81 10000 2.06 220 20:28 29.09.2021
6159 Clouds 13 1023 81 10000 2.57 240 19:56 29.09.2021
6160 Clouds 13 1023 80 10000 3.09 240 18:54 29.09.2021
6161 Rain 13 1022 86 10000 7.2 280 17:58 29.09.2021
6162 Rain 15 1021 83 10000 6.17 270 16:55 29.09.2021
6163 Clouds 16 1020 84 7000 8.75 260 16:22 29.09.2021
6164 Clouds 19 1019 54 10000 5.66 240 14:42 29.09.2021
6165 Clouds 19 1020 54 10000 3.6 220 14:20 29.09.2021
6166 Clouds 18 1020 61 10000 4.63 230 13:32 29.09.2021
6167 Clouds 19 1020 62 10000 5.14 220 12:38 29.09.2021
6168 Clouds 18 1021 66 10000 4.12 220 11:18 29.09.2021
6169 Clouds 17 1021 73 10000 3.09 230 10:27 29.09.2021
6170 Clouds 14 1021 84 10000 2.57 220 09:40 29.09.2021
6171 Clouds 13 1020 87 10000 2.57 230 07:48 29.09.2021
6172 Clouds 13 1020 88 10000 0.51 0 05:52 29.09.2021
6173 Clouds 12 1020 87 10000 1.03 320 23:47 28.09.2021
6174 Clear 12 1020 88 10000 1.03 0 22:25 28.09.2021
6175 Clear 12 1020 85 10000 1.03 50 21:45 28.09.2021
6176 Clear 13 1020 83 10000 1.03 0 20:48 28.09.2021
6177 Clear 15 1020 79 10000 2.06 60 19:48 28.09.2021
6178 Clear 15 1021 76 10000 2.06 50 19:25 28.09.2021
6179 Clouds 17 1021 67 10000 2.57 40 18:40 28.09.2021
6180 Clouds 18 1022 61 10000 2.57 60 16:54 28.09.2021
6181 Clouds 18 1022 61 10000 3.09 80 15:19 28.09.2021
6182 Clouds 17 1024 68 10000 3.09 360 13:25 28.09.2021
6183 Clouds 16 1024 73 10000 2.06 30 12:24 28.09.2021
6184 Clouds 16 1025 78 10000 2.57 20 11:47 28.09.2021
6185 Clouds 16 1025 79 10000 2.06 350 11:27 28.09.2021
6186 Clouds 14 1025 86 10000 2.06 350 10:27 28.09.2021
6187 Clouds 13 1025 90 10000 2.06 360 09:29 28.09.2021
6188 Clouds 12 1025 92 10000 1.03 0 08:43 28.09.2021
6189 Clouds 12 1025 91 10000 1.03 0 08:20 28.09.2021
6190 Clouds 12 1025 90 10000 1.54 260 06:46 28.09.2021
6191 Clouds 16 1022 83 10000 4.63 260 01:38 28.09.2021
6192 Clouds 16 1021 88 10000 1.03 0 00:32 28.09.2021
6193 Clouds 16 1021 88 10000 1.03 0 23:52 27.09.2021
6194 Clouds 17 1021 87 10000 0.51 0 23:25 27.09.2021
6195 Clouds 16 1020 88 10000 0.51 0 22:31 27.09.2021
6196 Clear 17 1020 87 10000 0.51 0 21:38 27.09.2021
6197 Clear 18 1019 82 10000 2.06 240 20:29 27.09.2021
6198 Clear 19 1019 81 10000 2.06 240 19:40 27.09.2021
6199 Clear 21 1018 76 10000 1.03 0 18:55 27.09.2021
6200 Rain 22 1018 67 10000 2.06 250 17:41 27.09.2021
6201 Clouds 22 1018 66 10000 1.54 230 17:21 27.09.2021
6202 Clouds 23 1018 65 10000 2.57 0 16:37 27.09.2021
6203 Clouds 23 1018 65 10000 2.06 240 16:37 27.09.2021
6204 Clouds 23 1018 58 10000 3.09 240 15:39 27.09.2021
6205 Clouds 23 1018 59 10000 2.57 260 13:58 27.09.2021
6206 Clouds 22 1019 66 10000 2.06 250 12:53 27.09.2021
6207 Clouds 19 1019 84 10000 2.06 230 10:51 27.09.2021
6208 Clouds 17 1019 81 10000 1.54 80 09:50 27.09.2021
6209 Fog 14 1019 76 10000 0.51 0 08:32 27.09.2021
6210 Fog 14 1019 92 10000 0.51 0 05:18 27.09.2021
6211 Clear 16 1020 92 10000 1.03 0 00:39 27.09.2021
6212 Clouds 17 1019 88 10000 1.03 200 22:28 26.09.2021
6213 Clear 17 1019 87 10000 1.03 0 21:45 26.09.2021
6214 Clouds 18 1019 86 10000 1.03 0 20:52 26.09.2021
6215 Clouds 18 1019 86 10000 2.57 330 20:20 26.09.2021
6216 Clouds 18 1019 86 10000 2.57 330 20:20 26.09.2021
6217 Clouds 19 1018 85 10000 2.57 290 19:37 26.09.2021
6218 Clouds 19 1018 81 10000 3.09 290 18:45 26.09.2021
6219 Clouds 21 1018 74 10000 3.09 230 17:50 26.09.2021
6220 Clouds 22 1018 56 10000 4.63 230 17:21 26.09.2021
6221 Clouds 21 1018 73 10000 3.09 220 16:30 26.09.2021
6222 Clouds 21 1018 73 10000 2.57 0 15:57 26.09.2021
6223 Clouds 21 1018 84 10000 0.51 0 14:45 26.09.2021
6224 Rain 20 1019 85 10000 1.03 0 13:45 26.09.2021
6225 Rain 21 1019 84 10000 2.06 190 12:56 26.09.2021
6226 Rain 21 1019 83 10000 3.09 200 12:20 26.09.2021
6227 Rain 21 1019 82 10000 3.09 210 11:37 26.09.2021
6228 Clear 19 1018 86 10000 0.51 0 10:23 26.09.2021
6229 Clear 16 1017 93 10000 1.03 0 08:56 26.09.2021
6230 Clear 15 1017 92 10000 1.03 0 06:36 26.09.2021
6231 Clear 17 1017 88 10000 2.06 310 00:22 26.09.2021
6232 Clear 17 1017 86 10000 1.03 0 23:26 25.09.2021
6233 Clear 17 1017 84 10000 1.03 300 22:38 25.09.2021
6234 Clear 18 1017 81 10000 1.03 250 21:55 25.09.2021
6235 Clear 18 1017 80 10000 1.54 300 21:32 25.09.2021
6236 Clear 19 1016 79 10000 1.03 0 20:48 25.09.2021
6237 Clear 22 1016 60 10000 2.06 50 18:59 25.09.2021
6238 Clear 24 1016 58 10000 1.03 50 18:24 25.09.2021
6239 Clear 26 1017 46 10000 1.54 0 15:56 25.09.2021
6240 Clear 24 1018 53 10000 1.54 60 13:58 25.09.2021
6241 Clear 24 1018 54 10000 1.54 60 13:32 25.09.2021
6242 Clear 22 1018 65 10000 1.54 130 12:28 25.09.2021
6243 Clear 17 1019 77 10000 0.51 0 10:36 25.09.2021
6244 Clear 15 1018 82 10000 1.03 0 09:45 25.09.2021
6245 Clear 11 1018 93 10000 1.26 183 08:29 25.09.2021
6246 Fog 9 1018 93 10000 1.03 170 07:20 25.09.2021
6247 Clear 12 1019 91 10000 1.54 290 00:49 25.09.2021
6248 Clear 14 1018 86 10000 1.54 240 21:57 24.09.2021
6249 Clear 16 1018 80 10000 1.03 0 20:50 24.09.2021
6250 Clear 17 1018 75 10000 2.57 310 20:19 24.09.2021
6251 Clear 22 1017 57 10000 0.51 0 18:35 24.09.2021
6252 Clear 22 1017 52 10000 1.54 210 17:56 24.09.2021
6253 Clear 22 1017 52 10000 1.54 210 17:37 24.09.2021
6254 Clouds 23 1018 52 10000 1.03 0 17:19 24.09.2021
6255 Clouds 22 1019 54 10000 2.57 0 14:48 24.09.2021
6256 Clouds 21 1020 65 10000 1.54 0 13:20 24.09.2021
6257 Clouds 20 1020 68 10000 1.03 0 12:41 24.09.2021
6258 Clouds 20 1020 68 10000 0.51 0 12:23 24.09.2021
6259 Clear 16 1020 75 10000 1.03 0 10:28 24.09.2021
6260 Clear 13 1020 87 10000 2.06 260 08:57 24.09.2021
6261 Clear 10 1019 90 10000 3.6 260 07:39 24.09.2021
6262 Clear 10 1019 88 10000 2.06 240 06:51 24.09.2021
6263 Clear 10 1019 87 10000 2.57 250 05:22 24.09.2021
6264 Clear 12 1020 86 10000 1.54 320 00:48 24.09.2021
6265 Clear 14 1019 79 10000 1.03 0 22:36 23.09.2021
6266 Clouds 14 1020 81 10000 1.87 244 21:57 23.09.2021
6267 Clear 15 1019 73 10000 2.57 250 20:37 23.09.2021
6268 Clear 16 1018 68 10000 2.06 240 20:19 23.09.2021
6269 Clear 22 1018 42 10000 5.66 290 18:25 23.09.2021
6270 Clear 23 1019 45 10000 2.57 220 15:37 23.09.2021
6271 Clear 23 1019 47 10000 2.57 220 15:18 23.09.2021
6272 Clear 21 1021 55 10000 2.57 230 13:57 23.09.2021
6273 Clear 20 1021 61 10000 1.54 0 13:23 23.09.2021
6274 Clear 19 1021 63 10000 2.06 170 12:53 23.09.2021
6275 Clear 19 1022 66 10000 1.54 160 12:23 23.09.2021
6276 Clear 18 1022 68 10000 1.54 0 11:56 23.09.2021
6277 Clouds 14 1022 80 10000 1.54 100 10:28 23.09.2021
6278 Clouds 12 1022 85 10000 1.54 120 09:53 23.09.2021
6279 Clear 10 1022 88 10000 0.51 0 08:42 23.09.2021
6280 Clear 7 1024 92 10000 1.03 220 05:29 23.09.2021
6281 Clear 10 1026 87 10000 1.03 0 23:48 22.09.2021
6282 Clear 11 1026 88 10000 1.03 350 22:49 22.09.2021
6283 Clear 11 1026 88 10000 0.51 0 22:18 22.09.2021
6284 Clear 12 1026 87 10000 1.03 0 21:41 22.09.2021
6285 Clear 13 1026 83 10000 1.03 340 20:57 22.09.2021
6286 Clear 15 1026 78 10000 1.54 50 19:34 22.09.2021
6287 Clear 17 1026 68 10000 2.57 50 18:47 22.09.2021
6288 Clouds 18 1027 63 10000 2.57 70 18:23 22.09.2021
6289 Clouds 19 1026 59 10000 2.42 66 16:41 22.09.2021
6290 Clouds 19 1028 58 10000 2.06 90 15:38 22.09.2021
6291 Clouds 18 1028 58 10000 3.09 40 14:25 22.09.2021
6292 Clouds 17 1029 62 10000 1.03 0 12:55 22.09.2021
6293 Clear 14 1030 75 10000 0.51 0 11:18 22.09.2021
6294 Clear 9 1029 87 10000 0.51 0 09:30 22.09.2021
6295 Fog 7 1029 94 9000 0.51 90 08:36 22.09.2021
6296 Fog 6 1029 94 9000 0.51 0 07:31 22.09.2021
6297 Clear 6 1029 94 10000 1.03 70 06:23 22.09.2021
6298 Clear 7 1029 92 10000 0.51 0 05:45 22.09.2021
6299 Clear 7 1029 92 10000 0.51 290 03:59 22.09.2021
6300 Clear 8 1029 91 10000 0.51 0 02:55 22.09.2021
6301 Clear 9 1029 86 10000 1.54 280 23:31 21.09.2021
6302 Clear 10 1029 84 10000 1.54 0 22:26 21.09.2021
6303 Clouds 13 1029 79 10000 2.32 29 20:31 21.09.2021
6304 Clouds 15 1028 71 10000 3.09 350 19:25 21.09.2021
6305 Clouds 16 1027 59 10000 2.71 357 18:35 21.09.2021
6306 Clouds 17 1028 61 10000 3.09 360 16:48 21.09.2021
6307 Clouds 17 1028 57 10000 3.6 360 15:56 21.09.2021
6308 Clouds 17 1028 57 10000 3.09 20 14:59 21.09.2021
6309 Clouds 16 1028 59 10000 3.09 340 14:20 21.09.2021
6310 Clouds 17 1028 56 10000 3.6 350 13:39 21.09.2021
6311 Clouds 16 1028 61 10000 2.57 360 12:44 21.09.2021
6312 Clear 15 1027 67 10000 3.09 10 10:43 21.09.2021
6313 Clear 13 1026 76 10000 1.54 40 09:22 21.09.2021
6314 Clouds 12 1025 87 10000 2.06 10 07:40 21.09.2021
6315 Clouds 13 1024 82 10000 1.03 0 05:18 21.09.2021
6316 Clouds 13 1023 82 10000 1.54 40 23:19 20.09.2021
6317 Clouds 15 1022 77 10000 3.09 20 21:51 20.09.2021
6318 Clouds 15 1022 82 10000 2.06 20 21:30 20.09.2021
6319 Clouds 16 1021 81 10000 2.57 360 19:49 20.09.2021
6320 Clouds 17 1020 79 10000 3.09 360 18:37 20.09.2021
6321 Clouds 18 1019 71 10000 2.06 60 17:30 20.09.2021
6322 Clouds 18 1019 70 10000 2.06 20 16:26 20.09.2021
6323 Clouds 17 1019 73 10000 2.06 40 15:47 20.09.2021
6324 Clouds 17 1019 81 10000 2.06 20 14:50 20.09.2021
6325 Clouds 16 1019 86 10000 1.54 70 12:53 20.09.2021
6326 Clouds 16 1019 86 10000 1.54 60 12:29 20.09.2021
6327 Clouds 15 1018 89 10000 1.54 80 10:57 20.09.2021
6328 Clouds 14 1018 88 10000 1.03 0 09:52 20.09.2021
6329 Clouds 14 1018 89 10000 1.03 0 09:33 20.09.2021
6330 Clouds 14 1018 91 10000 0.51 0 08:55 20.09.2021
6331 Clouds 13 1017 91 10000 0.51 0 06:36 20.09.2021
6332 Clouds 14 1016 87 10000 2.06 80 23:30 19.09.2021
6333 Clouds 15 1015 84 10000 3.09 350 21:53 19.09.2021
6334 Clouds 15 1015 84 10000 2.57 330 21:21 19.09.2021
6335 Clouds 15 1014 79 10000 2.57 340 20:32 19.09.2021
6336 Clouds 18 1013 69 10000 4.63 360 18:57 19.09.2021
6337 Clouds 19 1013 66 10000 5.14 30 17:57 19.09.2021
6338 Clouds 19 1013 66 10000 5.14 350 17:21 19.09.2021
6339 Clouds 20 1013 66 10000 3.6 20 15:45 19.09.2021
6340 Clouds 20 1013 66 10000 2.06 0 14:49 19.09.2021
6341 Clouds 20 1013 63 10000 2.06 0 14:25 19.09.2021
6342 Clouds 20 1014 69 10000 1.54 90 12:57 19.09.2021
6343 Clouds 19 1014 71 10000 1.54 90 12:35 19.09.2021
6344 Clouds 17 1014 76 10000 1.03 0 11:25 19.09.2021
6345 Clear 15 1014 81 10000 1.03 0 10:21 19.09.2021
6346 Clear 13 1013 69 10000 1.03 0 09:26 19.09.2021
6347 Clear 9 1013 76 10000 1.54 270 07:18 19.09.2021
6348 Clear 12 1015 90 10000 1.54 50 02:24 19.09.2021
6349 Clear 14 1015 86 10000 1.03 60 23:27 18.09.2021
6350 Clear 14 1015 86 10000 1.03 50 21:58 18.09.2021
6351 Clear 14 1015 86 10000 1.03 50 21:58 18.09.2021
6352 Clear 15 1015 82 10000 1.03 0 20:48 18.09.2021
6353 Clear 16 1015 79 10000 0.51 0 20:26 18.09.2021
6354 Clear 19 1015 71 10000 2.57 20 19:38 18.09.2021
6355 Clear 19 1015 70 10000 2.57 20 19:20 18.09.2021
6356 Clear 21 1015 57 10000 2.06 10 18:31 18.09.2021
6357 Clouds 22 1015 55 10000 4.12 40 17:23 18.09.2021
6358 Clouds 22 1016 54 10000 2.06 0 15:47 18.09.2021
6359 Clouds 21 1017 55 10000 1.54 0 13:46 18.09.2021
6360 Clouds 21 1017 56 10000 2.06 80 13:25 18.09.2021
6361 Clouds 20 1017 66 10000 1.03 0 12:24 18.09.2021
6362 Clouds 18 1017 73 10000 0.51 0 11:36 18.09.2021
6363 Clear 15 1017 83 10000 1.03 0 10:31 18.09.2021
6364 Clear 13 1017 86 10000 1.03 0 09:26 18.09.2021
6365 Fog 9 1017 94 10000 0.51 0 08:31 18.09.2021
6366 Fog 9 1017 94 10000 0.51 0 08:30 18.09.2021
6367 Fog 9 1017 94 10000 0.51 0 08:30 18.09.2021
6368 Fog 9 1017 94 10000 0.51 0 08:30 18.09.2021
6369 Clouds 11 1016 91 10000 0.97 179 00:56 18.09.2021
6370 Clouds 12 1017 90 10000 1.06 182 00:35 18.09.2021
6371 Clouds 13 1017 89 10000 1.06 182 23:44 17.09.2021
6372 Clouds 13 1016 90 10000 1.32 182 22:32 17.09.2021
6373 Clear 14 1016 87 10000 1.03 0 21:48 17.09.2021
6374 Clear 16 1016 80 10000 0.51 0 20:18 17.09.2021
6375 Clouds 19 1016 58 10000 1.03 0 18:45 17.09.2021
6376 Clouds 20 1016 53 10000 1.03 0 16:50 17.09.2021
6377 Clouds 20 1016 58 10000 1.03 0 15:50 17.09.2021
6378 Clouds 18 1017 72 10000 1.03 0 12:32 17.09.2021
6379 Clouds 15 1018 72 10000 1.03 0 10:40 17.09.2021
6380 Clouds 13 1018 76 10000 1.03 0 08:19 17.09.2021
6381 Clouds 13 1017 75 10000 0.51 0 06:43 17.09.2021
6382 Clouds 12 1018 90 10000 1.54 260 00:39 17.09.2021
6383 Clouds 14 1018 86 10000 1.03 0 22:46 16.09.2021
6384 Clouds 15 1018 86 10000 0.51 230 22:24 16.09.2021
6385 Clouds 15 1018 85 10000 2.06 330 21:39 16.09.2021
6386 Clouds 16 1018 82 10000 4.12 350 20:43 16.09.2021
6387 Clouds 17 1017 83 10000 3.6 340 19:36 16.09.2021
6388 Clouds 18 1017 83 10000 4.63 330 18:19 16.09.2021
6389 Clouds 18 1017 84 10000 3.6 340 17:22 16.09.2021
6390 Clouds 17 1017 89 10000 4.12 330 14:53 16.09.2021
6391 Clouds 17 1017 90 10000 5.14 320 13:48 16.09.2021
6392 Clouds 17 1017 91 9000 4.12 340 12:47 16.09.2021
6393 Clouds 17 1017 75 5000 4.63 330 12:27 16.09.2021
6394 Rain 18 1016 74 10000 5.66 320 11:25 16.09.2021
6395 Rain 18 1016 73 10000 1.03 0 10:30 16.09.2021
6396 Rain 18 1015 73 10000 0.51 0 09:53 16.09.2021
6397 Clouds 17 1015 76 10000 0.51 170 08:42 16.09.2021
6398 Rain 17 1015 73 10000 0.51 0 07:22 16.09.2021
6399 Clouds 17 1015 73 10000 0.51 0 06:39 16.09.2021
6400 Clouds 18 1015 89 10000 0.51 230 04:34 16.09.2021
6401 Clear 17 1015 89 10000 1.03 0 01:26 16.09.2021
6402 Clear 17 1015 89 10000 1.03 0 01:26 16.09.2021
6403 Clear 18 1015 89 10000 1.03 0 23:35 15.09.2021
6404 Clouds 19 1015 87 10000 2.06 0 22:47 15.09.2021
6405 Clouds 20 1015 84 10000 3.09 0 21:44 15.09.2021
6406 Clouds 20 1015 85 10000 1.54 220 21:25 15.09.2021
6407 Clouds 20 1014 82 10000 2.06 190 19:51 15.09.2021
6408 Rain 20 1014 82 10000 2.06 210 19:19 15.09.2021
6409 Rain 21 1014 84 10000 3.09 200 17:49 15.09.2021
6410 Clouds 22 1014 83 10000 2.06 200 16:54 15.09.2021
6411 Rain 22 1014 84 10000 2.06 0 15:33 15.09.2021
6412 Clouds 21 1015 85 10000 2.06 190 14:44 15.09.2021
6413 Rain 20 1015 87 10000 2.57 200 13:51 15.09.2021
6414 Clouds 20 1015 88 10000 2.57 200 13:29 15.09.2021
6415 Rain 20 1015 91 10000 3.09 190 12:44 15.09.2021
6416 Rain 19 1016 90 10000 4.12 210 11:52 15.09.2021
6417 Rain 19 1016 90 10000 5.14 240 11:21 15.09.2021
6418 Rain 19 1015 90 10000 2.06 190 10:55 15.09.2021
6419 Clouds 19 1015 92 10000 1.03 0 09:28 15.09.2021
6420 Rain 19 1015 89 10000 1.54 220 07:48 15.09.2021
6421 Rain 19 1015 91 10000 0.51 100 04:24 15.09.2021
6422 Clear 20 1015 87 10000 1.03 0 23:45 14.09.2021
6423 Rain 21 1016 85 10000 1.03 0 21:41 14.09.2021
6424 Clear 22 1015 84 10000 0.51 0 20:39 14.09.2021
6425 Clouds 24 1015 74 10000 0.51 0 19:42 14.09.2021
6426 Clouds 26 1015 63 10000 1.54 10 17:40 14.09.2021
6427 Clouds 26 1015 62 10000 1.54 10 17:40 14.09.2021
6428 Clouds 26 1015 62 10000 2.57 10 16:59 14.09.2021
6429 Clouds 27 1015 58 10000 2.06 0 15:37 14.09.2021
6430 Clouds 27 1016 58 10000 2.57 240 14:31 14.09.2021
6431 Clouds 26 1016 62 10000 1.03 0 12:45 14.09.2021
6432 Clear 22 1016 76 10000 1.03 0 10:54 14.09.2021
6433 Clear 20 1016 81 10000 1.03 0 09:51 14.09.2021
6434 Clear 16 1016 91 10000 1.03 80 08:41 14.09.2021
6435 Clear 14 1016 93 10000 0.51 0 06:38 14.09.2021
6436 Clear 16 1017 89 10000 0.51 0 00:33 14.09.2021
6437 Clear 17 1017 88 10000 0.51 0 22:53 13.09.2021
6438 Clear 18 1017 86 10000 1.03 0 22:24 13.09.2021
6439 Clear 18 1017 84 10000 1.54 330 21:51 13.09.2021
6440 Clouds 19 1017 83 10000 1.04 56 20:51 13.09.2021
6441 Clouds 23 1016 65 10000 1.03 0 19:22 13.09.2021
6442 Clouds 24 1016 62 10000 2.06 90 18:43 13.09.2021
6443 Clouds 26 1017 52 10000 1.54 0 16:51 13.09.2021
6444 Clouds 25 1017 54 10000 2.06 70 15:32 13.09.2021
6445 Clouds 24 1018 59 10000 1.03 130 13:32 13.09.2021
6446 Clouds 21 1019 73 10000 1.03 0 10:58 13.09.2021
6447 Clouds 21 1019 73 10000 1.03 0 10:58 13.09.2021
6448 Clouds 17 1018 82 10000 0.51 0 09:41 13.09.2021
6449 Fog 13 1018 93 10000 0.51 0 07:27 13.09.2021
6450 Clear 15 1018 92 10000 0.51 0 23:44 12.09.2021
6451 Clouds 15 1018 89 10000 0.96 120 22:26 12.09.2021
6452 Clouds 16 1018 88 10000 0.96 120 22:26 12.09.2021
6453 Clear 17 1018 85 10000 0.51 0 21:37 12.09.2021
6454 Clear 18 1018 79 10000 1.03 0 20:34 12.09.2021
6455 Clouds 20 1017 69 10000 1.54 20 19:54 12.09.2021
6456 Clouds 21 1016 67 10000 1.81 12 19:28 12.09.2021
6457 Clouds 23 1017 58 10000 1.03 0 18:29 12.09.2021
6458 Clouds 23 1018 58 10000 3.09 40 16:33 12.09.2021
6459 Clouds 23 1019 59 10000 2.06 90 14:59 12.09.2021
6460 Clouds 22 1019 60 10000 2.06 50 13:49 12.09.2021
6461 Clouds 20 1020 80 10000 1.03 0 11:31 12.09.2021
6462 Fog 16 1020 87 9000 0.51 0 09:41 12.09.2021
6463 Fog 14 1020 92 6000 0.51 0 08:38 12.09.2021
6464 Fog 15 1020 94 10000 1.03 150 02:39 12.09.2021
6465 Clear 16 1020 92 10000 0.51 0 23:52 11.09.2021
6466 Clouds 17 1020 92 10000 1.03 0 22:25 11.09.2021
6467 Clouds 18 1019 91 10000 1.54 220 21:36 11.09.2021
6468 Clouds 20 1019 88 10000 4.63 280 19:25 11.09.2021
6469 Rain 22 1019 77 10000 1.54 160 17:52 11.09.2021
6470 Clouds 22 1019 73 10000 1.54 0 15:52 11.09.2021
6471 Rain 23 1019 70 10000 2.06 0 13:52 11.09.2021
6472 Rain 23 1019 71 10000 2.06 130 13:19 11.09.2021
6473 Clouds 20 1020 84 10000 1.54 0 11:34 11.09.2021
6474 Clouds 18 1019 89 10000 1.03 0 09:41 11.09.2021
6475 Clouds 17 1019 92 10000 2.06 180 07:50 11.09.2021
6476 Clouds 17 1019 92 10000 2.06 0 07:28 11.09.2021
6477 Clouds 18 1018 90 10000 0.94 211 00:49 11.09.2021
6478 Clear 19 1018 85 10000 1.03 0 22:25 10.09.2021
6479 Clear 19 1018 84 10000 1.54 260 21:54 10.09.2021
6480 Clouds 21 1017 80 10000 2.57 250 20:31 10.09.2021
6481 Clouds 23 1016 74 10000 3.6 250 18:28 10.09.2021
6482 Clouds 24 1016 68 10000 5.14 250 16:57 10.09.2021
6483 Clouds 25 1016 56 10000 3.6 250 14:52 10.09.2021
6484 Clouds 25 1017 57 10000 2.57 0 13:18 10.09.2021
6485 Clear 20 1016 77 10000 0.51 0 09:50 10.09.2021
6486 Clear 15 1016 91 10000 0.51 60 07:51 10.09.2021
6487 Clear 16 1016 86 10000 0.51 0 03:43 10.09.2021
6488 Clear 19 1016 78 10000 2.57 250 22:33 09.09.2021
6489 Clear 20 1015 76 10000 2.06 240 21:46 09.09.2021
6490 Clear 21 1015 73 10000 2.57 240 20:47 09.09.2021
6491 Clear 21 1014 71 10000 2.06 240 20:21 09.09.2021
6492 Clear 25 1014 50 10000 4.63 250 18:35 09.09.2021
6493 Clouds 27 1014 51 10000 3.6 240 16:41 09.09.2021
6494 Clouds 27 1014 51 10000 3.6 240 16:21 09.09.2021
6495 Clear 26 1015 55 10000 3.09 210 13:22 09.09.2021
6496 Clear 25 1015 61 10000 4.12 240 11:49 09.09.2021
6497 Clear 22 1014 75 10000 1.54 100 10:31 09.09.2021
6498 Clear 17 1014 85 10000 1.03 0 08:58 09.09.2021
6499 Clear 15 1014 92 10000 0.51 80 06:50 09.09.2021
6500 Clear 15 1014 90 10000 0.51 0 03:44 09.09.2021
6501 Clear 18 1014 83 10000 0.51 80 22:53 08.09.2021
6502 Clear 18 1014 81 10000 1.54 100 21:39 08.09.2021
6503 Clear 21 1014 66 10000 2.57 70 20:19 08.09.2021
6504 Clear 24 1014 54 10000 2.57 80 19:29 08.09.2021
6505 Clear 26 1015 47 10000 2.06 80 18:31 08.09.2021
6506 Clear 26 1015 47 10000 2.06 80 18:30 08.09.2021
6507 Clear 26 1015 44 10000 2.06 80 17:57 08.09.2021
6508 Clear 26 1015 41 10000 2.06 40 16:55 08.09.2021
6509 Clear 25 1017 48 10000 2.06 110 14:30 08.09.2021
6510 Clear 25 1017 48 10000 2.06 110 14:30 08.09.2021
6511 Clear 25 1017 48 10000 2.06 110 14:30 08.09.2021
6512 Clear 25 1017 48 10000 2.06 110 14:30 08.09.2021
6513 Clear 24 1018 54 10000 2.57 60 12:57 08.09.2021
6514 Clear 23 1018 54 10000 2.06 90 12:28 08.09.2021
6515 Clear 22 1018 57 10000 2.06 70 11:38 08.09.2021
6516 Clear 20 1019 68 10000 2.57 80 10:50 08.09.2021
6517 Clear 19 1019 67 10000 2.06 100 10:25 08.09.2021
6518 Clear 16 1019 82 10000 1.03 0 09:21 08.09.2021
6519 Clear 12 1019 87 10000 1.03 300 07:38 08.09.2021
6520 Clear 12 1020 90 10000 1.54 320 05:35 08.09.2021
6521 Clear 16 1022 83 10000 1.03 60 22:51 07.09.2021
6522 Clear 17 1022 83 10000 1.03 0 22:18 07.09.2021
6523 Clear 20 1021 71 10000 1.03 110 20:27 07.09.2021
6524 Clear 24 1022 52 10000 2.06 100 18:46 07.09.2021
6525 Clear 25 1022 47 10000 2.57 110 18:21 07.09.2021
6526 Clear 25 1023 45 10000 3.09 90 16:56 07.09.2021
6527 Clear 26 1023 44 10000 3.6 80 15:43 07.09.2021
6528 Clear 26 1024 45 10000 2.06 80 14:44 07.09.2021
6529 Clear 24 1025 54 10000 1.03 0 12:45 07.09.2021
6530 Clear 24 1025 53 10000 1.03 0 12:45 07.09.2021
6531 Clear 24 1025 54 10000 1.03 0 12:45 07.09.2021
6532 Clear 22 1025 64 10000 1.03 0 11:51 07.09.2021
6533 Clear 19 1025 71 10000 1.03 0 10:43 07.09.2021
6534 Clear 12 1024 90 10000 0.51 0 08:40 07.09.2021
6535 Clear 12 1024 96 10000 1.03 70 07:44 07.09.2021
6536 Clear 12 1024 92 10000 1.03 120 05:46 07.09.2021
6537 Clear 14 1024 87 10000 0.51 260 02:38 07.09.2021
6538 Clear 15 1024 87 10000 1.03 0 00:53 07.09.2021
6539 Clear 16 1024 85 10000 0.51 350 23:43 06.09.2021
6540 Clear 16 1024 83 10000 0.51 30 23:20 06.09.2021
6541 Clear 16 1024 81 10000 1.03 0 22:45 06.09.2021
6542 Clear 18 1024 76 10000 0.51 0 21:31 06.09.2021
6543 Clear 23 1023 55 10000 1.54 90 19:32 06.09.2021
6544 Clear 24 1023 47 10000 3.09 90 18:58 06.09.2021
6545 Clear 26 1023 43 10000 2.06 90 18:27 06.09.2021
6546 Clear 26 1023 42 10000 2.06 90 17:36 06.09.2021
6547 Clear 26 1024 42 10000 3.6 70 15:58 06.09.2021
6548 Clouds 26 1024 45 10000 1.54 0 14:26 06.09.2021
6549 Clouds 25 1024 52 10000 3.09 80 12:48 06.09.2021
6550 Clear 22 1024 64 10000 1.03 0 11:33 06.09.2021
6551 Clear 17 1024 76 10000 0.51 0 09:59 06.09.2021
6552 Fog 11 1023 92 10000 0.51 0 07:34 06.09.2021
6553 Clear 14 1022 89 10000 1.03 0 01:32 06.09.2021
6554 Clear 16 1022 82 10000 0.51 140 23:20 05.09.2021
6555 Clear 16 1022 79 10000 0.51 0 22:31 05.09.2021
6556 Clear 17 1021 78 10000 1.54 60 21:55 05.09.2021
6557 Clear 18 1021 77 10000 1.54 70 21:19 05.09.2021
6558 Clear 24 1020 48 10000 3.09 80 19:23 05.09.2021
6559 Clear 26 1020 42 10000 3.6 80 17:51 05.09.2021
6560 Clear 26 1020 41 10000 1.54 0 15:40 05.09.2021
6561 Clear 26 1020 45 10000 2.06 90 14:45 05.09.2021
6562 Clouds 24 1021 58 10000 1.03 0 12:34 05.09.2021
6563 Clear 22 1021 66 10000 1.03 0 11:22 05.09.2021
6564 Clear 20 1020 73 10000 1.03 0 10:34 05.09.2021
6565 Clear 16 1020 83 10000 0.51 0 09:26 05.09.2021
6566 Clear 13 1020 90 10000 0.51 0 08:26 05.09.2021
6567 Clear 13 1018 88 10000 0.51 290 03:21 05.09.2021
6568 Clear 14 1018 88 10000 1.03 280 00:34 05.09.2021
6569 Clear 15 1018 86 10000 2.06 300 23:52 04.09.2021
6570 Clear 15 1018 85 10000 1.03 0 22:55 04.09.2021
6571 Clear 16 1018 84 10000 1.03 0 22:34 04.09.2021
6572 Clear 21 1016 59 10000 1.54 70 19:59 04.09.2021
6573 Clear 23 1016 55 10000 1.54 70 19:32 04.09.2021
6574 Clear 26 1017 39 10000 2.06 90 16:48 04.09.2021
6575 Clouds 25 1017 49 10000 1.03 40 14:28 04.09.2021
6576 Clouds 21 1018 68 10000 1.03 0 11:22 04.09.2021
6577 Clear 18 1018 81 10000 0.51 0 10:27 04.09.2021
6578 Fog 11 1017 94 10000 1.03 50 07:30 04.09.2021
6579 Clear 13 1018 86 10000 1.03 290 00:48 04.09.2021
6580 Clear 15 1018 86 10000 1.03 0 23:32 03.09.2021
6581 Clear 15 1018 85 10000 0.51 0 22:57 03.09.2021
6582 Clear 16 1018 82 10000 1.54 300 21:37 03.09.2021
6583 Clear 18 1018 82 10000 1.35 105 20:53 03.09.2021
6584 Clear 20 1018 63 10000 1.54 40 20:19 03.09.2021
6585 Clear 23 1018 54 10000 1.54 70 19:30 03.09.2021
6586 Clear 24 1017 48 10000 2.02 100 18:20 03.09.2021
6587 Clouds 25 1019 46 10000 1.54 0 16:46 03.09.2021
6588 Clouds 25 1019 49 10000 1.54 0 15:38 03.09.2021
6589 Clear 23 1020 58 10000 2.36 102 13:24 03.09.2021
6590 Clear 18 1021 77 10000 1.54 70 10:45 03.09.2021
6591 Clear 14 1021 84 10000 1.03 0 09:21 03.09.2021
6592 Clear 11 1021 91 10000 1.03 0 07:54 03.09.2021
6593 Clear 10 1021 92 10000 0.51 0 06:26 03.09.2021
6594 Clear 14 1023 88 10000 1.03 290 23:56 02.09.2021
6595 Clear 16 1023 82 10000 0.51 120 21:49 02.09.2021
6596 Clear 19 1023 67 10000 2.57 90 20:25 02.09.2021
6597 Clear 23 1024 51 10000 3.6 80 17:41 02.09.2021
6598 Clear 24 1024 48 10000 4.63 80 16:20 02.09.2021
6599 Clouds 23 1025 49 10000 4.12 100 15:29 02.09.2021
6600 Clouds 22 1025 56 10000 5.14 80 13:28 02.09.2021
6601 Clear 20 1026 67 10000 3.09 70 11:43 02.09.2021
6602 Clear 17 1026 76 10000 1.54 80 10:53 02.09.2021
6603 Clear 13 1025 90 10000 0.51 0 08:57 02.09.2021
6604 Clear 9 1025 92 10000 1.03 0 07:22 02.09.2021
6605 Clear 9 1025 92 10000 1.54 330 05:31 02.09.2021
6606 Clear 11 1026 92 10000 1.54 320 02:36 02.09.2021
6607 Clear 11 1026 91 10000 1.54 340 01:48 02.09.2021
6608 Clear 13 1026 88 10000 1.03 0 23:41 01.09.2021
6609 Clear 14 1026 87 10000 1.03 60 22:42 01.09.2021
6610 Clear 15 1026 83 10000 1.03 0 21:46 01.09.2021
6611 Clouds 16 1025 80 10000 2.57 40 20:54 01.09.2021
6612 Clouds 20 1025 61 10000 3.09 60 19:24 01.09.2021
6613 Clouds 21 1025 55 10000 4.12 70 17:51 01.09.2021
6614 Clouds 21 1025 55 10000 4.12 70 17:51 01.09.2021
6615 Clouds 22 1026 53 10000 4.63 50 16:58 01.09.2021
6616 Clouds 22 1026 56 10000 3.09 90 16:35 01.09.2021
6617 Clouds 21 1026 64 10000 2.57 60 13:57 01.09.2021
6618 Clouds 18 1027 88 10000 1.03 0 11:47 01.09.2021
6619 Clouds 18 1027 88 10000 1.03 0 11:47 01.09.2021
6620 Fog 14 1027 51 150 0.51 100 09:41 01.09.2021
6621 Fog 11 1026 94 150 1.03 0 07:58 01.09.2021
6622 Fog 10 1026 94 150 0.51 0 06:42 01.09.2021
6623 Clear 13 1025 91 10000 1.54 300 23:29 31.08.2021
6624 Clouds 15 1024 90 10000 2.06 310 21:45 31.08.2021
6625 Clouds 17 1023 84 10000 2.06 330 19:49 31.08.2021
6626 Clouds 19 1023 74 10000 2.57 320 18:59 31.08.2021
6627 Clouds 19 1023 76 10000 2.57 340 17:39 31.08.2021
6628 Clouds 19 1023 76 10000 2.73 21 17:21 31.08.2021
6629 Rain 19 1023 79 10000 3.09 350 16:28 31.08.2021
6630 Clouds 18 1023 75 10000 3.09 340 14:57 31.08.2021
6631 Clouds 17 1022 84 10000 3.09 350 11:41 31.08.2021
6632 Clouds 16 1022 86 10000 3.09 350 11:18 31.08.2021
6633 Clouds 16 1022 86 10000 2.57 350 10:42 31.08.2021
6634 Clouds 15 1021 88 10000 3.09 350 09:41 31.08.2021
6635 Clouds 14 1021 91 9000 2.06 330 07:39 31.08.2021
6636 Clouds 14 1020 92 10000 2.57 340 05:56 31.08.2021
6637 Clouds 15 1019 92 10000 3.09 300 23:36 30.08.2021
6638 Clouds 15 1019 93 10000 3.6 300 22:32 30.08.2021
6639 Clouds 16 1019 92 10000 2.06 290 21:35 30.08.2021
6640 Clouds 16 1018 92 10000 3.09 310 20:40 30.08.2021
6641 Clouds 17 1017 90 10000 4.12 290 19:33 30.08.2021
6642 Rain 17 1017 89 10000 3.09 300 18:58 30.08.2021
6643 Clouds 17 1017 88 10000 4.12 330 17:49 30.08.2021
6644 Clouds 17 1017 91 10000 5.14 330 16:27 30.08.2021
6645 Rain 17 1017 90 10000 5.66 340 15:40 30.08.2021
6646 Clouds 17 1017 90 10000 4.12 320 13:55 30.08.2021
6647 Rain 16 1016 91 8000 5.66 310 12:54 30.08.2021
6648 Rain 15 1016 88 10000 5.14 310 10:42 30.08.2021
6649 Clouds 14 1016 90 10000 3.09 270 03:24 30.08.2021
6650 Drizzle 14 1017 93 10000 2.57 260 21:35 29.08.2021
6651 Clouds 14 1016 90 10000 3.6 280 20:46 29.08.2021
6652 Clouds 14 1016 91 10000 4.12 290 19:27 29.08.2021
6653 Rain 15 1016 91 8000 4.63 310 17:58 29.08.2021
6654 Rain 15 1016 91 10000 5.66 300 15:58 29.08.2021
6655 Rain 15 1016 91 10000 5.66 300 14:27 29.08.2021
6656 Clouds 15 1016 91 9000 4.12 320 13:55 29.08.2021
6657 Drizzle 14 1016 93 2800 1.03 0 12:43 29.08.2021
6658 Drizzle 14 1016 93 2000 1.54 150 11:59 29.08.2021
6659 Drizzle 14 1016 93 2000 1.54 150 11:39 29.08.2021
6660 Drizzle 13 1017 93 2700 2.06 0 10:46 29.08.2021
6661 Drizzle 13 1016 90 2800 1.54 170 10:28 29.08.2021
6662 Clouds 13 1017 91 3500 1.03 0 09:26 29.08.2021
6663 Rain 12 1018 92 10000 0.51 0 03:26 29.08.2021
6664 Clouds 13 1019 89 10000 1.54 250 22:43 28.08.2021
6665 Clouds 15 1018 81 10000 3.09 300 20:31 28.08.2021
6666 Clouds 16 1018 72 10000 2.57 300 19:19 28.08.2021
6667 Clouds 16 1018 72 10000 4.63 270 18:22 28.08.2021
6668 Clouds 16 1018 72 10000 5.14 270 17:45 28.08.2021
6669 Clouds 16 1018 77 10000 4.63 250 16:28 28.08.2021
6670 Clouds 16 1018 67 10000 2.06 310 14:51 28.08.2021
6671 Clouds 15 1018 79 10000 2.57 340 13:47 28.08.2021
6672 Rain 15 1018 84 10000 3.09 340 12:47 28.08.2021
6673 Rain 15 1017 84 10000 3.6 360 12:24 28.08.2021
6674 Clouds 15 1017 81 10000 4.63 360 10:45 28.08.2021
6675 Clouds 14 1017 85 10000 3.6 330 09:34 28.08.2021
6676 Clouds 14 1017 89 6000 3.09 300 07:26 28.08.2021
6677 Clouds 14 1017 87 10000 3.6 280